<?xml version="1.0" encoding="UTF-8" standalone="no" ?>
<gpx xmlns="http://www.topografix.com/GPX/1/1" xmlns:xsi="http://www.w3.org/2001/XMLSchema-instance" xsi:schemaLocation="http://www.topografix.com/GPX/1/1 http://www.topografix.com/GPX/1/1/gpx.xsd" version="1.1" creator="VisuGPX - https://www.visugpx.com">
  <metadata>
    <name>CheviChamplive</name>
  </metadata>
  <trk>
    <name><![CDATA[CheviChamplive_1]]></name>
    <extensions>
      <line xmlns="http://www.topografix.com/GPX/gpx_style/0/2">
        <color>0000FF</color>
        <width>4</width>
      </line>
    </extensions>
    <trkseg>
      <trkpt lat="47.22952" lon="6.04789">
        <ele>296.4</ele>
        <time>2022-09-12T11:34:55Z</time>
      </trkpt>
      <trkpt lat="47.22951" lon="6.04783">
        <ele>296.2</ele>
        <time>2022-09-12T11:34:51Z</time>
      </trkpt>
      <trkpt lat="47.22951" lon="6.04782">
        <ele>296.2</ele>
        <time>2022-09-12T11:34:50Z</time>
      </trkpt>
      <trkpt lat="47.22952" lon="6.04776">
        <ele>296</ele>
        <time>2022-09-12T11:34:46Z</time>
      </trkpt>
      <trkpt lat="47.22951" lon="6.04773">
        <ele>296</ele>
        <time>2022-09-12T11:34:44Z</time>
      </trkpt>
      <trkpt lat="47.2295" lon="6.0477">
        <ele>295.4</ele>
        <time>2022-09-12T11:34:42Z</time>
      </trkpt>
      <trkpt lat="47.22947" lon="6.04763">
        <ele>294.2</ele>
        <time>2022-09-12T11:34:38Z</time>
      </trkpt>
      <trkpt lat="47.22946" lon="6.04759">
        <ele>293.8</ele>
        <time>2022-09-12T11:34:36Z</time>
      </trkpt>
      <trkpt lat="47.22943" lon="6.04753">
        <ele>293.2</ele>
        <time>2022-09-12T11:34:33Z</time>
      </trkpt>
      <trkpt lat="47.22942" lon="6.04747">
        <ele>292</ele>
        <time>2022-09-12T11:34:30Z</time>
      </trkpt>
      <trkpt lat="47.22941" lon="6.04745">
        <ele>291.6</ele>
        <time>2022-09-12T11:34:29Z</time>
      </trkpt>
      <trkpt lat="47.2294" lon="6.04741">
        <ele>290.6</ele>
        <time>2022-09-12T11:34:27Z</time>
      </trkpt>
      <trkpt lat="47.22938" lon="6.04736">
        <ele>289.4</ele>
        <time>2022-09-12T11:34:24Z</time>
      </trkpt>
      <trkpt lat="47.22937" lon="6.04733">
        <ele>288.2</ele>
        <time>2022-09-12T11:34:22Z</time>
      </trkpt>
      <trkpt lat="47.22936" lon="6.04729">
        <ele>287.2</ele>
        <time>2022-09-12T11:34:20Z</time>
      </trkpt>
      <trkpt lat="47.22934" lon="6.04724">
        <ele>285.8</ele>
        <time>2022-09-12T11:34:17Z</time>
      </trkpt>
      <trkpt lat="47.22933" lon="6.0472">
        <ele>284.4</ele>
        <time>2022-09-12T11:34:15Z</time>
      </trkpt>
      <trkpt lat="47.22931" lon="6.04718">
        <ele>283.8</ele>
        <time>2022-09-12T11:34:13Z</time>
      </trkpt>
      <trkpt lat="47.22931" lon="6.04716">
        <ele>283.4</ele>
        <time>2022-09-12T11:34:12Z</time>
      </trkpt>
      <trkpt lat="47.22929" lon="6.04712">
        <ele>282.4</ele>
        <time>2022-09-12T11:34:10Z</time>
      </trkpt>
      <trkpt lat="47.22927" lon="6.04706">
        <ele>281</ele>
        <time>2022-09-12T11:34:07Z</time>
      </trkpt>
      <trkpt lat="47.22925" lon="6.04699">
        <ele>280</ele>
        <time>2022-09-12T11:34:04Z</time>
      </trkpt>
      <trkpt lat="47.22923" lon="6.04692">
        <ele>278.8</ele>
        <time>2022-09-12T11:34:00Z</time>
      </trkpt>
      <trkpt lat="47.22919" lon="6.04684">
        <ele>277.4</ele>
        <time>2022-09-12T11:33:56Z</time>
      </trkpt>
      <trkpt lat="47.22916" lon="6.04677">
        <ele>276.4</ele>
        <time>2022-09-12T11:33:52Z</time>
      </trkpt>
      <trkpt lat="47.22913" lon="6.0467">
        <ele>275.4</ele>
        <time>2022-09-12T11:33:48Z</time>
      </trkpt>
      <trkpt lat="47.22913" lon="6.04667">
        <ele>275.2</ele>
        <time>2022-09-12T11:33:47Z</time>
      </trkpt>
      <trkpt lat="47.22909" lon="6.04661">
        <ele>274</ele>
        <time>2022-09-12T11:33:43Z</time>
      </trkpt>
      <trkpt lat="47.22907" lon="6.04657">
        <ele>273.6</ele>
        <time>2022-09-12T11:33:41Z</time>
      </trkpt>
      <trkpt lat="47.22904" lon="6.0465">
        <ele>272.8</ele>
        <time>2022-09-12T11:33:38Z</time>
      </trkpt>
      <trkpt lat="47.22902" lon="6.04644">
        <ele>272.4</ele>
        <time>2022-09-12T11:33:35Z</time>
      </trkpt>
      <trkpt lat="47.22898" lon="6.04609">
        <ele>271.8</ele>
        <time>2022-09-12T11:33:26Z</time>
      </trkpt>
      <trkpt lat="47.22898" lon="6.04604">
        <ele>271.8</ele>
        <time>2022-09-12T11:33:25Z</time>
      </trkpt>
      <trkpt lat="47.22897" lon="6.04577">
        <ele>271.6</ele>
        <time>2022-09-12T11:33:18Z</time>
      </trkpt>
      <trkpt lat="47.22895" lon="6.04556">
        <ele>271.6</ele>
        <time>2022-09-12T11:33:12Z</time>
      </trkpt>
      <trkpt lat="47.22893" lon="6.04531">
        <ele>271.4</ele>
        <time>2022-09-12T11:33:07Z</time>
      </trkpt>
      <trkpt lat="47.22893" lon="6.04524">
        <ele>271.6</ele>
        <time>2022-09-12T11:33:06Z</time>
      </trkpt>
      <trkpt lat="47.22898" lon="6.04496">
        <ele>271.8</ele>
        <time>2022-09-12T11:33:02Z</time>
      </trkpt>
      <trkpt lat="47.22901" lon="6.04471">
        <ele>270.8</ele>
        <time>2022-09-12T11:32:56Z</time>
      </trkpt>
      <trkpt lat="47.22901" lon="6.04456">
        <ele>269.6</ele>
        <time>2022-09-12T11:32:51Z</time>
      </trkpt>
      <trkpt lat="47.22901" lon="6.0445">
        <ele>268.8</ele>
        <time>2022-09-12T11:32:49Z</time>
      </trkpt>
      <trkpt lat="47.22901" lon="6.04445">
        <ele>268.4</ele>
        <time>2022-09-12T11:32:47Z</time>
      </trkpt>
      <trkpt lat="47.22898" lon="6.04436">
        <ele>267.2</ele>
        <time>2022-09-12T11:32:44Z</time>
      </trkpt>
      <trkpt lat="47.22897" lon="6.04427">
        <ele>266.8</ele>
        <time>2022-09-12T11:32:41Z</time>
      </trkpt>
      <trkpt lat="47.22896" lon="6.04421">
        <ele>266.2</ele>
        <time>2022-09-12T11:32:39Z</time>
      </trkpt>
      <trkpt lat="47.22895" lon="6.04412">
        <ele>265</ele>
        <time>2022-09-12T11:32:36Z</time>
      </trkpt>
      <trkpt lat="47.22894" lon="6.04405">
        <ele>264</ele>
        <time>2022-09-12T11:32:34Z</time>
      </trkpt>
      <trkpt lat="47.22893" lon="6.04402">
        <ele>263.6</ele>
        <time>2022-09-12T11:32:33Z</time>
      </trkpt>
      <trkpt lat="47.22892" lon="6.04395">
        <ele>262.2</ele>
        <time>2022-09-12T11:32:30Z</time>
      </trkpt>
      <trkpt lat="47.22891" lon="6.04389">
        <ele>261.2</ele>
        <time>2022-09-12T11:32:28Z</time>
      </trkpt>
      <trkpt lat="47.22891" lon="6.04383">
        <ele>260</ele>
        <time>2022-09-12T11:32:26Z</time>
      </trkpt>
      <trkpt lat="47.2289" lon="6.0438">
        <ele>259.6</ele>
        <time>2022-09-12T11:32:25Z</time>
      </trkpt>
      <trkpt lat="47.2289" lon="6.04377">
        <ele>259</ele>
        <time>2022-09-12T11:32:24Z</time>
      </trkpt>
      <trkpt lat="47.2289" lon="6.04371">
        <ele>257.6</ele>
        <time>2022-09-12T11:32:22Z</time>
      </trkpt>
      <trkpt lat="47.2289" lon="6.04364">
        <ele>256.4</ele>
        <time>2022-09-12T11:32:20Z</time>
      </trkpt>
      <trkpt lat="47.2289" lon="6.04357">
        <ele>255.2</ele>
        <time>2022-09-12T11:32:18Z</time>
      </trkpt>
      <trkpt lat="47.2289" lon="6.04349">
        <ele>254</ele>
        <time>2022-09-12T11:32:16Z</time>
      </trkpt>
      <trkpt lat="47.2289" lon="6.04342">
        <ele>253</ele>
        <time>2022-09-12T11:32:14Z</time>
      </trkpt>
      <trkpt lat="47.2289" lon="6.04339">
        <ele>252.6</ele>
        <time>2022-09-12T11:32:13Z</time>
      </trkpt>
      <trkpt lat="47.22891" lon="6.04325">
        <ele>251.2</ele>
        <time>2022-09-12T11:32:09Z</time>
      </trkpt>
      <trkpt lat="47.22892" lon="6.04315">
        <ele>250.6</ele>
        <time>2022-09-12T11:32:06Z</time>
      </trkpt>
      <trkpt lat="47.22894" lon="6.04308">
        <ele>250.2</ele>
        <time>2022-09-12T11:32:04Z</time>
      </trkpt>
      <trkpt lat="47.22898" lon="6.04287">
        <ele>249</ele>
        <time>2022-09-12T11:31:58Z</time>
      </trkpt>
      <trkpt lat="47.22899" lon="6.04284">
        <ele>248.8</ele>
        <time>2022-09-12T11:31:57Z</time>
      </trkpt>
      <trkpt lat="47.22904" lon="6.04265">
        <ele>248</ele>
        <time>2022-09-12T11:31:51Z</time>
      </trkpt>
      <trkpt lat="47.22906" lon="6.04262">
        <ele>247.6</ele>
        <time>2022-09-12T11:31:50Z</time>
      </trkpt>
      <trkpt lat="47.22913" lon="6.04245">
        <ele>247</ele>
        <time>2022-09-12T11:31:44Z</time>
      </trkpt>
      <trkpt lat="47.22916" lon="6.04241">
        <ele>246.4</ele>
        <time>2022-09-12T11:31:42Z</time>
      </trkpt>
      <trkpt lat="47.22918" lon="6.04237">
        <ele>245.8</ele>
        <time>2022-09-12T11:31:40Z</time>
      </trkpt>
      <trkpt lat="47.22922" lon="6.0423">
        <ele>244.8</ele>
        <time>2022-09-12T11:31:37Z</time>
      </trkpt>
      <trkpt lat="47.22922" lon="6.04227">
        <ele>244.4</ele>
        <time>2022-09-12T11:31:36Z</time>
      </trkpt>
      <trkpt lat="47.22926" lon="6.04216">
        <ele>243.4</ele>
        <time>2022-09-12T11:31:32Z</time>
      </trkpt>
      <trkpt lat="47.22926" lon="6.04214">
        <ele>243</ele>
        <time>2022-09-12T11:31:31Z</time>
      </trkpt>
      <trkpt lat="47.22923" lon="6.0421">
        <ele>242.4</ele>
        <time>2022-09-12T11:31:28Z</time>
      </trkpt>
      <trkpt lat="47.22921" lon="6.0421">
        <ele>242.2</ele>
        <time>2022-09-12T11:31:27Z</time>
      </trkpt>
      <trkpt lat="47.22914" lon="6.04222">
        <ele>241.6</ele>
        <time>2022-09-12T11:31:23Z</time>
      </trkpt>
      <trkpt lat="47.22905" lon="6.04232">
        <ele>241.4</ele>
        <time>2022-09-12T11:31:20Z</time>
      </trkpt>
      <trkpt lat="47.229" lon="6.04243">
        <ele>241.4</ele>
        <time>2022-09-12T11:31:18Z</time>
      </trkpt>
      <trkpt lat="47.22884" lon="6.04282">
        <ele>242.2</ele>
        <time>2022-09-12T11:31:12Z</time>
      </trkpt>
      <trkpt lat="47.22876" lon="6.04302">
        <ele>242.6</ele>
        <time>2022-09-12T11:31:09Z</time>
      </trkpt>
      <trkpt lat="47.22856" lon="6.04347">
        <ele>243.2</ele>
        <time>2022-09-12T11:31:02Z</time>
      </trkpt>
      <trkpt lat="47.2283" lon="6.04395">
        <ele>243.4</ele>
        <time>2022-09-12T11:30:54Z</time>
      </trkpt>
      <trkpt lat="47.22807" lon="6.04436">
        <ele>243.2</ele>
        <time>2022-09-12T11:30:47Z</time>
      </trkpt>
      <trkpt lat="47.22804" lon="6.04442">
        <ele>243.2</ele>
        <time>2022-09-12T11:30:46Z</time>
      </trkpt>
      <trkpt lat="47.22779" lon="6.04488">
        <ele>242.2</ele>
        <time>2022-09-12T11:30:38Z</time>
      </trkpt>
      <trkpt lat="47.2277" lon="6.04509">
        <ele>242.4</ele>
        <time>2022-09-12T11:30:35Z</time>
      </trkpt>
      <trkpt lat="47.22766" lon="6.04524">
        <ele>242.4</ele>
        <time>2022-09-12T11:30:33Z</time>
      </trkpt>
      <trkpt lat="47.22763" lon="6.04565">
        <ele>242.2</ele>
        <time>2022-09-12T11:30:28Z</time>
      </trkpt>
      <trkpt lat="47.22761" lon="6.04598">
        <ele>242.2</ele>
        <time>2022-09-12T11:30:24Z</time>
      </trkpt>
      <trkpt lat="47.22757" lon="6.04659">
        <ele>242</ele>
        <time>2022-09-12T11:30:17Z</time>
      </trkpt>
      <trkpt lat="47.22758" lon="6.04712">
        <ele>241.8</ele>
        <time>2022-09-12T11:30:11Z</time>
      </trkpt>
      <trkpt lat="47.22769" lon="6.0479">
        <ele>241.4</ele>
        <time>2022-09-12T11:30:02Z</time>
      </trkpt>
      <trkpt lat="47.22771" lon="6.04807">
        <ele>241.2</ele>
        <time>2022-09-12T11:30:00Z</time>
      </trkpt>
      <trkpt lat="47.22782" lon="6.04866">
        <ele>240.2</ele>
        <time>2022-09-12T11:29:53Z</time>
      </trkpt>
      <trkpt lat="47.2279" lon="6.04908">
        <ele>240</ele>
        <time>2022-09-12T11:29:48Z</time>
      </trkpt>
      <trkpt lat="47.22792" lon="6.04917">
        <ele>240</ele>
        <time>2022-09-12T11:29:47Z</time>
      </trkpt>
      <trkpt lat="47.22814" lon="6.04977">
        <ele>239.2</ele>
        <time>2022-09-12T11:29:39Z</time>
      </trkpt>
      <trkpt lat="47.22836" lon="6.05027">
        <ele>239</ele>
        <time>2022-09-12T11:29:32Z</time>
      </trkpt>
      <trkpt lat="47.22852" lon="6.05068">
        <ele>239.6</ele>
        <time>2022-09-12T11:29:26Z</time>
      </trkpt>
      <trkpt lat="47.22863" lon="6.05102">
        <ele>239.2</ele>
        <time>2022-09-12T11:29:19Z</time>
      </trkpt>
      <trkpt lat="47.2287" lon="6.05122">
        <ele>239</ele>
        <time>2022-09-12T11:29:13Z</time>
      </trkpt>
      <trkpt lat="47.22873" lon="6.0513">
        <ele>238.8</ele>
        <time>2022-09-12T11:29:08Z</time>
      </trkpt>
      <trkpt lat="47.22881" lon="6.05143">
        <ele>238.2</ele>
        <time>2022-09-12T11:29:03Z</time>
      </trkpt>
      <trkpt lat="47.22888" lon="6.05157">
        <ele>238</ele>
        <time>2022-09-12T11:29:00Z</time>
      </trkpt>
      <trkpt lat="47.22891" lon="6.05163">
        <ele>237.8</ele>
        <time>2022-09-12T11:28:59Z</time>
      </trkpt>
      <trkpt lat="47.22894" lon="6.05171">
        <ele>237.8</ele>
        <time>2022-09-12T11:28:58Z</time>
      </trkpt>
      <trkpt lat="47.22922" lon="6.05241">
        <ele>237.4</ele>
        <time>2022-09-12T11:28:49Z</time>
      </trkpt>
      <trkpt lat="47.22946" lon="6.05293">
        <ele>237</ele>
        <time>2022-09-12T11:28:42Z</time>
      </trkpt>
      <trkpt lat="47.22979" lon="6.05366">
        <ele>237</ele>
        <time>2022-09-12T11:28:32Z</time>
      </trkpt>
      <trkpt lat="47.23008" lon="6.05425">
        <ele>236.8</ele>
        <time>2022-09-12T11:28:24Z</time>
      </trkpt>
      <trkpt lat="47.23023" lon="6.05452">
        <ele>237</ele>
        <time>2022-09-12T11:28:20Z</time>
      </trkpt>
      <trkpt lat="47.23044" lon="6.0548">
        <ele>237.4</ele>
        <time>2022-09-12T11:28:15Z</time>
      </trkpt>
      <trkpt lat="47.23051" lon="6.05491">
        <ele>238</ele>
        <time>2022-09-12T11:28:13Z</time>
      </trkpt>
      <trkpt lat="47.23068" lon="6.05511">
        <ele>239</ele>
        <time>2022-09-12T11:28:09Z</time>
      </trkpt>
      <trkpt lat="47.23072" lon="6.05516">
        <ele>239.2</ele>
        <time>2022-09-12T11:28:08Z</time>
      </trkpt>
      <trkpt lat="47.23076" lon="6.0552">
        <ele>239.4</ele>
        <time>2022-09-12T11:28:07Z</time>
      </trkpt>
      <trkpt lat="47.23089" lon="6.05539">
        <ele>240</ele>
        <time>2022-09-12T11:28:03Z</time>
      </trkpt>
      <trkpt lat="47.23093" lon="6.05555">
        <ele>241.2</ele>
        <time>2022-09-12T11:28:00Z</time>
      </trkpt>
      <trkpt lat="47.23093" lon="6.05568">
        <ele>242.2</ele>
        <time>2022-09-12T11:27:57Z</time>
      </trkpt>
      <trkpt lat="47.2309" lon="6.056">
        <ele>243.4</ele>
        <time>2022-09-12T11:27:52Z</time>
      </trkpt>
      <trkpt lat="47.23089" lon="6.05624">
        <ele>244</ele>
        <time>2022-09-12T11:27:48Z</time>
      </trkpt>
      <trkpt lat="47.23089" lon="6.05632">
        <ele>244.2</ele>
        <time>2022-09-12T11:27:47Z</time>
      </trkpt>
      <trkpt lat="47.23089" lon="6.0564">
        <ele>244.4</ele>
        <time>2022-09-12T11:27:46Z</time>
      </trkpt>
      <trkpt lat="47.2309" lon="6.05656">
        <ele>245</ele>
        <time>2022-09-12T11:27:44Z</time>
      </trkpt>
      <trkpt lat="47.23096" lon="6.05671">
        <ele>245.6</ele>
        <time>2022-09-12T11:27:42Z</time>
      </trkpt>
      <trkpt lat="47.23113" lon="6.05685">
        <ele>246.8</ele>
        <time>2022-09-12T11:27:39Z</time>
      </trkpt>
      <trkpt lat="47.23128" lon="6.05697">
        <ele>247.8</ele>
        <time>2022-09-12T11:27:36Z</time>
      </trkpt>
      <trkpt lat="47.23138" lon="6.05704">
        <ele>248.4</ele>
        <time>2022-09-12T11:27:34Z</time>
      </trkpt>
      <trkpt lat="47.23143" lon="6.05707">
        <ele>248.4</ele>
        <time>2022-09-12T11:27:33Z</time>
      </trkpt>
      <trkpt lat="47.23154" lon="6.05714">
        <ele>248.6</ele>
        <time>2022-09-12T11:27:30Z</time>
      </trkpt>
      <trkpt lat="47.23156" lon="6.05717">
        <ele>248.6</ele>
        <time>2022-09-12T11:27:29Z</time>
      </trkpt>
      <trkpt lat="47.23151" lon="6.05737">
        <ele>249</ele>
        <time>2022-09-12T11:27:25Z</time>
      </trkpt>
      <trkpt lat="47.23148" lon="6.05742">
        <ele>249</ele>
        <time>2022-09-12T11:27:24Z</time>
      </trkpt>
      <trkpt lat="47.2314" lon="6.05758">
        <ele>248</ele>
        <time>2022-09-12T11:27:21Z</time>
      </trkpt>
      <trkpt lat="47.23132" lon="6.05775">
        <ele>246.8</ele>
        <time>2022-09-12T11:27:18Z</time>
      </trkpt>
      <trkpt lat="47.23125" lon="6.0579">
        <ele>246.2</ele>
        <time>2022-09-12T11:27:15Z</time>
      </trkpt>
      <trkpt lat="47.23118" lon="6.05805">
        <ele>245.8</ele>
        <time>2022-09-12T11:27:12Z</time>
      </trkpt>
      <trkpt lat="47.2311" lon="6.05823">
        <ele>244.6</ele>
        <time>2022-09-12T11:27:08Z</time>
      </trkpt>
      <trkpt lat="47.23108" lon="6.05826">
        <ele>244.2</ele>
        <time>2022-09-12T11:27:07Z</time>
      </trkpt>
      <trkpt lat="47.23099" lon="6.05821">
        <ele>243.2</ele>
        <time>2022-09-12T11:27:04Z</time>
      </trkpt>
      <trkpt lat="47.23093" lon="6.05816">
        <ele>242.2</ele>
        <time>2022-09-12T11:27:02Z</time>
      </trkpt>
      <trkpt lat="47.2309" lon="6.05813">
        <ele>242</ele>
        <time>2022-09-12T11:27:01Z</time>
      </trkpt>
      <trkpt lat="47.23081" lon="6.05805">
        <ele>240.6</ele>
        <time>2022-09-12T11:26:58Z</time>
      </trkpt>
      <trkpt lat="47.23078" lon="6.05803">
        <ele>240.4</ele>
        <time>2022-09-12T11:26:57Z</time>
      </trkpt>
      <trkpt lat="47.23073" lon="6.05797">
        <ele>240</ele>
        <time>2022-09-12T11:26:55Z</time>
      </trkpt>
      <trkpt lat="47.23064" lon="6.058">
        <ele>239.8</ele>
        <time>2022-09-12T11:26:51Z</time>
      </trkpt>
      <trkpt lat="47.23062" lon="6.05808">
        <ele>240</ele>
        <time>2022-09-12T11:26:49Z</time>
      </trkpt>
      <trkpt lat="47.23069" lon="6.05814">
        <ele>239.8</ele>
        <time>2022-09-12T11:26:46Z</time>
      </trkpt>
      <trkpt lat="47.23076" lon="6.05822">
        <ele>239.8</ele>
        <time>2022-09-12T11:26:43Z</time>
      </trkpt>
      <trkpt lat="47.23077" lon="6.05826">
        <ele>239.8</ele>
        <time>2022-09-12T11:26:42Z</time>
      </trkpt>
      <trkpt lat="47.23087" lon="6.05835">
        <ele>239.8</ele>
        <time>2022-09-12T11:26:39Z</time>
      </trkpt>
      <trkpt lat="47.23093" lon="6.05841">
        <ele>239.6</ele>
        <time>2022-09-12T11:26:37Z</time>
      </trkpt>
      <trkpt lat="47.23113" lon="6.05858">
        <ele>239</ele>
        <time>2022-09-12T11:26:31Z</time>
      </trkpt>
      <trkpt lat="47.23123" lon="6.05866">
        <ele>239.4</ele>
        <time>2022-09-12T11:26:28Z</time>
      </trkpt>
      <trkpt lat="47.23121" lon="6.05885">
        <ele>240.2</ele>
        <time>2022-09-12T11:26:24Z</time>
      </trkpt>
      <trkpt lat="47.2312" lon="6.05893">
        <ele>240.6</ele>
        <time>2022-09-12T11:26:22Z</time>
      </trkpt>
      <trkpt lat="47.2312" lon="6.05898">
        <ele>240.6</ele>
        <time>2022-09-12T11:26:21Z</time>
      </trkpt>
      <trkpt lat="47.23134" lon="6.05915">
        <ele>241.6</ele>
        <time>2022-09-12T11:26:17Z</time>
      </trkpt>
      <trkpt lat="47.23147" lon="6.05932">
        <ele>242.6</ele>
        <time>2022-09-12T11:26:14Z</time>
      </trkpt>
      <trkpt lat="47.23161" lon="6.05949">
        <ele>243.6</ele>
        <time>2022-09-12T11:26:11Z</time>
      </trkpt>
      <trkpt lat="47.23178" lon="6.05972">
        <ele>244.8</ele>
        <time>2022-09-12T11:26:07Z</time>
      </trkpt>
      <trkpt lat="47.23191" lon="6.0599">
        <ele>246</ele>
        <time>2022-09-12T11:26:04Z</time>
      </trkpt>
      <trkpt lat="47.232" lon="6.06002">
        <ele>247</ele>
        <time>2022-09-12T11:26:02Z</time>
      </trkpt>
      <trkpt lat="47.23204" lon="6.06008">
        <ele>247.6</ele>
        <time>2022-09-12T11:26:01Z</time>
      </trkpt>
      <trkpt lat="47.23208" lon="6.06015">
        <ele>248.2</ele>
        <time>2022-09-12T11:26:00Z</time>
      </trkpt>
      <trkpt lat="47.23214" lon="6.06031">
        <ele>249.4</ele>
        <time>2022-09-12T11:25:58Z</time>
      </trkpt>
      <trkpt lat="47.2322" lon="6.06047">
        <ele>250.8</ele>
        <time>2022-09-12T11:25:56Z</time>
      </trkpt>
      <trkpt lat="47.23223" lon="6.06054">
        <ele>251.4</ele>
        <time>2022-09-12T11:25:55Z</time>
      </trkpt>
      <trkpt lat="47.23226" lon="6.06062">
        <ele>252.4</ele>
        <time>2022-09-12T11:25:54Z</time>
      </trkpt>
      <trkpt lat="47.23229" lon="6.06079">
        <ele>254.2</ele>
        <time>2022-09-12T11:25:52Z</time>
      </trkpt>
      <trkpt lat="47.2323" lon="6.06088">
        <ele>255.2</ele>
        <time>2022-09-12T11:25:51Z</time>
      </trkpt>
      <trkpt lat="47.23232" lon="6.06098">
        <ele>256.2</ele>
        <time>2022-09-12T11:25:50Z</time>
      </trkpt>
      <trkpt lat="47.23234" lon="6.06108">
        <ele>257.4</ele>
        <time>2022-09-12T11:25:49Z</time>
      </trkpt>
      <trkpt lat="47.23236" lon="6.0612">
        <ele>258.4</ele>
        <time>2022-09-12T11:25:48Z</time>
      </trkpt>
      <trkpt lat="47.23238" lon="6.06132">
        <ele>259.6</ele>
        <time>2022-09-12T11:25:47Z</time>
      </trkpt>
      <trkpt lat="47.23241" lon="6.06145">
        <ele>260.6</ele>
        <time>2022-09-12T11:25:46Z</time>
      </trkpt>
      <trkpt lat="47.23242" lon="6.06158">
        <ele>261.8</ele>
        <time>2022-09-12T11:25:45Z</time>
      </trkpt>
      <trkpt lat="47.23242" lon="6.06171">
        <ele>262.8</ele>
        <time>2022-09-12T11:25:44Z</time>
      </trkpt>
      <trkpt lat="47.23242" lon="6.06183">
        <ele>264</ele>
        <time>2022-09-12T11:25:43Z</time>
      </trkpt>
      <trkpt lat="47.2324" lon="6.06193">
        <ele>265</ele>
        <time>2022-09-12T11:25:42Z</time>
      </trkpt>
      <trkpt lat="47.23236" lon="6.06201">
        <ele>266</ele>
        <time>2022-09-12T11:25:41Z</time>
      </trkpt>
      <trkpt lat="47.23231" lon="6.06208">
        <ele>267</ele>
        <time>2022-09-12T11:25:40Z</time>
      </trkpt>
      <trkpt lat="47.23227" lon="6.06215">
        <ele>267.8</ele>
        <time>2022-09-12T11:25:39Z</time>
      </trkpt>
      <trkpt lat="47.23223" lon="6.06223">
        <ele>268.6</ele>
        <time>2022-09-12T11:25:38Z</time>
      </trkpt>
      <trkpt lat="47.23219" lon="6.06233">
        <ele>269.4</ele>
        <time>2022-09-12T11:25:37Z</time>
      </trkpt>
      <trkpt lat="47.23217" lon="6.06243">
        <ele>270</ele>
        <time>2022-09-12T11:25:36Z</time>
      </trkpt>
      <trkpt lat="47.23215" lon="6.06253">
        <ele>270.4</ele>
        <time>2022-09-12T11:25:35Z</time>
      </trkpt>
      <trkpt lat="47.23212" lon="6.06271">
        <ele>271.2</ele>
        <time>2022-09-12T11:25:33Z</time>
      </trkpt>
      <trkpt lat="47.23209" lon="6.06286">
        <ele>272.2</ele>
        <time>2022-09-12T11:25:31Z</time>
      </trkpt>
      <trkpt lat="47.23206" lon="6.06295">
        <ele>272.6</ele>
        <time>2022-09-12T11:25:29Z</time>
      </trkpt>
      <trkpt lat="47.23206" lon="6.06296">
        <ele>273</ele>
        <time>2022-09-12T11:25:24Z</time>
      </trkpt>
      <trkpt lat="47.23207" lon="6.06306">
        <ele>274</ele>
        <time>2022-09-12T11:25:20Z</time>
      </trkpt>
      <trkpt lat="47.23207" lon="6.0631">
        <ele>274.4</ele>
        <time>2022-09-12T11:25:19Z</time>
      </trkpt>
      <trkpt lat="47.23206" lon="6.06321">
        <ele>275.4</ele>
        <time>2022-09-12T11:25:17Z</time>
      </trkpt>
      <trkpt lat="47.23204" lon="6.06333">
        <ele>276.8</ele>
        <time>2022-09-12T11:25:15Z</time>
      </trkpt>
      <trkpt lat="47.23201" lon="6.06346">
        <ele>278</ele>
        <time>2022-09-12T11:25:13Z</time>
      </trkpt>
      <trkpt lat="47.23198" lon="6.06361">
        <ele>279.6</ele>
        <time>2022-09-12T11:25:11Z</time>
      </trkpt>
      <trkpt lat="47.23193" lon="6.06375">
        <ele>281</ele>
        <time>2022-09-12T11:25:09Z</time>
      </trkpt>
      <trkpt lat="47.2319" lon="6.06382">
        <ele>281.8</ele>
        <time>2022-09-12T11:25:08Z</time>
      </trkpt>
      <trkpt lat="47.23187" lon="6.06388">
        <ele>282.6</ele>
        <time>2022-09-12T11:25:07Z</time>
      </trkpt>
      <trkpt lat="47.23181" lon="6.06397">
        <ele>284.2</ele>
        <time>2022-09-12T11:25:05Z</time>
      </trkpt>
      <trkpt lat="47.23175" lon="6.06406">
        <ele>285.8</ele>
        <time>2022-09-12T11:25:03Z</time>
      </trkpt>
      <trkpt lat="47.23172" lon="6.0641">
        <ele>286.4</ele>
        <time>2022-09-12T11:25:02Z</time>
      </trkpt>
      <trkpt lat="47.23169" lon="6.06413">
        <ele>287.4</ele>
        <time>2022-09-12T11:25:01Z</time>
      </trkpt>
      <trkpt lat="47.23164" lon="6.06421">
        <ele>289</ele>
        <time>2022-09-12T11:24:59Z</time>
      </trkpt>
      <trkpt lat="47.23158" lon="6.06432">
        <ele>290.6</ele>
        <time>2022-09-12T11:24:57Z</time>
      </trkpt>
      <trkpt lat="47.23156" lon="6.06436">
        <ele>291.6</ele>
        <time>2022-09-12T11:24:56Z</time>
      </trkpt>
      <trkpt lat="47.23153" lon="6.06442">
        <ele>292.4</ele>
        <time>2022-09-12T11:24:55Z</time>
      </trkpt>
      <trkpt lat="47.2315" lon="6.06455">
        <ele>294</ele>
        <time>2022-09-12T11:24:53Z</time>
      </trkpt>
      <trkpt lat="47.23148" lon="6.06467">
        <ele>295.8</ele>
        <time>2022-09-12T11:24:51Z</time>
      </trkpt>
      <trkpt lat="47.23144" lon="6.06479">
        <ele>297.6</ele>
        <time>2022-09-12T11:24:49Z</time>
      </trkpt>
      <trkpt lat="47.23139" lon="6.06489">
        <ele>299.6</ele>
        <time>2022-09-12T11:24:47Z</time>
      </trkpt>
      <trkpt lat="47.23137" lon="6.06493">
        <ele>300.4</ele>
        <time>2022-09-12T11:24:46Z</time>
      </trkpt>
      <trkpt lat="47.23136" lon="6.06498">
        <ele>301.2</ele>
        <time>2022-09-12T11:24:45Z</time>
      </trkpt>
      <trkpt lat="47.23136" lon="6.06509">
        <ele>302.8</ele>
        <time>2022-09-12T11:24:43Z</time>
      </trkpt>
      <trkpt lat="47.23136" lon="6.06516">
        <ele>303.4</ele>
        <time>2022-09-12T11:24:42Z</time>
      </trkpt>
      <trkpt lat="47.23136" lon="6.06524">
        <ele>304.4</ele>
        <time>2022-09-12T11:24:41Z</time>
      </trkpt>
      <trkpt lat="47.23136" lon="6.06539">
        <ele>306</ele>
        <time>2022-09-12T11:24:39Z</time>
      </trkpt>
      <trkpt lat="47.23135" lon="6.06552">
        <ele>307</ele>
        <time>2022-09-12T11:24:37Z</time>
      </trkpt>
      <trkpt lat="47.23134" lon="6.06558">
        <ele>307.2</ele>
        <time>2022-09-12T11:24:36Z</time>
      </trkpt>
      <trkpt lat="47.23131" lon="6.0657">
        <ele>308</ele>
        <time>2022-09-12T11:24:34Z</time>
      </trkpt>
      <trkpt lat="47.2313" lon="6.06575">
        <ele>308.2</ele>
        <time>2022-09-12T11:24:33Z</time>
      </trkpt>
      <trkpt lat="47.23129" lon="6.0658">
        <ele>308.6</ele>
        <time>2022-09-12T11:24:32Z</time>
      </trkpt>
      <trkpt lat="47.23126" lon="6.06588">
        <ele>309.4</ele>
        <time>2022-09-12T11:24:30Z</time>
      </trkpt>
      <trkpt lat="47.23121" lon="6.06594">
        <ele>310.2</ele>
        <time>2022-09-12T11:24:28Z</time>
      </trkpt>
      <trkpt lat="47.23118" lon="6.06595">
        <ele>310.6</ele>
        <time>2022-09-12T11:24:27Z</time>
      </trkpt>
      <trkpt lat="47.23114" lon="6.0659">
        <ele>311.6</ele>
        <time>2022-09-12T11:24:25Z</time>
      </trkpt>
      <trkpt lat="47.23113" lon="6.06586">
        <ele>312</ele>
        <time>2022-09-12T11:24:24Z</time>
      </trkpt>
      <trkpt lat="47.23111" lon="6.06581">
        <ele>312.6</ele>
        <time>2022-09-12T11:24:23Z</time>
      </trkpt>
      <trkpt lat="47.23107" lon="6.06572">
        <ele>313.4</ele>
        <time>2022-09-12T11:24:21Z</time>
      </trkpt>
      <trkpt lat="47.23104" lon="6.06568">
        <ele>314</ele>
        <time>2022-09-12T11:24:20Z</time>
      </trkpt>
      <trkpt lat="47.23099" lon="6.06566">
        <ele>314.6</ele>
        <time>2022-09-12T11:24:19Z</time>
      </trkpt>
      <trkpt lat="47.23091" lon="6.06563">
        <ele>315.8</ele>
        <time>2022-09-12T11:24:17Z</time>
      </trkpt>
      <trkpt lat="47.23077" lon="6.06558">
        <ele>317.4</ele>
        <time>2022-09-12T11:24:14Z</time>
      </trkpt>
      <trkpt lat="47.23067" lon="6.06555">
        <ele>318.4</ele>
        <time>2022-09-12T11:24:12Z</time>
      </trkpt>
      <trkpt lat="47.23051" lon="6.06551">
        <ele>319.8</ele>
        <time>2022-09-12T11:24:09Z</time>
      </trkpt>
      <trkpt lat="47.23046" lon="6.06551">
        <ele>320.4</ele>
        <time>2022-09-12T11:24:08Z</time>
      </trkpt>
      <trkpt lat="47.23039" lon="6.06552">
        <ele>320.8</ele>
        <time>2022-09-12T11:24:07Z</time>
      </trkpt>
      <trkpt lat="47.23025" lon="6.06554">
        <ele>322</ele>
        <time>2022-09-12T11:24:05Z</time>
      </trkpt>
      <trkpt lat="47.2301" lon="6.06555">
        <ele>323</ele>
        <time>2022-09-12T11:24:03Z</time>
      </trkpt>
      <trkpt lat="47.22995" lon="6.06557">
        <ele>324.2</ele>
        <time>2022-09-12T11:24:01Z</time>
      </trkpt>
      <trkpt lat="47.22977" lon="6.06559">
        <ele>325.8</ele>
        <time>2022-09-12T11:23:58Z</time>
      </trkpt>
      <trkpt lat="47.22967" lon="6.06559">
        <ele>326.8</ele>
        <time>2022-09-12T11:23:56Z</time>
      </trkpt>
      <trkpt lat="47.22963" lon="6.06559">
        <ele>327.2</ele>
        <time>2022-09-12T11:23:55Z</time>
      </trkpt>
      <trkpt lat="47.2295" lon="6.06559">
        <ele>328.4</ele>
        <time>2022-09-12T11:23:52Z</time>
      </trkpt>
      <trkpt lat="47.22947" lon="6.06559">
        <ele>328.8</ele>
        <time>2022-09-12T11:23:51Z</time>
      </trkpt>
      <trkpt lat="47.22942" lon="6.06559">
        <ele>329.6</ele>
        <time>2022-09-12T11:23:49Z</time>
      </trkpt>
      <trkpt lat="47.22932" lon="6.06558">
        <ele>333</ele>
        <time>2022-09-12T11:23:39Z</time>
      </trkpt>
      <trkpt lat="47.22931" lon="6.06558">
        <ele>333.6</ele>
        <time>2022-09-12T11:23:38Z</time>
      </trkpt>
      <trkpt lat="47.2293" lon="6.06558">
        <ele>334.2</ele>
        <time>2022-09-12T11:23:37Z</time>
      </trkpt>
      <trkpt lat="47.22924" lon="6.0656">
        <ele>335.8</ele>
        <time>2022-09-12T11:23:35Z</time>
      </trkpt>
      <trkpt lat="47.22915" lon="6.06564">
        <ele>337</ele>
        <time>2022-09-12T11:23:33Z</time>
      </trkpt>
      <trkpt lat="47.22907" lon="6.06563">
        <ele>338.4</ele>
        <time>2022-09-12T11:23:31Z</time>
      </trkpt>
      <trkpt lat="47.22903" lon="6.06562">
        <ele>339.2</ele>
        <time>2022-09-12T11:23:30Z</time>
      </trkpt>
      <trkpt lat="47.229" lon="6.06561">
        <ele>339.8</ele>
        <time>2022-09-12T11:23:29Z</time>
      </trkpt>
      <trkpt lat="47.22893" lon="6.06558">
        <ele>340.6</ele>
        <time>2022-09-12T11:23:27Z</time>
      </trkpt>
      <trkpt lat="47.2289" lon="6.06558">
        <ele>341.2</ele>
        <time>2022-09-12T11:23:26Z</time>
      </trkpt>
      <trkpt lat="47.2288" lon="6.06563">
        <ele>342.6</ele>
        <time>2022-09-12T11:23:23Z</time>
      </trkpt>
      <trkpt lat="47.22871" lon="6.06566">
        <ele>343.6</ele>
        <time>2022-09-12T11:23:21Z</time>
      </trkpt>
      <trkpt lat="47.22868" lon="6.06566">
        <ele>344.2</ele>
        <time>2022-09-12T11:23:20Z</time>
      </trkpt>
      <trkpt lat="47.2286" lon="6.06571">
        <ele>345.4</ele>
        <time>2022-09-12T11:23:18Z</time>
      </trkpt>
      <trkpt lat="47.22856" lon="6.06575">
        <ele>345.8</ele>
        <time>2022-09-12T11:23:17Z</time>
      </trkpt>
      <trkpt lat="47.22851" lon="6.06579">
        <ele>346.6</ele>
        <time>2022-09-12T11:23:16Z</time>
      </trkpt>
      <trkpt lat="47.22841" lon="6.06588">
        <ele>347.8</ele>
        <time>2022-09-12T11:23:14Z</time>
      </trkpt>
      <trkpt lat="47.22829" lon="6.06599">
        <ele>349</ele>
        <time>2022-09-12T11:23:12Z</time>
      </trkpt>
      <trkpt lat="47.22811" lon="6.06613">
        <ele>350.4</ele>
        <time>2022-09-12T11:23:09Z</time>
      </trkpt>
      <trkpt lat="47.22806" lon="6.06616">
        <ele>350.8</ele>
        <time>2022-09-12T11:23:08Z</time>
      </trkpt>
      <trkpt lat="47.22796" lon="6.0662">
        <ele>351.4</ele>
        <time>2022-09-12T11:23:06Z</time>
      </trkpt>
      <trkpt lat="47.22787" lon="6.06621">
        <ele>352.2</ele>
        <time>2022-09-12T11:23:04Z</time>
      </trkpt>
      <trkpt lat="47.22784" lon="6.06621">
        <ele>352.6</ele>
        <time>2022-09-12T11:23:03Z</time>
      </trkpt>
      <trkpt lat="47.22778" lon="6.06623">
        <ele>353.8</ele>
        <time>2022-09-12T11:23:01Z</time>
      </trkpt>
      <trkpt lat="47.22778" lon="6.06626">
        <ele>354.2</ele>
        <time>2022-09-12T11:23:00Z</time>
      </trkpt>
      <trkpt lat="47.22781" lon="6.06632">
        <ele>355.2</ele>
        <time>2022-09-12T11:22:58Z</time>
      </trkpt>
      <trkpt lat="47.22795" lon="6.06642">
        <ele>356.4</ele>
        <time>2022-09-12T11:22:55Z</time>
      </trkpt>
      <trkpt lat="47.228" lon="6.06647">
        <ele>356.8</ele>
        <time>2022-09-12T11:22:54Z</time>
      </trkpt>
      <trkpt lat="47.22813" lon="6.06659">
        <ele>357.8</ele>
        <time>2022-09-12T11:22:52Z</time>
      </trkpt>
      <trkpt lat="47.22824" lon="6.06672">
        <ele>358.4</ele>
        <time>2022-09-12T11:22:50Z</time>
      </trkpt>
      <trkpt lat="47.22828" lon="6.06679">
        <ele>358.4</ele>
        <time>2022-09-12T11:22:49Z</time>
      </trkpt>
      <trkpt lat="47.22837" lon="6.06691">
        <ele>358.8</ele>
        <time>2022-09-12T11:22:47Z</time>
      </trkpt>
      <trkpt lat="47.22846" lon="6.06701">
        <ele>359</ele>
        <time>2022-09-12T11:22:45Z</time>
      </trkpt>
      <trkpt lat="47.2285" lon="6.06705">
        <ele>359.2</ele>
        <time>2022-09-12T11:22:44Z</time>
      </trkpt>
      <trkpt lat="47.22874" lon="6.06714">
        <ele>359.8</ele>
        <time>2022-09-12T11:22:39Z</time>
      </trkpt>
      <trkpt lat="47.22895" lon="6.06718">
        <ele>359.6</ele>
        <time>2022-09-12T11:22:34Z</time>
      </trkpt>
      <trkpt lat="47.22911" lon="6.06727">
        <ele>359.8</ele>
        <time>2022-09-12T11:22:30Z</time>
      </trkpt>
      <trkpt lat="47.22917" lon="6.0673">
        <ele>360</ele>
        <time>2022-09-12T11:22:29Z</time>
      </trkpt>
      <trkpt lat="47.22923" lon="6.06733">
        <ele>360</ele>
        <time>2022-09-12T11:22:28Z</time>
      </trkpt>
      <trkpt lat="47.22937" lon="6.06734">
        <ele>360.4</ele>
        <time>2022-09-12T11:22:26Z</time>
      </trkpt>
      <trkpt lat="47.22952" lon="6.06734">
        <ele>361</ele>
        <time>2022-09-12T11:22:24Z</time>
      </trkpt>
      <trkpt lat="47.22972" lon="6.06739">
        <ele>362</ele>
        <time>2022-09-12T11:22:21Z</time>
      </trkpt>
      <trkpt lat="47.22978" lon="6.06741">
        <ele>362.2</ele>
        <time>2022-09-12T11:22:20Z</time>
      </trkpt>
      <trkpt lat="47.22996" lon="6.0675">
        <ele>363.2</ele>
        <time>2022-09-12T11:22:17Z</time>
      </trkpt>
      <trkpt lat="47.23002" lon="6.06754">
        <ele>363.6</ele>
        <time>2022-09-12T11:22:16Z</time>
      </trkpt>
      <trkpt lat="47.23009" lon="6.06766">
        <ele>364.2</ele>
        <time>2022-09-12T11:22:14Z</time>
      </trkpt>
      <trkpt lat="47.23009" lon="6.06773">
        <ele>364.6</ele>
        <time>2022-09-12T11:22:13Z</time>
      </trkpt>
      <trkpt lat="47.23008" lon="6.06781">
        <ele>365</ele>
        <time>2022-09-12T11:22:12Z</time>
      </trkpt>
      <trkpt lat="47.23006" lon="6.0679">
        <ele>365.6</ele>
        <time>2022-09-12T11:22:11Z</time>
      </trkpt>
      <trkpt lat="47.22999" lon="6.0681">
        <ele>366.6</ele>
        <time>2022-09-12T11:22:09Z</time>
      </trkpt>
      <trkpt lat="47.22986" lon="6.06842">
        <ele>368</ele>
        <time>2022-09-12T11:22:06Z</time>
      </trkpt>
      <trkpt lat="47.22981" lon="6.06851">
        <ele>368.4</ele>
        <time>2022-09-12T11:22:05Z</time>
      </trkpt>
      <trkpt lat="47.22962" lon="6.0686">
        <ele>369.2</ele>
        <time>2022-09-12T11:22:02Z</time>
      </trkpt>
      <trkpt lat="47.22944" lon="6.06849">
        <ele>369.4</ele>
        <time>2022-09-12T11:21:59Z</time>
      </trkpt>
      <trkpt lat="47.22919" lon="6.06836">
        <ele>370</ele>
        <time>2022-09-12T11:21:55Z</time>
      </trkpt>
      <trkpt lat="47.22898" lon="6.06828">
        <ele>370.4</ele>
        <time>2022-09-12T11:21:52Z</time>
      </trkpt>
      <trkpt lat="47.2287" lon="6.06818">
        <ele>371</ele>
        <time>2022-09-12T11:21:48Z</time>
      </trkpt>
      <trkpt lat="47.22848" lon="6.06809">
        <ele>371.4</ele>
        <time>2022-09-12T11:21:45Z</time>
      </trkpt>
      <trkpt lat="47.22825" lon="6.068">
        <ele>372</ele>
        <time>2022-09-12T11:21:42Z</time>
      </trkpt>
      <trkpt lat="47.22817" lon="6.06798">
        <ele>372</ele>
        <time>2022-09-12T11:21:41Z</time>
      </trkpt>
      <trkpt lat="47.22795" lon="6.06795">
        <ele>371.6</ele>
        <time>2022-09-12T11:21:38Z</time>
      </trkpt>
      <trkpt lat="47.22777" lon="6.06806">
        <ele>372</ele>
        <time>2022-09-12T11:21:35Z</time>
      </trkpt>
      <trkpt lat="47.22769" lon="6.06818">
        <ele>372.6</ele>
        <time>2022-09-12T11:21:33Z</time>
      </trkpt>
      <trkpt lat="47.22764" lon="6.06829">
        <ele>373.2</ele>
        <time>2022-09-12T11:21:31Z</time>
      </trkpt>
      <trkpt lat="47.22759" lon="6.06838">
        <ele>373.6</ele>
        <time>2022-09-12T11:21:29Z</time>
      </trkpt>
      <trkpt lat="47.22758" lon="6.06842">
        <ele>373.6</ele>
        <time>2022-09-12T11:21:28Z</time>
      </trkpt>
      <trkpt lat="47.22755" lon="6.06847">
        <ele>373.8</ele>
        <time>2022-09-12T11:21:26Z</time>
      </trkpt>
      <trkpt lat="47.22752" lon="6.06849">
        <ele>374.4</ele>
        <time>2022-09-12T11:21:23Z</time>
      </trkpt>
      <trkpt lat="47.22751" lon="6.06848">
        <ele>374.6</ele>
        <time>2022-09-12T11:21:22Z</time>
      </trkpt>
      <trkpt lat="47.22751" lon="6.06847">
        <ele>375</ele>
        <time>2022-09-12T11:21:21Z</time>
      </trkpt>
      <trkpt lat="47.22748" lon="6.06851">
        <ele>375.8</ele>
        <time>2022-09-12T11:21:19Z</time>
      </trkpt>
      <trkpt lat="47.22742" lon="6.06858">
        <ele>377</ele>
        <time>2022-09-12T11:21:17Z</time>
      </trkpt>
      <trkpt lat="47.22738" lon="6.06864">
        <ele>377.6</ele>
        <time>2022-09-12T11:21:16Z</time>
      </trkpt>
      <trkpt lat="47.22734" lon="6.06871">
        <ele>378.2</ele>
        <time>2022-09-12T11:21:15Z</time>
      </trkpt>
      <trkpt lat="47.22726" lon="6.06885">
        <ele>379.4</ele>
        <time>2022-09-12T11:21:13Z</time>
      </trkpt>
      <trkpt lat="47.22717" lon="6.06898">
        <ele>380.4</ele>
        <time>2022-09-12T11:21:11Z</time>
      </trkpt>
      <trkpt lat="47.22713" lon="6.06904">
        <ele>381</ele>
        <time>2022-09-12T11:21:10Z</time>
      </trkpt>
      <trkpt lat="47.22709" lon="6.06911">
        <ele>381.6</ele>
        <time>2022-09-12T11:21:09Z</time>
      </trkpt>
      <trkpt lat="47.22701" lon="6.06924">
        <ele>382.6</ele>
        <time>2022-09-12T11:21:07Z</time>
      </trkpt>
      <trkpt lat="47.22694" lon="6.06935">
        <ele>383.8</ele>
        <time>2022-09-12T11:21:05Z</time>
      </trkpt>
      <trkpt lat="47.22687" lon="6.06945">
        <ele>385.2</ele>
        <time>2022-09-12T11:21:03Z</time>
      </trkpt>
      <trkpt lat="47.2268" lon="6.06957">
        <ele>386.6</ele>
        <time>2022-09-12T11:21:01Z</time>
      </trkpt>
      <trkpt lat="47.22674" lon="6.0697">
        <ele>388.2</ele>
        <time>2022-09-12T11:20:59Z</time>
      </trkpt>
      <trkpt lat="47.22668" lon="6.06983">
        <ele>389.8</ele>
        <time>2022-09-12T11:20:57Z</time>
      </trkpt>
      <trkpt lat="47.22663" lon="6.06996">
        <ele>391.4</ele>
        <time>2022-09-12T11:20:55Z</time>
      </trkpt>
      <trkpt lat="47.22661" lon="6.07001">
        <ele>392.2</ele>
        <time>2022-09-12T11:20:54Z</time>
      </trkpt>
      <trkpt lat="47.22658" lon="6.07006">
        <ele>392.8</ele>
        <time>2022-09-12T11:20:53Z</time>
      </trkpt>
      <trkpt lat="47.22652" lon="6.07017">
        <ele>394.6</ele>
        <time>2022-09-12T11:20:51Z</time>
      </trkpt>
      <trkpt lat="47.22649" lon="6.07023">
        <ele>395.4</ele>
        <time>2022-09-12T11:20:50Z</time>
      </trkpt>
      <trkpt lat="47.22646" lon="6.0703">
        <ele>396.2</ele>
        <time>2022-09-12T11:20:49Z</time>
      </trkpt>
      <trkpt lat="47.22644" lon="6.07036">
        <ele>397</ele>
        <time>2022-09-12T11:20:48Z</time>
      </trkpt>
      <trkpt lat="47.22642" lon="6.07042">
        <ele>397.8</ele>
        <time>2022-09-12T11:20:47Z</time>
      </trkpt>
      <trkpt lat="47.2264" lon="6.07047">
        <ele>398.6</ele>
        <time>2022-09-12T11:20:46Z</time>
      </trkpt>
      <trkpt lat="47.22639" lon="6.07052">
        <ele>399.4</ele>
        <time>2022-09-12T11:20:45Z</time>
      </trkpt>
      <trkpt lat="47.22641" lon="6.07063">
        <ele>400.8</ele>
        <time>2022-09-12T11:20:43Z</time>
      </trkpt>
      <trkpt lat="47.22642" lon="6.07074">
        <ele>401.8</ele>
        <time>2022-09-12T11:20:41Z</time>
      </trkpt>
      <trkpt lat="47.22641" lon="6.07084">
        <ele>403</ele>
        <time>2022-09-12T11:20:39Z</time>
      </trkpt>
      <trkpt lat="47.22638" lon="6.07092">
        <ele>404.4</ele>
        <time>2022-09-12T11:20:37Z</time>
      </trkpt>
      <trkpt lat="47.22634" lon="6.07103">
        <ele>406</ele>
        <time>2022-09-12T11:20:35Z</time>
      </trkpt>
      <trkpt lat="47.22631" lon="6.0711">
        <ele>406.8</ele>
        <time>2022-09-12T11:20:34Z</time>
      </trkpt>
      <trkpt lat="47.22628" lon="6.07116">
        <ele>407.6</ele>
        <time>2022-09-12T11:20:33Z</time>
      </trkpt>
      <trkpt lat="47.22625" lon="6.07122">
        <ele>408.4</ele>
        <time>2022-09-12T11:20:32Z</time>
      </trkpt>
      <trkpt lat="47.22623" lon="6.07128">
        <ele>409.4</ele>
        <time>2022-09-12T11:20:31Z</time>
      </trkpt>
      <trkpt lat="47.22622" lon="6.07133">
        <ele>410.2</ele>
        <time>2022-09-12T11:20:30Z</time>
      </trkpt>
      <trkpt lat="47.22622" lon="6.07138">
        <ele>411</ele>
        <time>2022-09-12T11:20:29Z</time>
      </trkpt>
      <trkpt lat="47.22624" lon="6.07144">
        <ele>411.8</ele>
        <time>2022-09-12T11:20:28Z</time>
      </trkpt>
      <trkpt lat="47.22625" lon="6.07149">
        <ele>412.6</ele>
        <time>2022-09-12T11:20:27Z</time>
      </trkpt>
      <trkpt lat="47.22629" lon="6.07159">
        <ele>414.2</ele>
        <time>2022-09-12T11:20:25Z</time>
      </trkpt>
      <trkpt lat="47.22633" lon="6.07169">
        <ele>415.6</ele>
        <time>2022-09-12T11:20:23Z</time>
      </trkpt>
      <trkpt lat="47.22638" lon="6.07181">
        <ele>416.8</ele>
        <time>2022-09-12T11:20:21Z</time>
      </trkpt>
      <trkpt lat="47.22641" lon="6.07195">
        <ele>418.2</ele>
        <time>2022-09-12T11:20:18Z</time>
      </trkpt>
      <trkpt lat="47.22642" lon="6.07199">
        <ele>418.4</ele>
        <time>2022-09-12T11:20:17Z</time>
      </trkpt>
      <trkpt lat="47.22639" lon="6.07211">
        <ele>418.6</ele>
        <time>2022-09-12T11:20:14Z</time>
      </trkpt>
      <trkpt lat="47.22634" lon="6.07224">
        <ele>418</ele>
        <time>2022-09-12T11:20:10Z</time>
      </trkpt>
      <trkpt lat="47.22633" lon="6.07228">
        <ele>417.6</ele>
        <time>2022-09-12T11:20:09Z</time>
      </trkpt>
      <trkpt lat="47.22623" lon="6.07239">
        <ele>416.6</ele>
        <time>2022-09-12T11:20:05Z</time>
      </trkpt>
      <trkpt lat="47.22613" lon="6.07248">
        <ele>415.8</ele>
        <time>2022-09-12T11:20:02Z</time>
      </trkpt>
      <trkpt lat="47.2261" lon="6.07251">
        <ele>415.6</ele>
        <time>2022-09-12T11:20:01Z</time>
      </trkpt>
      <trkpt lat="47.22595" lon="6.07267">
        <ele>414.4</ele>
        <time>2022-09-12T11:19:56Z</time>
      </trkpt>
      <trkpt lat="47.22575" lon="6.07276">
        <ele>414.2</ele>
        <time>2022-09-12T11:19:50Z</time>
      </trkpt>
      <trkpt lat="47.22557" lon="6.0728">
        <ele>414.6</ele>
        <time>2022-09-12T11:19:46Z</time>
      </trkpt>
      <trkpt lat="47.22552" lon="6.0728">
        <ele>414.8</ele>
        <time>2022-09-12T11:19:45Z</time>
      </trkpt>
      <trkpt lat="47.22531" lon="6.07276">
        <ele>415.2</ele>
        <time>2022-09-12T11:19:41Z</time>
      </trkpt>
      <trkpt lat="47.22522" lon="6.07272">
        <ele>415.6</ele>
        <time>2022-09-12T11:19:39Z</time>
      </trkpt>
      <trkpt lat="47.22507" lon="6.07276">
        <ele>416.4</ele>
        <time>2022-09-12T11:19:35Z</time>
      </trkpt>
      <trkpt lat="47.22505" lon="6.07279">
        <ele>416.4</ele>
        <time>2022-09-12T11:19:34Z</time>
      </trkpt>
      <trkpt lat="47.22507" lon="6.07288">
        <ele>416.6</ele>
        <time>2022-09-12T11:19:32Z</time>
      </trkpt>
      <trkpt lat="47.22513" lon="6.07309">
        <ele>417</ele>
        <time>2022-09-12T11:19:29Z</time>
      </trkpt>
      <trkpt lat="47.22516" lon="6.07328">
        <ele>417</ele>
        <time>2022-09-12T11:19:27Z</time>
      </trkpt>
      <trkpt lat="47.22518" lon="6.07352">
        <ele>417.4</ele>
        <time>2022-09-12T11:19:25Z</time>
      </trkpt>
      <trkpt lat="47.22518" lon="6.07381">
        <ele>417.4</ele>
        <time>2022-09-12T11:19:23Z</time>
      </trkpt>
      <trkpt lat="47.22491" lon="6.0746">
        <ele>418.6</ele>
        <time>2022-09-12T11:19:09Z</time>
      </trkpt>
      <trkpt lat="47.22481" lon="6.07507">
        <ele>418.8</ele>
        <time>2022-09-12T11:19:01Z</time>
      </trkpt>
      <trkpt lat="47.2248" lon="6.07513">
        <ele>418.4</ele>
        <time>2022-09-12T11:19:00Z</time>
      </trkpt>
      <trkpt lat="47.22479" lon="6.07527">
        <ele>417.6</ele>
        <time>2022-09-12T11:18:57Z</time>
      </trkpt>
      <trkpt lat="47.22482" lon="6.07534">
        <ele>417.2</ele>
        <time>2022-09-12T11:18:55Z</time>
      </trkpt>
      <trkpt lat="47.22487" lon="6.07546">
        <ele>417</ele>
        <time>2022-09-12T11:18:52Z</time>
      </trkpt>
      <trkpt lat="47.22488" lon="6.0755">
        <ele>416.6</ele>
        <time>2022-09-12T11:18:51Z</time>
      </trkpt>
      <trkpt lat="47.22487" lon="6.07558">
        <ele>415.6</ele>
        <time>2022-09-12T11:18:49Z</time>
      </trkpt>
      <trkpt lat="47.22486" lon="6.07561">
        <ele>415.2</ele>
        <time>2022-09-12T11:18:48Z</time>
      </trkpt>
      <trkpt lat="47.22484" lon="6.07563">
        <ele>414.2</ele>
        <time>2022-09-12T11:18:47Z</time>
      </trkpt>
      <trkpt lat="47.2248" lon="6.07568">
        <ele>412.2</ele>
        <time>2022-09-12T11:18:45Z</time>
      </trkpt>
      <trkpt lat="47.22477" lon="6.0757">
        <ele>411.6</ele>
        <time>2022-09-12T11:18:44Z</time>
      </trkpt>
      <trkpt lat="47.22474" lon="6.07578">
        <ele>411</ele>
        <time>2022-09-12T11:18:42Z</time>
      </trkpt>
      <trkpt lat="47.22469" lon="6.076">
        <ele>409.8</ele>
        <time>2022-09-12T11:18:37Z</time>
      </trkpt>
      <trkpt lat="47.2246" lon="6.07626">
        <ele>409.2</ele>
        <time>2022-09-12T11:18:31Z</time>
      </trkpt>
      <trkpt lat="47.22463" lon="6.07651">
        <ele>408.6</ele>
        <time>2022-09-12T11:18:26Z</time>
      </trkpt>
      <trkpt lat="47.22475" lon="6.07677">
        <ele>408.8</ele>
        <time>2022-09-12T11:18:20Z</time>
      </trkpt>
      <trkpt lat="47.22477" lon="6.07682">
        <ele>409.2</ele>
        <time>2022-09-12T11:18:19Z</time>
      </trkpt>
      <trkpt lat="47.2248" lon="6.07705">
        <ele>410</ele>
        <time>2022-09-12T11:18:14Z</time>
      </trkpt>
      <trkpt lat="47.2248" lon="6.0771">
        <ele>410</ele>
        <time>2022-09-12T11:18:13Z</time>
      </trkpt>
      <trkpt lat="47.22476" lon="6.07733">
        <ele>410.6</ele>
        <time>2022-09-12T11:18:08Z</time>
      </trkpt>
      <trkpt lat="47.22472" lon="6.07746">
        <ele>411</ele>
        <time>2022-09-12T11:18:05Z</time>
      </trkpt>
      <trkpt lat="47.2246" lon="6.07768">
        <ele>412</ele>
        <time>2022-09-12T11:17:59Z</time>
      </trkpt>
      <trkpt lat="47.22458" lon="6.07771">
        <ele>412.2</ele>
        <time>2022-09-12T11:17:58Z</time>
      </trkpt>
      <trkpt lat="47.22447" lon="6.07788">
        <ele>412.6</ele>
        <time>2022-09-12T11:17:52Z</time>
      </trkpt>
      <trkpt lat="47.2244" lon="6.07793">
        <ele>413</ele>
        <time>2022-09-12T11:17:47Z</time>
      </trkpt>
      <trkpt lat="47.22437" lon="6.07794">
        <ele>413.2</ele>
        <time>2022-09-12T11:17:44Z</time>
      </trkpt>
      <trkpt lat="47.22432" lon="6.07797">
        <ele>412.6</ele>
        <time>2022-09-12T11:17:41Z</time>
      </trkpt>
      <trkpt lat="47.22431" lon="6.07799">
        <ele>412.2</ele>
        <time>2022-09-12T11:17:40Z</time>
      </trkpt>
      <trkpt lat="47.22428" lon="6.07806">
        <ele>411.2</ele>
        <time>2022-09-12T11:17:37Z</time>
      </trkpt>
      <trkpt lat="47.22421" lon="6.0783">
        <ele>406.8</ele>
        <time>2022-09-12T11:16:51Z</time>
      </trkpt>
      <trkpt lat="47.22419" lon="6.07834">
        <ele>407</ele>
        <time>2022-09-12T11:16:50Z</time>
      </trkpt>
      <trkpt lat="47.22415" lon="6.07845">
        <ele>407.6</ele>
        <time>2022-09-12T11:16:48Z</time>
      </trkpt>
      <trkpt lat="47.22413" lon="6.07851">
        <ele>408</ele>
        <time>2022-09-12T11:16:47Z</time>
      </trkpt>
      <trkpt lat="47.22411" lon="6.07858">
        <ele>408.4</ele>
        <time>2022-09-12T11:16:46Z</time>
      </trkpt>
      <trkpt lat="47.22407" lon="6.07866">
        <ele>408.8</ele>
        <time>2022-09-12T11:16:45Z</time>
      </trkpt>
      <trkpt lat="47.22399" lon="6.07885">
        <ele>410</ele>
        <time>2022-09-12T11:16:43Z</time>
      </trkpt>
      <trkpt lat="47.22396" lon="6.07893">
        <ele>410.6</ele>
        <time>2022-09-12T11:16:42Z</time>
      </trkpt>
      <trkpt lat="47.22392" lon="6.079">
        <ele>411.4</ele>
        <time>2022-09-12T11:16:41Z</time>
      </trkpt>
      <trkpt lat="47.22385" lon="6.0791">
        <ele>412.4</ele>
        <time>2022-09-12T11:16:39Z</time>
      </trkpt>
      <trkpt lat="47.22382" lon="6.07912">
        <ele>413</ele>
        <time>2022-09-12T11:16:38Z</time>
      </trkpt>
      <trkpt lat="47.22378" lon="6.07915">
        <ele>413.8</ele>
        <time>2022-09-12T11:16:37Z</time>
      </trkpt>
      <trkpt lat="47.22364" lon="6.07922">
        <ele>415.2</ele>
        <time>2022-09-12T11:16:32Z</time>
      </trkpt>
      <trkpt lat="47.22358" lon="6.07926">
        <ele>415.2</ele>
        <time>2022-09-12T11:16:29Z</time>
      </trkpt>
      <trkpt lat="47.22356" lon="6.07928">
        <ele>414.8</ele>
        <time>2022-09-12T11:16:28Z</time>
      </trkpt>
      <trkpt lat="47.22354" lon="6.07933">
        <ele>414.2</ele>
        <time>2022-09-12T11:16:26Z</time>
      </trkpt>
      <trkpt lat="47.2235" lon="6.07937">
        <ele>413.6</ele>
        <time>2022-09-12T11:16:24Z</time>
      </trkpt>
      <trkpt lat="47.22345" lon="6.07946">
        <ele>412.2</ele>
        <time>2022-09-12T11:16:20Z</time>
      </trkpt>
      <trkpt lat="47.22344" lon="6.07954">
        <ele>411</ele>
        <time>2022-09-12T11:16:17Z</time>
      </trkpt>
      <trkpt lat="47.22343" lon="6.07968">
        <ele>410</ele>
        <time>2022-09-12T11:16:12Z</time>
      </trkpt>
      <trkpt lat="47.22343" lon="6.07971">
        <ele>409.6</ele>
        <time>2022-09-12T11:16:11Z</time>
      </trkpt>
      <trkpt lat="47.22343" lon="6.07983">
        <ele>408.6</ele>
        <time>2022-09-12T11:16:07Z</time>
      </trkpt>
      <trkpt lat="47.22344" lon="6.07989">
        <ele>408</ele>
        <time>2022-09-12T11:16:05Z</time>
      </trkpt>
      <trkpt lat="47.22345" lon="6.07996">
        <ele>407.4</ele>
        <time>2022-09-12T11:16:03Z</time>
      </trkpt>
      <trkpt lat="47.22346" lon="6.08015">
        <ele>406</ele>
        <time>2022-09-12T11:15:57Z</time>
      </trkpt>
      <trkpt lat="47.22346" lon="6.08018">
        <ele>406</ele>
        <time>2022-09-12T11:15:56Z</time>
      </trkpt>
      <trkpt lat="47.22349" lon="6.08036">
        <ele>405.2</ele>
        <time>2022-09-12T11:15:51Z</time>
      </trkpt>
      <trkpt lat="47.22349" lon="6.08043">
        <ele>404.8</ele>
        <time>2022-09-12T11:15:49Z</time>
      </trkpt>
      <trkpt lat="47.22349" lon="6.08063">
        <ele>403.8</ele>
        <time>2022-09-12T11:15:43Z</time>
      </trkpt>
      <trkpt lat="47.22349" lon="6.08067">
        <ele>403.6</ele>
        <time>2022-09-12T11:15:42Z</time>
      </trkpt>
      <trkpt lat="47.2235" lon="6.08083">
        <ele>402.6</ele>
        <time>2022-09-12T11:15:37Z</time>
      </trkpt>
      <trkpt lat="47.22351" lon="6.08097">
        <ele>402.6</ele>
        <time>2022-09-12T11:15:33Z</time>
      </trkpt>
      <trkpt lat="47.22354" lon="6.08123">
        <ele>402.4</ele>
        <time>2022-09-12T11:15:26Z</time>
      </trkpt>
      <trkpt lat="47.2236" lon="6.08154">
        <ele>401.6</ele>
        <time>2022-09-12T11:15:18Z</time>
      </trkpt>
      <trkpt lat="47.22366" lon="6.08179">
        <ele>400.6</ele>
        <time>2022-09-12T11:15:11Z</time>
      </trkpt>
      <trkpt lat="47.22367" lon="6.08182">
        <ele>400.4</ele>
        <time>2022-09-12T11:15:10Z</time>
      </trkpt>
      <trkpt lat="47.22373" lon="6.082">
        <ele>399.6</ele>
        <time>2022-09-12T11:15:04Z</time>
      </trkpt>
      <trkpt lat="47.22376" lon="6.08208">
        <ele>399.4</ele>
        <time>2022-09-12T11:15:01Z</time>
      </trkpt>
      <trkpt lat="47.22382" lon="6.08224">
        <ele>398.4</ele>
        <time>2022-09-12T11:14:55Z</time>
      </trkpt>
      <trkpt lat="47.22386" lon="6.08231">
        <ele>398.2</ele>
        <time>2022-09-12T11:14:52Z</time>
      </trkpt>
      <trkpt lat="47.22393" lon="6.08241">
        <ele>397.6</ele>
        <time>2022-09-12T11:14:48Z</time>
      </trkpt>
      <trkpt lat="47.22406" lon="6.08257">
        <ele>397.2</ele>
        <time>2022-09-12T11:14:41Z</time>
      </trkpt>
      <trkpt lat="47.22411" lon="6.08262">
        <ele>396.2</ele>
        <time>2022-09-12T11:14:38Z</time>
      </trkpt>
      <trkpt lat="47.22415" lon="6.08268">
        <ele>395.2</ele>
        <time>2022-09-12T11:14:35Z</time>
      </trkpt>
      <trkpt lat="47.22417" lon="6.0827">
        <ele>395.2</ele>
        <time>2022-09-12T11:14:34Z</time>
      </trkpt>
      <trkpt lat="47.2242" lon="6.08274">
        <ele>394.8</ele>
        <time>2022-09-12T11:14:32Z</time>
      </trkpt>
      <trkpt lat="47.22421" lon="6.08276">
        <ele>394.6</ele>
        <time>2022-09-12T11:14:31Z</time>
      </trkpt>
      <trkpt lat="47.22418" lon="6.08284">
        <ele>393.6</ele>
        <time>2022-09-12T11:14:28Z</time>
      </trkpt>
      <trkpt lat="47.22418" lon="6.08287">
        <ele>393.2</ele>
        <time>2022-09-12T11:14:27Z</time>
      </trkpt>
      <trkpt lat="47.22418" lon="6.08291">
        <ele>392.6</ele>
        <time>2022-09-12T11:14:26Z</time>
      </trkpt>
      <trkpt lat="47.22418" lon="6.08303">
        <ele>391.2</ele>
        <time>2022-09-12T11:14:23Z</time>
      </trkpt>
      <trkpt lat="47.22418" lon="6.08311">
        <ele>390.2</ele>
        <time>2022-09-12T11:14:21Z</time>
      </trkpt>
      <trkpt lat="47.22417" lon="6.08315">
        <ele>389.8</ele>
        <time>2022-09-12T11:14:20Z</time>
      </trkpt>
      <trkpt lat="47.22413" lon="6.08328">
        <ele>388.6</ele>
        <time>2022-09-12T11:14:16Z</time>
      </trkpt>
      <trkpt lat="47.22398" lon="6.08362">
        <ele>387.6</ele>
        <time>2022-09-12T11:14:09Z</time>
      </trkpt>
      <trkpt lat="47.22396" lon="6.08368">
        <ele>387.4</ele>
        <time>2022-09-12T11:14:08Z</time>
      </trkpt>
      <trkpt lat="47.22381" lon="6.084">
        <ele>386.6</ele>
        <time>2022-09-12T11:14:02Z</time>
      </trkpt>
      <trkpt lat="47.22371" lon="6.08418">
        <ele>386.4</ele>
        <time>2022-09-12T11:13:59Z</time>
      </trkpt>
      <trkpt lat="47.22356" lon="6.08447">
        <ele>385.4</ele>
        <time>2022-09-12T11:13:54Z</time>
      </trkpt>
      <trkpt lat="47.22338" lon="6.08494">
        <ele>384.6</ele>
        <time>2022-09-12T11:13:47Z</time>
      </trkpt>
      <trkpt lat="47.22332" lon="6.08506">
        <ele>384.4</ele>
        <time>2022-09-12T11:13:45Z</time>
      </trkpt>
      <trkpt lat="47.22329" lon="6.08512">
        <ele>384.2</ele>
        <time>2022-09-12T11:13:44Z</time>
      </trkpt>
      <trkpt lat="47.22321" lon="6.08522">
        <ele>383.8</ele>
        <time>2022-09-12T11:13:42Z</time>
      </trkpt>
      <trkpt lat="47.22301" lon="6.08545">
        <ele>383.2</ele>
        <time>2022-09-12T11:13:37Z</time>
      </trkpt>
      <trkpt lat="47.22289" lon="6.0856">
        <ele>382.2</ele>
        <time>2022-09-12T11:13:34Z</time>
      </trkpt>
      <trkpt lat="47.22285" lon="6.08565">
        <ele>381.8</ele>
        <time>2022-09-12T11:13:33Z</time>
      </trkpt>
      <trkpt lat="47.22269" lon="6.08596">
        <ele>380.6</ele>
        <time>2022-09-12T11:13:28Z</time>
      </trkpt>
      <trkpt lat="47.22259" lon="6.08614">
        <ele>379.2</ele>
        <time>2022-09-12T11:13:25Z</time>
      </trkpt>
      <trkpt lat="47.22256" lon="6.08621">
        <ele>378.8</ele>
        <time>2022-09-12T11:13:24Z</time>
      </trkpt>
      <trkpt lat="47.22249" lon="6.08633">
        <ele>378</ele>
        <time>2022-09-12T11:13:22Z</time>
      </trkpt>
      <trkpt lat="47.2224" lon="6.08651">
        <ele>376.2</ele>
        <time>2022-09-12T11:13:19Z</time>
      </trkpt>
      <trkpt lat="47.2223" lon="6.08671">
        <ele>374.8</ele>
        <time>2022-09-12T11:13:16Z</time>
      </trkpt>
      <trkpt lat="47.22225" lon="6.08684">
        <ele>373.2</ele>
        <time>2022-09-12T11:13:14Z</time>
      </trkpt>
      <trkpt lat="47.22221" lon="6.08699">
        <ele>371.6</ele>
        <time>2022-09-12T11:13:12Z</time>
      </trkpt>
      <trkpt lat="47.2222" lon="6.08707">
        <ele>370.8</ele>
        <time>2022-09-12T11:13:11Z</time>
      </trkpt>
      <trkpt lat="47.2222" lon="6.08715">
        <ele>370</ele>
        <time>2022-09-12T11:13:10Z</time>
      </trkpt>
      <trkpt lat="47.2222" lon="6.08724">
        <ele>369</ele>
        <time>2022-09-12T11:13:09Z</time>
      </trkpt>
      <trkpt lat="47.22221" lon="6.08732">
        <ele>368</ele>
        <time>2022-09-12T11:13:08Z</time>
      </trkpt>
      <trkpt lat="47.22223" lon="6.08741">
        <ele>367</ele>
        <time>2022-09-12T11:13:07Z</time>
      </trkpt>
      <trkpt lat="47.22225" lon="6.08758">
        <ele>365.4</ele>
        <time>2022-09-12T11:13:05Z</time>
      </trkpt>
      <trkpt lat="47.22228" lon="6.08775">
        <ele>364</ele>
        <time>2022-09-12T11:13:03Z</time>
      </trkpt>
      <trkpt lat="47.22231" lon="6.08791">
        <ele>362.4</ele>
        <time>2022-09-12T11:13:01Z</time>
      </trkpt>
      <trkpt lat="47.22232" lon="6.08807">
        <ele>361</ele>
        <time>2022-09-12T11:12:59Z</time>
      </trkpt>
      <trkpt lat="47.22232" lon="6.08826">
        <ele>359.4</ele>
        <time>2022-09-12T11:12:57Z</time>
      </trkpt>
      <trkpt lat="47.22232" lon="6.08844">
        <ele>358.4</ele>
        <time>2022-09-12T11:12:55Z</time>
      </trkpt>
      <trkpt lat="47.2223" lon="6.0886">
        <ele>357.2</ele>
        <time>2022-09-12T11:12:53Z</time>
      </trkpt>
      <trkpt lat="47.22229" lon="6.08868">
        <ele>357</ele>
        <time>2022-09-12T11:12:52Z</time>
      </trkpt>
      <trkpt lat="47.22225" lon="6.08883">
        <ele>357</ele>
        <time>2022-09-12T11:12:50Z</time>
      </trkpt>
      <trkpt lat="47.22224" lon="6.0889">
        <ele>357.4</ele>
        <time>2022-09-12T11:12:49Z</time>
      </trkpt>
      <trkpt lat="47.22219" lon="6.08913">
        <ele>358.6</ele>
        <time>2022-09-12T11:12:46Z</time>
      </trkpt>
      <trkpt lat="47.22212" lon="6.08946">
        <ele>360.2</ele>
        <time>2022-09-12T11:12:42Z</time>
      </trkpt>
      <trkpt lat="47.22208" lon="6.0897">
        <ele>361.2</ele>
        <time>2022-09-12T11:12:39Z</time>
      </trkpt>
      <trkpt lat="47.22205" lon="6.08994">
        <ele>362.2</ele>
        <time>2022-09-12T11:12:36Z</time>
      </trkpt>
      <trkpt lat="47.222" lon="6.09017">
        <ele>363.4</ele>
        <time>2022-09-12T11:12:33Z</time>
      </trkpt>
      <trkpt lat="47.22197" lon="6.09033">
        <ele>364.2</ele>
        <time>2022-09-12T11:12:31Z</time>
      </trkpt>
      <trkpt lat="47.22195" lon="6.0904">
        <ele>364.6</ele>
        <time>2022-09-12T11:12:30Z</time>
      </trkpt>
      <trkpt lat="47.22188" lon="6.09071">
        <ele>365.8</ele>
        <time>2022-09-12T11:12:26Z</time>
      </trkpt>
      <trkpt lat="47.22182" lon="6.09094">
        <ele>366.8</ele>
        <time>2022-09-12T11:12:23Z</time>
      </trkpt>
      <trkpt lat="47.22173" lon="6.09132">
        <ele>368.2</ele>
        <time>2022-09-12T11:12:18Z</time>
      </trkpt>
      <trkpt lat="47.22167" lon="6.09155">
        <ele>369</ele>
        <time>2022-09-12T11:12:15Z</time>
      </trkpt>
      <trkpt lat="47.22165" lon="6.09163">
        <ele>369.4</ele>
        <time>2022-09-12T11:12:14Z</time>
      </trkpt>
      <trkpt lat="47.22159" lon="6.09188">
        <ele>370.6</ele>
        <time>2022-09-12T11:12:11Z</time>
      </trkpt>
      <trkpt lat="47.22155" lon="6.09211">
        <ele>371.4</ele>
        <time>2022-09-12T11:12:08Z</time>
      </trkpt>
      <trkpt lat="47.22153" lon="6.09225">
        <ele>371.6</ele>
        <time>2022-09-12T11:12:06Z</time>
      </trkpt>
      <trkpt lat="47.22152" lon="6.09232">
        <ele>372</ele>
        <time>2022-09-12T11:12:05Z</time>
      </trkpt>
      <trkpt lat="47.22149" lon="6.09248">
        <ele>372.8</ele>
        <time>2022-09-12T11:12:03Z</time>
      </trkpt>
      <trkpt lat="47.22147" lon="6.09256">
        <ele>373.2</ele>
        <time>2022-09-12T11:12:02Z</time>
      </trkpt>
      <trkpt lat="47.22142" lon="6.0928">
        <ele>374.6</ele>
        <time>2022-09-12T11:11:59Z</time>
      </trkpt>
      <trkpt lat="47.22136" lon="6.09303">
        <ele>376</ele>
        <time>2022-09-12T11:11:56Z</time>
      </trkpt>
      <trkpt lat="47.22135" lon="6.09311">
        <ele>376.6</ele>
        <time>2022-09-12T11:11:55Z</time>
      </trkpt>
      <trkpt lat="47.22131" lon="6.09327">
        <ele>377.4</ele>
        <time>2022-09-12T11:11:53Z</time>
      </trkpt>
      <trkpt lat="47.22124" lon="6.09359">
        <ele>378.6</ele>
        <time>2022-09-12T11:11:49Z</time>
      </trkpt>
      <trkpt lat="47.22121" lon="6.09375">
        <ele>379</ele>
        <time>2022-09-12T11:11:47Z</time>
      </trkpt>
      <trkpt lat="47.22113" lon="6.09407">
        <ele>379.8</ele>
        <time>2022-09-12T11:11:43Z</time>
      </trkpt>
      <trkpt lat="47.22106" lon="6.0944">
        <ele>380.8</ele>
        <time>2022-09-12T11:11:39Z</time>
      </trkpt>
      <trkpt lat="47.22095" lon="6.09504">
        <ele>382.4</ele>
        <time>2022-09-12T11:11:31Z</time>
      </trkpt>
      <trkpt lat="47.22083" lon="6.09562">
        <ele>382.8</ele>
        <time>2022-09-12T11:11:24Z</time>
      </trkpt>
      <trkpt lat="47.2207" lon="6.09626">
        <ele>382.6</ele>
        <time>2022-09-12T11:11:17Z</time>
      </trkpt>
      <trkpt lat="47.22058" lon="6.09685">
        <ele>382.4</ele>
        <time>2022-09-12T11:11:10Z</time>
      </trkpt>
      <trkpt lat="47.2205" lon="6.0972">
        <ele>382</ele>
        <time>2022-09-12T11:11:06Z</time>
      </trkpt>
      <trkpt lat="47.22046" lon="6.09746">
        <ele>381.6</ele>
        <time>2022-09-12T11:11:03Z</time>
      </trkpt>
      <trkpt lat="47.22044" lon="6.09763">
        <ele>381</ele>
        <time>2022-09-12T11:11:01Z</time>
      </trkpt>
      <trkpt lat="47.22044" lon="6.09797">
        <ele>380</ele>
        <time>2022-09-12T11:10:57Z</time>
      </trkpt>
      <trkpt lat="47.22046" lon="6.09813">
        <ele>379.6</ele>
        <time>2022-09-12T11:10:55Z</time>
      </trkpt>
      <trkpt lat="47.22053" lon="6.09846">
        <ele>379</ele>
        <time>2022-09-12T11:10:51Z</time>
      </trkpt>
      <trkpt lat="47.22065" lon="6.09899">
        <ele>378.8</ele>
        <time>2022-09-12T11:10:45Z</time>
      </trkpt>
      <trkpt lat="47.22066" lon="6.09908">
        <ele>379</ele>
        <time>2022-09-12T11:10:44Z</time>
      </trkpt>
      <trkpt lat="47.22068" lon="6.09945">
        <ele>380</ele>
        <time>2022-09-12T11:10:40Z</time>
      </trkpt>
      <trkpt lat="47.2207" lon="6.09971">
        <ele>380.6</ele>
        <time>2022-09-12T11:10:37Z</time>
      </trkpt>
      <trkpt lat="47.22071" lon="6.10004">
        <ele>381.2</ele>
        <time>2022-09-12T11:10:33Z</time>
      </trkpt>
      <trkpt lat="47.22072" lon="6.10028">
        <ele>381.4</ele>
        <time>2022-09-12T11:10:30Z</time>
      </trkpt>
      <trkpt lat="47.22073" lon="6.10079">
        <ele>381.8</ele>
        <time>2022-09-12T11:10:24Z</time>
      </trkpt>
      <trkpt lat="47.22074" lon="6.10113">
        <ele>382.2</ele>
        <time>2022-09-12T11:10:20Z</time>
      </trkpt>
      <trkpt lat="47.22076" lon="6.10149">
        <ele>382.6</ele>
        <time>2022-09-12T11:10:16Z</time>
      </trkpt>
      <trkpt lat="47.22079" lon="6.10221">
        <ele>382.8</ele>
        <time>2022-09-12T11:10:08Z</time>
      </trkpt>
      <trkpt lat="47.22083" lon="6.10292">
        <ele>382.8</ele>
        <time>2022-09-12T11:10:00Z</time>
      </trkpt>
      <trkpt lat="47.22087" lon="6.10359">
        <ele>383.2</ele>
        <time>2022-09-12T11:09:52Z</time>
      </trkpt>
      <trkpt lat="47.22087" lon="6.10367">
        <ele>383.2</ele>
        <time>2022-09-12T11:09:51Z</time>
      </trkpt>
      <trkpt lat="47.22086" lon="6.10418">
        <ele>383.8</ele>
        <time>2022-09-12T11:09:45Z</time>
      </trkpt>
      <trkpt lat="47.22089" lon="6.10491">
        <ele>384.2</ele>
        <time>2022-09-12T11:09:37Z</time>
      </trkpt>
      <trkpt lat="47.2209" lon="6.10501">
        <ele>384.2</ele>
        <time>2022-09-12T11:09:36Z</time>
      </trkpt>
      <trkpt lat="47.22083" lon="6.10554">
        <ele>384.6</ele>
        <time>2022-09-12T11:09:30Z</time>
      </trkpt>
      <trkpt lat="47.22074" lon="6.10599">
        <ele>385.2</ele>
        <time>2022-09-12T11:09:25Z</time>
      </trkpt>
      <trkpt lat="47.22067" lon="6.10635">
        <ele>386</ele>
        <time>2022-09-12T11:09:21Z</time>
      </trkpt>
      <trkpt lat="47.22048" lon="6.10702">
        <ele>386.4</ele>
        <time>2022-09-12T11:09:13Z</time>
      </trkpt>
      <trkpt lat="47.22027" lon="6.10766">
        <ele>386</ele>
        <time>2022-09-12T11:09:04Z</time>
      </trkpt>
      <trkpt lat="47.22019" lon="6.10786">
        <ele>386.2</ele>
        <time>2022-09-12T11:09:01Z</time>
      </trkpt>
      <trkpt lat="47.22016" lon="6.10792">
        <ele>386.2</ele>
        <time>2022-09-12T11:09:00Z</time>
      </trkpt>
      <trkpt lat="47.22012" lon="6.10798">
        <ele>386.4</ele>
        <time>2022-09-12T11:08:59Z</time>
      </trkpt>
      <trkpt lat="47.22009" lon="6.10803">
        <ele>386.6</ele>
        <time>2022-09-12T11:08:58Z</time>
      </trkpt>
      <trkpt lat="47.22005" lon="6.10841">
        <ele>387.2</ele>
        <time>2022-09-12T11:08:53Z</time>
      </trkpt>
      <trkpt lat="47.22005" lon="6.10849">
        <ele>387.4</ele>
        <time>2022-09-12T11:08:52Z</time>
      </trkpt>
      <trkpt lat="47.21998" lon="6.10892">
        <ele>388.6</ele>
        <time>2022-09-12T11:08:47Z</time>
      </trkpt>
      <trkpt lat="47.21997" lon="6.109">
        <ele>388.8</ele>
        <time>2022-09-12T11:08:46Z</time>
      </trkpt>
      <trkpt lat="47.21996" lon="6.10907">
        <ele>388.8</ele>
        <time>2022-09-12T11:08:45Z</time>
      </trkpt>
      <trkpt lat="47.21995" lon="6.1092">
        <ele>389</ele>
        <time>2022-09-12T11:08:43Z</time>
      </trkpt>
      <trkpt lat="47.21991" lon="6.10926">
        <ele>389.2</ele>
        <time>2022-09-12T11:08:41Z</time>
      </trkpt>
      <trkpt lat="47.21989" lon="6.10925">
        <ele>389.2</ele>
        <time>2022-09-12T11:08:40Z</time>
      </trkpt>
      <trkpt lat="47.21982" lon="6.10917">
        <ele>389.2</ele>
        <time>2022-09-12T11:08:37Z</time>
      </trkpt>
      <trkpt lat="47.21973" lon="6.10906">
        <ele>389</ele>
        <time>2022-09-12T11:08:34Z</time>
      </trkpt>
      <trkpt lat="47.21966" lon="6.10894">
        <ele>388.2</ele>
        <time>2022-09-12T11:08:30Z</time>
      </trkpt>
      <trkpt lat="47.21962" lon="6.10891">
        <ele>388.4</ele>
        <time>2022-09-12T11:08:26Z</time>
      </trkpt>
      <trkpt lat="47.21961" lon="6.1089">
        <ele>388.6</ele>
        <time>2022-09-12T11:08:25Z</time>
      </trkpt>
      <trkpt lat="47.21961" lon="6.10888">
        <ele>388.8</ele>
        <time>2022-09-12T11:08:24Z</time>
      </trkpt>
      <trkpt lat="47.21963" lon="6.1089">
        <ele>389.4</ele>
        <time>2022-09-12T11:08:21Z</time>
      </trkpt>
      <trkpt lat="47.21963" lon="6.10896">
        <ele>390.4</ele>
        <time>2022-09-12T11:08:19Z</time>
      </trkpt>
      <trkpt lat="47.21963" lon="6.109">
        <ele>390.8</ele>
        <time>2022-09-12T11:08:18Z</time>
      </trkpt>
      <trkpt lat="47.21959" lon="6.1091">
        <ele>392</ele>
        <time>2022-09-12T11:08:16Z</time>
      </trkpt>
      <trkpt lat="47.21954" lon="6.10922">
        <ele>393.4</ele>
        <time>2022-09-12T11:08:14Z</time>
      </trkpt>
      <trkpt lat="47.21951" lon="6.10929">
        <ele>393.8</ele>
        <time>2022-09-12T11:08:13Z</time>
      </trkpt>
      <trkpt lat="47.21941" lon="6.10949">
        <ele>394.4</ele>
        <time>2022-09-12T11:08:10Z</time>
      </trkpt>
      <trkpt lat="47.21938" lon="6.10954">
        <ele>394.8</ele>
        <time>2022-09-12T11:08:09Z</time>
      </trkpt>
      <trkpt lat="47.21933" lon="6.10966">
        <ele>395.2</ele>
        <time>2022-09-12T11:08:06Z</time>
      </trkpt>
      <trkpt lat="47.21934" lon="6.10976">
        <ele>395.4</ele>
        <time>2022-09-12T11:08:03Z</time>
      </trkpt>
      <trkpt lat="47.21921" lon="6.10985">
        <ele>395.4</ele>
        <time>2022-09-12T11:08:00Z</time>
      </trkpt>
      <trkpt lat="47.21915" lon="6.10988">
        <ele>395.6</ele>
        <time>2022-09-12T11:07:59Z</time>
      </trkpt>
      <trkpt lat="47.21903" lon="6.10997">
        <ele>395.8</ele>
        <time>2022-09-12T11:07:57Z</time>
      </trkpt>
      <trkpt lat="47.21869" lon="6.11025">
        <ele>396.6</ele>
        <time>2022-09-12T11:07:51Z</time>
      </trkpt>
      <trkpt lat="47.21863" lon="6.1103">
        <ele>397</ele>
        <time>2022-09-12T11:07:50Z</time>
      </trkpt>
      <trkpt lat="47.21839" lon="6.11054">
        <ele>397.8</ele>
        <time>2022-09-12T11:07:46Z</time>
      </trkpt>
      <trkpt lat="47.21833" lon="6.11059">
        <ele>398.2</ele>
        <time>2022-09-12T11:07:45Z</time>
      </trkpt>
      <trkpt lat="47.21819" lon="6.11068">
        <ele>399</ele>
        <time>2022-09-12T11:07:43Z</time>
      </trkpt>
      <trkpt lat="47.21795" lon="6.11082">
        <ele>400.4</ele>
        <time>2022-09-12T11:07:40Z</time>
      </trkpt>
      <trkpt lat="47.2177" lon="6.11096">
        <ele>401.4</ele>
        <time>2022-09-12T11:07:36Z</time>
      </trkpt>
      <trkpt lat="47.21762" lon="6.11099">
        <ele>401.8</ele>
        <time>2022-09-12T11:07:34Z</time>
      </trkpt>
      <trkpt lat="47.21755" lon="6.11098">
        <ele>402.2</ele>
        <time>2022-09-12T11:07:32Z</time>
      </trkpt>
      <trkpt lat="47.21751" lon="6.11092">
        <ele>402.6</ele>
        <time>2022-09-12T11:07:30Z</time>
      </trkpt>
      <trkpt lat="47.21746" lon="6.11085">
        <ele>403.2</ele>
        <time>2022-09-12T11:07:27Z</time>
      </trkpt>
      <trkpt lat="47.21743" lon="6.11083">
        <ele>403.6</ele>
        <time>2022-09-12T11:07:26Z</time>
      </trkpt>
      <trkpt lat="47.21738" lon="6.11081">
        <ele>404.6</ele>
        <time>2022-09-12T11:07:25Z</time>
      </trkpt>
      <trkpt lat="47.21732" lon="6.11081">
        <ele>405</ele>
        <time>2022-09-12T11:07:24Z</time>
      </trkpt>
      <trkpt lat="47.21719" lon="6.11085">
        <ele>405.4</ele>
        <time>2022-09-12T11:07:22Z</time>
      </trkpt>
      <trkpt lat="47.21707" lon="6.1109">
        <ele>405.2</ele>
        <time>2022-09-12T11:07:20Z</time>
      </trkpt>
      <trkpt lat="47.21686" lon="6.11108">
        <ele>405.2</ele>
        <time>2022-09-12T11:07:16Z</time>
      </trkpt>
      <trkpt lat="47.21667" lon="6.11131">
        <ele>405.6</ele>
        <time>2022-09-12T11:07:12Z</time>
      </trkpt>
      <trkpt lat="47.2165" lon="6.11155">
        <ele>406</ele>
        <time>2022-09-12T11:07:08Z</time>
      </trkpt>
      <trkpt lat="47.21646" lon="6.1116">
        <ele>406</ele>
        <time>2022-09-12T11:07:07Z</time>
      </trkpt>
      <trkpt lat="47.21637" lon="6.11171">
        <ele>406.2</ele>
        <time>2022-09-12T11:07:05Z</time>
      </trkpt>
      <trkpt lat="47.21621" lon="6.11188">
        <ele>406.6</ele>
        <time>2022-09-12T11:07:01Z</time>
      </trkpt>
      <trkpt lat="47.21613" lon="6.11205">
        <ele>407</ele>
        <time>2022-09-12T11:06:57Z</time>
      </trkpt>
      <trkpt lat="47.21609" lon="6.1121">
        <ele>407.8</ele>
        <time>2022-09-12T11:06:55Z</time>
      </trkpt>
      <trkpt lat="47.21598" lon="6.11225">
        <ele>408.6</ele>
        <time>2022-09-12T11:06:52Z</time>
      </trkpt>
      <trkpt lat="47.21589" lon="6.11243">
        <ele>410</ele>
        <time>2022-09-12T11:06:50Z</time>
      </trkpt>
      <trkpt lat="47.21568" lon="6.11279">
        <ele>411.2</ele>
        <time>2022-09-12T11:06:46Z</time>
      </trkpt>
      <trkpt lat="47.21549" lon="6.11317">
        <ele>412.6</ele>
        <time>2022-09-12T11:06:42Z</time>
      </trkpt>
      <trkpt lat="47.21526" lon="6.11359">
        <ele>413.8</ele>
        <time>2022-09-12T11:06:37Z</time>
      </trkpt>
      <trkpt lat="47.21498" lon="6.11412">
        <ele>414.2</ele>
        <time>2022-09-12T11:06:30Z</time>
      </trkpt>
      <trkpt lat="47.21488" lon="6.11432">
        <ele>413.8</ele>
        <time>2022-09-12T11:06:27Z</time>
      </trkpt>
      <trkpt lat="47.21474" lon="6.11456">
        <ele>412.6</ele>
        <time>2022-09-12T11:06:23Z</time>
      </trkpt>
      <trkpt lat="47.21463" lon="6.11475">
        <ele>412</ele>
        <time>2022-09-12T11:06:20Z</time>
      </trkpt>
      <trkpt lat="47.21449" lon="6.11502">
        <ele>411.6</ele>
        <time>2022-09-12T11:06:16Z</time>
      </trkpt>
      <trkpt lat="47.21436" lon="6.1153">
        <ele>410</ele>
        <time>2022-09-12T11:06:12Z</time>
      </trkpt>
      <trkpt lat="47.21433" lon="6.11537">
        <ele>409.8</ele>
        <time>2022-09-12T11:06:11Z</time>
      </trkpt>
      <trkpt lat="47.21416" lon="6.11585">
        <ele>408.6</ele>
        <time>2022-09-12T11:06:05Z</time>
      </trkpt>
      <trkpt lat="47.21395" lon="6.1163">
        <ele>408</ele>
        <time>2022-09-12T11:06:00Z</time>
      </trkpt>
      <trkpt lat="47.21372" lon="6.11664">
        <ele>408.8</ele>
        <time>2022-09-12T11:05:56Z</time>
      </trkpt>
      <trkpt lat="47.21343" lon="6.11706">
        <ele>409.8</ele>
        <time>2022-09-12T11:05:51Z</time>
      </trkpt>
      <trkpt lat="47.21338" lon="6.11714">
        <ele>410</ele>
        <time>2022-09-12T11:05:50Z</time>
      </trkpt>
      <trkpt lat="47.21321" lon="6.1174">
        <ele>410.8</ele>
        <time>2022-09-12T11:05:47Z</time>
      </trkpt>
      <trkpt lat="47.21311" lon="6.11758">
        <ele>411.2</ele>
        <time>2022-09-12T11:05:45Z</time>
      </trkpt>
      <trkpt lat="47.21298" lon="6.11775">
        <ele>412</ele>
        <time>2022-09-12T11:05:43Z</time>
      </trkpt>
      <trkpt lat="47.2129" lon="6.11782">
        <ele>412.2</ele>
        <time>2022-09-12T11:05:42Z</time>
      </trkpt>
      <trkpt lat="47.21282" lon="6.11787">
        <ele>412.8</ele>
        <time>2022-09-12T11:05:41Z</time>
      </trkpt>
      <trkpt lat="47.21265" lon="6.11796">
        <ele>413.6</ele>
        <time>2022-09-12T11:05:39Z</time>
      </trkpt>
      <trkpt lat="47.21249" lon="6.11802">
        <ele>414.4</ele>
        <time>2022-09-12T11:05:37Z</time>
      </trkpt>
      <trkpt lat="47.21214" lon="6.11839">
        <ele>415.4</ele>
        <time>2022-09-12T11:05:31Z</time>
      </trkpt>
      <trkpt lat="47.21186" lon="6.11881">
        <ele>414.8</ele>
        <time>2022-09-12T11:05:24Z</time>
      </trkpt>
      <trkpt lat="47.21183" lon="6.11888">
        <ele>414.6</ele>
        <time>2022-09-12T11:05:23Z</time>
      </trkpt>
      <trkpt lat="47.2117" lon="6.11914">
        <ele>413.6</ele>
        <time>2022-09-12T11:05:19Z</time>
      </trkpt>
      <trkpt lat="47.21161" lon="6.11933">
        <ele>412.4</ele>
        <time>2022-09-12T11:05:16Z</time>
      </trkpt>
      <trkpt lat="47.21155" lon="6.11946">
        <ele>411.6</ele>
        <time>2022-09-12T11:05:14Z</time>
      </trkpt>
      <trkpt lat="47.21152" lon="6.11952">
        <ele>411.2</ele>
        <time>2022-09-12T11:05:13Z</time>
      </trkpt>
      <trkpt lat="47.21149" lon="6.11958">
        <ele>410.6</ele>
        <time>2022-09-12T11:05:12Z</time>
      </trkpt>
      <trkpt lat="47.21146" lon="6.11963">
        <ele>410.2</ele>
        <time>2022-09-12T11:05:11Z</time>
      </trkpt>
      <trkpt lat="47.21141" lon="6.11975">
        <ele>408.6</ele>
        <time>2022-09-12T11:05:09Z</time>
      </trkpt>
      <trkpt lat="47.21136" lon="6.11988">
        <ele>407.2</ele>
        <time>2022-09-12T11:05:07Z</time>
      </trkpt>
      <trkpt lat="47.21133" lon="6.11994">
        <ele>406.8</ele>
        <time>2022-09-12T11:05:06Z</time>
      </trkpt>
      <trkpt lat="47.21129" lon="6.12008">
        <ele>405.8</ele>
        <time>2022-09-12T11:05:04Z</time>
      </trkpt>
      <trkpt lat="47.21126" lon="6.12023">
        <ele>404.8</ele>
        <time>2022-09-12T11:05:02Z</time>
      </trkpt>
      <trkpt lat="47.21125" lon="6.12031">
        <ele>404.6</ele>
        <time>2022-09-12T11:05:01Z</time>
      </trkpt>
      <trkpt lat="47.21124" lon="6.12072">
        <ele>403.6</ele>
        <time>2022-09-12T11:04:57Z</time>
      </trkpt>
      <trkpt lat="47.21124" lon="6.12085">
        <ele>403.4</ele>
        <time>2022-09-12T11:04:56Z</time>
      </trkpt>
      <trkpt lat="47.21123" lon="6.12122">
        <ele>403.2</ele>
        <time>2022-09-12T11:04:53Z</time>
      </trkpt>
      <trkpt lat="47.21122" lon="6.12136">
        <ele>403.4</ele>
        <time>2022-09-12T11:04:52Z</time>
      </trkpt>
      <trkpt lat="47.21119" lon="6.12149">
        <ele>403.4</ele>
        <time>2022-09-12T11:04:51Z</time>
      </trkpt>
      <trkpt lat="47.2111" lon="6.12173">
        <ele>403.8</ele>
        <time>2022-09-12T11:04:49Z</time>
      </trkpt>
      <trkpt lat="47.211" lon="6.12198">
        <ele>404.6</ele>
        <time>2022-09-12T11:04:47Z</time>
      </trkpt>
      <trkpt lat="47.21089" lon="6.12238">
        <ele>405.8</ele>
        <time>2022-09-12T11:04:44Z</time>
      </trkpt>
      <trkpt lat="47.21086" lon="6.12251">
        <ele>406.2</ele>
        <time>2022-09-12T11:04:43Z</time>
      </trkpt>
      <trkpt lat="47.2108" lon="6.12276">
        <ele>407</ele>
        <time>2022-09-12T11:04:41Z</time>
      </trkpt>
      <trkpt lat="47.21073" lon="6.12312">
        <ele>407.8</ele>
        <time>2022-09-12T11:04:38Z</time>
      </trkpt>
      <trkpt lat="47.21071" lon="6.12336">
        <ele>408.2</ele>
        <time>2022-09-12T11:04:36Z</time>
      </trkpt>
      <trkpt lat="47.21068" lon="6.12371">
        <ele>409.4</ele>
        <time>2022-09-12T11:04:33Z</time>
      </trkpt>
      <trkpt lat="47.21067" lon="6.12382">
        <ele>409.8</ele>
        <time>2022-09-12T11:04:32Z</time>
      </trkpt>
      <trkpt lat="47.21066" lon="6.12392">
        <ele>410.4</ele>
        <time>2022-09-12T11:04:31Z</time>
      </trkpt>
      <trkpt lat="47.21065" lon="6.12402">
        <ele>410.8</ele>
        <time>2022-09-12T11:04:30Z</time>
      </trkpt>
      <trkpt lat="47.21061" lon="6.12418">
        <ele>411.8</ele>
        <time>2022-09-12T11:04:28Z</time>
      </trkpt>
      <trkpt lat="47.21059" lon="6.12426">
        <ele>412.4</ele>
        <time>2022-09-12T11:04:27Z</time>
      </trkpt>
      <trkpt lat="47.21056" lon="6.12439">
        <ele>413</ele>
        <time>2022-09-12T11:04:25Z</time>
      </trkpt>
      <trkpt lat="47.21053" lon="6.12451">
        <ele>413.8</ele>
        <time>2022-09-12T11:04:23Z</time>
      </trkpt>
      <trkpt lat="47.21051" lon="6.12457">
        <ele>414</ele>
        <time>2022-09-12T11:04:22Z</time>
      </trkpt>
      <trkpt lat="47.21046" lon="6.12467">
        <ele>414.8</ele>
        <time>2022-09-12T11:04:20Z</time>
      </trkpt>
      <trkpt lat="47.21042" lon="6.12482">
        <ele>415.8</ele>
        <time>2022-09-12T11:04:17Z</time>
      </trkpt>
      <trkpt lat="47.21038" lon="6.12498">
        <ele>416.8</ele>
        <time>2022-09-12T11:04:14Z</time>
      </trkpt>
      <trkpt lat="47.21037" lon="6.12503">
        <ele>417</ele>
        <time>2022-09-12T11:04:13Z</time>
      </trkpt>
      <trkpt lat="47.21033" lon="6.12516">
        <ele>418.2</ele>
        <time>2022-09-12T11:04:10Z</time>
      </trkpt>
      <trkpt lat="47.21033" lon="6.1252">
        <ele>418.6</ele>
        <time>2022-09-12T11:04:09Z</time>
      </trkpt>
      <trkpt lat="47.21033" lon="6.12529">
        <ele>419.6</ele>
        <time>2022-09-12T11:04:07Z</time>
      </trkpt>
      <trkpt lat="47.21035" lon="6.12538">
        <ele>420.4</ele>
        <time>2022-09-12T11:04:04Z</time>
      </trkpt>
      <trkpt lat="47.21035" lon="6.12546">
        <ele>420.8</ele>
        <time>2022-09-12T11:02:12Z</time>
      </trkpt>
      <trkpt lat="47.21036" lon="6.12549">
        <ele>420.8</ele>
        <time>2022-09-12T11:02:11Z</time>
      </trkpt>
      <trkpt lat="47.21039" lon="6.1256">
        <ele>421</ele>
        <time>2022-09-12T11:02:08Z</time>
      </trkpt>
      <trkpt lat="47.21034" lon="6.12605">
        <ele>421.6</ele>
        <time>2022-09-12T11:02:03Z</time>
      </trkpt>
      <trkpt lat="47.21034" lon="6.12617">
        <ele>421.8</ele>
        <time>2022-09-12T11:02:02Z</time>
      </trkpt>
      <trkpt lat="47.21031" lon="6.1268">
        <ele>422.8</ele>
        <time>2022-09-12T11:01:57Z</time>
      </trkpt>
      <trkpt lat="47.21033" lon="6.12745">
        <ele>423.8</ele>
        <time>2022-09-12T11:01:51Z</time>
      </trkpt>
      <trkpt lat="47.21034" lon="6.12755">
        <ele>424</ele>
        <time>2022-09-12T11:01:50Z</time>
      </trkpt>
      <trkpt lat="47.21037" lon="6.12797">
        <ele>425</ele>
        <time>2022-09-12T11:01:46Z</time>
      </trkpt>
      <trkpt lat="47.21036" lon="6.12852">
        <ele>426.2</ele>
        <time>2022-09-12T11:01:41Z</time>
      </trkpt>
      <trkpt lat="47.21027" lon="6.12908">
        <ele>427.4</ele>
        <time>2022-09-12T11:01:36Z</time>
      </trkpt>
      <trkpt lat="47.21024" lon="6.12934">
        <ele>428.2</ele>
        <time>2022-09-12T11:01:34Z</time>
      </trkpt>
      <trkpt lat="47.21023" lon="6.12946">
        <ele>428.6</ele>
        <time>2022-09-12T11:01:33Z</time>
      </trkpt>
      <trkpt lat="47.21028" lon="6.12992">
        <ele>430</ele>
        <time>2022-09-12T11:01:29Z</time>
      </trkpt>
      <trkpt lat="47.21032" lon="6.13025">
        <ele>430.6</ele>
        <time>2022-09-12T11:01:26Z</time>
      </trkpt>
      <trkpt lat="47.21036" lon="6.13054">
        <ele>431</ele>
        <time>2022-09-12T11:01:23Z</time>
      </trkpt>
      <trkpt lat="47.21042" lon="6.13106">
        <ele>432</ele>
        <time>2022-09-12T11:01:18Z</time>
      </trkpt>
      <trkpt lat="47.21044" lon="6.13116">
        <ele>432.2</ele>
        <time>2022-09-12T11:01:17Z</time>
      </trkpt>
      <trkpt lat="47.21049" lon="6.13155">
        <ele>433</ele>
        <time>2022-09-12T11:01:13Z</time>
      </trkpt>
      <trkpt lat="47.21053" lon="6.13194">
        <ele>433.8</ele>
        <time>2022-09-12T11:01:09Z</time>
      </trkpt>
      <trkpt lat="47.21053" lon="6.13204">
        <ele>434</ele>
        <time>2022-09-12T11:01:08Z</time>
      </trkpt>
      <trkpt lat="47.21056" lon="6.13266">
        <ele>435.2</ele>
        <time>2022-09-12T11:01:02Z</time>
      </trkpt>
      <trkpt lat="47.21057" lon="6.13286">
        <ele>435.6</ele>
        <time>2022-09-12T11:01:00Z</time>
      </trkpt>
      <trkpt lat="47.21058" lon="6.13296">
        <ele>435.8</ele>
        <time>2022-09-12T11:00:59Z</time>
      </trkpt>
      <trkpt lat="47.21061" lon="6.13378">
        <ele>436.6</ele>
        <time>2022-09-12T11:00:50Z</time>
      </trkpt>
      <trkpt lat="47.21063" lon="6.13444">
        <ele>436.8</ele>
        <time>2022-09-12T11:00:42Z</time>
      </trkpt>
      <trkpt lat="47.21065" lon="6.13489">
        <ele>436.4</ele>
        <time>2022-09-12T11:00:36Z</time>
      </trkpt>
      <trkpt lat="47.21065" lon="6.13497">
        <ele>436.4</ele>
        <time>2022-09-12T11:00:35Z</time>
      </trkpt>
      <trkpt lat="47.21068" lon="6.13534">
        <ele>436.8</ele>
        <time>2022-09-12T11:00:31Z</time>
      </trkpt>
      <trkpt lat="47.21069" lon="6.13544">
        <ele>437</ele>
        <time>2022-09-12T11:00:30Z</time>
      </trkpt>
      <trkpt lat="47.21074" lon="6.13564">
        <ele>437.4</ele>
        <time>2022-09-12T11:00:28Z</time>
      </trkpt>
      <trkpt lat="47.21089" lon="6.13613">
        <ele>438.6</ele>
        <time>2022-09-12T11:00:23Z</time>
      </trkpt>
      <trkpt lat="47.21092" lon="6.13623">
        <ele>438.8</ele>
        <time>2022-09-12T11:00:22Z</time>
      </trkpt>
      <trkpt lat="47.211" lon="6.1365">
        <ele>439.6</ele>
        <time>2022-09-12T11:00:19Z</time>
      </trkpt>
      <trkpt lat="47.2111" lon="6.13686">
        <ele>440.4</ele>
        <time>2022-09-12T11:00:15Z</time>
      </trkpt>
      <trkpt lat="47.21113" lon="6.13696">
        <ele>440.6</ele>
        <time>2022-09-12T11:00:14Z</time>
      </trkpt>
      <trkpt lat="47.21126" lon="6.13742">
        <ele>441.6</ele>
        <time>2022-09-12T11:00:09Z</time>
      </trkpt>
      <trkpt lat="47.21137" lon="6.13783">
        <ele>441.8</ele>
        <time>2022-09-12T11:00:04Z</time>
      </trkpt>
      <trkpt lat="47.21139" lon="6.13791">
        <ele>441.6</ele>
        <time>2022-09-12T11:00:03Z</time>
      </trkpt>
      <trkpt lat="47.21142" lon="6.13798">
        <ele>441.4</ele>
        <time>2022-09-12T11:00:02Z</time>
      </trkpt>
      <trkpt lat="47.2115" lon="6.13826">
        <ele>440.6</ele>
        <time>2022-09-12T10:59:58Z</time>
      </trkpt>
      <trkpt lat="47.21152" lon="6.13832">
        <ele>440.4</ele>
        <time>2022-09-12T10:59:57Z</time>
      </trkpt>
      <trkpt lat="47.21157" lon="6.1385">
        <ele>440</ele>
        <time>2022-09-12T10:59:54Z</time>
      </trkpt>
      <trkpt lat="47.21162" lon="6.1386">
        <ele>439.6</ele>
        <time>2022-09-12T10:59:52Z</time>
      </trkpt>
      <trkpt lat="47.21163" lon="6.13866">
        <ele>439.4</ele>
        <time>2022-09-12T10:59:51Z</time>
      </trkpt>
      <trkpt lat="47.21167" lon="6.13883">
        <ele>439</ele>
        <time>2022-09-12T10:59:48Z</time>
      </trkpt>
      <trkpt lat="47.21163" lon="6.13895">
        <ele>438.8</ele>
        <time>2022-09-12T10:59:46Z</time>
      </trkpt>
      <trkpt lat="47.2116" lon="6.13901">
        <ele>438.4</ele>
        <time>2022-09-12T10:59:45Z</time>
      </trkpt>
      <trkpt lat="47.2115" lon="6.13915">
        <ele>437.4</ele>
        <time>2022-09-12T10:59:42Z</time>
      </trkpt>
      <trkpt lat="47.2114" lon="6.1393">
        <ele>436.6</ele>
        <time>2022-09-12T10:59:39Z</time>
      </trkpt>
      <trkpt lat="47.21136" lon="6.13934">
        <ele>436.4</ele>
        <time>2022-09-12T10:59:38Z</time>
      </trkpt>
      <trkpt lat="47.21122" lon="6.13955">
        <ele>435</ele>
        <time>2022-09-12T10:59:34Z</time>
      </trkpt>
      <trkpt lat="47.21112" lon="6.1397">
        <ele>434.2</ele>
        <time>2022-09-12T10:59:31Z</time>
      </trkpt>
      <trkpt lat="47.21108" lon="6.13975">
        <ele>433.8</ele>
        <time>2022-09-12T10:59:30Z</time>
      </trkpt>
      <trkpt lat="47.21093" lon="6.13996">
        <ele>432.6</ele>
        <time>2022-09-12T10:59:26Z</time>
      </trkpt>
      <trkpt lat="47.21082" lon="6.14011">
        <ele>431.6</ele>
        <time>2022-09-12T10:59:23Z</time>
      </trkpt>
      <trkpt lat="47.21078" lon="6.14017">
        <ele>431.2</ele>
        <time>2022-09-12T10:59:22Z</time>
      </trkpt>
      <trkpt lat="47.21067" lon="6.14033">
        <ele>430.2</ele>
        <time>2022-09-12T10:59:19Z</time>
      </trkpt>
      <trkpt lat="47.21051" lon="6.14054">
        <ele>429.2</ele>
        <time>2022-09-12T10:59:15Z</time>
      </trkpt>
      <trkpt lat="47.2104" lon="6.1407">
        <ele>428.2</ele>
        <time>2022-09-12T10:59:12Z</time>
      </trkpt>
      <trkpt lat="47.21036" lon="6.14075">
        <ele>427.8</ele>
        <time>2022-09-12T10:59:11Z</time>
      </trkpt>
      <trkpt lat="47.21028" lon="6.14086">
        <ele>427</ele>
        <time>2022-09-12T10:59:09Z</time>
      </trkpt>
      <trkpt lat="47.21017" lon="6.14102">
        <ele>426</ele>
        <time>2022-09-12T10:59:06Z</time>
      </trkpt>
      <trkpt lat="47.21006" lon="6.14118">
        <ele>424.6</ele>
        <time>2022-09-12T10:59:03Z</time>
      </trkpt>
      <trkpt lat="47.21002" lon="6.14124">
        <ele>424</ele>
        <time>2022-09-12T10:59:02Z</time>
      </trkpt>
      <trkpt lat="47.20986" lon="6.14146">
        <ele>423</ele>
        <time>2022-09-12T10:58:58Z</time>
      </trkpt>
      <trkpt lat="47.20968" lon="6.14171">
        <ele>423.8</ele>
        <time>2022-09-12T10:58:54Z</time>
      </trkpt>
      <trkpt lat="47.20964" lon="6.14177">
        <ele>424</ele>
        <time>2022-09-12T10:58:53Z</time>
      </trkpt>
      <trkpt lat="47.20941" lon="6.14209">
        <ele>425.2</ele>
        <time>2022-09-12T10:58:48Z</time>
      </trkpt>
      <trkpt lat="47.20928" lon="6.14227">
        <ele>425.8</ele>
        <time>2022-09-12T10:58:45Z</time>
      </trkpt>
      <trkpt lat="47.20892" lon="6.14277">
        <ele>426.4</ele>
        <time>2022-09-12T10:58:37Z</time>
      </trkpt>
      <trkpt lat="47.20879" lon="6.14296">
        <ele>426.2</ele>
        <time>2022-09-12T10:58:34Z</time>
      </trkpt>
      <trkpt lat="47.2084" lon="6.14351">
        <ele>425</ele>
        <time>2022-09-12T10:58:25Z</time>
      </trkpt>
      <trkpt lat="47.2081" lon="6.14395">
        <ele>424.8</ele>
        <time>2022-09-12T10:58:18Z</time>
      </trkpt>
      <trkpt lat="47.2079" lon="6.14426">
        <ele>424.8</ele>
        <time>2022-09-12T10:58:12Z</time>
      </trkpt>
      <trkpt lat="47.20786" lon="6.14434">
        <ele>425.2</ele>
        <time>2022-09-12T10:58:10Z</time>
      </trkpt>
      <trkpt lat="47.20775" lon="6.14451">
        <ele>425.2</ele>
        <time>2022-09-12T10:58:06Z</time>
      </trkpt>
      <trkpt lat="47.20755" lon="6.14486">
        <ele>425.8</ele>
        <time>2022-09-12T10:57:59Z</time>
      </trkpt>
      <trkpt lat="47.20744" lon="6.14507">
        <ele>426</ele>
        <time>2022-09-12T10:57:53Z</time>
      </trkpt>
      <trkpt lat="47.20743" lon="6.1451">
        <ele>426.2</ele>
        <time>2022-09-12T10:57:52Z</time>
      </trkpt>
      <trkpt lat="47.20736" lon="6.14521">
        <ele>426.6</ele>
        <time>2022-09-12T10:57:48Z</time>
      </trkpt>
      <trkpt lat="47.20734" lon="6.14525">
        <ele>426.8</ele>
        <time>2022-09-12T10:57:47Z</time>
      </trkpt>
      <trkpt lat="47.20726" lon="6.1454">
        <ele>426.6</ele>
        <time>2022-09-12T10:57:44Z</time>
      </trkpt>
      <trkpt lat="47.20723" lon="6.14545">
        <ele>426.6</ele>
        <time>2022-09-12T10:57:43Z</time>
      </trkpt>
      <trkpt lat="47.20716" lon="6.14561">
        <ele>427.2</ele>
        <time>2022-09-12T10:57:40Z</time>
      </trkpt>
      <trkpt lat="47.20708" lon="6.14583">
        <ele>428.2</ele>
        <time>2022-09-12T10:57:36Z</time>
      </trkpt>
      <trkpt lat="47.20706" lon="6.14587">
        <ele>428.4</ele>
        <time>2022-09-12T10:57:35Z</time>
      </trkpt>
      <trkpt lat="47.20695" lon="6.14615">
        <ele>429.4</ele>
        <time>2022-09-12T10:57:31Z</time>
      </trkpt>
      <trkpt lat="47.20692" lon="6.14622">
        <ele>429.6</ele>
        <time>2022-09-12T10:57:30Z</time>
      </trkpt>
      <trkpt lat="47.20682" lon="6.14647">
        <ele>430.4</ele>
        <time>2022-09-12T10:57:26Z</time>
      </trkpt>
      <trkpt lat="47.20673" lon="6.1467">
        <ele>431</ele>
        <time>2022-09-12T10:57:22Z</time>
      </trkpt>
      <trkpt lat="47.20664" lon="6.14691">
        <ele>431.4</ele>
        <time>2022-09-12T10:57:18Z</time>
      </trkpt>
      <trkpt lat="47.20659" lon="6.147">
        <ele>431.8</ele>
        <time>2022-09-12T10:57:16Z</time>
      </trkpt>
      <trkpt lat="47.20646" lon="6.14736">
        <ele>432</ele>
        <time>2022-09-12T10:57:09Z</time>
      </trkpt>
      <trkpt lat="47.20641" lon="6.14754">
        <ele>432.6</ele>
        <time>2022-09-12T10:57:05Z</time>
      </trkpt>
      <trkpt lat="47.20638" lon="6.14762">
        <ele>432.4</ele>
        <time>2022-09-12T10:57:03Z</time>
      </trkpt>
      <trkpt lat="47.20636" lon="6.14768">
        <ele>432.4</ele>
        <time>2022-09-12T10:57:01Z</time>
      </trkpt>
      <trkpt lat="47.20643" lon="6.14788">
        <ele>431.4</ele>
        <time>2022-09-12T10:56:25Z</time>
      </trkpt>
      <trkpt lat="47.20664" lon="6.14814">
        <ele>431.4</ele>
        <time>2022-09-12T10:56:16Z</time>
      </trkpt>
      <trkpt lat="47.20668" lon="6.1482">
        <ele>431.6</ele>
        <time>2022-09-12T10:56:14Z</time>
      </trkpt>
      <trkpt lat="47.20675" lon="6.14835">
        <ele>432.2</ele>
        <time>2022-09-12T10:56:10Z</time>
      </trkpt>
      <trkpt lat="47.20686" lon="6.14851">
        <ele>432.8</ele>
        <time>2022-09-12T10:56:04Z</time>
      </trkpt>
      <trkpt lat="47.20699" lon="6.14857">
        <ele>433</ele>
        <time>2022-09-12T10:55:58Z</time>
      </trkpt>
      <trkpt lat="47.20703" lon="6.14856">
        <ele>432.6</ele>
        <time>2022-09-12T10:55:56Z</time>
      </trkpt>
      <trkpt lat="47.20713" lon="6.14848">
        <ele>431.2</ele>
        <time>2022-09-12T10:55:34Z</time>
      </trkpt>
      <trkpt lat="47.20714" lon="6.14848">
        <ele>431.2</ele>
        <time>2022-09-12T10:55:33Z</time>
      </trkpt>
      <trkpt lat="47.20719" lon="6.14855">
        <ele>431</ele>
        <time>2022-09-12T10:55:28Z</time>
      </trkpt>
      <trkpt lat="47.2072" lon="6.14857">
        <ele>431</ele>
        <time>2022-09-12T10:55:27Z</time>
      </trkpt>
      <trkpt lat="47.20729" lon="6.14867">
        <ele>430.4</ele>
        <time>2022-09-12T10:55:21Z</time>
      </trkpt>
      <trkpt lat="47.20744" lon="6.14882">
        <ele>430.4</ele>
        <time>2022-09-12T10:55:14Z</time>
      </trkpt>
      <trkpt lat="47.20762" lon="6.1489">
        <ele>430.4</ele>
        <time>2022-09-12T10:55:07Z</time>
      </trkpt>
      <trkpt lat="47.20776" lon="6.14896">
        <ele>429.8</ele>
        <time>2022-09-12T10:55:01Z</time>
      </trkpt>
      <trkpt lat="47.20788" lon="6.14901">
        <ele>429.8</ele>
        <time>2022-09-12T10:54:55Z</time>
      </trkpt>
      <trkpt lat="47.20789" lon="6.14904">
        <ele>429.8</ele>
        <time>2022-09-12T10:54:53Z</time>
      </trkpt>
      <trkpt lat="47.20794" lon="6.14905">
        <ele>429.8</ele>
        <time>2022-09-12T10:54:50Z</time>
      </trkpt>
      <trkpt lat="47.2081" lon="6.14897">
        <ele>430</ele>
        <time>2022-09-12T10:54:44Z</time>
      </trkpt>
      <trkpt lat="47.20821" lon="6.14883">
        <ele>430</ele>
        <time>2022-09-12T10:54:37Z</time>
      </trkpt>
      <trkpt lat="47.20843" lon="6.14858">
        <ele>430.2</ele>
        <time>2022-09-12T10:54:28Z</time>
      </trkpt>
      <trkpt lat="47.2086" lon="6.14839">
        <ele>430</ele>
        <time>2022-09-12T10:54:21Z</time>
      </trkpt>
      <trkpt lat="47.20862" lon="6.14837">
        <ele>430</ele>
        <time>2022-09-12T10:54:20Z</time>
      </trkpt>
      <trkpt lat="47.20876" lon="6.14822">
        <ele>429.2</ele>
        <time>2022-09-12T10:54:14Z</time>
      </trkpt>
      <trkpt lat="47.20889" lon="6.14812">
        <ele>428.8</ele>
        <time>2022-09-12T10:54:08Z</time>
      </trkpt>
      <trkpt lat="47.2089" lon="6.14811">
        <ele>428.8</ele>
        <time>2022-09-12T10:54:07Z</time>
      </trkpt>
      <trkpt lat="47.20898" lon="6.14797">
        <ele>429</ele>
        <time>2022-09-12T10:53:47Z</time>
      </trkpt>
      <trkpt lat="47.20899" lon="6.14796">
        <ele>428.8</ele>
        <time>2022-09-12T10:53:46Z</time>
      </trkpt>
      <trkpt lat="47.20916" lon="6.14789">
        <ele>428.2</ele>
        <time>2022-09-12T10:53:39Z</time>
      </trkpt>
      <trkpt lat="47.20941" lon="6.14779">
        <ele>427.8</ele>
        <time>2022-09-12T10:53:30Z</time>
      </trkpt>
      <trkpt lat="47.20958" lon="6.14773">
        <ele>428</ele>
        <time>2022-09-12T10:53:24Z</time>
      </trkpt>
      <trkpt lat="47.20961" lon="6.14771">
        <ele>427.8</ele>
        <time>2022-09-12T10:53:23Z</time>
      </trkpt>
      <trkpt lat="47.20972" lon="6.14764">
        <ele>426.8</ele>
        <time>2022-09-12T10:53:19Z</time>
      </trkpt>
      <trkpt lat="47.20977" lon="6.14761">
        <ele>426.6</ele>
        <time>2022-09-12T10:53:17Z</time>
      </trkpt>
      <trkpt lat="47.20986" lon="6.14751">
        <ele>425.6</ele>
        <time>2022-09-12T10:53:12Z</time>
      </trkpt>
      <trkpt lat="47.20987" lon="6.14748">
        <ele>425.4</ele>
        <time>2022-09-12T10:53:11Z</time>
      </trkpt>
      <trkpt lat="47.20987" lon="6.14741">
        <ele>424.6</ele>
        <time>2022-09-12T10:53:09Z</time>
      </trkpt>
      <trkpt lat="47.20988" lon="6.14735">
        <ele>423.8</ele>
        <time>2022-09-12T10:53:07Z</time>
      </trkpt>
      <trkpt lat="47.20988" lon="6.14732">
        <ele>423.6</ele>
        <time>2022-09-12T10:53:06Z</time>
      </trkpt>
      <trkpt lat="47.20993" lon="6.14717">
        <ele>422.8</ele>
        <time>2022-09-12T10:53:02Z</time>
      </trkpt>
      <trkpt lat="47.21001" lon="6.1469">
        <ele>422.8</ele>
        <time>2022-09-12T10:52:57Z</time>
      </trkpt>
      <trkpt lat="47.21005" lon="6.14666">
        <ele>422.6</ele>
        <time>2022-09-12T10:52:51Z</time>
      </trkpt>
      <trkpt lat="47.21006" lon="6.14662">
        <ele>422.6</ele>
        <time>2022-09-12T10:52:50Z</time>
      </trkpt>
      <trkpt lat="47.21007" lon="6.14641">
        <ele>421.4</ele>
        <time>2022-09-12T10:52:45Z</time>
      </trkpt>
      <trkpt lat="47.21006" lon="6.14637">
        <ele>421.4</ele>
        <time>2022-09-12T10:52:44Z</time>
      </trkpt>
      <trkpt lat="47.21005" lon="6.14613">
        <ele>420</ele>
        <time>2022-09-12T10:52:38Z</time>
      </trkpt>
      <trkpt lat="47.21015" lon="6.14595">
        <ele>420.2</ele>
        <time>2022-09-12T10:52:32Z</time>
      </trkpt>
      <trkpt lat="47.21021" lon="6.14586">
        <ele>420.4</ele>
        <time>2022-09-12T10:52:29Z</time>
      </trkpt>
      <trkpt lat="47.21026" lon="6.14582">
        <ele>421.4</ele>
        <time>2022-09-12T10:52:27Z</time>
      </trkpt>
      <trkpt lat="47.21032" lon="6.14576">
        <ele>422.6</ele>
        <time>2022-09-12T10:52:25Z</time>
      </trkpt>
      <trkpt lat="47.21035" lon="6.14575">
        <ele>423</ele>
        <time>2022-09-12T10:52:24Z</time>
      </trkpt>
      <trkpt lat="47.21037" lon="6.14574">
        <ele>423.6</ele>
        <time>2022-09-12T10:52:23Z</time>
      </trkpt>
      <trkpt lat="47.21039" lon="6.14574">
        <ele>424</ele>
        <time>2022-09-12T10:52:22Z</time>
      </trkpt>
      <trkpt lat="47.21048" lon="6.14572">
        <ele>424.6</ele>
        <time>2022-09-12T10:52:17Z</time>
      </trkpt>
      <trkpt lat="47.2105" lon="6.1457">
        <ele>425</ele>
        <time>2022-09-12T10:51:22Z</time>
      </trkpt>
      <trkpt lat="47.21061" lon="6.14586">
        <ele>425.8</ele>
        <time>2022-09-12T10:51:16Z</time>
      </trkpt>
      <trkpt lat="47.21079" lon="6.14611">
        <ele>426.4</ele>
        <time>2022-09-12T10:51:08Z</time>
      </trkpt>
      <trkpt lat="47.2109" lon="6.14627">
        <ele>426.2</ele>
        <time>2022-09-12T10:51:03Z</time>
      </trkpt>
      <trkpt lat="47.21099" lon="6.1464">
        <ele>426.2</ele>
        <time>2022-09-12T10:50:57Z</time>
      </trkpt>
      <trkpt lat="47.2111" lon="6.14656">
        <ele>425.8</ele>
        <time>2022-09-12T10:50:50Z</time>
      </trkpt>
      <trkpt lat="47.21111" lon="6.14659">
        <ele>425.8</ele>
        <time>2022-09-12T10:50:49Z</time>
      </trkpt>
      <trkpt lat="47.21131" lon="6.14694">
        <ele>425.2</ele>
        <time>2022-09-12T10:50:39Z</time>
      </trkpt>
      <trkpt lat="47.2114" lon="6.1471">
        <ele>424.8</ele>
        <time>2022-09-12T10:50:34Z</time>
      </trkpt>
      <trkpt lat="47.21142" lon="6.14714">
        <ele>424.8</ele>
        <time>2022-09-12T10:50:32Z</time>
      </trkpt>
      <trkpt lat="47.21145" lon="6.14721">
        <ele>424.4</ele>
        <time>2022-09-12T10:50:17Z</time>
      </trkpt>
      <trkpt lat="47.21149" lon="6.14728">
        <ele>424</ele>
        <time>2022-09-12T10:50:12Z</time>
      </trkpt>
      <trkpt lat="47.21155" lon="6.14736">
        <ele>423.6</ele>
        <time>2022-09-12T10:50:09Z</time>
      </trkpt>
      <trkpt lat="47.21161" lon="6.14747">
        <ele>423</ele>
        <time>2022-09-12T10:50:06Z</time>
      </trkpt>
      <trkpt lat="47.21166" lon="6.14756">
        <ele>422.4</ele>
        <time>2022-09-12T10:50:04Z</time>
      </trkpt>
      <trkpt lat="47.21172" lon="6.1477">
        <ele>421.8</ele>
        <time>2022-09-12T10:50:01Z</time>
      </trkpt>
      <trkpt lat="47.21175" lon="6.14774">
        <ele>421.8</ele>
        <time>2022-09-12T10:50:00Z</time>
      </trkpt>
      <trkpt lat="47.21187" lon="6.14792">
        <ele>421.2</ele>
        <time>2022-09-12T10:49:56Z</time>
      </trkpt>
      <trkpt lat="47.21197" lon="6.14805">
        <ele>420.8</ele>
        <time>2022-09-12T10:49:53Z</time>
      </trkpt>
      <trkpt lat="47.21204" lon="6.14814">
        <ele>420.2</ele>
        <time>2022-09-12T10:49:51Z</time>
      </trkpt>
      <trkpt lat="47.21225" lon="6.14838">
        <ele>419.6</ele>
        <time>2022-09-12T10:49:45Z</time>
      </trkpt>
      <trkpt lat="47.21235" lon="6.1485">
        <ele>419</ele>
        <time>2022-09-12T10:49:42Z</time>
      </trkpt>
      <trkpt lat="47.21245" lon="6.14859">
        <ele>418.4</ele>
        <time>2022-09-12T10:49:39Z</time>
      </trkpt>
      <trkpt lat="47.21249" lon="6.14863">
        <ele>418.2</ele>
        <time>2022-09-12T10:49:38Z</time>
      </trkpt>
      <trkpt lat="47.21251" lon="6.14866">
        <ele>418</ele>
        <time>2022-09-12T10:49:37Z</time>
      </trkpt>
      <trkpt lat="47.21258" lon="6.14883">
        <ele>417.2</ele>
        <time>2022-09-12T10:49:34Z</time>
      </trkpt>
      <trkpt lat="47.21262" lon="6.14895">
        <ele>417</ele>
        <time>2022-09-12T10:49:32Z</time>
      </trkpt>
      <trkpt lat="47.21269" lon="6.14929">
        <ele>416.8</ele>
        <time>2022-09-12T10:49:26Z</time>
      </trkpt>
      <trkpt lat="47.21272" lon="6.14953">
        <ele>416.4</ele>
        <time>2022-09-12T10:49:20Z</time>
      </trkpt>
      <trkpt lat="47.21273" lon="6.14961">
        <ele>416.8</ele>
        <time>2022-09-12T10:49:18Z</time>
      </trkpt>
      <trkpt lat="47.21278" lon="6.14979">
        <ele>417.2</ele>
        <time>2022-09-12T10:49:14Z</time>
      </trkpt>
      <trkpt lat="47.21288" lon="6.15011">
        <ele>417.8</ele>
        <time>2022-09-12T10:49:08Z</time>
      </trkpt>
      <trkpt lat="47.21296" lon="6.15033">
        <ele>417.6</ele>
        <time>2022-09-12T10:49:03Z</time>
      </trkpt>
      <trkpt lat="47.21301" lon="6.15042">
        <ele>417.8</ele>
        <time>2022-09-12T10:49:01Z</time>
      </trkpt>
      <trkpt lat="47.21303" lon="6.15048">
        <ele>418.2</ele>
        <time>2022-09-12T10:49:00Z</time>
      </trkpt>
      <trkpt lat="47.21309" lon="6.15064">
        <ele>419</ele>
        <time>2022-09-12T10:48:58Z</time>
      </trkpt>
      <trkpt lat="47.21317" lon="6.1509">
        <ele>420.2</ele>
        <time>2022-09-12T10:48:55Z</time>
      </trkpt>
      <trkpt lat="47.21319" lon="6.15098">
        <ele>420.6</ele>
        <time>2022-09-12T10:48:54Z</time>
      </trkpt>
      <trkpt lat="47.21327" lon="6.15122">
        <ele>421.6</ele>
        <time>2022-09-12T10:48:51Z</time>
      </trkpt>
      <trkpt lat="47.21332" lon="6.15139">
        <ele>422.2</ele>
        <time>2022-09-12T10:48:49Z</time>
      </trkpt>
      <trkpt lat="47.21339" lon="6.15157">
        <ele>422.6</ele>
        <time>2022-09-12T10:48:47Z</time>
      </trkpt>
      <trkpt lat="47.21352" lon="6.15195">
        <ele>423.6</ele>
        <time>2022-09-12T10:48:43Z</time>
      </trkpt>
      <trkpt lat="47.21355" lon="6.15204">
        <ele>423.8</ele>
        <time>2022-09-12T10:48:42Z</time>
      </trkpt>
      <trkpt lat="47.21366" lon="6.15246">
        <ele>424.2</ele>
        <time>2022-09-12T10:48:37Z</time>
      </trkpt>
      <trkpt lat="47.21374" lon="6.15274">
        <ele>424.6</ele>
        <time>2022-09-12T10:48:33Z</time>
      </trkpt>
      <trkpt lat="47.21376" lon="6.1528">
        <ele>424.6</ele>
        <time>2022-09-12T10:48:32Z</time>
      </trkpt>
      <trkpt lat="47.21384" lon="6.15297">
        <ele>424.8</ele>
        <time>2022-09-12T10:48:29Z</time>
      </trkpt>
      <trkpt lat="47.21393" lon="6.15314">
        <ele>424.6</ele>
        <time>2022-09-12T10:48:26Z</time>
      </trkpt>
      <trkpt lat="47.21419" lon="6.15346">
        <ele>424</ele>
        <time>2022-09-12T10:48:19Z</time>
      </trkpt>
      <trkpt lat="47.21435" lon="6.15363">
        <ele>424</ele>
        <time>2022-09-12T10:48:15Z</time>
      </trkpt>
      <trkpt lat="47.21438" lon="6.15366">
        <ele>424</ele>
        <time>2022-09-12T10:48:14Z</time>
      </trkpt>
      <trkpt lat="47.21459" lon="6.15385">
        <ele>424.8</ele>
        <time>2022-09-12T10:48:08Z</time>
      </trkpt>
      <trkpt lat="47.2148" lon="6.15408">
        <ele>425</ele>
        <time>2022-09-12T10:48:02Z</time>
      </trkpt>
      <trkpt lat="47.21487" lon="6.15415">
        <ele>425</ele>
        <time>2022-09-12T10:48:00Z</time>
      </trkpt>
      <trkpt lat="47.21504" lon="6.15434">
        <ele>425.4</ele>
        <time>2022-09-12T10:47:55Z</time>
      </trkpt>
      <trkpt lat="47.2151" lon="6.15442">
        <ele>425.6</ele>
        <time>2022-09-12T10:47:53Z</time>
      </trkpt>
      <trkpt lat="47.21523" lon="6.15459">
        <ele>426</ele>
        <time>2022-09-12T10:47:49Z</time>
      </trkpt>
      <trkpt lat="47.21526" lon="6.15464">
        <ele>426</ele>
        <time>2022-09-12T10:47:48Z</time>
      </trkpt>
      <trkpt lat="47.21535" lon="6.15489">
        <ele>425.8</ele>
        <time>2022-09-12T10:47:43Z</time>
      </trkpt>
      <trkpt lat="47.21536" lon="6.155">
        <ele>426</ele>
        <time>2022-09-12T10:47:41Z</time>
      </trkpt>
      <trkpt lat="47.21537" lon="6.15511">
        <ele>426</ele>
        <time>2022-09-12T10:47:39Z</time>
      </trkpt>
      <trkpt lat="47.21538" lon="6.15517">
        <ele>426.2</ele>
        <time>2022-09-12T10:47:38Z</time>
      </trkpt>
      <trkpt lat="47.21538" lon="6.15537">
        <ele>426.2</ele>
        <time>2022-09-12T10:47:35Z</time>
      </trkpt>
      <trkpt lat="47.21536" lon="6.15559">
        <ele>426.4</ele>
        <time>2022-09-12T10:47:32Z</time>
      </trkpt>
      <trkpt lat="47.21529" lon="6.15604">
        <ele>427</ele>
        <time>2022-09-12T10:47:26Z</time>
      </trkpt>
      <trkpt lat="47.21528" lon="6.15612">
        <ele>427.2</ele>
        <time>2022-09-12T10:47:25Z</time>
      </trkpt>
      <trkpt lat="47.21526" lon="6.15666">
        <ele>428</ele>
        <time>2022-09-12T10:47:18Z</time>
      </trkpt>
      <trkpt lat="47.21526" lon="6.15674">
        <ele>428.2</ele>
        <time>2022-09-12T10:47:17Z</time>
      </trkpt>
      <trkpt lat="47.21529" lon="6.15729">
        <ele>428.8</ele>
        <time>2022-09-12T10:47:10Z</time>
      </trkpt>
      <trkpt lat="47.21531" lon="6.15751">
        <ele>429.2</ele>
        <time>2022-09-12T10:47:07Z</time>
      </trkpt>
      <trkpt lat="47.21536" lon="6.15784">
        <ele>429.6</ele>
        <time>2022-09-12T10:47:02Z</time>
      </trkpt>
      <trkpt lat="47.21543" lon="6.15846">
        <ele>430.4</ele>
        <time>2022-09-12T10:46:53Z</time>
      </trkpt>
      <trkpt lat="47.21546" lon="6.15866">
        <ele>430.2</ele>
        <time>2022-09-12T10:46:50Z</time>
      </trkpt>
      <trkpt lat="47.21549" lon="6.15891">
        <ele>429.2</ele>
        <time>2022-09-12T10:46:46Z</time>
      </trkpt>
      <trkpt lat="47.21556" lon="6.15926">
        <ele>428.2</ele>
        <time>2022-09-12T10:46:40Z</time>
      </trkpt>
      <trkpt lat="47.21563" lon="6.15956">
        <ele>427.8</ele>
        <time>2022-09-12T10:46:35Z</time>
      </trkpt>
      <trkpt lat="47.21569" lon="6.15979">
        <ele>427</ele>
        <time>2022-09-12T10:46:31Z</time>
      </trkpt>
      <trkpt lat="47.21576" lon="6.16007">
        <ele>426.2</ele>
        <time>2022-09-12T10:46:26Z</time>
      </trkpt>
      <trkpt lat="47.2158" lon="6.16019">
        <ele>426</ele>
        <time>2022-09-12T10:46:24Z</time>
      </trkpt>
      <trkpt lat="47.21594" lon="6.16059">
        <ele>425</ele>
        <time>2022-09-12T10:46:17Z</time>
      </trkpt>
      <trkpt lat="47.21602" lon="6.16081">
        <ele>423.8</ele>
        <time>2022-09-12T10:46:13Z</time>
      </trkpt>
      <trkpt lat="47.21607" lon="6.16096">
        <ele>422.6</ele>
        <time>2022-09-12T10:46:10Z</time>
      </trkpt>
      <trkpt lat="47.21613" lon="6.16116">
        <ele>421.2</ele>
        <time>2022-09-12T10:46:06Z</time>
      </trkpt>
      <trkpt lat="47.21616" lon="6.16125">
        <ele>420.8</ele>
        <time>2022-09-12T10:46:04Z</time>
      </trkpt>
      <trkpt lat="47.21621" lon="6.16139">
        <ele>420</ele>
        <time>2022-09-12T10:46:01Z</time>
      </trkpt>
      <trkpt lat="47.21628" lon="6.16153">
        <ele>419.2</ele>
        <time>2022-09-12T10:45:58Z</time>
      </trkpt>
      <trkpt lat="47.21629" lon="6.16158">
        <ele>419</ele>
        <time>2022-09-12T10:45:57Z</time>
      </trkpt>
      <trkpt lat="47.21639" lon="6.16185">
        <ele>418</ele>
        <time>2022-09-12T10:45:52Z</time>
      </trkpt>
      <trkpt lat="47.21642" lon="6.16191">
        <ele>417.8</ele>
        <time>2022-09-12T10:45:51Z</time>
      </trkpt>
      <trkpt lat="47.21649" lon="6.1621">
        <ele>417.6</ele>
        <time>2022-09-12T10:45:48Z</time>
      </trkpt>
      <trkpt lat="47.21654" lon="6.16229">
        <ele>417.6</ele>
        <time>2022-09-12T10:45:45Z</time>
      </trkpt>
      <trkpt lat="47.21669" lon="6.16288">
        <ele>416.2</ele>
        <time>2022-09-12T10:45:37Z</time>
      </trkpt>
      <trkpt lat="47.21673" lon="6.16302">
        <ele>416</ele>
        <time>2022-09-12T10:45:35Z</time>
      </trkpt>
      <trkpt lat="47.21689" lon="6.16338">
        <ele>416.6</ele>
        <time>2022-09-12T10:45:29Z</time>
      </trkpt>
      <trkpt lat="47.21691" lon="6.16344">
        <ele>416.8</ele>
        <time>2022-09-12T10:45:28Z</time>
      </trkpt>
      <trkpt lat="47.21704" lon="6.16375">
        <ele>417.2</ele>
        <time>2022-09-12T10:45:23Z</time>
      </trkpt>
      <trkpt lat="47.21721" lon="6.16429">
        <ele>417.8</ele>
        <time>2022-09-12T10:45:15Z</time>
      </trkpt>
      <trkpt lat="47.21728" lon="6.16449">
        <ele>418.2</ele>
        <time>2022-09-12T10:45:12Z</time>
      </trkpt>
      <trkpt lat="47.21733" lon="6.16459">
        <ele>418.4</ele>
        <time>2022-09-12T10:45:10Z</time>
      </trkpt>
      <trkpt lat="47.2175" lon="6.16475">
        <ele>418.6</ele>
        <time>2022-09-12T10:45:05Z</time>
      </trkpt>
      <trkpt lat="47.21794" lon="6.16498">
        <ele>418</ele>
        <time>2022-09-12T10:44:56Z</time>
      </trkpt>
      <trkpt lat="47.21835" lon="6.16519">
        <ele>418</ele>
        <time>2022-09-12T10:44:48Z</time>
      </trkpt>
      <trkpt lat="47.21866" lon="6.16534">
        <ele>417.8</ele>
        <time>2022-09-12T10:44:42Z</time>
      </trkpt>
      <trkpt lat="47.21886" lon="6.16544">
        <ele>417.6</ele>
        <time>2022-09-12T10:44:38Z</time>
      </trkpt>
      <trkpt lat="47.21932" lon="6.16564">
        <ele>417.2</ele>
        <time>2022-09-12T10:44:29Z</time>
      </trkpt>
      <trkpt lat="47.21962" lon="6.16573">
        <ele>417.4</ele>
        <time>2022-09-12T10:44:23Z</time>
      </trkpt>
      <trkpt lat="47.21981" lon="6.16573">
        <ele>417.6</ele>
        <time>2022-09-12T10:44:18Z</time>
      </trkpt>
      <trkpt lat="47.21989" lon="6.16567">
        <ele>416.8</ele>
        <time>2022-09-12T10:44:15Z</time>
      </trkpt>
      <trkpt lat="47.22001" lon="6.16531">
        <ele>415.6</ele>
        <time>2022-09-12T10:44:08Z</time>
      </trkpt>
      <trkpt lat="47.22009" lon="6.1651">
        <ele>415.4</ele>
        <time>2022-09-12T10:44:04Z</time>
      </trkpt>
      <trkpt lat="47.2202" lon="6.16506">
        <ele>415.4</ele>
        <time>2022-09-12T10:44:01Z</time>
      </trkpt>
      <trkpt lat="47.22023" lon="6.16509">
        <ele>415.6</ele>
        <time>2022-09-12T10:44:00Z</time>
      </trkpt>
      <trkpt lat="47.22026" lon="6.16514">
        <ele>415.8</ele>
        <time>2022-09-12T10:43:59Z</time>
      </trkpt>
      <trkpt lat="47.22035" lon="6.16528">
        <ele>416.2</ele>
        <time>2022-09-12T10:43:56Z</time>
      </trkpt>
      <trkpt lat="47.22047" lon="6.16543">
        <ele>416.8</ele>
        <time>2022-09-12T10:43:52Z</time>
      </trkpt>
      <trkpt lat="47.22052" lon="6.1655">
        <ele>416.6</ele>
        <time>2022-09-12T10:43:50Z</time>
      </trkpt>
      <trkpt lat="47.22067" lon="6.16557">
        <ele>415.8</ele>
        <time>2022-09-12T10:43:46Z</time>
      </trkpt>
      <trkpt lat="47.22079" lon="6.16561">
        <ele>415.2</ele>
        <time>2022-09-12T10:43:43Z</time>
      </trkpt>
      <trkpt lat="47.22112" lon="6.16573">
        <ele>415</ele>
        <time>2022-09-12T10:43:36Z</time>
      </trkpt>
      <trkpt lat="47.22122" lon="6.16578">
        <ele>414.6</ele>
        <time>2022-09-12T10:43:34Z</time>
      </trkpt>
      <trkpt lat="47.22152" lon="6.16592">
        <ele>413.4</ele>
        <time>2022-09-12T10:43:28Z</time>
      </trkpt>
      <trkpt lat="47.2217" lon="6.16601">
        <ele>414.4</ele>
        <time>2022-09-12T10:43:24Z</time>
      </trkpt>
      <trkpt lat="47.22173" lon="6.16603">
        <ele>414.6</ele>
        <time>2022-09-12T10:43:23Z</time>
      </trkpt>
      <trkpt lat="47.22184" lon="6.16612">
        <ele>415.2</ele>
        <time>2022-09-12T10:43:18Z</time>
      </trkpt>
      <trkpt lat="47.22187" lon="6.16612">
        <ele>415.4</ele>
        <time>2022-09-12T10:43:17Z</time>
      </trkpt>
      <trkpt lat="47.22196" lon="6.16616">
        <ele>416.6</ele>
        <time>2022-09-12T10:43:14Z</time>
      </trkpt>
      <trkpt lat="47.22202" lon="6.1662">
        <ele>417.6</ele>
        <time>2022-09-12T10:43:12Z</time>
      </trkpt>
      <trkpt lat="47.22205" lon="6.16621">
        <ele>418</ele>
        <time>2022-09-12T10:43:11Z</time>
      </trkpt>
      <trkpt lat="47.22217" lon="6.16626">
        <ele>419</ele>
        <time>2022-09-12T10:43:08Z</time>
      </trkpt>
      <trkpt lat="47.22226" lon="6.16629">
        <ele>419.6</ele>
        <time>2022-09-12T10:43:06Z</time>
      </trkpt>
      <trkpt lat="47.22234" lon="6.16631">
        <ele>420</ele>
        <time>2022-09-12T10:43:04Z</time>
      </trkpt>
      <trkpt lat="47.22249" lon="6.16631">
        <ele>420.6</ele>
        <time>2022-09-12T10:43:01Z</time>
      </trkpt>
      <trkpt lat="47.2226" lon="6.16631">
        <ele>421</ele>
        <time>2022-09-12T10:42:59Z</time>
      </trkpt>
      <trkpt lat="47.22272" lon="6.1663">
        <ele>421.6</ele>
        <time>2022-09-12T10:42:57Z</time>
      </trkpt>
      <trkpt lat="47.22283" lon="6.16629">
        <ele>422.2</ele>
        <time>2022-09-12T10:42:55Z</time>
      </trkpt>
      <trkpt lat="47.22299" lon="6.16633">
        <ele>423</ele>
        <time>2022-09-12T10:42:52Z</time>
      </trkpt>
      <trkpt lat="47.22315" lon="6.16664">
        <ele>423.4</ele>
        <time>2022-09-12T10:42:48Z</time>
      </trkpt>
      <trkpt lat="47.22322" lon="6.16683">
        <ele>423.8</ele>
        <time>2022-09-12T10:42:46Z</time>
      </trkpt>
      <trkpt lat="47.22333" lon="6.1671">
        <ele>424.6</ele>
        <time>2022-09-12T10:42:43Z</time>
      </trkpt>
      <trkpt lat="47.22343" lon="6.16736">
        <ele>425</ele>
        <time>2022-09-12T10:42:40Z</time>
      </trkpt>
      <trkpt lat="47.22361" lon="6.16778">
        <ele>425.8</ele>
        <time>2022-09-12T10:42:35Z</time>
      </trkpt>
      <trkpt lat="47.22368" lon="6.16794">
        <ele>426.2</ele>
        <time>2022-09-12T10:42:33Z</time>
      </trkpt>
      <trkpt lat="47.22378" lon="6.16821">
        <ele>426.8</ele>
        <time>2022-09-12T10:42:30Z</time>
      </trkpt>
      <trkpt lat="47.22383" lon="6.16831">
        <ele>427</ele>
        <time>2022-09-12T10:42:29Z</time>
      </trkpt>
      <trkpt lat="47.22403" lon="6.16878">
        <ele>427.8</ele>
        <time>2022-09-12T10:42:25Z</time>
      </trkpt>
      <trkpt lat="47.22407" lon="6.16889">
        <ele>428.2</ele>
        <time>2022-09-12T10:42:24Z</time>
      </trkpt>
      <trkpt lat="47.22416" lon="6.16912">
        <ele>429.2</ele>
        <time>2022-09-12T10:42:22Z</time>
      </trkpt>
      <trkpt lat="47.22435" lon="6.1696">
        <ele>430</ele>
        <time>2022-09-12T10:42:18Z</time>
      </trkpt>
      <trkpt lat="47.2244" lon="6.16973">
        <ele>430.4</ele>
        <time>2022-09-12T10:42:17Z</time>
      </trkpt>
      <trkpt lat="47.22455" lon="6.17008">
        <ele>431.6</ele>
        <time>2022-09-12T10:42:14Z</time>
      </trkpt>
      <trkpt lat="47.22463" lon="6.1703">
        <ele>432.4</ele>
        <time>2022-09-12T10:42:12Z</time>
      </trkpt>
      <trkpt lat="47.22483" lon="6.1708">
        <ele>433</ele>
        <time>2022-09-12T10:42:07Z</time>
      </trkpt>
      <trkpt lat="47.2249" lon="6.17098">
        <ele>433</ele>
        <time>2022-09-12T10:42:05Z</time>
      </trkpt>
      <trkpt lat="47.22495" lon="6.17113">
        <ele>434.2</ele>
        <time>2022-09-12T10:42:03Z</time>
      </trkpt>
      <trkpt lat="47.22499" lon="6.1712">
        <ele>435</ele>
        <time>2022-09-12T10:42:02Z</time>
      </trkpt>
      <trkpt lat="47.22502" lon="6.17128">
        <ele>435.6</ele>
        <time>2022-09-12T10:42:01Z</time>
      </trkpt>
      <trkpt lat="47.22507" lon="6.17141">
        <ele>436.8</ele>
        <time>2022-09-12T10:41:59Z</time>
      </trkpt>
      <trkpt lat="47.22513" lon="6.17156">
        <ele>438</ele>
        <time>2022-09-12T10:41:57Z</time>
      </trkpt>
      <trkpt lat="47.22516" lon="6.17165">
        <ele>438.8</ele>
        <time>2022-09-12T10:41:56Z</time>
      </trkpt>
      <trkpt lat="47.2252" lon="6.17173">
        <ele>439.8</ele>
        <time>2022-09-12T10:41:55Z</time>
      </trkpt>
      <trkpt lat="47.22527" lon="6.1719">
        <ele>441.6</ele>
        <time>2022-09-12T10:41:53Z</time>
      </trkpt>
      <trkpt lat="47.22533" lon="6.17206">
        <ele>443.4</ele>
        <time>2022-09-12T10:41:51Z</time>
      </trkpt>
      <trkpt lat="47.22539" lon="6.17221">
        <ele>445.4</ele>
        <time>2022-09-12T10:41:49Z</time>
      </trkpt>
      <trkpt lat="47.22542" lon="6.17228">
        <ele>446.4</ele>
        <time>2022-09-12T10:41:48Z</time>
      </trkpt>
      <trkpt lat="47.22545" lon="6.17234">
        <ele>447.2</ele>
        <time>2022-09-12T10:41:47Z</time>
      </trkpt>
      <trkpt lat="47.2255" lon="6.17249">
        <ele>448.8</ele>
        <time>2022-09-12T10:41:45Z</time>
      </trkpt>
      <trkpt lat="47.22555" lon="6.17261">
        <ele>450.2</ele>
        <time>2022-09-12T10:41:43Z</time>
      </trkpt>
      <trkpt lat="47.22561" lon="6.17273">
        <ele>451.8</ele>
        <time>2022-09-12T10:41:41Z</time>
      </trkpt>
      <trkpt lat="47.22567" lon="6.17285">
        <ele>453</ele>
        <time>2022-09-12T10:41:39Z</time>
      </trkpt>
      <trkpt lat="47.22574" lon="6.17307">
        <ele>454.4</ele>
        <time>2022-09-12T10:41:36Z</time>
      </trkpt>
      <trkpt lat="47.2258" lon="6.17321">
        <ele>455</ele>
        <time>2022-09-12T10:41:34Z</time>
      </trkpt>
      <trkpt lat="47.22586" lon="6.17336">
        <ele>455.6</ele>
        <time>2022-09-12T10:41:32Z</time>
      </trkpt>
      <trkpt lat="47.22597" lon="6.17364">
        <ele>456.6</ele>
        <time>2022-09-12T10:41:28Z</time>
      </trkpt>
      <trkpt lat="47.22613" lon="6.17402">
        <ele>456.8</ele>
        <time>2022-09-12T10:41:22Z</time>
      </trkpt>
      <trkpt lat="47.22628" lon="6.17439">
        <ele>457.6</ele>
        <time>2022-09-12T10:41:15Z</time>
      </trkpt>
      <trkpt lat="47.22635" lon="6.17458">
        <ele>456.8</ele>
        <time>2022-09-12T10:41:09Z</time>
      </trkpt>
      <trkpt lat="47.22636" lon="6.1746">
        <ele>456.8</ele>
        <time>2022-09-12T10:41:08Z</time>
      </trkpt>
      <trkpt lat="47.22604" lon="6.17494">
        <ele>450.2</ele>
        <time>2022-09-12T10:40:46Z</time>
      </trkpt>
      <trkpt lat="47.22595" lon="6.17501">
        <ele>449.2</ele>
        <time>2022-09-12T10:40:40Z</time>
      </trkpt>
      <trkpt lat="47.22588" lon="6.17505">
        <ele>448</ele>
        <time>2022-09-12T10:40:37Z</time>
      </trkpt>
      <trkpt lat="47.22579" lon="6.17512">
        <ele>446.8</ele>
        <time>2022-09-12T10:40:33Z</time>
      </trkpt>
      <trkpt lat="47.22565" lon="6.17521">
        <ele>445.6</ele>
        <time>2022-09-12T10:40:28Z</time>
      </trkpt>
      <trkpt lat="47.2256" lon="6.17525">
        <ele>445.2</ele>
        <time>2022-09-12T10:40:26Z</time>
      </trkpt>
      <trkpt lat="47.22544" lon="6.1754">
        <ele>444.6</ele>
        <time>2022-09-12T10:40:19Z</time>
      </trkpt>
      <trkpt lat="47.22541" lon="6.17542">
        <ele>444.4</ele>
        <time>2022-09-12T10:40:18Z</time>
      </trkpt>
      <trkpt lat="47.22526" lon="6.17552">
        <ele>443.8</ele>
        <time>2022-09-12T10:40:12Z</time>
      </trkpt>
      <trkpt lat="47.22518" lon="6.1756">
        <ele>443.2</ele>
        <time>2022-09-12T10:40:08Z</time>
      </trkpt>
      <trkpt lat="47.22514" lon="6.17563">
        <ele>443</ele>
        <time>2022-09-12T10:40:06Z</time>
      </trkpt>
      <trkpt lat="47.22503" lon="6.17569">
        <ele>442.2</ele>
        <time>2022-09-12T10:40:02Z</time>
      </trkpt>
      <trkpt lat="47.22496" lon="6.17574">
        <ele>441.2</ele>
        <time>2022-09-12T10:39:59Z</time>
      </trkpt>
      <trkpt lat="47.22494" lon="6.17576">
        <ele>440.8</ele>
        <time>2022-09-12T10:39:58Z</time>
      </trkpt>
      <trkpt lat="47.22488" lon="6.17581">
        <ele>439.6</ele>
        <time>2022-09-12T10:39:55Z</time>
      </trkpt>
      <trkpt lat="47.2248" lon="6.17585">
        <ele>438.8</ele>
        <time>2022-09-12T10:39:52Z</time>
      </trkpt>
      <trkpt lat="47.22474" lon="6.1759">
        <ele>438.2</ele>
        <time>2022-09-12T10:39:49Z</time>
      </trkpt>
      <trkpt lat="47.22466" lon="6.17598">
        <ele>438</ele>
        <time>2022-09-12T10:39:45Z</time>
      </trkpt>
      <trkpt lat="47.22452" lon="6.17613">
        <ele>437.4</ele>
        <time>2022-09-12T10:39:38Z</time>
      </trkpt>
      <trkpt lat="47.22448" lon="6.17616">
        <ele>437.2</ele>
        <time>2022-09-12T10:39:36Z</time>
      </trkpt>
      <trkpt lat="47.22436" lon="6.17625">
        <ele>436</ele>
        <time>2022-09-12T10:39:30Z</time>
      </trkpt>
      <trkpt lat="47.22426" lon="6.17632">
        <ele>434.8</ele>
        <time>2022-09-12T10:39:26Z</time>
      </trkpt>
      <trkpt lat="47.22416" lon="6.1764">
        <ele>434</ele>
        <time>2022-09-12T10:39:22Z</time>
      </trkpt>
      <trkpt lat="47.22411" lon="6.17645">
        <ele>433.8</ele>
        <time>2022-09-12T10:39:20Z</time>
      </trkpt>
      <trkpt lat="47.22398" lon="6.17657">
        <ele>432.6</ele>
        <time>2022-09-12T10:39:15Z</time>
      </trkpt>
      <trkpt lat="47.22376" lon="6.17676">
        <ele>431.2</ele>
        <time>2022-09-12T10:39:08Z</time>
      </trkpt>
      <trkpt lat="47.2236" lon="6.1769">
        <ele>431.4</ele>
        <time>2022-09-12T10:39:01Z</time>
      </trkpt>
      <trkpt lat="47.22349" lon="6.17701">
        <ele>431.6</ele>
        <time>2022-09-12T10:38:56Z</time>
      </trkpt>
      <trkpt lat="47.22345" lon="6.17706">
        <ele>431.4</ele>
        <time>2022-09-12T10:38:54Z</time>
      </trkpt>
      <trkpt lat="47.22332" lon="6.17727">
        <ele>430.6</ele>
        <time>2022-09-12T10:38:47Z</time>
      </trkpt>
      <trkpt lat="47.22323" lon="6.17743">
        <ele>429.4</ele>
        <time>2022-09-12T10:38:43Z</time>
      </trkpt>
      <trkpt lat="47.22321" lon="6.17749">
        <ele>429.2</ele>
        <time>2022-09-12T10:38:42Z</time>
      </trkpt>
      <trkpt lat="47.22311" lon="6.17769">
        <ele>428.2</ele>
        <time>2022-09-12T10:38:38Z</time>
      </trkpt>
      <trkpt lat="47.22307" lon="6.17779">
        <ele>427</ele>
        <time>2022-09-12T10:38:36Z</time>
      </trkpt>
      <trkpt lat="47.22303" lon="6.17787">
        <ele>426</ele>
        <time>2022-09-12T10:38:34Z</time>
      </trkpt>
      <trkpt lat="47.22297" lon="6.17799">
        <ele>424.4</ele>
        <time>2022-09-12T10:38:31Z</time>
      </trkpt>
      <trkpt lat="47.22295" lon="6.17802">
        <ele>423.6</ele>
        <time>2022-09-12T10:38:30Z</time>
      </trkpt>
      <trkpt lat="47.22292" lon="6.17811">
        <ele>423.2</ele>
        <time>2022-09-12T10:37:24Z</time>
      </trkpt>
      <trkpt lat="47.22288" lon="6.1782">
        <ele>424.6</ele>
        <time>2022-09-12T10:37:21Z</time>
      </trkpt>
      <trkpt lat="47.22284" lon="6.17831">
        <ele>425.2</ele>
        <time>2022-09-12T10:37:18Z</time>
      </trkpt>
      <trkpt lat="47.2228" lon="6.17844">
        <ele>425.8</ele>
        <time>2022-09-12T10:37:14Z</time>
      </trkpt>
      <trkpt lat="47.22288" lon="6.17866">
        <ele>425.8</ele>
        <time>2022-09-12T10:37:09Z</time>
      </trkpt>
      <trkpt lat="47.22299" lon="6.17889">
        <ele>425.6</ele>
        <time>2022-09-12T10:37:05Z</time>
      </trkpt>
      <trkpt lat="47.22311" lon="6.17911">
        <ele>425</ele>
        <time>2022-09-12T10:37:01Z</time>
      </trkpt>
      <trkpt lat="47.22316" lon="6.17921">
        <ele>424.4</ele>
        <time>2022-09-12T10:36:59Z</time>
      </trkpt>
      <trkpt lat="47.22335" lon="6.17958">
        <ele>423.4</ele>
        <time>2022-09-12T10:36:52Z</time>
      </trkpt>
      <trkpt lat="47.2234" lon="6.17968">
        <ele>423</ele>
        <time>2022-09-12T10:36:50Z</time>
      </trkpt>
      <trkpt lat="47.22345" lon="6.17978">
        <ele>422.4</ele>
        <time>2022-09-12T10:36:48Z</time>
      </trkpt>
      <trkpt lat="47.22352" lon="6.17993">
        <ele>421.6</ele>
        <time>2022-09-12T10:36:45Z</time>
      </trkpt>
      <trkpt lat="47.22357" lon="6.18003">
        <ele>421.2</ele>
        <time>2022-09-12T10:36:43Z</time>
      </trkpt>
      <trkpt lat="47.22365" lon="6.1802">
        <ele>420</ele>
        <time>2022-09-12T10:36:39Z</time>
      </trkpt>
      <trkpt lat="47.22366" lon="6.18024">
        <ele>419.4</ele>
        <time>2022-09-12T10:36:38Z</time>
      </trkpt>
      <trkpt lat="47.22368" lon="6.18027">
        <ele>419</ele>
        <time>2022-09-12T10:36:37Z</time>
      </trkpt>
      <trkpt lat="47.22373" lon="6.18038">
        <ele>417.8</ele>
        <time>2022-09-12T10:36:33Z</time>
      </trkpt>
      <trkpt lat="47.22382" lon="6.18058">
        <ele>416.6</ele>
        <time>2022-09-12T10:36:28Z</time>
      </trkpt>
      <trkpt lat="47.22384" lon="6.18061">
        <ele>416.2</ele>
        <time>2022-09-12T10:36:27Z</time>
      </trkpt>
      <trkpt lat="47.22386" lon="6.18064">
        <ele>416</ele>
        <time>2022-09-12T10:36:26Z</time>
      </trkpt>
      <trkpt lat="47.22388" lon="6.1807">
        <ele>415.2</ele>
        <time>2022-09-12T10:36:24Z</time>
      </trkpt>
      <trkpt lat="47.22389" lon="6.18072">
        <ele>414.6</ele>
        <time>2022-09-12T10:36:23Z</time>
      </trkpt>
      <trkpt lat="47.2239" lon="6.18074">
        <ele>414.4</ele>
        <time>2022-09-12T10:36:22Z</time>
      </trkpt>
      <trkpt lat="47.22399" lon="6.18089">
        <ele>414</ele>
        <time>2022-09-12T10:36:19Z</time>
      </trkpt>
      <trkpt lat="47.22402" lon="6.18097">
        <ele>414</ele>
        <time>2022-09-12T10:36:18Z</time>
      </trkpt>
      <trkpt lat="47.22412" lon="6.18115">
        <ele>413.8</ele>
        <time>2022-09-12T10:36:15Z</time>
      </trkpt>
      <trkpt lat="47.22415" lon="6.1812">
        <ele>413.4</ele>
        <time>2022-09-12T10:36:14Z</time>
      </trkpt>
      <trkpt lat="47.22417" lon="6.18125">
        <ele>413.2</ele>
        <time>2022-09-12T10:36:13Z</time>
      </trkpt>
      <trkpt lat="47.22422" lon="6.18134">
        <ele>412.4</ele>
        <time>2022-09-12T10:36:11Z</time>
      </trkpt>
      <trkpt lat="47.22426" lon="6.18141">
        <ele>411.4</ele>
        <time>2022-09-12T10:36:09Z</time>
      </trkpt>
      <trkpt lat="47.22429" lon="6.18145">
        <ele>411.2</ele>
        <time>2022-09-12T10:36:08Z</time>
      </trkpt>
      <trkpt lat="47.22433" lon="6.1815">
        <ele>410.6</ele>
        <time>2022-09-12T10:36:07Z</time>
      </trkpt>
      <trkpt lat="47.22442" lon="6.18167">
        <ele>410</ele>
        <time>2022-09-12T10:36:05Z</time>
      </trkpt>
      <trkpt lat="47.22455" lon="6.18189">
        <ele>410.4</ele>
        <time>2022-09-12T10:36:02Z</time>
      </trkpt>
      <trkpt lat="47.22471" lon="6.18213">
        <ele>409.8</ele>
        <time>2022-09-12T10:35:58Z</time>
      </trkpt>
      <trkpt lat="47.22486" lon="6.1824">
        <ele>410</ele>
        <time>2022-09-12T10:35:53Z</time>
      </trkpt>
      <trkpt lat="47.22498" lon="6.18263">
        <ele>411</ele>
        <time>2022-09-12T10:35:48Z</time>
      </trkpt>
      <trkpt lat="47.225" lon="6.18267">
        <ele>411.4</ele>
        <time>2022-09-12T10:35:47Z</time>
      </trkpt>
      <trkpt lat="47.22517" lon="6.18293">
        <ele>412.6</ele>
        <time>2022-09-12T10:35:40Z</time>
      </trkpt>
      <trkpt lat="47.22534" lon="6.18316">
        <ele>412.6</ele>
        <time>2022-09-12T10:35:34Z</time>
      </trkpt>
      <trkpt lat="47.22539" lon="6.18324">
        <ele>412.2</ele>
        <time>2022-09-12T10:35:32Z</time>
      </trkpt>
      <trkpt lat="47.22548" lon="6.18341">
        <ele>411.6</ele>
        <time>2022-09-12T10:35:28Z</time>
      </trkpt>
      <trkpt lat="47.22555" lon="6.1835">
        <ele>411</ele>
        <time>2022-09-12T10:35:26Z</time>
      </trkpt>
      <trkpt lat="47.22568" lon="6.18364">
        <ele>409.8</ele>
        <time>2022-09-12T10:35:23Z</time>
      </trkpt>
      <trkpt lat="47.22573" lon="6.1837">
        <ele>409.4</ele>
        <time>2022-09-12T10:35:22Z</time>
      </trkpt>
      <trkpt lat="47.2259" lon="6.18391">
        <ele>408.6</ele>
        <time>2022-09-12T10:35:18Z</time>
      </trkpt>
      <trkpt lat="47.22601" lon="6.18404">
        <ele>409.8</ele>
        <time>2022-09-12T10:35:15Z</time>
      </trkpt>
      <trkpt lat="47.2262" lon="6.18427">
        <ele>410.4</ele>
        <time>2022-09-12T10:35:10Z</time>
      </trkpt>
      <trkpt lat="47.22631" lon="6.18442">
        <ele>411</ele>
        <time>2022-09-12T10:35:06Z</time>
      </trkpt>
      <trkpt lat="47.22633" lon="6.18446">
        <ele>411.4</ele>
        <time>2022-09-12T10:35:05Z</time>
      </trkpt>
      <trkpt lat="47.22639" lon="6.18454">
        <ele>412.4</ele>
        <time>2022-09-12T10:35:03Z</time>
      </trkpt>
      <trkpt lat="47.22646" lon="6.18462">
        <ele>413.6</ele>
        <time>2022-09-12T10:35:01Z</time>
      </trkpt>
      <trkpt lat="47.2265" lon="6.18468">
        <ele>414.4</ele>
        <time>2022-09-12T10:35:00Z</time>
      </trkpt>
      <trkpt lat="47.22654" lon="6.18474">
        <ele>415</ele>
        <time>2022-09-12T10:34:59Z</time>
      </trkpt>
      <trkpt lat="47.22666" lon="6.18491">
        <ele>416.4</ele>
        <time>2022-09-12T10:34:56Z</time>
      </trkpt>
      <trkpt lat="47.22677" lon="6.18506">
        <ele>417.8</ele>
        <time>2022-09-12T10:34:53Z</time>
      </trkpt>
      <trkpt lat="47.22688" lon="6.1852">
        <ele>419</ele>
        <time>2022-09-12T10:34:50Z</time>
      </trkpt>
      <trkpt lat="47.22698" lon="6.18538">
        <ele>420.4</ele>
        <time>2022-09-12T10:34:46Z</time>
      </trkpt>
      <trkpt lat="47.2271" lon="6.18556">
        <ele>421.6</ele>
        <time>2022-09-12T10:34:42Z</time>
      </trkpt>
      <trkpt lat="47.22719" lon="6.18568">
        <ele>422.6</ele>
        <time>2022-09-12T10:34:39Z</time>
      </trkpt>
      <trkpt lat="47.22722" lon="6.18572">
        <ele>422.8</ele>
        <time>2022-09-12T10:34:38Z</time>
      </trkpt>
      <trkpt lat="47.22734" lon="6.18585">
        <ele>423.8</ele>
        <time>2022-09-12T10:34:34Z</time>
      </trkpt>
      <trkpt lat="47.2274" lon="6.18594">
        <ele>424</ele>
        <time>2022-09-12T10:34:32Z</time>
      </trkpt>
      <trkpt lat="47.22753" lon="6.18612">
        <ele>424.4</ele>
        <time>2022-09-12T10:34:28Z</time>
      </trkpt>
      <trkpt lat="47.22774" lon="6.18641">
        <ele>425.2</ele>
        <time>2022-09-12T10:34:22Z</time>
      </trkpt>
      <trkpt lat="47.2278" lon="6.18648">
        <ele>425.8</ele>
        <time>2022-09-12T10:34:20Z</time>
      </trkpt>
      <trkpt lat="47.22798" lon="6.18675">
        <ele>426.8</ele>
        <time>2022-09-12T10:34:13Z</time>
      </trkpt>
      <trkpt lat="47.22808" lon="6.18691">
        <ele>427</ele>
        <time>2022-09-12T10:34:09Z</time>
      </trkpt>
      <trkpt lat="47.2282" lon="6.18706">
        <ele>426.8</ele>
        <time>2022-09-12T10:34:04Z</time>
      </trkpt>
      <trkpt lat="47.22826" lon="6.18722">
        <ele>426.4</ele>
        <time>2022-09-12T10:34:01Z</time>
      </trkpt>
      <trkpt lat="47.2283" lon="6.18734">
        <ele>426</ele>
        <time>2022-09-12T10:33:59Z</time>
      </trkpt>
      <trkpt lat="47.22836" lon="6.18754">
        <ele>425.2</ele>
        <time>2022-09-12T10:33:56Z</time>
      </trkpt>
      <trkpt lat="47.22846" lon="6.18784">
        <ele>423.8</ele>
        <time>2022-09-12T10:33:52Z</time>
      </trkpt>
      <trkpt lat="47.2286" lon="6.18829">
        <ele>423.8</ele>
        <time>2022-09-12T10:33:47Z</time>
      </trkpt>
      <trkpt lat="47.22863" lon="6.18838">
        <ele>424</ele>
        <time>2022-09-12T10:33:46Z</time>
      </trkpt>
      <trkpt lat="47.22875" lon="6.18877">
        <ele>425.2</ele>
        <time>2022-09-12T10:33:41Z</time>
      </trkpt>
      <trkpt lat="47.2288" lon="6.18889">
        <ele>425.4</ele>
        <time>2022-09-12T10:33:39Z</time>
      </trkpt>
      <trkpt lat="47.22885" lon="6.18906">
        <ele>425.6</ele>
        <time>2022-09-12T10:33:36Z</time>
      </trkpt>
      <trkpt lat="47.22893" lon="6.18937">
        <ele>425.6</ele>
        <time>2022-09-12T10:33:31Z</time>
      </trkpt>
      <trkpt lat="47.22897" lon="6.18953">
        <ele>425</ele>
        <time>2022-09-12T10:33:29Z</time>
      </trkpt>
      <trkpt lat="47.22908" lon="6.18987">
        <ele>424</ele>
        <time>2022-09-12T10:33:24Z</time>
      </trkpt>
      <trkpt lat="47.22919" lon="6.1902">
        <ele>422.6</ele>
        <time>2022-09-12T10:33:19Z</time>
      </trkpt>
      <trkpt lat="47.22925" lon="6.1904">
        <ele>422.2</ele>
        <time>2022-09-12T10:33:16Z</time>
      </trkpt>
      <trkpt lat="47.22937" lon="6.19068">
        <ele>421.4</ele>
        <time>2022-09-12T10:33:11Z</time>
      </trkpt>
      <trkpt lat="47.22943" lon="6.19082">
        <ele>421.4</ele>
        <time>2022-09-12T10:33:08Z</time>
      </trkpt>
      <trkpt lat="47.22949" lon="6.19094">
        <ele>420.2</ele>
        <time>2022-09-12T10:33:05Z</time>
      </trkpt>
      <trkpt lat="47.22951" lon="6.19099">
        <ele>419.4</ele>
        <time>2022-09-12T10:33:04Z</time>
      </trkpt>
      <trkpt lat="47.22962" lon="6.1912">
        <ele>418.6</ele>
        <time>2022-09-12T10:32:59Z</time>
      </trkpt>
      <trkpt lat="47.22967" lon="6.19132">
        <ele>418.8</ele>
        <time>2022-09-12T10:32:57Z</time>
      </trkpt>
      <trkpt lat="47.22976" lon="6.1915">
        <ele>419.2</ele>
        <time>2022-09-12T10:32:54Z</time>
      </trkpt>
      <trkpt lat="47.22987" lon="6.19172">
        <ele>419.6</ele>
        <time>2022-09-12T10:32:50Z</time>
      </trkpt>
      <trkpt lat="47.2299" lon="6.19178">
        <ele>419.6</ele>
        <time>2022-09-12T10:32:49Z</time>
      </trkpt>
      <trkpt lat="47.23007" lon="6.19209">
        <ele>419.2</ele>
        <time>2022-09-12T10:32:42Z</time>
      </trkpt>
      <trkpt lat="47.23014" lon="6.19223">
        <ele>419</ele>
        <time>2022-09-12T10:32:39Z</time>
      </trkpt>
      <trkpt lat="47.23018" lon="6.19229">
        <ele>419</ele>
        <time>2022-09-12T10:32:37Z</time>
      </trkpt>
      <trkpt lat="47.2303" lon="6.19247">
        <ele>418.6</ele>
        <time>2022-09-12T10:32:32Z</time>
      </trkpt>
      <trkpt lat="47.23047" lon="6.19275">
        <ele>418.4</ele>
        <time>2022-09-12T10:32:26Z</time>
      </trkpt>
      <trkpt lat="47.23055" lon="6.19288">
        <ele>418</ele>
        <time>2022-09-12T10:32:23Z</time>
      </trkpt>
      <trkpt lat="47.23063" lon="6.193">
        <ele>417.6</ele>
        <time>2022-09-12T10:32:20Z</time>
      </trkpt>
      <trkpt lat="47.23077" lon="6.1932">
        <ele>417</ele>
        <time>2022-09-12T10:32:14Z</time>
      </trkpt>
      <trkpt lat="47.23082" lon="6.19328">
        <ele>416</ele>
        <time>2022-09-12T10:32:11Z</time>
      </trkpt>
      <trkpt lat="47.23085" lon="6.19334">
        <ele>415.2</ele>
        <time>2022-09-12T10:32:09Z</time>
      </trkpt>
      <trkpt lat="47.23087" lon="6.19337">
        <ele>415</ele>
        <time>2022-09-12T10:32:08Z</time>
      </trkpt>
      <trkpt lat="47.231" lon="6.19356">
        <ele>413.6</ele>
        <time>2022-09-12T10:32:02Z</time>
      </trkpt>
      <trkpt lat="47.23115" lon="6.19377">
        <ele>412.4</ele>
        <time>2022-09-12T10:31:56Z</time>
      </trkpt>
      <trkpt lat="47.2313" lon="6.19395">
        <ele>411.6</ele>
        <time>2022-09-12T10:31:52Z</time>
      </trkpt>
      <trkpt lat="47.23152" lon="6.19428">
        <ele>412.2</ele>
        <time>2022-09-12T10:31:47Z</time>
      </trkpt>
      <trkpt lat="47.23168" lon="6.19452">
        <ele>412.6</ele>
        <time>2022-09-12T10:31:42Z</time>
      </trkpt>
      <trkpt lat="47.23171" lon="6.19456">
        <ele>412.6</ele>
        <time>2022-09-12T10:31:41Z</time>
      </trkpt>
      <trkpt lat="47.23178" lon="6.19463">
        <ele>411.6</ele>
        <time>2022-09-12T10:31:39Z</time>
      </trkpt>
      <trkpt lat="47.23185" lon="6.1947">
        <ele>410.4</ele>
        <time>2022-09-12T10:31:37Z</time>
      </trkpt>
      <trkpt lat="47.23191" lon="6.19479">
        <ele>409.2</ele>
        <time>2022-09-12T10:31:35Z</time>
      </trkpt>
      <trkpt lat="47.23195" lon="6.19485">
        <ele>408</ele>
        <time>2022-09-12T10:31:34Z</time>
      </trkpt>
      <trkpt lat="47.23202" lon="6.19494">
        <ele>406.6</ele>
        <time>2022-09-12T10:31:32Z</time>
      </trkpt>
      <trkpt lat="47.23209" lon="6.19502">
        <ele>405.2</ele>
        <time>2022-09-12T10:31:30Z</time>
      </trkpt>
      <trkpt lat="47.23211" lon="6.19505">
        <ele>405</ele>
        <time>2022-09-12T10:31:29Z</time>
      </trkpt>
      <trkpt lat="47.23219" lon="6.19516">
        <ele>403.6</ele>
        <time>2022-09-12T10:31:26Z</time>
      </trkpt>
      <trkpt lat="47.23224" lon="6.19524">
        <ele>402.8</ele>
        <time>2022-09-12T10:31:24Z</time>
      </trkpt>
      <trkpt lat="47.23231" lon="6.19532">
        <ele>402.2</ele>
        <time>2022-09-12T10:31:22Z</time>
      </trkpt>
      <trkpt lat="47.23244" lon="6.19547">
        <ele>401</ele>
        <time>2022-09-12T10:31:18Z</time>
      </trkpt>
      <trkpt lat="47.2325" lon="6.19553">
        <ele>399.4</ele>
        <time>2022-09-12T10:31:16Z</time>
      </trkpt>
      <trkpt lat="47.23258" lon="6.19564">
        <ele>398.6</ele>
        <time>2022-09-12T10:31:13Z</time>
      </trkpt>
      <trkpt lat="47.2326" lon="6.19568">
        <ele>398.2</ele>
        <time>2022-09-12T10:31:12Z</time>
      </trkpt>
      <trkpt lat="47.23273" lon="6.19584">
        <ele>397.6</ele>
        <time>2022-09-12T10:31:09Z</time>
      </trkpt>
      <trkpt lat="47.23299" lon="6.19621">
        <ele>397</ele>
        <time>2022-09-12T10:31:02Z</time>
      </trkpt>
      <trkpt lat="47.23302" lon="6.19625">
        <ele>397.2</ele>
        <time>2022-09-12T10:31:01Z</time>
      </trkpt>
      <trkpt lat="47.23311" lon="6.19637">
        <ele>398.2</ele>
        <time>2022-09-12T10:30:58Z</time>
      </trkpt>
      <trkpt lat="47.23318" lon="6.19647">
        <ele>399.2</ele>
        <time>2022-09-12T10:30:55Z</time>
      </trkpt>
      <trkpt lat="47.2332" lon="6.19651">
        <ele>399.4</ele>
        <time>2022-09-12T10:30:54Z</time>
      </trkpt>
      <trkpt lat="47.23329" lon="6.19662">
        <ele>400.6</ele>
        <time>2022-09-12T10:30:51Z</time>
      </trkpt>
      <trkpt lat="47.23333" lon="6.19666">
        <ele>401</ele>
        <time>2022-09-12T10:30:50Z</time>
      </trkpt>
      <trkpt lat="47.23341" lon="6.19677">
        <ele>401.6</ele>
        <time>2022-09-12T10:30:48Z</time>
      </trkpt>
      <trkpt lat="47.23355" lon="6.19696">
        <ele>402.8</ele>
        <time>2022-09-12T10:30:45Z</time>
      </trkpt>
      <trkpt lat="47.23359" lon="6.19702">
        <ele>403.4</ele>
        <time>2022-09-12T10:30:44Z</time>
      </trkpt>
      <trkpt lat="47.23365" lon="6.19711">
        <ele>404.4</ele>
        <time>2022-09-12T10:30:42Z</time>
      </trkpt>
      <trkpt lat="47.23368" lon="6.19717">
        <ele>404.6</ele>
        <time>2022-09-12T10:30:41Z</time>
      </trkpt>
      <trkpt lat="47.23382" lon="6.19738">
        <ele>405.2</ele>
        <time>2022-09-12T10:30:35Z</time>
      </trkpt>
      <trkpt lat="47.23384" lon="6.19741">
        <ele>405.6</ele>
        <time>2022-09-12T10:30:34Z</time>
      </trkpt>
      <trkpt lat="47.23393" lon="6.19757">
        <ele>406.6</ele>
        <time>2022-09-12T10:30:30Z</time>
      </trkpt>
      <trkpt lat="47.23395" lon="6.1976">
        <ele>407</ele>
        <time>2022-09-12T10:30:29Z</time>
      </trkpt>
      <trkpt lat="47.23411" lon="6.19786">
        <ele>407.8</ele>
        <time>2022-09-12T10:30:22Z</time>
      </trkpt>
      <trkpt lat="47.23413" lon="6.19789">
        <ele>408.2</ele>
        <time>2022-09-12T10:30:21Z</time>
      </trkpt>
      <trkpt lat="47.2342" lon="6.19801">
        <ele>409.2</ele>
        <time>2022-09-12T10:30:17Z</time>
      </trkpt>
      <trkpt lat="47.23421" lon="6.19804">
        <ele>409.4</ele>
        <time>2022-09-12T10:30:16Z</time>
      </trkpt>
      <trkpt lat="47.23431" lon="6.19815">
        <ele>409.6</ele>
        <time>2022-09-12T10:30:13Z</time>
      </trkpt>
      <trkpt lat="47.23436" lon="6.19821">
        <ele>410</ele>
        <time>2022-09-12T10:30:12Z</time>
      </trkpt>
      <trkpt lat="47.23441" lon="6.19828">
        <ele>410.2</ele>
        <time>2022-09-12T10:30:11Z</time>
      </trkpt>
      <trkpt lat="47.23451" lon="6.19842">
        <ele>411.2</ele>
        <time>2022-09-12T10:30:09Z</time>
      </trkpt>
      <trkpt lat="47.2346" lon="6.19855">
        <ele>412.4</ele>
        <time>2022-09-12T10:30:07Z</time>
      </trkpt>
      <trkpt lat="47.23468" lon="6.19867">
        <ele>413.6</ele>
        <time>2022-09-12T10:30:05Z</time>
      </trkpt>
      <trkpt lat="47.23483" lon="6.19888">
        <ele>415</ele>
        <time>2022-09-12T10:30:01Z</time>
      </trkpt>
      <trkpt lat="47.23495" lon="6.19906">
        <ele>416</ele>
        <time>2022-09-12T10:29:57Z</time>
      </trkpt>
      <trkpt lat="47.23501" lon="6.19915">
        <ele>416.6</ele>
        <time>2022-09-12T10:29:55Z</time>
      </trkpt>
      <trkpt lat="47.23504" lon="6.19919">
        <ele>417.2</ele>
        <time>2022-09-12T10:29:54Z</time>
      </trkpt>
      <trkpt lat="47.23514" lon="6.19936">
        <ele>418.4</ele>
        <time>2022-09-12T10:29:50Z</time>
      </trkpt>
      <trkpt lat="47.23517" lon="6.1994">
        <ele>418.8</ele>
        <time>2022-09-12T10:29:49Z</time>
      </trkpt>
      <trkpt lat="47.23526" lon="6.19953">
        <ele>419.8</ele>
        <time>2022-09-12T10:29:46Z</time>
      </trkpt>
      <trkpt lat="47.23534" lon="6.19965">
        <ele>420.8</ele>
        <time>2022-09-12T10:29:43Z</time>
      </trkpt>
      <trkpt lat="47.23542" lon="6.19978">
        <ele>422.4</ele>
        <time>2022-09-12T10:29:40Z</time>
      </trkpt>
      <trkpt lat="47.23551" lon="6.19993">
        <ele>423.8</ele>
        <time>2022-09-12T10:29:37Z</time>
      </trkpt>
      <trkpt lat="47.23562" lon="6.20009">
        <ele>425.4</ele>
        <time>2022-09-12T10:29:34Z</time>
      </trkpt>
      <trkpt lat="47.23568" lon="6.20019">
        <ele>426.2</ele>
        <time>2022-09-12T10:29:32Z</time>
      </trkpt>
      <trkpt lat="47.23572" lon="6.20023">
        <ele>426.8</ele>
        <time>2022-09-12T10:29:31Z</time>
      </trkpt>
      <trkpt lat="47.23583" lon="6.20032">
        <ele>427.8</ele>
        <time>2022-09-12T10:29:28Z</time>
      </trkpt>
      <trkpt lat="47.23589" lon="6.20038">
        <ele>428.2</ele>
        <time>2022-09-12T10:29:26Z</time>
      </trkpt>
      <trkpt lat="47.236" lon="6.20047">
        <ele>428.8</ele>
        <time>2022-09-12T10:29:23Z</time>
      </trkpt>
      <trkpt lat="47.23619" lon="6.20062">
        <ele>429.8</ele>
        <time>2022-09-12T10:29:18Z</time>
      </trkpt>
      <trkpt lat="47.23633" lon="6.20074">
        <ele>430</ele>
        <time>2022-09-12T10:29:14Z</time>
      </trkpt>
      <trkpt lat="47.23643" lon="6.20082">
        <ele>430.4</ele>
        <time>2022-09-12T10:29:11Z</time>
      </trkpt>
      <trkpt lat="47.23656" lon="6.20094">
        <ele>430.6</ele>
        <time>2022-09-12T10:29:06Z</time>
      </trkpt>
      <trkpt lat="47.23659" lon="6.20099">
        <ele>430.4</ele>
        <time>2022-09-12T10:29:04Z</time>
      </trkpt>
      <trkpt lat="47.23662" lon="6.20106">
        <ele>430.8</ele>
        <time>2022-09-12T10:28:46Z</time>
      </trkpt>
      <trkpt lat="47.23662" lon="6.20108">
        <ele>431</ele>
        <time>2022-09-12T10:28:45Z</time>
      </trkpt>
      <trkpt lat="47.23659" lon="6.20117">
        <ele>431.6</ele>
        <time>2022-09-12T10:28:41Z</time>
      </trkpt>
      <trkpt lat="47.23657" lon="6.20119">
        <ele>431.8</ele>
        <time>2022-09-12T10:28:40Z</time>
      </trkpt>
      <trkpt lat="47.23655" lon="6.20126">
        <ele>431</ele>
        <time>2022-09-12T10:28:37Z</time>
      </trkpt>
      <trkpt lat="47.23655" lon="6.20128">
        <ele>431</ele>
        <time>2022-09-12T10:28:36Z</time>
      </trkpt>
      <trkpt lat="47.23654" lon="6.20148">
        <ele>430.6</ele>
        <time>2022-09-12T10:28:32Z</time>
      </trkpt>
      <trkpt lat="47.23647" lon="6.20186">
        <ele>430</ele>
        <time>2022-09-12T10:28:27Z</time>
      </trkpt>
      <trkpt lat="47.23645" lon="6.20194">
        <ele>430</ele>
        <time>2022-09-12T10:28:26Z</time>
      </trkpt>
      <trkpt lat="47.23636" lon="6.20227">
        <ele>428.8</ele>
        <time>2022-09-12T10:28:22Z</time>
      </trkpt>
      <trkpt lat="47.23633" lon="6.20244">
        <ele>428.4</ele>
        <time>2022-09-12T10:28:20Z</time>
      </trkpt>
      <trkpt lat="47.2363" lon="6.20261">
        <ele>427.8</ele>
        <time>2022-09-12T10:28:18Z</time>
      </trkpt>
      <trkpt lat="47.23623" lon="6.20296">
        <ele>426.6</ele>
        <time>2022-09-12T10:28:14Z</time>
      </trkpt>
      <trkpt lat="47.23622" lon="6.20304">
        <ele>426.2</ele>
        <time>2022-09-12T10:28:13Z</time>
      </trkpt>
      <trkpt lat="47.23617" lon="6.20327">
        <ele>425.2</ele>
        <time>2022-09-12T10:28:10Z</time>
      </trkpt>
      <trkpt lat="47.23611" lon="6.20347">
        <ele>424.4</ele>
        <time>2022-09-12T10:28:07Z</time>
      </trkpt>
      <trkpt lat="47.23609" lon="6.20354">
        <ele>424.2</ele>
        <time>2022-09-12T10:28:06Z</time>
      </trkpt>
      <trkpt lat="47.23597" lon="6.20389">
        <ele>423</ele>
        <time>2022-09-12T10:28:01Z</time>
      </trkpt>
      <trkpt lat="47.23588" lon="6.20407">
        <ele>422.8</ele>
        <time>2022-09-12T10:27:58Z</time>
      </trkpt>
      <trkpt lat="47.23564" lon="6.20436">
        <ele>422.4</ele>
        <time>2022-09-12T10:27:52Z</time>
      </trkpt>
      <trkpt lat="47.23533" lon="6.20485">
        <ele>422.6</ele>
        <time>2022-09-12T10:27:44Z</time>
      </trkpt>
      <trkpt lat="47.23505" lon="6.20532">
        <ele>422.2</ele>
        <time>2022-09-12T10:27:36Z</time>
      </trkpt>
      <trkpt lat="47.23502" lon="6.20537">
        <ele>422</ele>
        <time>2022-09-12T10:27:35Z</time>
      </trkpt>
      <trkpt lat="47.2348" lon="6.20572">
        <ele>421</ele>
        <time>2022-09-12T10:27:28Z</time>
      </trkpt>
      <trkpt lat="47.23477" lon="6.20577">
        <ele>421</ele>
        <time>2022-09-12T10:27:27Z</time>
      </trkpt>
      <trkpt lat="47.23456" lon="6.2061">
        <ele>420.2</ele>
        <time>2022-09-12T10:27:21Z</time>
      </trkpt>
      <trkpt lat="47.23433" lon="6.20651">
        <ele>420.4</ele>
        <time>2022-09-12T10:27:14Z</time>
      </trkpt>
      <trkpt lat="47.2343" lon="6.20656">
        <ele>420.4</ele>
        <time>2022-09-12T10:27:13Z</time>
      </trkpt>
      <trkpt lat="47.23409" lon="6.20688">
        <ele>420.6</ele>
        <time>2022-09-12T10:27:06Z</time>
      </trkpt>
      <trkpt lat="47.23398" lon="6.20703">
        <ele>420</ele>
        <time>2022-09-12T10:27:02Z</time>
      </trkpt>
      <trkpt lat="47.23391" lon="6.20714">
        <ele>419.6</ele>
        <time>2022-09-12T10:26:59Z</time>
      </trkpt>
      <trkpt lat="47.23389" lon="6.20717">
        <ele>419.4</ele>
        <time>2022-09-12T10:26:58Z</time>
      </trkpt>
      <trkpt lat="47.23386" lon="6.20724">
        <ele>418.8</ele>
        <time>2022-09-12T10:26:56Z</time>
      </trkpt>
      <trkpt lat="47.23384" lon="6.20732">
        <ele>418.4</ele>
        <time>2022-09-12T10:26:54Z</time>
      </trkpt>
      <trkpt lat="47.23384" lon="6.20736">
        <ele>418</ele>
        <time>2022-09-12T10:26:53Z</time>
      </trkpt>
      <trkpt lat="47.23385" lon="6.2074">
        <ele>417.8</ele>
        <time>2022-09-12T10:26:52Z</time>
      </trkpt>
      <trkpt lat="47.23392" lon="6.2075">
        <ele>416.4</ele>
        <time>2022-09-12T10:26:49Z</time>
      </trkpt>
      <trkpt lat="47.234" lon="6.20762">
        <ele>415.2</ele>
        <time>2022-09-12T10:26:45Z</time>
      </trkpt>
      <trkpt lat="47.23403" lon="6.20765">
        <ele>415</ele>
        <time>2022-09-12T10:26:44Z</time>
      </trkpt>
      <trkpt lat="47.23411" lon="6.20773">
        <ele>414</ele>
        <time>2022-09-12T10:26:41Z</time>
      </trkpt>
      <trkpt lat="47.23418" lon="6.2078">
        <ele>413</ele>
        <time>2022-09-12T10:26:39Z</time>
      </trkpt>
      <trkpt lat="47.23445" lon="6.20806">
        <ele>411.6</ele>
        <time>2022-09-12T10:26:32Z</time>
      </trkpt>
      <trkpt lat="47.23473" lon="6.20847">
        <ele>411.2</ele>
        <time>2022-09-12T10:26:25Z</time>
      </trkpt>
      <trkpt lat="47.23491" lon="6.20873">
        <ele>411.8</ele>
        <time>2022-09-12T10:26:21Z</time>
      </trkpt>
      <trkpt lat="47.23506" lon="6.20891">
        <ele>412.4</ele>
        <time>2022-09-12T10:26:18Z</time>
      </trkpt>
      <trkpt lat="47.23515" lon="6.20901">
        <ele>412.8</ele>
        <time>2022-09-12T10:26:16Z</time>
      </trkpt>
      <trkpt lat="47.23533" lon="6.20918">
        <ele>413.2</ele>
        <time>2022-09-12T10:26:12Z</time>
      </trkpt>
      <trkpt lat="47.23537" lon="6.20923">
        <ele>413.2</ele>
        <time>2022-09-12T10:26:11Z</time>
      </trkpt>
      <trkpt lat="47.23555" lon="6.20956">
        <ele>413.8</ele>
        <time>2022-09-12T10:26:06Z</time>
      </trkpt>
      <trkpt lat="47.23558" lon="6.20963">
        <ele>414</ele>
        <time>2022-09-12T10:26:05Z</time>
      </trkpt>
      <trkpt lat="47.23577" lon="6.2101">
        <ele>415</ele>
        <time>2022-09-12T10:25:59Z</time>
      </trkpt>
      <trkpt lat="47.23594" lon="6.21046">
        <ele>416.2</ele>
        <time>2022-09-12T10:25:54Z</time>
      </trkpt>
      <trkpt lat="47.23604" lon="6.21068">
        <ele>417.2</ele>
        <time>2022-09-12T10:25:51Z</time>
      </trkpt>
      <trkpt lat="47.23614" lon="6.21092">
        <ele>418.6</ele>
        <time>2022-09-12T10:25:48Z</time>
      </trkpt>
      <trkpt lat="47.23624" lon="6.21118">
        <ele>419.6</ele>
        <time>2022-09-12T10:25:45Z</time>
      </trkpt>
      <trkpt lat="47.23628" lon="6.21127">
        <ele>419.8</ele>
        <time>2022-09-12T10:25:44Z</time>
      </trkpt>
      <trkpt lat="47.23631" lon="6.21135">
        <ele>420.2</ele>
        <time>2022-09-12T10:25:43Z</time>
      </trkpt>
      <trkpt lat="47.23635" lon="6.21144">
        <ele>420.6</ele>
        <time>2022-09-12T10:25:42Z</time>
      </trkpt>
      <trkpt lat="47.23644" lon="6.21175">
        <ele>421.8</ele>
        <time>2022-09-12T10:25:39Z</time>
      </trkpt>
      <trkpt lat="47.23658" lon="6.21215">
        <ele>423.2</ele>
        <time>2022-09-12T10:25:35Z</time>
      </trkpt>
      <trkpt lat="47.23664" lon="6.21234">
        <ele>423.8</ele>
        <time>2022-09-12T10:25:33Z</time>
      </trkpt>
      <trkpt lat="47.23678" lon="6.21286">
        <ele>425</ele>
        <time>2022-09-12T10:25:27Z</time>
      </trkpt>
      <trkpt lat="47.23686" lon="6.2132">
        <ele>424.4</ele>
        <time>2022-09-12T10:25:22Z</time>
      </trkpt>
      <trkpt lat="47.2369" lon="6.21332">
        <ele>423.8</ele>
        <time>2022-09-12T10:25:20Z</time>
      </trkpt>
      <trkpt lat="47.23696" lon="6.21353">
        <ele>423.2</ele>
        <time>2022-09-12T10:25:16Z</time>
      </trkpt>
      <trkpt lat="47.23701" lon="6.21368">
        <ele>422</ele>
        <time>2022-09-12T10:25:13Z</time>
      </trkpt>
      <trkpt lat="47.23715" lon="6.21389">
        <ele>421.6</ele>
        <time>2022-09-12T10:25:08Z</time>
      </trkpt>
      <trkpt lat="47.2373" lon="6.21409">
        <ele>420.8</ele>
        <time>2022-09-12T10:25:02Z</time>
      </trkpt>
      <trkpt lat="47.23732" lon="6.21416">
        <ele>419.6</ele>
        <time>2022-09-12T10:25:00Z</time>
      </trkpt>
      <trkpt lat="47.23739" lon="6.2143">
        <ele>418.4</ele>
        <time>2022-09-12T10:24:57Z</time>
      </trkpt>
      <trkpt lat="47.23742" lon="6.21434">
        <ele>418.2</ele>
        <time>2022-09-12T10:24:56Z</time>
      </trkpt>
      <trkpt lat="47.2375" lon="6.21449">
        <ele>417.2</ele>
        <time>2022-09-12T10:24:53Z</time>
      </trkpt>
      <trkpt lat="47.23755" lon="6.21461">
        <ele>417</ele>
        <time>2022-09-12T10:24:51Z</time>
      </trkpt>
      <trkpt lat="47.23769" lon="6.21496">
        <ele>417</ele>
        <time>2022-09-12T10:24:45Z</time>
      </trkpt>
      <trkpt lat="47.23777" lon="6.21528">
        <ele>416.8</ele>
        <time>2022-09-12T10:24:40Z</time>
      </trkpt>
      <trkpt lat="47.23778" lon="6.21534">
        <ele>416.8</ele>
        <time>2022-09-12T10:24:39Z</time>
      </trkpt>
      <trkpt lat="47.23787" lon="6.21561">
        <ele>416.6</ele>
        <time>2022-09-12T10:24:34Z</time>
      </trkpt>
      <trkpt lat="47.23791" lon="6.21574">
        <ele>416</ele>
        <time>2022-09-12T10:24:31Z</time>
      </trkpt>
      <trkpt lat="47.23797" lon="6.21582">
        <ele>415.4</ele>
        <time>2022-09-12T10:24:28Z</time>
      </trkpt>
      <trkpt lat="47.23801" lon="6.21587">
        <ele>415</ele>
        <time>2022-09-12T10:24:26Z</time>
      </trkpt>
      <trkpt lat="47.23809" lon="6.21597">
        <ele>413.8</ele>
        <time>2022-09-12T10:24:22Z</time>
      </trkpt>
      <trkpt lat="47.23817" lon="6.21608">
        <ele>412.4</ele>
        <time>2022-09-12T10:24:19Z</time>
      </trkpt>
      <trkpt lat="47.23826" lon="6.2162">
        <ele>411.2</ele>
        <time>2022-09-12T10:24:16Z</time>
      </trkpt>
      <trkpt lat="47.23832" lon="6.21632">
        <ele>409.6</ele>
        <time>2022-09-12T10:24:14Z</time>
      </trkpt>
      <trkpt lat="47.23842" lon="6.21663">
        <ele>408.4</ele>
        <time>2022-09-12T10:24:09Z</time>
      </trkpt>
      <trkpt lat="47.23846" lon="6.21688">
        <ele>407.4</ele>
        <time>2022-09-12T10:24:05Z</time>
      </trkpt>
      <trkpt lat="47.23849" lon="6.21703">
        <ele>406.6</ele>
        <time>2022-09-12T10:24:02Z</time>
      </trkpt>
      <trkpt lat="47.23851" lon="6.21708">
        <ele>406.2</ele>
        <time>2022-09-12T10:24:01Z</time>
      </trkpt>
      <trkpt lat="47.23859" lon="6.21733">
        <ele>404.8</ele>
        <time>2022-09-12T10:23:56Z</time>
      </trkpt>
      <trkpt lat="47.23861" lon="6.21738">
        <ele>404.4</ele>
        <time>2022-09-12T10:23:55Z</time>
      </trkpt>
      <trkpt lat="47.23869" lon="6.21758">
        <ele>404</ele>
        <time>2022-09-12T10:23:52Z</time>
      </trkpt>
      <trkpt lat="47.23889" lon="6.21787">
        <ele>404.4</ele>
        <time>2022-09-12T10:23:48Z</time>
      </trkpt>
      <trkpt lat="47.23894" lon="6.21795">
        <ele>404.6</ele>
        <time>2022-09-12T10:23:47Z</time>
      </trkpt>
      <trkpt lat="47.23916" lon="6.21838">
        <ele>405</ele>
        <time>2022-09-12T10:23:41Z</time>
      </trkpt>
      <trkpt lat="47.23919" lon="6.21845">
        <ele>405.4</ele>
        <time>2022-09-12T10:23:40Z</time>
      </trkpt>
      <trkpt lat="47.23923" lon="6.21851">
        <ele>405.4</ele>
        <time>2022-09-12T10:23:39Z</time>
      </trkpt>
      <trkpt lat="47.2394" lon="6.21876">
        <ele>406</ele>
        <time>2022-09-12T10:23:34Z</time>
      </trkpt>
      <trkpt lat="47.23961" lon="6.21909">
        <ele>407.2</ele>
        <time>2022-09-12T10:23:28Z</time>
      </trkpt>
      <trkpt lat="47.23965" lon="6.21914">
        <ele>407.4</ele>
        <time>2022-09-12T10:23:27Z</time>
      </trkpt>
      <trkpt lat="47.23972" lon="6.21926">
        <ele>408.4</ele>
        <time>2022-09-12T10:23:25Z</time>
      </trkpt>
      <trkpt lat="47.23983" lon="6.21945">
        <ele>409.6</ele>
        <time>2022-09-12T10:23:22Z</time>
      </trkpt>
      <trkpt lat="47.2399" lon="6.21959">
        <ele>410.4</ele>
        <time>2022-09-12T10:23:20Z</time>
      </trkpt>
      <trkpt lat="47.23993" lon="6.21966">
        <ele>410.8</ele>
        <time>2022-09-12T10:23:19Z</time>
      </trkpt>
      <trkpt lat="47.24008" lon="6.21995">
        <ele>412.2</ele>
        <time>2022-09-12T10:23:15Z</time>
      </trkpt>
      <trkpt lat="47.24011" lon="6.22002">
        <ele>412.4</ele>
        <time>2022-09-12T10:23:14Z</time>
      </trkpt>
      <trkpt lat="47.24023" lon="6.22025">
        <ele>413.4</ele>
        <time>2022-09-12T10:23:11Z</time>
      </trkpt>
      <trkpt lat="47.24037" lon="6.22055">
        <ele>414.6</ele>
        <time>2022-09-12T10:23:07Z</time>
      </trkpt>
      <trkpt lat="47.24057" lon="6.2209">
        <ele>415.6</ele>
        <time>2022-09-12T10:23:02Z</time>
      </trkpt>
      <trkpt lat="47.2407" lon="6.2211">
        <ele>416.6</ele>
        <time>2022-09-12T10:22:59Z</time>
      </trkpt>
      <trkpt lat="47.24074" lon="6.22116">
        <ele>417</ele>
        <time>2022-09-12T10:22:58Z</time>
      </trkpt>
      <trkpt lat="47.24088" lon="6.22142">
        <ele>417.8</ele>
        <time>2022-09-12T10:22:54Z</time>
      </trkpt>
      <trkpt lat="47.24091" lon="6.22149">
        <ele>418</ele>
        <time>2022-09-12T10:22:53Z</time>
      </trkpt>
      <trkpt lat="47.24104" lon="6.22175">
        <ele>419</ele>
        <time>2022-09-12T10:22:49Z</time>
      </trkpt>
      <trkpt lat="47.24107" lon="6.22182">
        <ele>419.2</ele>
        <time>2022-09-12T10:22:48Z</time>
      </trkpt>
      <trkpt lat="47.24118" lon="6.22217">
        <ele>420</ele>
        <time>2022-09-12T10:22:43Z</time>
      </trkpt>
      <trkpt lat="47.24123" lon="6.22231">
        <ele>420.4</ele>
        <time>2022-09-12T10:22:41Z</time>
      </trkpt>
      <trkpt lat="47.24129" lon="6.22246">
        <ele>420.6</ele>
        <time>2022-09-12T10:22:39Z</time>
      </trkpt>
      <trkpt lat="47.24154" lon="6.2229">
        <ele>421</ele>
        <time>2022-09-12T10:22:32Z</time>
      </trkpt>
      <trkpt lat="47.24182" lon="6.22344">
        <ele>421</ele>
        <time>2022-09-12T10:22:24Z</time>
      </trkpt>
      <trkpt lat="47.24215" lon="6.2239">
        <ele>421</ele>
        <time>2022-09-12T10:22:17Z</time>
      </trkpt>
      <trkpt lat="47.24261" lon="6.22445">
        <ele>421.2</ele>
        <time>2022-09-12T10:22:08Z</time>
      </trkpt>
      <trkpt lat="47.243" lon="6.22489">
        <ele>422</ele>
        <time>2022-09-12T10:22:00Z</time>
      </trkpt>
      <trkpt lat="47.24329" lon="6.22517">
        <ele>422.2</ele>
        <time>2022-09-12T10:21:54Z</time>
      </trkpt>
      <trkpt lat="47.24333" lon="6.22522">
        <ele>422.2</ele>
        <time>2022-09-12T10:21:53Z</time>
      </trkpt>
      <trkpt lat="47.24352" lon="6.22547">
        <ele>421.6</ele>
        <time>2022-09-12T10:21:48Z</time>
      </trkpt>
      <trkpt lat="47.24361" lon="6.2256">
        <ele>421.2</ele>
        <time>2022-09-12T10:21:45Z</time>
      </trkpt>
      <trkpt lat="47.24376" lon="6.22576">
        <ele>420.2</ele>
        <time>2022-09-12T10:21:41Z</time>
      </trkpt>
      <trkpt lat="47.2438" lon="6.22579">
        <ele>420.2</ele>
        <time>2022-09-12T10:21:40Z</time>
      </trkpt>
      <trkpt lat="47.24402" lon="6.22602">
        <ele>419.2</ele>
        <time>2022-09-12T10:21:34Z</time>
      </trkpt>
      <trkpt lat="47.24406" lon="6.22606">
        <ele>419</ele>
        <time>2022-09-12T10:21:33Z</time>
      </trkpt>
      <trkpt lat="47.2442" lon="6.22623">
        <ele>417.8</ele>
        <time>2022-09-12T10:21:29Z</time>
      </trkpt>
      <trkpt lat="47.24426" lon="6.22632">
        <ele>417.2</ele>
        <time>2022-09-12T10:21:27Z</time>
      </trkpt>
      <trkpt lat="47.24436" lon="6.22653">
        <ele>416.6</ele>
        <time>2022-09-12T10:21:23Z</time>
      </trkpt>
      <trkpt lat="47.24446" lon="6.22676">
        <ele>415.4</ele>
        <time>2022-09-12T10:21:19Z</time>
      </trkpt>
      <trkpt lat="47.24457" lon="6.227">
        <ele>414.2</ele>
        <time>2022-09-12T10:21:15Z</time>
      </trkpt>
      <trkpt lat="47.24465" lon="6.22718">
        <ele>413.6</ele>
        <time>2022-09-12T10:21:12Z</time>
      </trkpt>
      <trkpt lat="47.24472" lon="6.22729">
        <ele>413.2</ele>
        <time>2022-09-12T10:21:10Z</time>
      </trkpt>
      <trkpt lat="47.24502" lon="6.22767">
        <ele>412</ele>
        <time>2022-09-12T10:21:02Z</time>
      </trkpt>
      <trkpt lat="47.24505" lon="6.22771">
        <ele>411.8</ele>
        <time>2022-09-12T10:21:01Z</time>
      </trkpt>
      <trkpt lat="47.24525" lon="6.22794">
        <ele>410.8</ele>
        <time>2022-09-12T10:20:56Z</time>
      </trkpt>
      <trkpt lat="47.24532" lon="6.22803">
        <ele>410.4</ele>
        <time>2022-09-12T10:20:54Z</time>
      </trkpt>
      <trkpt lat="47.2456" lon="6.22838">
        <ele>410</ele>
        <time>2022-09-12T10:20:46Z</time>
      </trkpt>
      <trkpt lat="47.2457" lon="6.22851">
        <ele>409.8</ele>
        <time>2022-09-12T10:20:43Z</time>
      </trkpt>
      <trkpt lat="47.24585" lon="6.22871">
        <ele>409.6</ele>
        <time>2022-09-12T10:20:39Z</time>
      </trkpt>
      <trkpt lat="47.24609" lon="6.22902">
        <ele>408.6</ele>
        <time>2022-09-12T10:20:33Z</time>
      </trkpt>
      <trkpt lat="47.24614" lon="6.22907">
        <ele>408.4</ele>
        <time>2022-09-12T10:20:32Z</time>
      </trkpt>
      <trkpt lat="47.24629" lon="6.22921">
        <ele>408.6</ele>
        <time>2022-09-12T10:20:29Z</time>
      </trkpt>
      <trkpt lat="47.24635" lon="6.22924">
        <ele>408.8</ele>
        <time>2022-09-12T10:20:28Z</time>
      </trkpt>
      <trkpt lat="47.24673" lon="6.2294">
        <ele>409.4</ele>
        <time>2022-09-12T10:20:22Z</time>
      </trkpt>
      <trkpt lat="47.2468" lon="6.22944">
        <ele>409.8</ele>
        <time>2022-09-12T10:20:21Z</time>
      </trkpt>
      <trkpt lat="47.24702" lon="6.22965">
        <ele>411</ele>
        <time>2022-09-12T10:20:17Z</time>
      </trkpt>
      <trkpt lat="47.24719" lon="6.22984">
        <ele>411.4</ele>
        <time>2022-09-12T10:20:12Z</time>
      </trkpt>
      <trkpt lat="47.24739" lon="6.23027">
        <ele>411.4</ele>
        <time>2022-09-12T10:20:04Z</time>
      </trkpt>
      <trkpt lat="47.2475" lon="6.23058">
        <ele>411.4</ele>
        <time>2022-09-12T10:19:59Z</time>
      </trkpt>
      <trkpt lat="47.2477" lon="6.23105">
        <ele>411.8</ele>
        <time>2022-09-12T10:19:52Z</time>
      </trkpt>
      <trkpt lat="47.24791" lon="6.23142">
        <ele>412.2</ele>
        <time>2022-09-12T10:19:46Z</time>
      </trkpt>
      <trkpt lat="47.24815" lon="6.23177">
        <ele>412</ele>
        <time>2022-09-12T10:19:38Z</time>
      </trkpt>
      <trkpt lat="47.24828" lon="6.23196">
        <ele>412.6</ele>
        <time>2022-09-12T10:19:32Z</time>
      </trkpt>
      <trkpt lat="47.24841" lon="6.23217">
        <ele>413</ele>
        <time>2022-09-12T10:19:24Z</time>
      </trkpt>
      <trkpt lat="47.2486" lon="6.23245">
        <ele>412.4</ele>
        <time>2022-09-12T10:19:15Z</time>
      </trkpt>
      <trkpt lat="47.24873" lon="6.23264">
        <ele>412.2</ele>
        <time>2022-09-12T10:19:09Z</time>
      </trkpt>
      <trkpt lat="47.24877" lon="6.2327">
        <ele>411.6</ele>
        <time>2022-09-12T10:19:07Z</time>
      </trkpt>
      <trkpt lat="47.24889" lon="6.23289">
        <ele>411.2</ele>
        <time>2022-09-12T10:19:01Z</time>
      </trkpt>
      <trkpt lat="47.24898" lon="6.23301">
        <ele>410.6</ele>
        <time>2022-09-12T10:18:57Z</time>
      </trkpt>
      <trkpt lat="47.24902" lon="6.23308">
        <ele>410.2</ele>
        <time>2022-09-12T10:18:55Z</time>
      </trkpt>
      <trkpt lat="47.24917" lon="6.23326">
        <ele>409.6</ele>
        <time>2022-09-12T10:18:49Z</time>
      </trkpt>
      <trkpt lat="47.24933" lon="6.23345">
        <ele>409</ele>
        <time>2022-09-12T10:18:43Z</time>
      </trkpt>
      <trkpt lat="47.24939" lon="6.23352">
        <ele>409</ele>
        <time>2022-09-12T10:18:41Z</time>
      </trkpt>
      <trkpt lat="47.24968" lon="6.23383">
        <ele>408</ele>
        <time>2022-09-12T10:18:33Z</time>
      </trkpt>
      <trkpt lat="47.25008" lon="6.23426">
        <ele>407.4</ele>
        <time>2022-09-12T10:18:23Z</time>
      </trkpt>
      <trkpt lat="47.25042" lon="6.2346">
        <ele>407.6</ele>
        <time>2022-09-12T10:18:15Z</time>
      </trkpt>
      <trkpt lat="47.25065" lon="6.23485">
        <ele>408</ele>
        <time>2022-09-12T10:18:09Z</time>
      </trkpt>
      <trkpt lat="47.25068" lon="6.2349">
        <ele>408</ele>
        <time>2022-09-12T10:18:08Z</time>
      </trkpt>
      <trkpt lat="47.25076" lon="6.23501">
        <ele>408.4</ele>
        <time>2022-09-12T10:18:05Z</time>
      </trkpt>
      <trkpt lat="47.25083" lon="6.23504">
        <ele>408.6</ele>
        <time>2022-09-12T10:18:02Z</time>
      </trkpt>
      <trkpt lat="47.25088" lon="6.23504">
        <ele>408.8</ele>
        <time>2022-09-12T10:18:00Z</time>
      </trkpt>
      <trkpt lat="47.2509" lon="6.23502">
        <ele>409.2</ele>
        <time>2022-09-12T10:17:59Z</time>
      </trkpt>
      <trkpt lat="47.25102" lon="6.23493">
        <ele>410</ele>
        <time>2022-09-12T10:17:54Z</time>
      </trkpt>
      <trkpt lat="47.25111" lon="6.23487">
        <ele>410.2</ele>
        <time>2022-09-12T10:17:51Z</time>
      </trkpt>
      <trkpt lat="47.25124" lon="6.23478">
        <ele>410.6</ele>
        <time>2022-09-12T10:17:47Z</time>
      </trkpt>
      <trkpt lat="47.25138" lon="6.23467">
        <ele>410.8</ele>
        <time>2022-09-12T10:17:41Z</time>
      </trkpt>
      <trkpt lat="47.2515" lon="6.23455">
        <ele>411</ele>
        <time>2022-09-12T10:17:35Z</time>
      </trkpt>
      <trkpt lat="47.25162" lon="6.23446">
        <ele>411.2</ele>
        <time>2022-09-12T10:17:31Z</time>
      </trkpt>
      <trkpt lat="47.25178" lon="6.23435">
        <ele>411.2</ele>
        <time>2022-09-12T10:17:26Z</time>
      </trkpt>
      <trkpt lat="47.25195" lon="6.23424">
        <ele>410.2</ele>
        <time>2022-09-12T10:17:20Z</time>
      </trkpt>
      <trkpt lat="47.25211" lon="6.23421">
        <ele>409.2</ele>
        <time>2022-09-12T10:17:14Z</time>
      </trkpt>
      <trkpt lat="47.25235" lon="6.23411">
        <ele>408.8</ele>
        <time>2022-09-12T10:17:08Z</time>
      </trkpt>
      <trkpt lat="47.25248" lon="6.23402">
        <ele>409.2</ele>
        <time>2022-09-12T10:17:05Z</time>
      </trkpt>
      <trkpt lat="47.25262" lon="6.23391">
        <ele>409.4</ele>
        <time>2022-09-12T10:17:02Z</time>
      </trkpt>
      <trkpt lat="47.25282" lon="6.23372">
        <ele>410.2</ele>
        <time>2022-09-12T10:16:58Z</time>
      </trkpt>
      <trkpt lat="47.25298" lon="6.23357">
        <ele>410.8</ele>
        <time>2022-09-12T10:16:55Z</time>
      </trkpt>
      <trkpt lat="47.2532" lon="6.23336">
        <ele>411.4</ele>
        <time>2022-09-12T10:16:50Z</time>
      </trkpt>
      <trkpt lat="47.25324" lon="6.23333">
        <ele>411.6</ele>
        <time>2022-09-12T10:16:49Z</time>
      </trkpt>
      <trkpt lat="47.25347" lon="6.23316">
        <ele>412.4</ele>
        <time>2022-09-12T10:16:43Z</time>
      </trkpt>
      <trkpt lat="47.25381" lon="6.23299">
        <ele>413.6</ele>
        <time>2022-09-12T10:16:35Z</time>
      </trkpt>
      <trkpt lat="47.25385" lon="6.23297">
        <ele>413.6</ele>
        <time>2022-09-12T10:16:34Z</time>
      </trkpt>
      <trkpt lat="47.25413" lon="6.23287">
        <ele>414.6</ele>
        <time>2022-09-12T10:16:27Z</time>
      </trkpt>
      <trkpt lat="47.25439" lon="6.23278">
        <ele>415.4</ele>
        <time>2022-09-12T10:16:19Z</time>
      </trkpt>
      <trkpt lat="47.2546" lon="6.23269">
        <ele>416</ele>
        <time>2022-09-12T10:16:13Z</time>
      </trkpt>
      <trkpt lat="47.25469" lon="6.23266">
        <ele>415.6</ele>
        <time>2022-09-12T10:16:10Z</time>
      </trkpt>
      <trkpt lat="47.25476" lon="6.23263">
        <ele>415.2</ele>
        <time>2022-09-12T10:16:08Z</time>
      </trkpt>
      <trkpt lat="47.25484" lon="6.23264">
        <ele>414.6</ele>
        <time>2022-09-12T10:16:05Z</time>
      </trkpt>
      <trkpt lat="47.25491" lon="6.23267">
        <ele>414.2</ele>
        <time>2022-09-12T10:16:03Z</time>
      </trkpt>
      <trkpt lat="47.25496" lon="6.23276">
        <ele>413.6</ele>
        <time>2022-09-12T10:16:00Z</time>
      </trkpt>
      <trkpt lat="47.255" lon="6.23297">
        <ele>412.2</ele>
        <time>2022-09-12T10:15:56Z</time>
      </trkpt>
      <trkpt lat="47.25504" lon="6.23322">
        <ele>411</ele>
        <time>2022-09-12T10:15:52Z</time>
      </trkpt>
      <trkpt lat="47.25506" lon="6.23342">
        <ele>410</ele>
        <time>2022-09-12T10:15:49Z</time>
      </trkpt>
      <trkpt lat="47.25508" lon="6.23355">
        <ele>409</ele>
        <time>2022-09-12T10:15:47Z</time>
      </trkpt>
      <trkpt lat="47.25509" lon="6.23362">
        <ele>408.8</ele>
        <time>2022-09-12T10:15:46Z</time>
      </trkpt>
      <trkpt lat="47.25513" lon="6.23397">
        <ele>407.8</ele>
        <time>2022-09-12T10:15:41Z</time>
      </trkpt>
      <trkpt lat="47.25517" lon="6.23424">
        <ele>407</ele>
        <time>2022-09-12T10:15:37Z</time>
      </trkpt>
      <trkpt lat="47.25525" lon="6.23479">
        <ele>406.6</ele>
        <time>2022-09-12T10:15:29Z</time>
      </trkpt>
      <trkpt lat="47.25526" lon="6.23485">
        <ele>406.6</ele>
        <time>2022-09-12T10:15:28Z</time>
      </trkpt>
      <trkpt lat="47.25534" lon="6.2351">
        <ele>406.4</ele>
        <time>2022-09-12T10:15:24Z</time>
      </trkpt>
      <trkpt lat="47.25555" lon="6.23529">
        <ele>406.8</ele>
        <time>2022-09-12T10:15:18Z</time>
      </trkpt>
      <trkpt lat="47.25558" lon="6.23531">
        <ele>406.6</ele>
        <time>2022-09-12T10:15:17Z</time>
      </trkpt>
      <trkpt lat="47.25566" lon="6.23537">
        <ele>406.8</ele>
        <time>2022-09-12T10:15:14Z</time>
      </trkpt>
      <trkpt lat="47.25573" lon="6.23535">
        <ele>407</ele>
        <time>2022-09-12T10:15:11Z</time>
      </trkpt>
      <trkpt lat="47.25575" lon="6.2354">
        <ele>406.8</ele>
        <time>2022-09-12T10:15:09Z</time>
      </trkpt>
      <trkpt lat="47.25569" lon="6.23542">
        <ele>407</ele>
        <time>2022-09-12T10:15:06Z</time>
      </trkpt>
      <trkpt lat="47.25554" lon="6.23536">
        <ele>407</ele>
        <time>2022-09-12T10:15:00Z</time>
      </trkpt>
      <trkpt lat="47.25537" lon="6.23522">
        <ele>406.6</ele>
        <time>2022-09-12T10:14:53Z</time>
      </trkpt>
      <trkpt lat="47.25525" lon="6.2351">
        <ele>405.6</ele>
        <time>2022-09-12T10:14:47Z</time>
      </trkpt>
      <trkpt lat="47.2551" lon="6.23497">
        <ele>405.2</ele>
        <time>2022-09-12T10:14:42Z</time>
      </trkpt>
      <trkpt lat="47.25506" lon="6.23494">
        <ele>405.2</ele>
        <time>2022-09-12T10:14:41Z</time>
      </trkpt>
      <trkpt lat="47.25502" lon="6.23491">
        <ele>405.6</ele>
        <time>2022-09-12T10:14:40Z</time>
      </trkpt>
      <trkpt lat="47.25484" lon="6.23485">
        <ele>406</ele>
        <time>2022-09-12T10:14:36Z</time>
      </trkpt>
      <trkpt lat="47.25471" lon="6.23487">
        <ele>406.8</ele>
        <time>2022-09-12T10:14:33Z</time>
      </trkpt>
      <trkpt lat="47.25465" lon="6.2349">
        <ele>406.4</ele>
        <time>2022-09-12T10:14:31Z</time>
      </trkpt>
      <trkpt lat="47.25456" lon="6.23497">
        <ele>406.2</ele>
        <time>2022-09-12T10:14:27Z</time>
      </trkpt>
      <trkpt lat="47.25454" lon="6.23497">
        <ele>406.4</ele>
        <time>2022-09-12T10:14:26Z</time>
      </trkpt>
      <trkpt lat="47.2546" lon="6.23488">
        <ele>406</ele>
        <time>2022-09-12T10:14:21Z</time>
      </trkpt>
      <trkpt lat="47.2547" lon="6.23482">
        <ele>405.6</ele>
        <time>2022-09-12T10:14:17Z</time>
      </trkpt>
      <trkpt lat="47.25477" lon="6.2348">
        <ele>405.6</ele>
        <time>2022-09-12T10:14:15Z</time>
      </trkpt>
      <trkpt lat="47.25485" lon="6.2348">
        <ele>405.4</ele>
        <time>2022-09-12T10:14:13Z</time>
      </trkpt>
      <trkpt lat="47.25502" lon="6.23486">
        <ele>404.8</ele>
        <time>2022-09-12T10:14:09Z</time>
      </trkpt>
      <trkpt lat="47.2552" lon="6.235">
        <ele>404.2</ele>
        <time>2022-09-12T10:14:04Z</time>
      </trkpt>
      <trkpt lat="47.25525" lon="6.23504">
        <ele>404.6</ele>
        <time>2022-09-12T10:14:02Z</time>
      </trkpt>
      <trkpt lat="47.25528" lon="6.23506">
        <ele>405</ele>
        <time>2022-09-12T10:14:01Z</time>
      </trkpt>
      <trkpt lat="47.25537" lon="6.23516">
        <ele>405.4</ele>
        <time>2022-09-12T10:13:24Z</time>
      </trkpt>
      <trkpt lat="47.2554" lon="6.23519">
        <ele>405.4</ele>
        <time>2022-09-12T10:13:22Z</time>
      </trkpt>
      <trkpt lat="47.25549" lon="6.23528">
        <ele>406.2</ele>
        <time>2022-09-12T10:13:18Z</time>
      </trkpt>
      <trkpt lat="47.25561" lon="6.23534">
        <ele>406.4</ele>
        <time>2022-09-12T10:13:12Z</time>
      </trkpt>
      <trkpt lat="47.25572" lon="6.23536">
        <ele>406.6</ele>
        <time>2022-09-12T10:13:06Z</time>
      </trkpt>
      <trkpt lat="47.25586" lon="6.23528">
        <ele>406.4</ele>
        <time>2022-09-12T10:13:00Z</time>
      </trkpt>
      <trkpt lat="47.25597" lon="6.23522">
        <ele>406.4</ele>
        <time>2022-09-12T10:12:56Z</time>
      </trkpt>
      <trkpt lat="47.25636" lon="6.23502">
        <ele>405.8</ele>
        <time>2022-09-12T10:12:47Z</time>
      </trkpt>
      <trkpt lat="47.2564" lon="6.23501">
        <ele>405.8</ele>
        <time>2022-09-12T10:12:46Z</time>
      </trkpt>
      <trkpt lat="47.25652" lon="6.23496">
        <ele>405.6</ele>
        <time>2022-09-12T10:12:43Z</time>
      </trkpt>
      <trkpt lat="47.25667" lon="6.23478">
        <ele>405.2</ele>
        <time>2022-09-12T10:12:38Z</time>
      </trkpt>
      <trkpt lat="47.25685" lon="6.23438">
        <ele>405</ele>
        <time>2022-09-12T10:12:32Z</time>
      </trkpt>
      <trkpt lat="47.25701" lon="6.23394">
        <ele>405.6</ele>
        <time>2022-09-12T10:12:27Z</time>
      </trkpt>
      <trkpt lat="47.25705" lon="6.23385">
        <ele>405.8</ele>
        <time>2022-09-12T10:12:26Z</time>
      </trkpt>
      <trkpt lat="47.25716" lon="6.23357">
        <ele>406.2</ele>
        <time>2022-09-12T10:12:23Z</time>
      </trkpt>
      <trkpt lat="47.25737" lon="6.23321">
        <ele>407</ele>
        <time>2022-09-12T10:12:18Z</time>
      </trkpt>
      <trkpt lat="47.25753" lon="6.23294">
        <ele>407.4</ele>
        <time>2022-09-12T10:12:13Z</time>
      </trkpt>
      <trkpt lat="47.25757" lon="6.23285">
        <ele>407</ele>
        <time>2022-09-12T10:12:11Z</time>
      </trkpt>
      <trkpt lat="47.25761" lon="6.23276">
        <ele>406.4</ele>
        <time>2022-09-12T10:12:09Z</time>
      </trkpt>
      <trkpt lat="47.25765" lon="6.23266">
        <ele>405.6</ele>
        <time>2022-09-12T10:12:07Z</time>
      </trkpt>
      <trkpt lat="47.2577" lon="6.2325">
        <ele>404.6</ele>
        <time>2022-09-12T10:12:04Z</time>
      </trkpt>
      <trkpt lat="47.25779" lon="6.23233">
        <ele>403.4</ele>
        <time>2022-09-12T10:12:01Z</time>
      </trkpt>
      <trkpt lat="47.25788" lon="6.23215">
        <ele>402.2</ele>
        <time>2022-09-12T10:11:58Z</time>
      </trkpt>
      <trkpt lat="47.25797" lon="6.23198">
        <ele>401.2</ele>
        <time>2022-09-12T10:11:55Z</time>
      </trkpt>
      <trkpt lat="47.25799" lon="6.23192">
        <ele>401</ele>
        <time>2022-09-12T10:11:54Z</time>
      </trkpt>
      <trkpt lat="47.25825" lon="6.23136">
        <ele>399.6</ele>
        <time>2022-09-12T10:11:46Z</time>
      </trkpt>
      <trkpt lat="47.25832" lon="6.23121">
        <ele>399.6</ele>
        <time>2022-09-12T10:11:44Z</time>
      </trkpt>
      <trkpt lat="47.25849" lon="6.23092">
        <ele>399.8</ele>
        <time>2022-09-12T10:11:40Z</time>
      </trkpt>
      <trkpt lat="47.25869" lon="6.23072">
        <ele>399.6</ele>
        <time>2022-09-12T10:11:36Z</time>
      </trkpt>
      <trkpt lat="47.25881" lon="6.23067">
        <ele>399.4</ele>
        <time>2022-09-12T10:11:34Z</time>
      </trkpt>
      <trkpt lat="47.25893" lon="6.23065">
        <ele>399.4</ele>
        <time>2022-09-12T10:11:32Z</time>
      </trkpt>
      <trkpt lat="47.25905" lon="6.23066">
        <ele>399.4</ele>
        <time>2022-09-12T10:11:30Z</time>
      </trkpt>
      <trkpt lat="47.25918" lon="6.23068">
        <ele>399.2</ele>
        <time>2022-09-12T10:11:28Z</time>
      </trkpt>
      <trkpt lat="47.25937" lon="6.23061">
        <ele>399.4</ele>
        <time>2022-09-12T10:11:25Z</time>
      </trkpt>
      <trkpt lat="47.25955" lon="6.23029">
        <ele>400.2</ele>
        <time>2022-09-12T10:11:21Z</time>
      </trkpt>
      <trkpt lat="47.25967" lon="6.23001">
        <ele>401</ele>
        <time>2022-09-12T10:11:18Z</time>
      </trkpt>
      <trkpt lat="47.25975" lon="6.22981">
        <ele>401.4</ele>
        <time>2022-09-12T10:11:16Z</time>
      </trkpt>
      <trkpt lat="47.25998" lon="6.22927">
        <ele>402.6</ele>
        <time>2022-09-12T10:11:10Z</time>
      </trkpt>
      <trkpt lat="47.26002" lon="6.22918">
        <ele>402.8</ele>
        <time>2022-09-12T10:11:09Z</time>
      </trkpt>
      <trkpt lat="47.26022" lon="6.22877">
        <ele>403.6</ele>
        <time>2022-09-12T10:11:04Z</time>
      </trkpt>
      <trkpt lat="47.26029" lon="6.22861">
        <ele>403.8</ele>
        <time>2022-09-12T10:11:02Z</time>
      </trkpt>
      <trkpt lat="47.26038" lon="6.22838">
        <ele>404.6</ele>
        <time>2022-09-12T10:10:59Z</time>
      </trkpt>
      <trkpt lat="47.26044" lon="6.22815">
        <ele>405.6</ele>
        <time>2022-09-12T10:10:56Z</time>
      </trkpt>
      <trkpt lat="47.26045" lon="6.22807">
        <ele>405.8</ele>
        <time>2022-09-12T10:10:55Z</time>
      </trkpt>
      <trkpt lat="47.26048" lon="6.22793">
        <ele>406.6</ele>
        <time>2022-09-12T10:10:53Z</time>
      </trkpt>
      <trkpt lat="47.26052" lon="6.22788">
        <ele>407</ele>
        <time>2022-09-12T10:10:52Z</time>
      </trkpt>
      <trkpt lat="47.2606" lon="6.22786">
        <ele>408.4</ele>
        <time>2022-09-12T10:10:50Z</time>
      </trkpt>
      <trkpt lat="47.26067" lon="6.22792">
        <ele>409.6</ele>
        <time>2022-09-12T10:10:48Z</time>
      </trkpt>
      <trkpt lat="47.26074" lon="6.22802">
        <ele>410.8</ele>
        <time>2022-09-12T10:10:46Z</time>
      </trkpt>
      <trkpt lat="47.26084" lon="6.22817">
        <ele>412.2</ele>
        <time>2022-09-12T10:10:43Z</time>
      </trkpt>
      <trkpt lat="47.26088" lon="6.22822">
        <ele>412.6</ele>
        <time>2022-09-12T10:10:42Z</time>
      </trkpt>
      <trkpt lat="47.26117" lon="6.22862">
        <ele>414</ele>
        <time>2022-09-12T10:10:34Z</time>
      </trkpt>
      <trkpt lat="47.26148" lon="6.22903">
        <ele>414.2</ele>
        <time>2022-09-12T10:10:25Z</time>
      </trkpt>
      <trkpt lat="47.26175" lon="6.22937">
        <ele>413.4</ele>
        <time>2022-09-12T10:10:17Z</time>
      </trkpt>
      <trkpt lat="47.26182" lon="6.22947">
        <ele>413.2</ele>
        <time>2022-09-12T10:10:15Z</time>
      </trkpt>
      <trkpt lat="47.26214" lon="6.22988">
        <ele>412</ele>
        <time>2022-09-12T10:10:06Z</time>
      </trkpt>
      <trkpt lat="47.26241" lon="6.23022">
        <ele>411.8</ele>
        <time>2022-09-12T10:09:59Z</time>
      </trkpt>
      <trkpt lat="47.26249" lon="6.23031">
        <ele>412.2</ele>
        <time>2022-09-12T10:09:57Z</time>
      </trkpt>
      <trkpt lat="47.26263" lon="6.2305">
        <ele>412.6</ele>
        <time>2022-09-12T10:09:53Z</time>
      </trkpt>
      <trkpt lat="47.26282" lon="6.23093">
        <ele>412.4</ele>
        <time>2022-09-12T10:09:46Z</time>
      </trkpt>
      <trkpt lat="47.26289" lon="6.23114">
        <ele>412.2</ele>
        <time>2022-09-12T10:09:42Z</time>
      </trkpt>
      <trkpt lat="47.26298" lon="6.23136">
        <ele>411.4</ele>
        <time>2022-09-12T10:09:37Z</time>
      </trkpt>
      <trkpt lat="47.26309" lon="6.23164">
        <ele>411.2</ele>
        <time>2022-09-12T10:09:31Z</time>
      </trkpt>
      <trkpt lat="47.26316" lon="6.23183">
        <ele>410.4</ele>
        <time>2022-09-12T10:09:27Z</time>
      </trkpt>
      <trkpt lat="47.26321" lon="6.23197">
        <ele>410</ele>
        <time>2022-09-12T10:09:24Z</time>
      </trkpt>
      <trkpt lat="47.26329" lon="6.23214">
        <ele>409.6</ele>
        <time>2022-09-12T10:09:20Z</time>
      </trkpt>
      <trkpt lat="47.26332" lon="6.23223">
        <ele>409</ele>
        <time>2022-09-12T10:09:18Z</time>
      </trkpt>
      <trkpt lat="47.26346" lon="6.23261">
        <ele>407.8</ele>
        <time>2022-09-12T10:09:10Z</time>
      </trkpt>
      <trkpt lat="47.26354" lon="6.23285">
        <ele>406.4</ele>
        <time>2022-09-12T10:09:05Z</time>
      </trkpt>
      <trkpt lat="47.26365" lon="6.23313">
        <ele>406</ele>
        <time>2022-09-12T10:08:59Z</time>
      </trkpt>
      <trkpt lat="47.26383" lon="6.2336">
        <ele>405.2</ele>
        <time>2022-09-12T10:08:50Z</time>
      </trkpt>
      <trkpt lat="47.26387" lon="6.23371">
        <ele>405.4</ele>
        <time>2022-09-12T10:08:48Z</time>
      </trkpt>
      <trkpt lat="47.26392" lon="6.23381">
        <ele>404.6</ele>
        <time>2022-09-12T10:08:46Z</time>
      </trkpt>
      <trkpt lat="47.26393" lon="6.23387">
        <ele>404.6</ele>
        <time>2022-09-12T10:08:45Z</time>
      </trkpt>
      <trkpt lat="47.26407" lon="6.23421">
        <ele>404</ele>
        <time>2022-09-12T10:08:38Z</time>
      </trkpt>
      <trkpt lat="47.26416" lon="6.23456">
        <ele>403</ele>
        <time>2022-09-12T10:08:31Z</time>
      </trkpt>
      <trkpt lat="47.26417" lon="6.23467">
        <ele>403</ele>
        <time>2022-09-12T10:08:29Z</time>
      </trkpt>
      <trkpt lat="47.26419" lon="6.23481">
        <ele>402.8</ele>
        <time>2022-09-12T10:08:26Z</time>
      </trkpt>
      <trkpt lat="47.26429" lon="6.23494">
        <ele>402.6</ele>
        <time>2022-09-12T10:08:22Z</time>
      </trkpt>
      <trkpt lat="47.26457" lon="6.23501">
        <ele>402.6</ele>
        <time>2022-09-12T10:08:15Z</time>
      </trkpt>
      <trkpt lat="47.26498" lon="6.23516">
        <ele>401.8</ele>
        <time>2022-09-12T10:08:06Z</time>
      </trkpt>
      <trkpt lat="47.2653" lon="6.23526">
        <ele>401.8</ele>
        <time>2022-09-12T10:07:59Z</time>
      </trkpt>
      <trkpt lat="47.2654" lon="6.23529">
        <ele>402</ele>
        <time>2022-09-12T10:07:57Z</time>
      </trkpt>
      <trkpt lat="47.26559" lon="6.23535">
        <ele>402.6</ele>
        <time>2022-09-12T10:07:53Z</time>
      </trkpt>
      <trkpt lat="47.26563" lon="6.23536">
        <ele>402.6</ele>
        <time>2022-09-12T10:07:52Z</time>
      </trkpt>
      <trkpt lat="47.26575" lon="6.23536">
        <ele>402.6</ele>
        <time>2022-09-12T10:07:49Z</time>
      </trkpt>
      <trkpt lat="47.26584" lon="6.23521">
        <ele>402.2</ele>
        <time>2022-09-12T10:07:45Z</time>
      </trkpt>
      <trkpt lat="47.26597" lon="6.23514">
        <ele>402.4</ele>
        <time>2022-09-12T10:07:42Z</time>
      </trkpt>
      <trkpt lat="47.26603" lon="6.23515">
        <ele>402.4</ele>
        <time>2022-09-12T10:07:41Z</time>
      </trkpt>
      <trkpt lat="47.26619" lon="6.23523">
        <ele>402.6</ele>
        <time>2022-09-12T10:07:38Z</time>
      </trkpt>
      <trkpt lat="47.26636" lon="6.2353">
        <ele>402.6</ele>
        <time>2022-09-12T10:07:35Z</time>
      </trkpt>
      <trkpt lat="47.26672" lon="6.23538">
        <ele>403</ele>
        <time>2022-09-12T10:07:29Z</time>
      </trkpt>
      <trkpt lat="47.26708" lon="6.2355">
        <ele>403</ele>
        <time>2022-09-12T10:07:22Z</time>
      </trkpt>
      <trkpt lat="47.26739" lon="6.23559">
        <ele>402.6</ele>
        <time>2022-09-12T10:07:16Z</time>
      </trkpt>
      <trkpt lat="47.26763" lon="6.23569">
        <ele>402.8</ele>
        <time>2022-09-12T10:07:10Z</time>
      </trkpt>
      <trkpt lat="47.26779" lon="6.2357">
        <ele>403</ele>
        <time>2022-09-12T10:07:06Z</time>
      </trkpt>
      <trkpt lat="47.26791" lon="6.23568">
        <ele>402.8</ele>
        <time>2022-09-12T10:07:03Z</time>
      </trkpt>
      <trkpt lat="47.26811" lon="6.23571">
        <ele>402.6</ele>
        <time>2022-09-12T10:06:58Z</time>
      </trkpt>
      <trkpt lat="47.26826" lon="6.23579">
        <ele>402</ele>
        <time>2022-09-12T10:06:54Z</time>
      </trkpt>
      <trkpt lat="47.2684" lon="6.2359">
        <ele>401.8</ele>
        <time>2022-09-12T10:06:50Z</time>
      </trkpt>
      <trkpt lat="47.26864" lon="6.23608">
        <ele>401</ele>
        <time>2022-09-12T10:06:43Z</time>
      </trkpt>
      <trkpt lat="47.26885" lon="6.23624">
        <ele>400.6</ele>
        <time>2022-09-12T10:06:36Z</time>
      </trkpt>
      <trkpt lat="47.26897" lon="6.23634">
        <ele>400</ele>
        <time>2022-09-12T10:06:32Z</time>
      </trkpt>
      <trkpt lat="47.26903" lon="6.23638">
        <ele>399.6</ele>
        <time>2022-09-12T10:06:30Z</time>
      </trkpt>
      <trkpt lat="47.2691" lon="6.23641">
        <ele>399.4</ele>
        <time>2022-09-12T10:06:28Z</time>
      </trkpt>
      <trkpt lat="47.26937" lon="6.23643">
        <ele>399.2</ele>
        <time>2022-09-12T10:06:22Z</time>
      </trkpt>
      <trkpt lat="47.26979" lon="6.23648">
        <ele>399</ele>
        <time>2022-09-12T10:06:13Z</time>
      </trkpt>
      <trkpt lat="47.26988" lon="6.23649">
        <ele>398.8</ele>
        <time>2022-09-12T10:06:11Z</time>
      </trkpt>
      <trkpt lat="47.26995" lon="6.23658">
        <ele>398.6</ele>
        <time>2022-09-12T10:06:09Z</time>
      </trkpt>
      <trkpt lat="47.27029" lon="6.23699">
        <ele>398.6</ele>
        <time>2022-09-12T10:06:01Z</time>
      </trkpt>
      <trkpt lat="47.27059" lon="6.23722">
        <ele>398.4</ele>
        <time>2022-09-12T10:05:55Z</time>
      </trkpt>
      <trkpt lat="47.27102" lon="6.23735">
        <ele>397.8</ele>
        <time>2022-09-12T10:05:47Z</time>
      </trkpt>
      <trkpt lat="47.2714" lon="6.23741">
        <ele>397.4</ele>
        <time>2022-09-12T10:05:40Z</time>
      </trkpt>
      <trkpt lat="47.27151" lon="6.2374">
        <ele>397.6</ele>
        <time>2022-09-12T10:05:38Z</time>
      </trkpt>
      <trkpt lat="47.27171" lon="6.23736">
        <ele>398.2</ele>
        <time>2022-09-12T10:05:34Z</time>
      </trkpt>
      <trkpt lat="47.27188" lon="6.23731">
        <ele>398.4</ele>
        <time>2022-09-12T10:05:30Z</time>
      </trkpt>
      <trkpt lat="47.27192" lon="6.23731">
        <ele>398.6</ele>
        <time>2022-09-12T10:05:29Z</time>
      </trkpt>
      <trkpt lat="47.27197" lon="6.23729">
        <ele>398.6</ele>
        <time>2022-09-12T10:05:28Z</time>
      </trkpt>
      <trkpt lat="47.27207" lon="6.23726">
        <ele>399.2</ele>
        <time>2022-09-12T10:05:26Z</time>
      </trkpt>
      <trkpt lat="47.27212" lon="6.2373">
        <ele>399.4</ele>
        <time>2022-09-12T10:05:25Z</time>
      </trkpt>
      <trkpt lat="47.27216" lon="6.23736">
        <ele>399.8</ele>
        <time>2022-09-12T10:05:24Z</time>
      </trkpt>
      <trkpt lat="47.27217" lon="6.23744">
        <ele>400.2</ele>
        <time>2022-09-12T10:05:23Z</time>
      </trkpt>
      <trkpt lat="47.27218" lon="6.23767">
        <ele>400.8</ele>
        <time>2022-09-12T10:05:20Z</time>
      </trkpt>
      <trkpt lat="47.27219" lon="6.23775">
        <ele>401</ele>
        <time>2022-09-12T10:05:19Z</time>
      </trkpt>
      <trkpt lat="47.27223" lon="6.23796">
        <ele>400.8</ele>
        <time>2022-09-12T10:05:15Z</time>
      </trkpt>
      <trkpt lat="47.27225" lon="6.238">
        <ele>400.4</ele>
        <time>2022-09-12T10:05:14Z</time>
      </trkpt>
      <trkpt lat="47.27227" lon="6.23803">
        <ele>400.2</ele>
        <time>2022-09-12T10:04:41Z</time>
      </trkpt>
      <trkpt lat="47.27228" lon="6.23803">
        <ele>400.4</ele>
        <time>2022-09-12T10:04:40Z</time>
      </trkpt>
      <trkpt lat="47.27234" lon="6.23795">
        <ele>400.8</ele>
        <time>2022-09-12T10:04:36Z</time>
      </trkpt>
      <trkpt lat="47.27239" lon="6.23786">
        <ele>401</ele>
        <time>2022-09-12T10:04:34Z</time>
      </trkpt>
      <trkpt lat="47.27247" lon="6.23768">
        <ele>401.2</ele>
        <time>2022-09-12T10:04:31Z</time>
      </trkpt>
      <trkpt lat="47.27251" lon="6.23761">
        <ele>401.4</ele>
        <time>2022-09-12T10:04:30Z</time>
      </trkpt>
      <trkpt lat="47.27262" lon="6.23743">
        <ele>401.8</ele>
        <time>2022-09-12T10:04:27Z</time>
      </trkpt>
      <trkpt lat="47.27277" lon="6.23733">
        <ele>402.2</ele>
        <time>2022-09-12T10:04:24Z</time>
      </trkpt>
      <trkpt lat="47.27283" lon="6.23733">
        <ele>402.4</ele>
        <time>2022-09-12T10:04:23Z</time>
      </trkpt>
      <trkpt lat="47.27302" lon="6.23741">
        <ele>403.2</ele>
        <time>2022-09-12T10:04:19Z</time>
      </trkpt>
      <trkpt lat="47.27311" lon="6.23746">
        <ele>403.4</ele>
        <time>2022-09-12T10:04:17Z</time>
      </trkpt>
      <trkpt lat="47.27337" lon="6.2376">
        <ele>404.2</ele>
        <time>2022-09-12T10:04:10Z</time>
      </trkpt>
      <trkpt lat="47.27347" lon="6.23767">
        <ele>404.8</ele>
        <time>2022-09-12T10:04:07Z</time>
      </trkpt>
      <trkpt lat="47.27356" lon="6.23772">
        <ele>405.2</ele>
        <time>2022-09-12T10:04:04Z</time>
      </trkpt>
      <trkpt lat="47.27366" lon="6.23779">
        <ele>405.8</ele>
        <time>2022-09-12T10:03:59Z</time>
      </trkpt>
      <trkpt lat="47.27369" lon="6.23779">
        <ele>406</ele>
        <time>2022-09-12T10:03:57Z</time>
      </trkpt>
      <trkpt lat="47.27372" lon="6.23784">
        <ele>405.8</ele>
        <time>2022-09-12T10:03:32Z</time>
      </trkpt>
      <trkpt lat="47.27353" lon="6.23774">
        <ele>405.4</ele>
        <time>2022-09-12T10:03:25Z</time>
      </trkpt>
      <trkpt lat="47.2735" lon="6.23772">
        <ele>405.4</ele>
        <time>2022-09-12T10:03:24Z</time>
      </trkpt>
      <trkpt lat="47.27324" lon="6.23756">
        <ele>404.4</ele>
        <time>2022-09-12T10:03:17Z</time>
      </trkpt>
      <trkpt lat="47.27321" lon="6.23754">
        <ele>404.2</ele>
        <time>2022-09-12T10:03:16Z</time>
      </trkpt>
      <trkpt lat="47.273" lon="6.23741">
        <ele>403.4</ele>
        <time>2022-09-12T10:03:10Z</time>
      </trkpt>
      <trkpt lat="47.27292" lon="6.23737">
        <ele>403.2</ele>
        <time>2022-09-12T10:03:08Z</time>
      </trkpt>
      <trkpt lat="47.2728" lon="6.23735">
        <ele>403</ele>
        <time>2022-09-12T10:03:05Z</time>
      </trkpt>
      <trkpt lat="47.27268" lon="6.2374">
        <ele>403</ele>
        <time>2022-09-12T10:03:02Z</time>
      </trkpt>
      <trkpt lat="47.27262" lon="6.23748">
        <ele>403</ele>
        <time>2022-09-12T10:03:00Z</time>
      </trkpt>
      <trkpt lat="47.27244" lon="6.2378">
        <ele>402.6</ele>
        <time>2022-09-12T10:02:53Z</time>
      </trkpt>
      <trkpt lat="47.27242" lon="6.23784">
        <ele>402.2</ele>
        <time>2022-09-12T10:02:52Z</time>
      </trkpt>
      <trkpt lat="47.27233" lon="6.23795">
        <ele>401.4</ele>
        <time>2022-09-12T10:02:48Z</time>
      </trkpt>
      <trkpt lat="47.27228" lon="6.23807">
        <ele>401.2</ele>
        <time>2022-09-12T10:02:44Z</time>
      </trkpt>
      <trkpt lat="47.27227" lon="6.23838">
        <ele>401.4</ele>
        <time>2022-09-12T10:02:39Z</time>
      </trkpt>
      <trkpt lat="47.27219" lon="6.2391">
        <ele>401.8</ele>
        <time>2022-09-12T10:02:30Z</time>
      </trkpt>
      <trkpt lat="47.27215" lon="6.2396">
        <ele>401.6</ele>
        <time>2022-09-12T10:02:23Z</time>
      </trkpt>
      <trkpt lat="47.27213" lon="6.23991">
        <ele>402</ele>
        <time>2022-09-12T10:02:18Z</time>
      </trkpt>
      <trkpt lat="47.27188" lon="6.24026">
        <ele>401.6</ele>
        <time>2022-09-12T10:02:08Z</time>
      </trkpt>
      <trkpt lat="47.27181" lon="6.24034">
        <ele>401.4</ele>
        <time>2022-09-12T10:02:05Z</time>
      </trkpt>
      <trkpt lat="47.27175" lon="6.24042">
        <ele>401</ele>
        <time>2022-09-12T10:02:02Z</time>
      </trkpt>
      <trkpt lat="47.2717" lon="6.24045">
        <ele>401</ele>
        <time>2022-09-12T10:01:59Z</time>
      </trkpt>
      <trkpt lat="47.27168" lon="6.24044">
        <ele>401.2</ele>
        <time>2022-09-12T10:01:58Z</time>
      </trkpt>
      <trkpt lat="47.27168" lon="6.24042">
        <ele>401.4</ele>
        <time>2022-09-12T10:01:57Z</time>
      </trkpt>
      <trkpt lat="47.27174" lon="6.24043">
        <ele>401.4</ele>
        <time>2022-09-12T10:01:52Z</time>
      </trkpt>
      <trkpt lat="47.27185" lon="6.24056">
        <ele>401.8</ele>
        <time>2022-09-12T10:01:47Z</time>
      </trkpt>
      <trkpt lat="47.27199" lon="6.24068">
        <ele>402</ele>
        <time>2022-09-12T10:01:41Z</time>
      </trkpt>
      <trkpt lat="47.27202" lon="6.24069">
        <ele>402</ele>
        <time>2022-09-12T10:01:40Z</time>
      </trkpt>
      <trkpt lat="47.27206" lon="6.2407">
        <ele>402.2</ele>
        <time>2022-09-12T10:01:39Z</time>
      </trkpt>
      <trkpt lat="47.27215" lon="6.24073">
        <ele>402.6</ele>
        <time>2022-09-12T10:01:37Z</time>
      </trkpt>
      <trkpt lat="47.27221" lon="6.24076">
        <ele>402.8</ele>
        <time>2022-09-12T10:01:36Z</time>
      </trkpt>
      <trkpt lat="47.27238" lon="6.24087">
        <ele>403.2</ele>
        <time>2022-09-12T10:01:33Z</time>
      </trkpt>
      <trkpt lat="47.2725" lon="6.24097">
        <ele>403.4</ele>
        <time>2022-09-12T10:01:31Z</time>
      </trkpt>
      <trkpt lat="47.27273" lon="6.2412">
        <ele>404.2</ele>
        <time>2022-09-12T10:01:27Z</time>
      </trkpt>
      <trkpt lat="47.27284" lon="6.24133">
        <ele>405</ele>
        <time>2022-09-12T10:01:25Z</time>
      </trkpt>
      <trkpt lat="47.27289" lon="6.2414">
        <ele>405.2</ele>
        <time>2022-09-12T10:01:24Z</time>
      </trkpt>
      <trkpt lat="47.27312" lon="6.24166">
        <ele>406.2</ele>
        <time>2022-09-12T10:01:20Z</time>
      </trkpt>
      <trkpt lat="47.27323" lon="6.24177">
        <ele>406.6</ele>
        <time>2022-09-12T10:01:18Z</time>
      </trkpt>
      <trkpt lat="47.27334" lon="6.24188">
        <ele>407.4</ele>
        <time>2022-09-12T10:01:16Z</time>
      </trkpt>
      <trkpt lat="47.27374" lon="6.24214">
        <ele>408.4</ele>
        <time>2022-09-12T10:01:09Z</time>
      </trkpt>
      <trkpt lat="47.27418" lon="6.2424">
        <ele>408.6</ele>
        <time>2022-09-12T10:01:01Z</time>
      </trkpt>
      <trkpt lat="47.27424" lon="6.24242">
        <ele>408.4</ele>
        <time>2022-09-12T10:01:00Z</time>
      </trkpt>
      <trkpt lat="47.27453" lon="6.24251">
        <ele>407.6</ele>
        <time>2022-09-12T10:00:54Z</time>
      </trkpt>
      <trkpt lat="47.27463" lon="6.24253">
        <ele>407.4</ele>
        <time>2022-09-12T10:00:52Z</time>
      </trkpt>
      <trkpt lat="47.27489" lon="6.24256">
        <ele>406.2</ele>
        <time>2022-09-12T10:00:47Z</time>
      </trkpt>
      <trkpt lat="47.275" lon="6.24258">
        <ele>405.6</ele>
        <time>2022-09-12T10:00:45Z</time>
      </trkpt>
      <trkpt lat="47.27517" lon="6.24261">
        <ele>405</ele>
        <time>2022-09-12T10:00:42Z</time>
      </trkpt>
      <trkpt lat="47.27542" lon="6.24264">
        <ele>403.8</ele>
        <time>2022-09-12T10:00:38Z</time>
      </trkpt>
      <trkpt lat="47.27601" lon="6.24274">
        <ele>403</ele>
        <time>2022-09-12T10:00:30Z</time>
      </trkpt>
      <trkpt lat="47.27617" lon="6.24277">
        <ele>403</ele>
        <time>2022-09-12T10:00:28Z</time>
      </trkpt>
      <trkpt lat="47.27673" lon="6.24287">
        <ele>403.8</ele>
        <time>2022-09-12T10:00:21Z</time>
      </trkpt>
      <trkpt lat="47.27698" lon="6.24291">
        <ele>404.6</ele>
        <time>2022-09-12T10:00:18Z</time>
      </trkpt>
      <trkpt lat="47.27705" lon="6.24292">
        <ele>405</ele>
        <time>2022-09-12T10:00:17Z</time>
      </trkpt>
      <trkpt lat="47.27735" lon="6.24299">
        <ele>406.4</ele>
        <time>2022-09-12T10:00:13Z</time>
      </trkpt>
      <trkpt lat="47.27774" lon="6.24312">
        <ele>406.8</ele>
        <time>2022-09-12T10:00:06Z</time>
      </trkpt>
      <trkpt lat="47.2781" lon="6.2433">
        <ele>406.2</ele>
        <time>2022-09-12T09:59:58Z</time>
      </trkpt>
      <trkpt lat="47.27819" lon="6.24335">
        <ele>405.8</ele>
        <time>2022-09-12T09:59:56Z</time>
      </trkpt>
      <trkpt lat="47.27863" lon="6.24357">
        <ele>405.2</ele>
        <time>2022-09-12T09:59:47Z</time>
      </trkpt>
      <trkpt lat="47.27868" lon="6.24359">
        <ele>405</ele>
        <time>2022-09-12T09:59:46Z</time>
      </trkpt>
      <trkpt lat="47.27904" lon="6.24379">
        <ele>404.6</ele>
        <time>2022-09-12T09:59:38Z</time>
      </trkpt>
      <trkpt lat="47.27908" lon="6.24381">
        <ele>404.6</ele>
        <time>2022-09-12T09:59:37Z</time>
      </trkpt>
      <trkpt lat="47.27916" lon="6.24386">
        <ele>404.2</ele>
        <time>2022-09-12T09:59:35Z</time>
      </trkpt>
      <trkpt lat="47.27927" lon="6.24391">
        <ele>403.6</ele>
        <time>2022-09-12T09:59:32Z</time>
      </trkpt>
      <trkpt lat="47.27932" lon="6.24394">
        <ele>403</ele>
        <time>2022-09-12T09:59:30Z</time>
      </trkpt>
      <trkpt lat="47.27935" lon="6.24394">
        <ele>402.8</ele>
        <time>2022-09-12T09:59:29Z</time>
      </trkpt>
      <trkpt lat="47.27938" lon="6.24388">
        <ele>402</ele>
        <time>2022-09-12T09:59:27Z</time>
      </trkpt>
      <trkpt lat="47.27939" lon="6.24373">
        <ele>401</ele>
        <time>2022-09-12T09:59:24Z</time>
      </trkpt>
      <trkpt lat="47.27941" lon="6.24325">
        <ele>399.4</ele>
        <time>2022-09-12T09:59:16Z</time>
      </trkpt>
      <trkpt lat="47.27941" lon="6.24263">
        <ele>399.4</ele>
        <time>2022-09-12T09:59:08Z</time>
      </trkpt>
      <trkpt lat="47.27941" lon="6.24256">
        <ele>399.4</ele>
        <time>2022-09-12T09:59:07Z</time>
      </trkpt>
      <trkpt lat="47.2794" lon="6.24239">
        <ele>399.8</ele>
        <time>2022-09-12T09:59:05Z</time>
      </trkpt>
      <trkpt lat="47.27938" lon="6.24223">
        <ele>400</ele>
        <time>2022-09-12T09:59:03Z</time>
      </trkpt>
      <trkpt lat="47.27934" lon="6.24207">
        <ele>400.4</ele>
        <time>2022-09-12T09:59:01Z</time>
      </trkpt>
      <trkpt lat="47.27924" lon="6.24186">
        <ele>401</ele>
        <time>2022-09-12T09:58:58Z</time>
      </trkpt>
      <trkpt lat="47.27892" lon="6.24135">
        <ele>401.4</ele>
        <time>2022-09-12T09:58:49Z</time>
      </trkpt>
      <trkpt lat="47.27865" lon="6.24103">
        <ele>401</ele>
        <time>2022-09-12T09:58:42Z</time>
      </trkpt>
      <trkpt lat="47.27858" lon="6.24096">
        <ele>400.8</ele>
        <time>2022-09-12T09:58:40Z</time>
      </trkpt>
      <trkpt lat="47.27841" lon="6.2408">
        <ele>400.4</ele>
        <time>2022-09-12T09:58:35Z</time>
      </trkpt>
      <trkpt lat="47.27825" lon="6.24062">
        <ele>399.6</ele>
        <time>2022-09-12T09:58:30Z</time>
      </trkpt>
      <trkpt lat="47.27818" lon="6.24052">
        <ele>398.8</ele>
        <time>2022-09-12T09:58:27Z</time>
      </trkpt>
      <trkpt lat="47.27816" lon="6.24049">
        <ele>398.6</ele>
        <time>2022-09-12T09:58:26Z</time>
      </trkpt>
      <trkpt lat="47.27804" lon="6.24032">
        <ele>397.6</ele>
        <time>2022-09-12T09:58:21Z</time>
      </trkpt>
      <trkpt lat="47.27799" lon="6.24025">
        <ele>397</ele>
        <time>2022-09-12T09:58:19Z</time>
      </trkpt>
      <trkpt lat="47.27796" lon="6.24022">
        <ele>396.8</ele>
        <time>2022-09-12T09:58:18Z</time>
      </trkpt>
      <trkpt lat="47.27787" lon="6.2401">
        <ele>396</ele>
        <time>2022-09-12T09:58:15Z</time>
      </trkpt>
      <trkpt lat="47.27785" lon="6.23999">
        <ele>396</ele>
        <time>2022-09-12T09:58:13Z</time>
      </trkpt>
      <trkpt lat="47.27788" lon="6.23978">
        <ele>396</ele>
        <time>2022-09-12T09:58:10Z</time>
      </trkpt>
      <trkpt lat="47.27795" lon="6.23931">
        <ele>396.4</ele>
        <time>2022-09-12T09:58:04Z</time>
      </trkpt>
      <trkpt lat="47.278" lon="6.23904">
        <ele>397.6</ele>
        <time>2022-09-12T09:58:01Z</time>
      </trkpt>
      <trkpt lat="47.27802" lon="6.23889">
        <ele>398.2</ele>
        <time>2022-09-12T09:57:59Z</time>
      </trkpt>
      <trkpt lat="47.27807" lon="6.23854">
        <ele>398.8</ele>
        <time>2022-09-12T09:57:53Z</time>
      </trkpt>
      <trkpt lat="47.27809" lon="6.23841">
        <ele>398.6</ele>
        <time>2022-09-12T09:57:50Z</time>
      </trkpt>
      <trkpt lat="47.27811" lon="6.23821">
        <ele>397.8</ele>
        <time>2022-09-12T09:57:45Z</time>
      </trkpt>
      <trkpt lat="47.27811" lon="6.23817">
        <ele>397.6</ele>
        <time>2022-09-12T09:57:44Z</time>
      </trkpt>
      <trkpt lat="47.27814" lon="6.23795">
        <ele>396.4</ele>
        <time>2022-09-12T09:57:39Z</time>
      </trkpt>
      <trkpt lat="47.27821" lon="6.23781">
        <ele>395.4</ele>
        <time>2022-09-12T09:57:35Z</time>
      </trkpt>
      <trkpt lat="47.27828" lon="6.23773">
        <ele>395.2</ele>
        <time>2022-09-12T09:57:32Z</time>
      </trkpt>
      <trkpt lat="47.27831" lon="6.23771">
        <ele>395.2</ele>
        <time>2022-09-12T09:57:31Z</time>
      </trkpt>
      <trkpt lat="47.27841" lon="6.23761">
        <ele>395.2</ele>
        <time>2022-09-12T09:57:27Z</time>
      </trkpt>
      <trkpt lat="47.27842" lon="6.23745">
        <ele>394.4</ele>
        <time>2022-09-12T09:57:23Z</time>
      </trkpt>
      <trkpt lat="47.27833" lon="6.23716">
        <ele>393.4</ele>
        <time>2022-09-12T09:57:16Z</time>
      </trkpt>
      <trkpt lat="47.27829" lon="6.23699">
        <ele>393</ele>
        <time>2022-09-12T09:57:10Z</time>
      </trkpt>
      <trkpt lat="47.27828" lon="6.23695">
        <ele>393.2</ele>
        <time>2022-09-12T09:57:08Z</time>
      </trkpt>
      <trkpt lat="47.27826" lon="6.23691">
        <ele>393.6</ele>
        <time>2022-09-12T09:56:51Z</time>
      </trkpt>
      <trkpt lat="47.27827" lon="6.23693">
        <ele>393.8</ele>
        <time>2022-09-12T09:56:50Z</time>
      </trkpt>
      <trkpt lat="47.27831" lon="6.23703">
        <ele>393.6</ele>
        <time>2022-09-12T09:56:47Z</time>
      </trkpt>
      <trkpt lat="47.27832" lon="6.23709">
        <ele>393.2</ele>
        <time>2022-09-12T09:56:22Z</time>
      </trkpt>
      <trkpt lat="47.27835" lon="6.23719">
        <ele>393.8</ele>
        <time>2022-09-12T09:56:18Z</time>
      </trkpt>
      <trkpt lat="47.27842" lon="6.23741">
        <ele>394.2</ele>
        <time>2022-09-12T09:56:12Z</time>
      </trkpt>
      <trkpt lat="47.27843" lon="6.23744">
        <ele>394.4</ele>
        <time>2022-09-12T09:56:11Z</time>
      </trkpt>
      <trkpt lat="47.27844" lon="6.23753">
        <ele>394.8</ele>
        <time>2022-09-12T09:56:08Z</time>
      </trkpt>
      <trkpt lat="47.27844" lon="6.2376">
        <ele>394.8</ele>
        <time>2022-09-12T09:56:05Z</time>
      </trkpt>
      <trkpt lat="47.27843" lon="6.23766">
        <ele>394.6</ele>
        <time>2022-09-12T09:56:02Z</time>
      </trkpt>
      <trkpt lat="47.2784" lon="6.23766">
        <ele>394.8</ele>
        <time>2022-09-12T09:56:00Z</time>
      </trkpt>
      <trkpt lat="47.27838" lon="6.23766">
        <ele>395.2</ele>
        <time>2022-09-12T09:55:59Z</time>
      </trkpt>
      <trkpt lat="47.27833" lon="6.2377">
        <ele>396.4</ele>
        <time>2022-09-12T09:55:55Z</time>
      </trkpt>
      <trkpt lat="47.27832" lon="6.23772">
        <ele>396.4</ele>
        <time>2022-09-12T09:55:54Z</time>
      </trkpt>
      <trkpt lat="47.27826" lon="6.23775">
        <ele>397.2</ele>
        <time>2022-09-12T09:55:51Z</time>
      </trkpt>
      <trkpt lat="47.27823" lon="6.23778">
        <ele>397.4</ele>
        <time>2022-09-12T09:55:50Z</time>
      </trkpt>
      <trkpt lat="47.27817" lon="6.2379">
        <ele>398.4</ele>
        <time>2022-09-12T09:55:47Z</time>
      </trkpt>
      <trkpt lat="47.2781" lon="6.23829">
        <ele>399</ele>
        <time>2022-09-12T09:55:39Z</time>
      </trkpt>
      <trkpt lat="47.27808" lon="6.23848">
        <ele>398.6</ele>
        <time>2022-09-12T09:55:35Z</time>
      </trkpt>
      <trkpt lat="47.27804" lon="6.23869">
        <ele>397.4</ele>
        <time>2022-09-12T09:55:31Z</time>
      </trkpt>
      <trkpt lat="47.278" lon="6.23901">
        <ele>395.8</ele>
        <time>2022-09-12T09:55:26Z</time>
      </trkpt>
      <trkpt lat="47.27791" lon="6.2395">
        <ele>395.8</ele>
        <time>2022-09-12T09:55:20Z</time>
      </trkpt>
      <trkpt lat="47.2779" lon="6.23959">
        <ele>396</ele>
        <time>2022-09-12T09:55:19Z</time>
      </trkpt>
      <trkpt lat="47.27788" lon="6.23968">
        <ele>396.2</ele>
        <time>2022-09-12T09:55:18Z</time>
      </trkpt>
      <trkpt lat="47.27786" lon="6.23987">
        <ele>396.8</ele>
        <time>2022-09-12T09:55:16Z</time>
      </trkpt>
      <trkpt lat="47.27786" lon="6.23996">
        <ele>397.2</ele>
        <time>2022-09-12T09:55:15Z</time>
      </trkpt>
      <trkpt lat="47.27793" lon="6.24011">
        <ele>398</ele>
        <time>2022-09-12T09:55:13Z</time>
      </trkpt>
      <trkpt lat="47.27798" lon="6.24017">
        <ele>398.2</ele>
        <time>2022-09-12T09:55:12Z</time>
      </trkpt>
      <trkpt lat="47.2782" lon="6.2405">
        <ele>399</ele>
        <time>2022-09-12T09:55:07Z</time>
      </trkpt>
      <trkpt lat="47.27857" lon="6.24091">
        <ele>399.2</ele>
        <time>2022-09-12T09:54:59Z</time>
      </trkpt>
      <trkpt lat="47.27892" lon="6.24131">
        <ele>398.8</ele>
        <time>2022-09-12T09:54:51Z</time>
      </trkpt>
      <trkpt lat="47.27919" lon="6.2417">
        <ele>398.8</ele>
        <time>2022-09-12T09:54:44Z</time>
      </trkpt>
      <trkpt lat="47.27925" lon="6.24181">
        <ele>399</ele>
        <time>2022-09-12T09:54:42Z</time>
      </trkpt>
      <trkpt lat="47.27934" lon="6.242">
        <ele>399.2</ele>
        <time>2022-09-12T09:54:39Z</time>
      </trkpt>
      <trkpt lat="47.27937" lon="6.24215">
        <ele>399.4</ele>
        <time>2022-09-12T09:54:37Z</time>
      </trkpt>
      <trkpt lat="47.27939" lon="6.2423">
        <ele>399.4</ele>
        <time>2022-09-12T09:54:35Z</time>
      </trkpt>
      <trkpt lat="47.2794" lon="6.24246">
        <ele>399.8</ele>
        <time>2022-09-12T09:54:33Z</time>
      </trkpt>
      <trkpt lat="47.27941" lon="6.2428">
        <ele>400.6</ele>
        <time>2022-09-12T09:54:29Z</time>
      </trkpt>
      <trkpt lat="47.27941" lon="6.24325">
        <ele>401.6</ele>
        <time>2022-09-12T09:54:24Z</time>
      </trkpt>
      <trkpt lat="47.27939" lon="6.24365">
        <ele>402.8</ele>
        <time>2022-09-12T09:54:19Z</time>
      </trkpt>
      <trkpt lat="47.27939" lon="6.24373">
        <ele>403.2</ele>
        <time>2022-09-12T09:54:18Z</time>
      </trkpt>
      <trkpt lat="47.27937" lon="6.24391">
        <ele>404.2</ele>
        <time>2022-09-12T09:54:15Z</time>
      </trkpt>
      <trkpt lat="47.27947" lon="6.24399">
        <ele>404</ele>
        <time>2022-09-12T09:54:11Z</time>
      </trkpt>
      <trkpt lat="47.2796" lon="6.24403">
        <ele>404</ele>
        <time>2022-09-12T09:54:08Z</time>
      </trkpt>
      <trkpt lat="47.2798" lon="6.24408">
        <ele>404.2</ele>
        <time>2022-09-12T09:54:04Z</time>
      </trkpt>
      <trkpt lat="47.28022" lon="6.24413">
        <ele>404.8</ele>
        <time>2022-09-12T09:53:56Z</time>
      </trkpt>
      <trkpt lat="47.28055" lon="6.24418">
        <ele>405.2</ele>
        <time>2022-09-12T09:53:49Z</time>
      </trkpt>
      <trkpt lat="47.28064" lon="6.24419">
        <ele>405</ele>
        <time>2022-09-12T09:53:47Z</time>
      </trkpt>
      <trkpt lat="47.28086" lon="6.24424">
        <ele>404.2</ele>
        <time>2022-09-12T09:53:41Z</time>
      </trkpt>
      <trkpt lat="47.2809" lon="6.24425">
        <ele>404</ele>
        <time>2022-09-12T09:53:40Z</time>
      </trkpt>
      <trkpt lat="47.2811" lon="6.24432">
        <ele>402.8</ele>
        <time>2022-09-12T09:53:34Z</time>
      </trkpt>
      <trkpt lat="47.28113" lon="6.24435">
        <ele>402.4</ele>
        <time>2022-09-12T09:53:33Z</time>
      </trkpt>
      <trkpt lat="47.28126" lon="6.24448">
        <ele>401.6</ele>
        <time>2022-09-12T09:53:29Z</time>
      </trkpt>
      <trkpt lat="47.28136" lon="6.24461">
        <ele>401</ele>
        <time>2022-09-12T09:53:26Z</time>
      </trkpt>
      <trkpt lat="47.28142" lon="6.2447">
        <ele>400.6</ele>
        <time>2022-09-12T09:53:24Z</time>
      </trkpt>
      <trkpt lat="47.28154" lon="6.24487">
        <ele>399.6</ele>
        <time>2022-09-12T09:53:20Z</time>
      </trkpt>
      <trkpt lat="47.28162" lon="6.24501">
        <ele>399</ele>
        <time>2022-09-12T09:53:17Z</time>
      </trkpt>
      <trkpt lat="47.28168" lon="6.24511">
        <ele>398.6</ele>
        <time>2022-09-12T09:53:15Z</time>
      </trkpt>
      <trkpt lat="47.28178" lon="6.24525">
        <ele>397.4</ele>
        <time>2022-09-12T09:53:12Z</time>
      </trkpt>
      <trkpt lat="47.28187" lon="6.24538">
        <ele>396.4</ele>
        <time>2022-09-12T09:53:09Z</time>
      </trkpt>
      <trkpt lat="47.28191" lon="6.24542">
        <ele>396.2</ele>
        <time>2022-09-12T09:53:08Z</time>
      </trkpt>
      <trkpt lat="47.28216" lon="6.24567">
        <ele>395</ele>
        <time>2022-09-12T09:53:02Z</time>
      </trkpt>
      <trkpt lat="47.28251" lon="6.24593">
        <ele>393.8</ele>
        <time>2022-09-12T09:52:55Z</time>
      </trkpt>
      <trkpt lat="47.28256" lon="6.24596">
        <ele>393.6</ele>
        <time>2022-09-12T09:52:54Z</time>
      </trkpt>
      <trkpt lat="47.28287" lon="6.24618">
        <ele>392.6</ele>
        <time>2022-09-12T09:52:48Z</time>
      </trkpt>
      <trkpt lat="47.28292" lon="6.24621">
        <ele>392.6</ele>
        <time>2022-09-12T09:52:47Z</time>
      </trkpt>
      <trkpt lat="47.28297" lon="6.24625">
        <ele>392.4</ele>
        <time>2022-09-12T09:52:46Z</time>
      </trkpt>
      <trkpt lat="47.28349" lon="6.24661">
        <ele>392</ele>
        <time>2022-09-12T09:52:36Z</time>
      </trkpt>
      <trkpt lat="47.28394" lon="6.24684">
        <ele>392</ele>
        <time>2022-09-12T09:52:28Z</time>
      </trkpt>
      <trkpt lat="47.2844" lon="6.24701">
        <ele>392</ele>
        <time>2022-09-12T09:52:20Z</time>
      </trkpt>
      <trkpt lat="47.28477" lon="6.24729">
        <ele>391.4</ele>
        <time>2022-09-12T09:52:13Z</time>
      </trkpt>
      <trkpt lat="47.28501" lon="6.24753">
        <ele>391.6</ele>
        <time>2022-09-12T09:52:08Z</time>
      </trkpt>
      <trkpt lat="47.28514" lon="6.24767">
        <ele>391.4</ele>
        <time>2022-09-12T09:52:05Z</time>
      </trkpt>
      <trkpt lat="47.28547" lon="6.24789">
        <ele>390.8</ele>
        <time>2022-09-12T09:51:58Z</time>
      </trkpt>
      <trkpt lat="47.28561" lon="6.24793">
        <ele>390.8</ele>
        <time>2022-09-12T09:51:55Z</time>
      </trkpt>
      <trkpt lat="47.2857" lon="6.24792">
        <ele>390.8</ele>
        <time>2022-09-12T09:51:53Z</time>
      </trkpt>
      <trkpt lat="47.28602" lon="6.24782">
        <ele>390.6</ele>
        <time>2022-09-12T09:51:46Z</time>
      </trkpt>
      <trkpt lat="47.28621" lon="6.24776">
        <ele>390.4</ele>
        <time>2022-09-12T09:51:41Z</time>
      </trkpt>
      <trkpt lat="47.28633" lon="6.24774">
        <ele>390.4</ele>
        <time>2022-09-12T09:51:35Z</time>
      </trkpt>
      <trkpt lat="47.28637" lon="6.24768">
        <ele>390.4</ele>
        <time>2022-09-12T09:51:32Z</time>
      </trkpt>
      <trkpt lat="47.28639" lon="6.24763">
        <ele>390.4</ele>
        <time>2022-09-12T09:51:30Z</time>
      </trkpt>
      <trkpt lat="47.28642" lon="6.24737">
        <ele>389.8</ele>
        <time>2022-09-12T09:51:24Z</time>
      </trkpt>
      <trkpt lat="47.28644" lon="6.24708">
        <ele>389.8</ele>
        <time>2022-09-12T09:51:19Z</time>
      </trkpt>
      <trkpt lat="47.28645" lon="6.24695">
        <ele>389.8</ele>
        <time>2022-09-12T09:51:17Z</time>
      </trkpt>
      <trkpt lat="47.28647" lon="6.24672">
        <ele>390</ele>
        <time>2022-09-12T09:51:13Z</time>
      </trkpt>
      <trkpt lat="47.28646" lon="6.24659">
        <ele>389.4</ele>
        <time>2022-09-12T09:51:08Z</time>
      </trkpt>
      <trkpt lat="47.28647" lon="6.24642">
        <ele>389.4</ele>
        <time>2022-09-12T09:51:04Z</time>
      </trkpt>
      <trkpt lat="47.28647" lon="6.24635">
        <ele>389.4</ele>
        <time>2022-09-12T09:51:03Z</time>
      </trkpt>
      <trkpt lat="47.28643" lon="6.24606">
        <ele>388.8</ele>
        <time>2022-09-12T09:50:59Z</time>
      </trkpt>
      <trkpt lat="47.28635" lon="6.24594">
        <ele>388.8</ele>
        <time>2022-09-12T09:50:57Z</time>
      </trkpt>
      <trkpt lat="47.2863" lon="6.2459">
        <ele>389</ele>
        <time>2022-09-12T09:50:56Z</time>
      </trkpt>
      <trkpt lat="47.28624" lon="6.24587">
        <ele>389.4</ele>
        <time>2022-09-12T09:50:55Z</time>
      </trkpt>
      <trkpt lat="47.28619" lon="6.24584">
        <ele>389.6</ele>
        <time>2022-09-12T09:50:54Z</time>
      </trkpt>
      <trkpt lat="47.28605" lon="6.2457">
        <ele>390</ele>
        <time>2022-09-12T09:50:51Z</time>
      </trkpt>
      <trkpt lat="47.28602" lon="6.24562">
        <ele>390</ele>
        <time>2022-09-12T09:50:50Z</time>
      </trkpt>
      <trkpt lat="47.28598" lon="6.2452">
        <ele>390.6</ele>
        <time>2022-09-12T09:50:45Z</time>
      </trkpt>
      <trkpt lat="47.28597" lon="6.24494">
        <ele>391</ele>
        <time>2022-09-12T09:50:42Z</time>
      </trkpt>
      <trkpt lat="47.286" lon="6.24451">
        <ele>392</ele>
        <time>2022-09-12T09:50:37Z</time>
      </trkpt>
      <trkpt lat="47.28611" lon="6.24418">
        <ele>392.2</ele>
        <time>2022-09-12T09:50:32Z</time>
      </trkpt>
      <trkpt lat="47.28616" lon="6.24405">
        <ele>392.2</ele>
        <time>2022-09-12T09:50:30Z</time>
      </trkpt>
      <trkpt lat="47.2863" lon="6.24371">
        <ele>392</ele>
        <time>2022-09-12T09:50:25Z</time>
      </trkpt>
      <trkpt lat="47.28643" lon="6.24329">
        <ele>391.6</ele>
        <time>2022-09-12T09:50:19Z</time>
      </trkpt>
      <trkpt lat="47.28651" lon="6.24299">
        <ele>391.6</ele>
        <time>2022-09-12T09:50:15Z</time>
      </trkpt>
      <trkpt lat="47.28663" lon="6.24263">
        <ele>392.8</ele>
        <time>2022-09-12T09:50:10Z</time>
      </trkpt>
      <trkpt lat="47.2867" lon="6.24244">
        <ele>392.4</ele>
        <time>2022-09-12T09:50:07Z</time>
      </trkpt>
      <trkpt lat="47.28672" lon="6.24239">
        <ele>392.4</ele>
        <time>2022-09-12T09:50:06Z</time>
      </trkpt>
      <trkpt lat="47.28674" lon="6.24233">
        <ele>392.4</ele>
        <time>2022-09-12T09:50:05Z</time>
      </trkpt>
      <trkpt lat="47.28679" lon="6.24219">
        <ele>392.4</ele>
        <time>2022-09-12T09:50:02Z</time>
      </trkpt>
      <trkpt lat="47.28688" lon="6.24216">
        <ele>392.6</ele>
        <time>2022-09-12T09:50:00Z</time>
      </trkpt>
      <trkpt lat="47.28692" lon="6.24218">
        <ele>392.6</ele>
        <time>2022-09-12T09:49:59Z</time>
      </trkpt>
      <trkpt lat="47.28724" lon="6.24255">
        <ele>392.4</ele>
        <time>2022-09-12T09:49:50Z</time>
      </trkpt>
      <trkpt lat="47.28734" lon="6.2427">
        <ele>392.4</ele>
        <time>2022-09-12T09:49:47Z</time>
      </trkpt>
      <trkpt lat="47.28742" lon="6.24287">
        <ele>392.4</ele>
        <time>2022-09-12T09:49:44Z</time>
      </trkpt>
      <trkpt lat="47.28753" lon="6.24316">
        <ele>392.6</ele>
        <time>2022-09-12T09:49:39Z</time>
      </trkpt>
      <trkpt lat="47.28754" lon="6.24321">
        <ele>392.6</ele>
        <time>2022-09-12T09:49:38Z</time>
      </trkpt>
      <trkpt lat="47.28759" lon="6.2434">
        <ele>392.6</ele>
        <time>2022-09-12T09:49:35Z</time>
      </trkpt>
      <trkpt lat="47.28763" lon="6.24363">
        <ele>392.8</ele>
        <time>2022-09-12T09:49:32Z</time>
      </trkpt>
      <trkpt lat="47.28774" lon="6.24423">
        <ele>392.8</ele>
        <time>2022-09-12T09:49:24Z</time>
      </trkpt>
      <trkpt lat="47.28779" lon="6.24444">
        <ele>392.8</ele>
        <time>2022-09-12T09:49:21Z</time>
      </trkpt>
      <trkpt lat="47.28789" lon="6.24469">
        <ele>392.4</ele>
        <time>2022-09-12T09:49:17Z</time>
      </trkpt>
      <trkpt lat="47.28813" lon="6.24514">
        <ele>392.6</ele>
        <time>2022-09-12T09:49:09Z</time>
      </trkpt>
      <trkpt lat="47.28835" lon="6.24546">
        <ele>392.4</ele>
        <time>2022-09-12T09:49:02Z</time>
      </trkpt>
      <trkpt lat="47.28845" lon="6.24566">
        <ele>392.4</ele>
        <time>2022-09-12T09:48:56Z</time>
      </trkpt>
      <trkpt lat="47.28846" lon="6.2457">
        <ele>392.2</ele>
        <time>2022-09-12T09:48:55Z</time>
      </trkpt>
      <trkpt lat="47.28849" lon="6.24578">
        <ele>392.4</ele>
        <time>2022-09-12T09:48:52Z</time>
      </trkpt>
      <trkpt lat="47.28852" lon="6.24578">
        <ele>392.6</ele>
        <time>2022-09-12T09:48:50Z</time>
      </trkpt>
      <trkpt lat="47.28855" lon="6.2458">
        <ele>392.8</ele>
        <time>2022-09-12T09:48:48Z</time>
      </trkpt>
      <trkpt lat="47.28867" lon="6.24603">
        <ele>393.2</ele>
        <time>2022-09-12T09:48:40Z</time>
      </trkpt>
      <trkpt lat="47.28869" lon="6.24605">
        <ele>393.2</ele>
        <time>2022-09-12T09:48:39Z</time>
      </trkpt>
      <trkpt lat="47.2888" lon="6.24603">
        <ele>393.4</ele>
        <time>2022-09-12T09:48:35Z</time>
      </trkpt>
      <trkpt lat="47.28902" lon="6.2458">
        <ele>392.6</ele>
        <time>2022-09-12T09:48:28Z</time>
      </trkpt>
      <trkpt lat="47.28922" lon="6.24552">
        <ele>392</ele>
        <time>2022-09-12T09:48:21Z</time>
      </trkpt>
      <trkpt lat="47.28927" lon="6.24536">
        <ele>392</ele>
        <time>2022-09-12T09:48:16Z</time>
      </trkpt>
      <trkpt lat="47.28928" lon="6.24529">
        <ele>391.8</ele>
        <time>2022-09-12T09:48:12Z</time>
      </trkpt>
      <trkpt lat="47.28929" lon="6.24527">
        <ele>391.6</ele>
        <time>2022-09-12T09:48:11Z</time>
      </trkpt>
      <trkpt lat="47.28934" lon="6.24524">
        <ele>391.6</ele>
        <time>2022-09-12T09:48:07Z</time>
      </trkpt>
      <trkpt lat="47.28939" lon="6.24517">
        <ele>391</ele>
        <time>2022-09-12T09:48:04Z</time>
      </trkpt>
      <trkpt lat="47.28952" lon="6.24503">
        <ele>390.6</ele>
        <time>2022-09-12T09:47:58Z</time>
      </trkpt>
      <trkpt lat="47.28985" lon="6.24484">
        <ele>390.4</ele>
        <time>2022-09-12T09:47:49Z</time>
      </trkpt>
      <trkpt lat="47.29008" lon="6.24471">
        <ele>390.4</ele>
        <time>2022-09-12T09:47:43Z</time>
      </trkpt>
      <trkpt lat="47.29022" lon="6.24454">
        <ele>390.4</ele>
        <time>2022-09-12T09:47:39Z</time>
      </trkpt>
      <trkpt lat="47.29024" lon="6.24448">
        <ele>390.4</ele>
        <time>2022-09-12T09:47:38Z</time>
      </trkpt>
      <trkpt lat="47.2903" lon="6.24423">
        <ele>390.6</ele>
        <time>2022-09-12T09:47:34Z</time>
      </trkpt>
      <trkpt lat="47.29029" lon="6.24403">
        <ele>390</ele>
        <time>2022-09-12T09:47:31Z</time>
      </trkpt>
      <trkpt lat="47.29028" lon="6.24397">
        <ele>390</ele>
        <time>2022-09-12T09:47:30Z</time>
      </trkpt>
      <trkpt lat="47.29016" lon="6.24362">
        <ele>390.4</ele>
        <time>2022-09-12T09:47:23Z</time>
      </trkpt>
      <trkpt lat="47.29004" lon="6.2433">
        <ele>390.6</ele>
        <time>2022-09-12T09:47:16Z</time>
      </trkpt>
      <trkpt lat="47.29002" lon="6.24313">
        <ele>390</ele>
        <time>2022-09-12T09:47:12Z</time>
      </trkpt>
      <trkpt lat="47.29008" lon="6.24302">
        <ele>390.4</ele>
        <time>2022-09-12T09:47:05Z</time>
      </trkpt>
      <trkpt lat="47.29009" lon="6.24301">
        <ele>390.6</ele>
        <time>2022-09-12T09:47:04Z</time>
      </trkpt>
      <trkpt lat="47.29015" lon="6.2429">
        <ele>391.4</ele>
        <time>2022-09-12T09:47:00Z</time>
      </trkpt>
      <trkpt lat="47.29018" lon="6.24286">
        <ele>391.6</ele>
        <time>2022-09-12T09:46:59Z</time>
      </trkpt>
      <trkpt lat="47.29027" lon="6.2427">
        <ele>392.4</ele>
        <time>2022-09-12T09:46:55Z</time>
      </trkpt>
      <trkpt lat="47.2903" lon="6.24266">
        <ele>393</ele>
        <time>2022-09-12T09:46:54Z</time>
      </trkpt>
      <trkpt lat="47.29032" lon="6.24262">
        <ele>393.6</ele>
        <time>2022-09-12T09:46:53Z</time>
      </trkpt>
      <trkpt lat="47.2904" lon="6.24245">
        <ele>394.6</ele>
        <time>2022-09-12T09:46:50Z</time>
      </trkpt>
      <trkpt lat="47.29043" lon="6.2424">
        <ele>394.8</ele>
        <time>2022-09-12T09:46:49Z</time>
      </trkpt>
      <trkpt lat="47.2905" lon="6.24228">
        <ele>395.2</ele>
        <time>2022-09-12T09:46:45Z</time>
      </trkpt>
      <trkpt lat="47.29049" lon="6.24231">
        <ele>394.8</ele>
        <time>2022-09-12T09:46:33Z</time>
      </trkpt>
      <trkpt lat="47.29046" lon="6.24239">
        <ele>394.8</ele>
        <time>2022-09-12T09:46:30Z</time>
      </trkpt>
      <trkpt lat="47.29043" lon="6.24237">
        <ele>395.6</ele>
        <time>2022-09-12T09:46:28Z</time>
      </trkpt>
      <trkpt lat="47.29044" lon="6.24234">
        <ele>396</ele>
        <time>2022-09-12T09:46:27Z</time>
      </trkpt>
      <trkpt lat="47.29049" lon="6.24227">
        <ele>397.2</ele>
        <time>2022-09-12T09:46:25Z</time>
      </trkpt>
      <trkpt lat="47.29054" lon="6.24217">
        <ele>398.8</ele>
        <time>2022-09-12T09:46:23Z</time>
      </trkpt>
      <trkpt lat="47.29061" lon="6.24205">
        <ele>400.6</ele>
        <time>2022-09-12T09:46:21Z</time>
      </trkpt>
      <trkpt lat="47.29066" lon="6.24193">
        <ele>402.2</ele>
        <time>2022-09-12T09:46:19Z</time>
      </trkpt>
      <trkpt lat="47.29071" lon="6.24183">
        <ele>403.8</ele>
        <time>2022-09-12T09:46:17Z</time>
      </trkpt>
      <trkpt lat="47.29076" lon="6.24172">
        <ele>405.2</ele>
        <time>2022-09-12T09:46:15Z</time>
      </trkpt>
      <trkpt lat="47.29081" lon="6.24162">
        <ele>406.8</ele>
        <time>2022-09-12T09:46:13Z</time>
      </trkpt>
      <trkpt lat="47.29086" lon="6.24151">
        <ele>408.4</ele>
        <time>2022-09-12T09:46:11Z</time>
      </trkpt>
      <trkpt lat="47.29089" lon="6.24144">
        <ele>409.4</ele>
        <time>2022-09-12T09:46:10Z</time>
      </trkpt>
      <trkpt lat="47.29092" lon="6.24137">
        <ele>410.4</ele>
        <time>2022-09-12T09:46:09Z</time>
      </trkpt>
      <trkpt lat="47.29098" lon="6.24123">
        <ele>412.2</ele>
        <time>2022-09-12T09:46:07Z</time>
      </trkpt>
      <trkpt lat="47.29103" lon="6.24106">
        <ele>413.8</ele>
        <time>2022-09-12T09:46:05Z</time>
      </trkpt>
      <trkpt lat="47.29106" lon="6.24098">
        <ele>414.6</ele>
        <time>2022-09-12T09:46:04Z</time>
      </trkpt>
      <trkpt lat="47.29108" lon="6.24089">
        <ele>415.4</ele>
        <time>2022-09-12T09:46:03Z</time>
      </trkpt>
      <trkpt lat="47.29113" lon="6.24071">
        <ele>416.8</ele>
        <time>2022-09-12T09:46:01Z</time>
      </trkpt>
      <trkpt lat="47.29118" lon="6.24054">
        <ele>418.2</ele>
        <time>2022-09-12T09:45:59Z</time>
      </trkpt>
      <trkpt lat="47.2912" lon="6.24046">
        <ele>418.8</ele>
        <time>2022-09-12T09:45:58Z</time>
      </trkpt>
      <trkpt lat="47.29122" lon="6.24039">
        <ele>419.4</ele>
        <time>2022-09-12T09:45:57Z</time>
      </trkpt>
      <trkpt lat="47.29128" lon="6.24029">
        <ele>420.4</ele>
        <time>2022-09-12T09:45:55Z</time>
      </trkpt>
      <trkpt lat="47.29132" lon="6.24028">
        <ele>420.8</ele>
        <time>2022-09-12T09:45:54Z</time>
      </trkpt>
      <trkpt lat="47.29139" lon="6.24031">
        <ele>421.8</ele>
        <time>2022-09-12T09:45:52Z</time>
      </trkpt>
      <trkpt lat="47.29142" lon="6.24035">
        <ele>422.2</ele>
        <time>2022-09-12T09:45:51Z</time>
      </trkpt>
      <trkpt lat="47.29151" lon="6.2405">
        <ele>423.4</ele>
        <time>2022-09-12T09:45:48Z</time>
      </trkpt>
      <trkpt lat="47.29155" lon="6.24058">
        <ele>424.2</ele>
        <time>2022-09-12T09:45:46Z</time>
      </trkpt>
      <trkpt lat="47.2916" lon="6.24065">
        <ele>424.8</ele>
        <time>2022-09-12T09:45:44Z</time>
      </trkpt>
      <trkpt lat="47.29164" lon="6.24072">
        <ele>425.6</ele>
        <time>2022-09-12T09:45:42Z</time>
      </trkpt>
      <trkpt lat="47.29166" lon="6.24074">
        <ele>426.2</ele>
        <time>2022-09-12T09:45:41Z</time>
      </trkpt>
      <trkpt lat="47.29172" lon="6.24078">
        <ele>427.2</ele>
        <time>2022-09-12T09:45:39Z</time>
      </trkpt>
      <trkpt lat="47.29175" lon="6.24081">
        <ele>427.8</ele>
        <time>2022-09-12T09:45:38Z</time>
      </trkpt>
      <trkpt lat="47.29179" lon="6.24084">
        <ele>428.2</ele>
        <time>2022-09-12T09:45:37Z</time>
      </trkpt>
      <trkpt lat="47.29193" lon="6.24093">
        <ele>429.8</ele>
        <time>2022-09-12T09:45:34Z</time>
      </trkpt>
      <trkpt lat="47.29197" lon="6.24095">
        <ele>430</ele>
        <time>2022-09-12T09:45:33Z</time>
      </trkpt>
      <trkpt lat="47.2921" lon="6.24103">
        <ele>431.2</ele>
        <time>2022-09-12T09:45:29Z</time>
      </trkpt>
      <trkpt lat="47.29216" lon="6.24104">
        <ele>431.6</ele>
        <time>2022-09-12T09:45:27Z</time>
      </trkpt>
      <trkpt lat="47.2922" lon="6.24109">
        <ele>431.8</ele>
        <time>2022-09-12T09:45:25Z</time>
      </trkpt>
      <trkpt lat="47.29224" lon="6.24121">
        <ele>431</ele>
        <time>2022-09-12T09:45:21Z</time>
      </trkpt>
      <trkpt lat="47.29228" lon="6.24131">
        <ele>429.6</ele>
        <time>2022-09-12T09:45:17Z</time>
      </trkpt>
      <trkpt lat="47.29229" lon="6.24133">
        <ele>429.2</ele>
        <time>2022-09-12T09:45:16Z</time>
      </trkpt>
      <trkpt lat="47.29232" lon="6.24134">
        <ele>429.4</ele>
        <time>2022-09-12T09:45:05Z</time>
      </trkpt>
      <trkpt lat="47.29228" lon="6.24128">
        <ele>430</ele>
        <time>2022-09-12T09:45:02Z</time>
      </trkpt>
      <trkpt lat="47.2922" lon="6.24119">
        <ele>429.2</ele>
        <time>2022-09-12T09:44:14Z</time>
      </trkpt>
      <trkpt lat="47.2922" lon="6.24116">
        <ele>429.4</ele>
        <time>2022-09-12T09:44:12Z</time>
      </trkpt>
      <trkpt lat="47.29221" lon="6.24111">
        <ele>430</ele>
        <time>2022-09-12T09:44:09Z</time>
      </trkpt>
      <trkpt lat="47.29222" lon="6.24111">
        <ele>430.2</ele>
        <time>2022-09-12T09:44:08Z</time>
      </trkpt>
      <trkpt lat="47.29226" lon="6.24112">
        <ele>431.2</ele>
        <time>2022-09-12T09:44:05Z</time>
      </trkpt>
      <trkpt lat="47.2923" lon="6.24112">
        <ele>432</ele>
        <time>2022-09-12T09:44:03Z</time>
      </trkpt>
      <trkpt lat="47.29232" lon="6.24113">
        <ele>432.4</ele>
        <time>2022-09-12T09:44:02Z</time>
      </trkpt>
      <trkpt lat="47.29239" lon="6.24117">
        <ele>433.6</ele>
        <time>2022-09-12T09:44:00Z</time>
      </trkpt>
      <trkpt lat="47.29248" lon="6.24122">
        <ele>435.4</ele>
        <time>2022-09-12T09:43:58Z</time>
      </trkpt>
      <trkpt lat="47.29256" lon="6.24126">
        <ele>436.6</ele>
        <time>2022-09-12T09:43:56Z</time>
      </trkpt>
      <trkpt lat="47.29261" lon="6.24128">
        <ele>437.8</ele>
        <time>2022-09-12T09:43:54Z</time>
      </trkpt>
      <trkpt lat="47.29262" lon="6.2413">
        <ele>440.4</ele>
        <time>2022-09-12T09:43:40Z</time>
      </trkpt>
      <trkpt lat="47.29265" lon="6.2413">
        <ele>441.4</ele>
        <time>2022-09-12T09:43:38Z</time>
      </trkpt>
      <trkpt lat="47.29268" lon="6.24128">
        <ele>442.4</ele>
        <time>2022-09-12T09:43:36Z</time>
      </trkpt>
      <trkpt lat="47.29269" lon="6.24125">
        <ele>443.2</ele>
        <time>2022-09-12T09:43:35Z</time>
      </trkpt>
      <trkpt lat="47.29269" lon="6.24121">
        <ele>443.6</ele>
        <time>2022-09-12T09:43:34Z</time>
      </trkpt>
      <trkpt lat="47.29266" lon="6.24109">
        <ele>445</ele>
        <time>2022-09-12T09:43:32Z</time>
      </trkpt>
      <trkpt lat="47.29264" lon="6.24102">
        <ele>445.6</ele>
        <time>2022-09-12T09:43:31Z</time>
      </trkpt>
      <trkpt lat="47.29263" lon="6.24093">
        <ele>446.4</ele>
        <time>2022-09-12T09:43:30Z</time>
      </trkpt>
      <trkpt lat="47.29262" lon="6.24073">
        <ele>448</ele>
        <time>2022-09-12T09:43:28Z</time>
      </trkpt>
      <trkpt lat="47.29262" lon="6.24062">
        <ele>448.8</ele>
        <time>2022-09-12T09:43:27Z</time>
      </trkpt>
      <trkpt lat="47.29262" lon="6.2405">
        <ele>449.6</ele>
        <time>2022-09-12T09:43:26Z</time>
      </trkpt>
      <trkpt lat="47.29262" lon="6.24027">
        <ele>451.2</ele>
        <time>2022-09-12T09:43:24Z</time>
      </trkpt>
      <trkpt lat="47.29262" lon="6.24015">
        <ele>451.8</ele>
        <time>2022-09-12T09:43:23Z</time>
      </trkpt>
      <trkpt lat="47.29263" lon="6.24004">
        <ele>452.4</ele>
        <time>2022-09-12T09:43:22Z</time>
      </trkpt>
      <trkpt lat="47.29268" lon="6.23975">
        <ele>453.8</ele>
        <time>2022-09-12T09:43:19Z</time>
      </trkpt>
      <trkpt lat="47.29272" lon="6.23966">
        <ele>454.2</ele>
        <time>2022-09-12T09:43:18Z</time>
      </trkpt>
      <trkpt lat="47.29276" lon="6.23958">
        <ele>454.6</ele>
        <time>2022-09-12T09:43:17Z</time>
      </trkpt>
      <trkpt lat="47.2928" lon="6.2395">
        <ele>455.2</ele>
        <time>2022-09-12T09:43:16Z</time>
      </trkpt>
      <trkpt lat="47.2929" lon="6.23937">
        <ele>456.2</ele>
        <time>2022-09-12T09:43:14Z</time>
      </trkpt>
      <trkpt lat="47.29296" lon="6.23932">
        <ele>456.8</ele>
        <time>2022-09-12T09:43:13Z</time>
      </trkpt>
      <trkpt lat="47.29301" lon="6.23927">
        <ele>457.4</ele>
        <time>2022-09-12T09:43:12Z</time>
      </trkpt>
      <trkpt lat="47.29311" lon="6.23916">
        <ele>458.2</ele>
        <time>2022-09-12T09:43:10Z</time>
      </trkpt>
      <trkpt lat="47.29316" lon="6.23911">
        <ele>458.6</ele>
        <time>2022-09-12T09:43:09Z</time>
      </trkpt>
      <trkpt lat="47.2932" lon="6.23906">
        <ele>459.2</ele>
        <time>2022-09-12T09:43:08Z</time>
      </trkpt>
      <trkpt lat="47.29329" lon="6.23897">
        <ele>459.8</ele>
        <time>2022-09-12T09:43:06Z</time>
      </trkpt>
      <trkpt lat="47.29342" lon="6.23882">
        <ele>461.2</ele>
        <time>2022-09-12T09:43:03Z</time>
      </trkpt>
      <trkpt lat="47.29357" lon="6.23868">
        <ele>462.6</ele>
        <time>2022-09-12T09:42:58Z</time>
      </trkpt>
      <trkpt lat="47.29361" lon="6.23864">
        <ele>463</ele>
        <time>2022-09-12T09:42:56Z</time>
      </trkpt>
      <trkpt lat="47.29363" lon="6.2386">
        <ele>463</ele>
        <time>2022-09-12T09:42:54Z</time>
      </trkpt>
      <trkpt lat="47.29365" lon="6.23856">
        <ele>463.2</ele>
        <time>2022-09-12T09:42:52Z</time>
      </trkpt>
      <trkpt lat="47.29363" lon="6.23848">
        <ele>464</ele>
        <time>2022-09-12T09:42:44Z</time>
      </trkpt>
      <trkpt lat="47.2936" lon="6.23845">
        <ele>464.8</ele>
        <time>2022-09-12T09:42:42Z</time>
      </trkpt>
      <trkpt lat="47.29357" lon="6.23839">
        <ele>466</ele>
        <time>2022-09-12T09:42:40Z</time>
      </trkpt>
      <trkpt lat="47.29351" lon="6.23832">
        <ele>467</ele>
        <time>2022-09-12T09:42:38Z</time>
      </trkpt>
      <trkpt lat="47.29345" lon="6.23821">
        <ele>468.4</ele>
        <time>2022-09-12T09:42:35Z</time>
      </trkpt>
      <trkpt lat="47.29338" lon="6.23807">
        <ele>469.8</ele>
        <time>2022-09-12T09:42:32Z</time>
      </trkpt>
      <trkpt lat="47.29332" lon="6.23793">
        <ele>471.2</ele>
        <time>2022-09-12T09:42:29Z</time>
      </trkpt>
      <trkpt lat="47.29324" lon="6.23777">
        <ele>472.2</ele>
        <time>2022-09-12T09:42:25Z</time>
      </trkpt>
      <trkpt lat="47.2932" lon="6.23768">
        <ele>472.6</ele>
        <time>2022-09-12T09:42:23Z</time>
      </trkpt>
      <trkpt lat="47.29309" lon="6.2373">
        <ele>472.8</ele>
        <time>2022-09-12T09:42:15Z</time>
      </trkpt>
      <trkpt lat="47.293" lon="6.237">
        <ele>473.2</ele>
        <time>2022-09-12T09:42:10Z</time>
      </trkpt>
      <trkpt lat="47.29298" lon="6.23684">
        <ele>473.4</ele>
        <time>2022-09-12T09:42:08Z</time>
      </trkpt>
      <trkpt lat="47.29296" lon="6.2366">
        <ele>473.6</ele>
        <time>2022-09-12T09:42:05Z</time>
      </trkpt>
      <trkpt lat="47.29296" lon="6.23653">
        <ele>473.4</ele>
        <time>2022-09-12T09:42:04Z</time>
      </trkpt>
      <trkpt lat="47.29298" lon="6.23636">
        <ele>472.8</ele>
        <time>2022-09-12T09:42:01Z</time>
      </trkpt>
      <trkpt lat="47.29299" lon="6.23631">
        <ele>472.6</ele>
        <time>2022-09-12T09:42:00Z</time>
      </trkpt>
      <trkpt lat="47.29303" lon="6.23619">
        <ele>472.2</ele>
        <time>2022-09-12T09:41:57Z</time>
      </trkpt>
      <trkpt lat="47.29307" lon="6.23609">
        <ele>471.6</ele>
        <time>2022-09-12T09:41:54Z</time>
      </trkpt>
      <trkpt lat="47.29309" lon="6.23606">
        <ele>471.4</ele>
        <time>2022-09-12T09:41:53Z</time>
      </trkpt>
      <trkpt lat="47.29311" lon="6.23602">
        <ele>471</ele>
        <time>2022-09-12T09:41:51Z</time>
      </trkpt>
      <trkpt lat="47.29314" lon="6.23598">
        <ele>470.6</ele>
        <time>2022-09-12T09:41:49Z</time>
      </trkpt>
      <trkpt lat="47.29316" lon="6.23595">
        <ele>469.8</ele>
        <time>2022-09-12T09:41:46Z</time>
      </trkpt>
      <trkpt lat="47.29317" lon="6.23595">
        <ele>462.8</ele>
        <time>2022-09-12T09:34:28Z</time>
      </trkpt>
      <trkpt lat="47.29312" lon="6.23601">
        <ele>461.8</ele>
        <time>2022-09-12T09:34:24Z</time>
      </trkpt>
      <trkpt lat="47.29311" lon="6.23604">
        <ele>461.4</ele>
        <time>2022-09-12T09:34:23Z</time>
      </trkpt>
      <trkpt lat="47.29307" lon="6.23613">
        <ele>460.4</ele>
        <time>2022-09-12T09:34:20Z</time>
      </trkpt>
      <trkpt lat="47.29304" lon="6.23622">
        <ele>459.4</ele>
        <time>2022-09-12T09:34:17Z</time>
      </trkpt>
      <trkpt lat="47.29302" lon="6.23628">
        <ele>458.2</ele>
        <time>2022-09-12T09:34:14Z</time>
      </trkpt>
      <trkpt lat="47.293" lon="6.23635">
        <ele>457.2</ele>
        <time>2022-09-12T09:34:10Z</time>
      </trkpt>
      <trkpt lat="47.29298" lon="6.23638">
        <ele>456.4</ele>
        <time>2022-09-12T09:34:06Z</time>
      </trkpt>
      <trkpt lat="47.29298" lon="6.23637">
        <ele>456</ele>
        <time>2022-09-12T09:34:05Z</time>
      </trkpt>
      <trkpt lat="47.29289" lon="6.2362">
        <ele>455.4</ele>
        <time>2022-09-12T09:33:59Z</time>
      </trkpt>
      <trkpt lat="47.29277" lon="6.23596">
        <ele>455.2</ele>
        <time>2022-09-12T09:33:53Z</time>
      </trkpt>
      <trkpt lat="47.29265" lon="6.23571">
        <ele>455.4</ele>
        <time>2022-09-12T09:33:48Z</time>
      </trkpt>
      <trkpt lat="47.29259" lon="6.23558">
        <ele>456</ele>
        <time>2022-09-12T09:33:46Z</time>
      </trkpt>
      <trkpt lat="47.29248" lon="6.23538">
        <ele>457.2</ele>
        <time>2022-09-12T09:33:43Z</time>
      </trkpt>
      <trkpt lat="47.29244" lon="6.23532">
        <ele>458</ele>
        <time>2022-09-12T09:33:42Z</time>
      </trkpt>
      <trkpt lat="47.2924" lon="6.23525">
        <ele>458.6</ele>
        <time>2022-09-12T09:33:41Z</time>
      </trkpt>
      <trkpt lat="47.29234" lon="6.23511">
        <ele>460.2</ele>
        <time>2022-09-12T09:33:39Z</time>
      </trkpt>
      <trkpt lat="47.29231" lon="6.23505">
        <ele>460.8</ele>
        <time>2022-09-12T09:33:38Z</time>
      </trkpt>
      <trkpt lat="47.29227" lon="6.23498">
        <ele>461.6</ele>
        <time>2022-09-12T09:33:37Z</time>
      </trkpt>
      <trkpt lat="47.29222" lon="6.23482">
        <ele>462.8</ele>
        <time>2022-09-12T09:33:35Z</time>
      </trkpt>
      <trkpt lat="47.29218" lon="6.23467">
        <ele>463.4</ele>
        <time>2022-09-12T09:33:33Z</time>
      </trkpt>
      <trkpt lat="47.29216" lon="6.23459">
        <ele>464</ele>
        <time>2022-09-12T09:33:32Z</time>
      </trkpt>
      <trkpt lat="47.29213" lon="6.23451">
        <ele>464.6</ele>
        <time>2022-09-12T09:33:31Z</time>
      </trkpt>
      <trkpt lat="47.29209" lon="6.23444">
        <ele>465</ele>
        <time>2022-09-12T09:33:30Z</time>
      </trkpt>
      <trkpt lat="47.29203" lon="6.23431">
        <ele>466.2</ele>
        <time>2022-09-12T09:33:28Z</time>
      </trkpt>
      <trkpt lat="47.29194" lon="6.23423">
        <ele>467.2</ele>
        <time>2022-09-12T09:33:26Z</time>
      </trkpt>
      <trkpt lat="47.29184" lon="6.23419">
        <ele>468.4</ele>
        <time>2022-09-12T09:33:24Z</time>
      </trkpt>
      <trkpt lat="47.29174" lon="6.23416">
        <ele>470</ele>
        <time>2022-09-12T09:33:22Z</time>
      </trkpt>
      <trkpt lat="47.29166" lon="6.23411">
        <ele>471.4</ele>
        <time>2022-09-12T09:33:20Z</time>
      </trkpt>
      <trkpt lat="47.29159" lon="6.23405">
        <ele>473</ele>
        <time>2022-09-12T09:33:18Z</time>
      </trkpt>
      <trkpt lat="47.29152" lon="6.23397">
        <ele>474.6</ele>
        <time>2022-09-12T09:33:16Z</time>
      </trkpt>
      <trkpt lat="47.29149" lon="6.23392">
        <ele>475.4</ele>
        <time>2022-09-12T09:33:15Z</time>
      </trkpt>
      <trkpt lat="47.29146" lon="6.23387">
        <ele>476</ele>
        <time>2022-09-12T09:33:14Z</time>
      </trkpt>
      <trkpt lat="47.29141" lon="6.23375">
        <ele>477.6</ele>
        <time>2022-09-12T09:33:12Z</time>
      </trkpt>
      <trkpt lat="47.29137" lon="6.23359">
        <ele>478.8</ele>
        <time>2022-09-12T09:33:10Z</time>
      </trkpt>
      <trkpt lat="47.29133" lon="6.23345">
        <ele>480.2</ele>
        <time>2022-09-12T09:33:08Z</time>
      </trkpt>
      <trkpt lat="47.29127" lon="6.23332">
        <ele>481.4</ele>
        <time>2022-09-12T09:33:06Z</time>
      </trkpt>
      <trkpt lat="47.29124" lon="6.23327">
        <ele>482</ele>
        <time>2022-09-12T09:33:05Z</time>
      </trkpt>
      <trkpt lat="47.29121" lon="6.23321">
        <ele>482.6</ele>
        <time>2022-09-12T09:33:04Z</time>
      </trkpt>
      <trkpt lat="47.29115" lon="6.23307">
        <ele>484</ele>
        <time>2022-09-12T09:33:02Z</time>
      </trkpt>
      <trkpt lat="47.29108" lon="6.23291">
        <ele>485.8</ele>
        <time>2022-09-12T09:33:00Z</time>
      </trkpt>
      <trkpt lat="47.29102" lon="6.23274">
        <ele>487.2</ele>
        <time>2022-09-12T09:32:58Z</time>
      </trkpt>
      <trkpt lat="47.29096" lon="6.23258">
        <ele>488.4</ele>
        <time>2022-09-12T09:32:56Z</time>
      </trkpt>
      <trkpt lat="47.29094" lon="6.23252">
        <ele>489</ele>
        <time>2022-09-12T09:32:55Z</time>
      </trkpt>
      <trkpt lat="47.29089" lon="6.23238">
        <ele>489.8</ele>
        <time>2022-09-12T09:32:53Z</time>
      </trkpt>
      <trkpt lat="47.29086" lon="6.23217">
        <ele>490.6</ele>
        <time>2022-09-12T09:32:50Z</time>
      </trkpt>
      <trkpt lat="47.29085" lon="6.23209">
        <ele>491</ele>
        <time>2022-09-12T09:32:49Z</time>
      </trkpt>
      <trkpt lat="47.29084" lon="6.2317">
        <ele>491.6</ele>
        <time>2022-09-12T09:32:44Z</time>
      </trkpt>
      <trkpt lat="47.29083" lon="6.23148">
        <ele>491.8</ele>
        <time>2022-09-12T09:32:41Z</time>
      </trkpt>
      <trkpt lat="47.2908" lon="6.23136">
        <ele>491.8</ele>
        <time>2022-09-12T09:32:39Z</time>
      </trkpt>
      <trkpt lat="47.29075" lon="6.23108">
        <ele>491.6</ele>
        <time>2022-09-12T09:32:34Z</time>
      </trkpt>
      <trkpt lat="47.29063" lon="6.23065">
        <ele>491.8</ele>
        <time>2022-09-12T09:32:27Z</time>
      </trkpt>
      <trkpt lat="47.29061" lon="6.23058">
        <ele>491.6</ele>
        <time>2022-09-12T09:32:26Z</time>
      </trkpt>
      <trkpt lat="47.29052" lon="6.23022">
        <ele>491.6</ele>
        <time>2022-09-12T09:32:21Z</time>
      </trkpt>
      <trkpt lat="47.2905" lon="6.23015">
        <ele>491.6</ele>
        <time>2022-09-12T09:32:20Z</time>
      </trkpt>
      <trkpt lat="47.29047" lon="6.2298">
        <ele>492.2</ele>
        <time>2022-09-12T09:32:15Z</time>
      </trkpt>
      <trkpt lat="47.29046" lon="6.22974">
        <ele>492.2</ele>
        <time>2022-09-12T09:32:14Z</time>
      </trkpt>
      <trkpt lat="47.29044" lon="6.22952">
        <ele>493</ele>
        <time>2022-09-12T09:32:10Z</time>
      </trkpt>
      <trkpt lat="47.29042" lon="6.22943">
        <ele>493.2</ele>
        <time>2022-09-12T09:32:08Z</time>
      </trkpt>
      <trkpt lat="47.29041" lon="6.22933">
        <ele>493.8</ele>
        <time>2022-09-12T09:32:06Z</time>
      </trkpt>
      <trkpt lat="47.2904" lon="6.22927">
        <ele>494.4</ele>
        <time>2022-09-12T09:32:05Z</time>
      </trkpt>
      <trkpt lat="47.29037" lon="6.22907">
        <ele>495.8</ele>
        <time>2022-09-12T09:32:02Z</time>
      </trkpt>
      <trkpt lat="47.29035" lon="6.22892">
        <ele>497</ele>
        <time>2022-09-12T09:32:00Z</time>
      </trkpt>
      <trkpt lat="47.29035" lon="6.22885">
        <ele>497.4</ele>
        <time>2022-09-12T09:31:59Z</time>
      </trkpt>
      <trkpt lat="47.29032" lon="6.22865">
        <ele>498.2</ele>
        <time>2022-09-12T09:31:56Z</time>
      </trkpt>
      <trkpt lat="47.29028" lon="6.22841">
        <ele>499.4</ele>
        <time>2022-09-12T09:31:52Z</time>
      </trkpt>
      <trkpt lat="47.29022" lon="6.22805">
        <ele>500.6</ele>
        <time>2022-09-12T09:31:47Z</time>
      </trkpt>
      <trkpt lat="47.2902" lon="6.22786">
        <ele>500.8</ele>
        <time>2022-09-12T09:31:44Z</time>
      </trkpt>
      <trkpt lat="47.29018" lon="6.22763">
        <ele>501.6</ele>
        <time>2022-09-12T09:31:41Z</time>
      </trkpt>
      <trkpt lat="47.29017" lon="6.22754">
        <ele>501.8</ele>
        <time>2022-09-12T09:31:40Z</time>
      </trkpt>
      <trkpt lat="47.29016" lon="6.22746">
        <ele>502</ele>
        <time>2022-09-12T09:31:39Z</time>
      </trkpt>
      <trkpt lat="47.29009" lon="6.22712">
        <ele>502.8</ele>
        <time>2022-09-12T09:31:35Z</time>
      </trkpt>
      <trkpt lat="47.29008" lon="6.22702">
        <ele>503</ele>
        <time>2022-09-12T09:31:34Z</time>
      </trkpt>
      <trkpt lat="47.29007" lon="6.22691">
        <ele>503.4</ele>
        <time>2022-09-12T09:31:33Z</time>
      </trkpt>
      <trkpt lat="47.29008" lon="6.22656">
        <ele>504.2</ele>
        <time>2022-09-12T09:31:30Z</time>
      </trkpt>
      <trkpt lat="47.2901" lon="6.22622">
        <ele>505.4</ele>
        <time>2022-09-12T09:31:27Z</time>
      </trkpt>
      <trkpt lat="47.29011" lon="6.22599">
        <ele>506.4</ele>
        <time>2022-09-12T09:31:25Z</time>
      </trkpt>
      <trkpt lat="47.29012" lon="6.22587">
        <ele>506.6</ele>
        <time>2022-09-12T09:31:24Z</time>
      </trkpt>
      <trkpt lat="47.29013" lon="6.22567">
        <ele>507.4</ele>
        <time>2022-09-12T09:31:22Z</time>
      </trkpt>
      <trkpt lat="47.29014" lon="6.22535">
        <ele>508.8</ele>
        <time>2022-09-12T09:31:19Z</time>
      </trkpt>
      <trkpt lat="47.29013" lon="6.22515">
        <ele>510</ele>
        <time>2022-09-12T09:31:17Z</time>
      </trkpt>
      <trkpt lat="47.29013" lon="6.22488">
        <ele>511.2</ele>
        <time>2022-09-12T09:31:14Z</time>
      </trkpt>
      <trkpt lat="47.29013" lon="6.2247">
        <ele>512.6</ele>
        <time>2022-09-12T09:31:12Z</time>
      </trkpt>
      <trkpt lat="47.29013" lon="6.22453">
        <ele>513.8</ele>
        <time>2022-09-12T09:31:10Z</time>
      </trkpt>
      <trkpt lat="47.29014" lon="6.22431">
        <ele>515.2</ele>
        <time>2022-09-12T09:31:07Z</time>
      </trkpt>
      <trkpt lat="47.29014" lon="6.22407">
        <ele>516</ele>
        <time>2022-09-12T09:31:04Z</time>
      </trkpt>
      <trkpt lat="47.29013" lon="6.22399">
        <ele>516.4</ele>
        <time>2022-09-12T09:31:03Z</time>
      </trkpt>
      <trkpt lat="47.29012" lon="6.22374">
        <ele>517.8</ele>
        <time>2022-09-12T09:31:00Z</time>
      </trkpt>
      <trkpt lat="47.29014" lon="6.22361">
        <ele>518.8</ele>
        <time>2022-09-12T09:30:58Z</time>
      </trkpt>
      <trkpt lat="47.29015" lon="6.22343">
        <ele>520.2</ele>
        <time>2022-09-12T09:30:55Z</time>
      </trkpt>
      <trkpt lat="47.29015" lon="6.22337">
        <ele>520.2</ele>
        <time>2022-09-12T09:30:54Z</time>
      </trkpt>
      <trkpt lat="47.29013" lon="6.22321">
        <ele>521.2</ele>
        <time>2022-09-12T09:30:51Z</time>
      </trkpt>
      <trkpt lat="47.29012" lon="6.22315">
        <ele>522</ele>
        <time>2022-09-12T09:30:50Z</time>
      </trkpt>
      <trkpt lat="47.29011" lon="6.2231">
        <ele>522.4</ele>
        <time>2022-09-12T09:30:49Z</time>
      </trkpt>
      <trkpt lat="47.29007" lon="6.22291">
        <ele>523.8</ele>
        <time>2022-09-12T09:30:46Z</time>
      </trkpt>
      <trkpt lat="47.29004" lon="6.22279">
        <ele>524.8</ele>
        <time>2022-09-12T09:30:44Z</time>
      </trkpt>
      <trkpt lat="47.29002" lon="6.22272">
        <ele>525.2</ele>
        <time>2022-09-12T09:30:43Z</time>
      </trkpt>
      <trkpt lat="47.28996" lon="6.22247">
        <ele>526.4</ele>
        <time>2022-09-12T09:30:40Z</time>
      </trkpt>
      <trkpt lat="47.28995" lon="6.22238">
        <ele>526.6</ele>
        <time>2022-09-12T09:30:39Z</time>
      </trkpt>
      <trkpt lat="47.28993" lon="6.2222">
        <ele>527.8</ele>
        <time>2022-09-12T09:30:37Z</time>
      </trkpt>
      <trkpt lat="47.28993" lon="6.22202">
        <ele>529.2</ele>
        <time>2022-09-12T09:30:35Z</time>
      </trkpt>
      <trkpt lat="47.28993" lon="6.22193">
        <ele>529.8</ele>
        <time>2022-09-12T09:30:34Z</time>
      </trkpt>
      <trkpt lat="47.28993" lon="6.22185">
        <ele>530.4</ele>
        <time>2022-09-12T09:30:33Z</time>
      </trkpt>
      <trkpt lat="47.28996" lon="6.22168">
        <ele>531.8</ele>
        <time>2022-09-12T09:30:31Z</time>
      </trkpt>
      <trkpt lat="47.28997" lon="6.22162">
        <ele>532</ele>
        <time>2022-09-12T09:30:30Z</time>
      </trkpt>
      <trkpt lat="47.28998" lon="6.22153">
        <ele>532.6</ele>
        <time>2022-09-12T09:30:29Z</time>
      </trkpt>
      <trkpt lat="47.28998" lon="6.22145">
        <ele>533</ele>
        <time>2022-09-12T09:30:28Z</time>
      </trkpt>
      <trkpt lat="47.28996" lon="6.22122">
        <ele>534.2</ele>
        <time>2022-09-12T09:30:24Z</time>
      </trkpt>
      <trkpt lat="47.28991" lon="6.22082">
        <ele>536.2</ele>
        <time>2022-09-12T09:30:16Z</time>
      </trkpt>
      <trkpt lat="47.28989" lon="6.22059">
        <ele>536</ele>
        <time>2022-09-12T09:30:10Z</time>
      </trkpt>
      <trkpt lat="47.28988" lon="6.22056">
        <ele>535.8</ele>
        <time>2022-09-12T09:30:09Z</time>
      </trkpt>
      <trkpt lat="47.28987" lon="6.22045">
        <ele>534.8</ele>
        <time>2022-09-12T09:29:53Z</time>
      </trkpt>
      <trkpt lat="47.28985" lon="6.22036">
        <ele>535.2</ele>
        <time>2022-09-12T09:29:50Z</time>
      </trkpt>
      <trkpt lat="47.28983" lon="6.22024">
        <ele>535.6</ele>
        <time>2022-09-12T09:29:48Z</time>
      </trkpt>
      <trkpt lat="47.28983" lon="6.21995">
        <ele>537</ele>
        <time>2022-09-12T09:29:45Z</time>
      </trkpt>
      <trkpt lat="47.28983" lon="6.21976">
        <ele>538</ele>
        <time>2022-09-12T09:29:43Z</time>
      </trkpt>
      <trkpt lat="47.28984" lon="6.2195">
        <ele>539.4</ele>
        <time>2022-09-12T09:29:40Z</time>
      </trkpt>
      <trkpt lat="47.28987" lon="6.21927">
        <ele>540.8</ele>
        <time>2022-09-12T09:29:37Z</time>
      </trkpt>
      <trkpt lat="47.28989" lon="6.2192">
        <ele>541.4</ele>
        <time>2022-09-12T09:29:36Z</time>
      </trkpt>
      <trkpt lat="47.28989" lon="6.21908">
        <ele>542.4</ele>
        <time>2022-09-12T09:29:34Z</time>
      </trkpt>
      <trkpt lat="47.28987" lon="6.21895">
        <ele>543.4</ele>
        <time>2022-09-12T09:29:32Z</time>
      </trkpt>
      <trkpt lat="47.28984" lon="6.21881">
        <ele>544.4</ele>
        <time>2022-09-12T09:29:30Z</time>
      </trkpt>
      <trkpt lat="47.2898" lon="6.21867">
        <ele>545.6</ele>
        <time>2022-09-12T09:29:28Z</time>
      </trkpt>
      <trkpt lat="47.28977" lon="6.2186">
        <ele>546</ele>
        <time>2022-09-12T09:29:27Z</time>
      </trkpt>
      <trkpt lat="47.28973" lon="6.21847">
        <ele>547</ele>
        <time>2022-09-12T09:29:25Z</time>
      </trkpt>
      <trkpt lat="47.2897" lon="6.21831">
        <ele>548.2</ele>
        <time>2022-09-12T09:29:23Z</time>
      </trkpt>
      <trkpt lat="47.2897" lon="6.21822">
        <ele>548.8</ele>
        <time>2022-09-12T09:29:22Z</time>
      </trkpt>
      <trkpt lat="47.28971" lon="6.21811">
        <ele>549.4</ele>
        <time>2022-09-12T09:29:21Z</time>
      </trkpt>
      <trkpt lat="47.28969" lon="6.21794">
        <ele>550.8</ele>
        <time>2022-09-12T09:29:19Z</time>
      </trkpt>
      <trkpt lat="47.28967" lon="6.21774">
        <ele>552</ele>
        <time>2022-09-12T09:29:17Z</time>
      </trkpt>
      <trkpt lat="47.28966" lon="6.21754">
        <ele>553</ele>
        <time>2022-09-12T09:29:15Z</time>
      </trkpt>
      <trkpt lat="47.28965" lon="6.21734">
        <ele>554.2</ele>
        <time>2022-09-12T09:29:13Z</time>
      </trkpt>
      <trkpt lat="47.28963" lon="6.21715">
        <ele>555.2</ele>
        <time>2022-09-12T09:29:11Z</time>
      </trkpt>
      <trkpt lat="47.28963" lon="6.21704">
        <ele>555.8</ele>
        <time>2022-09-12T09:29:10Z</time>
      </trkpt>
      <trkpt lat="47.28963" lon="6.21694">
        <ele>556.4</ele>
        <time>2022-09-12T09:29:09Z</time>
      </trkpt>
      <trkpt lat="47.28963" lon="6.21675">
        <ele>557.6</ele>
        <time>2022-09-12T09:29:07Z</time>
      </trkpt>
      <trkpt lat="47.28964" lon="6.21665">
        <ele>558</ele>
        <time>2022-09-12T09:29:06Z</time>
      </trkpt>
      <trkpt lat="47.28969" lon="6.21647">
        <ele>559</ele>
        <time>2022-09-12T09:29:04Z</time>
      </trkpt>
      <trkpt lat="47.28973" lon="6.2163">
        <ele>560</ele>
        <time>2022-09-12T09:29:02Z</time>
      </trkpt>
      <trkpt lat="47.28974" lon="6.21622">
        <ele>560.6</ele>
        <time>2022-09-12T09:29:01Z</time>
      </trkpt>
      <trkpt lat="47.28976" lon="6.21614">
        <ele>561.4</ele>
        <time>2022-09-12T09:29:00Z</time>
      </trkpt>
      <trkpt lat="47.28979" lon="6.21601">
        <ele>562.8</ele>
        <time>2022-09-12T09:28:58Z</time>
      </trkpt>
      <trkpt lat="47.28982" lon="6.21596">
        <ele>563.6</ele>
        <time>2022-09-12T09:28:57Z</time>
      </trkpt>
      <trkpt lat="47.28984" lon="6.21592">
        <ele>564</ele>
        <time>2022-09-12T09:28:56Z</time>
      </trkpt>
      <trkpt lat="47.2899" lon="6.21581">
        <ele>565.2</ele>
        <time>2022-09-12T09:28:54Z</time>
      </trkpt>
      <trkpt lat="47.28995" lon="6.21568">
        <ele>566</ele>
        <time>2022-09-12T09:28:52Z</time>
      </trkpt>
      <trkpt lat="47.28997" lon="6.21561">
        <ele>566.4</ele>
        <time>2022-09-12T09:28:51Z</time>
      </trkpt>
      <trkpt lat="47.29002" lon="6.21537">
        <ele>568</ele>
        <time>2022-09-12T09:28:48Z</time>
      </trkpt>
      <trkpt lat="47.29012" lon="6.21516">
        <ele>569.4</ele>
        <time>2022-09-12T09:28:45Z</time>
      </trkpt>
      <trkpt lat="47.29019" lon="6.21505">
        <ele>570.4</ele>
        <time>2022-09-12T09:28:43Z</time>
      </trkpt>
      <trkpt lat="47.29022" lon="6.21501">
        <ele>570.8</ele>
        <time>2022-09-12T09:28:42Z</time>
      </trkpt>
      <trkpt lat="47.29033" lon="6.21486">
        <ele>572</ele>
        <time>2022-09-12T09:28:39Z</time>
      </trkpt>
      <trkpt lat="47.29041" lon="6.21474">
        <ele>573</ele>
        <time>2022-09-12T09:28:37Z</time>
      </trkpt>
      <trkpt lat="47.29044" lon="6.21468">
        <ele>573.4</ele>
        <time>2022-09-12T09:28:36Z</time>
      </trkpt>
      <trkpt lat="47.29055" lon="6.21449">
        <ele>575</ele>
        <time>2022-09-12T09:28:32Z</time>
      </trkpt>
      <trkpt lat="47.29058" lon="6.21443">
        <ele>574.8</ele>
        <time>2022-09-12T09:28:30Z</time>
      </trkpt>
      <trkpt lat="47.2906" lon="6.21437">
        <ele>574.4</ele>
        <time>2022-09-12T09:28:28Z</time>
      </trkpt>
      <trkpt lat="47.29061" lon="6.21434">
        <ele>574</ele>
        <time>2022-09-12T09:28:27Z</time>
      </trkpt>
      <trkpt lat="47.29061" lon="6.21429">
        <ele>573.6</ele>
        <time>2022-09-12T09:28:25Z</time>
      </trkpt>
      <trkpt lat="47.29054" lon="6.2142">
        <ele>572.4</ele>
        <time>2022-09-12T09:28:20Z</time>
      </trkpt>
      <trkpt lat="47.29015" lon="6.21396">
        <ele>560.6</ele>
        <time>2022-09-12T09:27:53Z</time>
      </trkpt>
      <trkpt lat="47.29012" lon="6.21391">
        <ele>559.4</ele>
        <time>2022-09-12T09:27:50Z</time>
      </trkpt>
      <trkpt lat="47.29005" lon="6.2138">
        <ele>556.4</ele>
        <time>2022-09-12T09:27:43Z</time>
      </trkpt>
      <trkpt lat="47.29002" lon="6.21378">
        <ele>555.2</ele>
        <time>2022-09-12T09:27:41Z</time>
      </trkpt>
      <trkpt lat="47.28999" lon="6.21372">
        <ele>553.8</ele>
        <time>2022-09-12T09:27:38Z</time>
      </trkpt>
      <trkpt lat="47.28991" lon="6.21361">
        <ele>552.8</ele>
        <time>2022-09-12T09:27:34Z</time>
      </trkpt>
      <trkpt lat="47.28988" lon="6.21356">
        <ele>552</ele>
        <time>2022-09-12T09:27:32Z</time>
      </trkpt>
      <trkpt lat="47.28986" lon="6.21352">
        <ele>551.4</ele>
        <time>2022-09-12T09:27:30Z</time>
      </trkpt>
      <trkpt lat="47.28982" lon="6.21347">
        <ele>550.2</ele>
        <time>2022-09-12T09:27:28Z</time>
      </trkpt>
      <trkpt lat="47.28976" lon="6.21343">
        <ele>548.4</ele>
        <time>2022-09-12T09:27:25Z</time>
      </trkpt>
      <trkpt lat="47.2897" lon="6.21339">
        <ele>546.8</ele>
        <time>2022-09-12T09:27:22Z</time>
      </trkpt>
      <trkpt lat="47.28968" lon="6.21337">
        <ele>545.8</ele>
        <time>2022-09-12T09:27:20Z</time>
      </trkpt>
      <trkpt lat="47.28966" lon="6.21333">
        <ele>544.6</ele>
        <time>2022-09-12T09:27:18Z</time>
      </trkpt>
      <trkpt lat="47.28962" lon="6.21327">
        <ele>543.2</ele>
        <time>2022-09-12T09:27:15Z</time>
      </trkpt>
      <trkpt lat="47.28961" lon="6.21326">
        <ele>543</ele>
        <time>2022-09-12T09:27:14Z</time>
      </trkpt>
      <trkpt lat="47.28959" lon="6.21326">
        <ele>542.6</ele>
        <time>2022-09-12T09:27:13Z</time>
      </trkpt>
      <trkpt lat="47.28955" lon="6.21328">
        <ele>542.2</ele>
        <time>2022-09-12T09:27:11Z</time>
      </trkpt>
      <trkpt lat="47.28949" lon="6.2133">
        <ele>541.2</ele>
        <time>2022-09-12T09:27:09Z</time>
      </trkpt>
      <trkpt lat="47.28942" lon="6.21333">
        <ele>539.8</ele>
        <time>2022-09-12T09:27:07Z</time>
      </trkpt>
      <trkpt lat="47.28914" lon="6.21343">
        <ele>539</ele>
        <time>2022-09-12T09:26:59Z</time>
      </trkpt>
      <trkpt lat="47.28894" lon="6.21354">
        <ele>538.8</ele>
        <time>2022-09-12T09:26:54Z</time>
      </trkpt>
      <trkpt lat="47.28884" lon="6.21356">
        <ele>539.6</ele>
        <time>2022-09-12T09:26:51Z</time>
      </trkpt>
      <trkpt lat="47.28876" lon="6.21358">
        <ele>540.8</ele>
        <time>2022-09-12T09:26:48Z</time>
      </trkpt>
      <trkpt lat="47.28874" lon="6.21358">
        <ele>541.2</ele>
        <time>2022-09-12T09:26:47Z</time>
      </trkpt>
      <trkpt lat="47.2887" lon="6.2136">
        <ele>542</ele>
        <time>2022-09-12T09:26:45Z</time>
      </trkpt>
      <trkpt lat="47.28867" lon="6.21364">
        <ele>542.4</ele>
        <time>2022-09-12T09:26:44Z</time>
      </trkpt>
      <trkpt lat="47.28853" lon="6.21385">
        <ele>543.2</ele>
        <time>2022-09-12T09:26:39Z</time>
      </trkpt>
      <trkpt lat="47.28847" lon="6.21395">
        <ele>543.4</ele>
        <time>2022-09-12T09:26:36Z</time>
      </trkpt>
      <trkpt lat="47.28841" lon="6.21404">
        <ele>542.4</ele>
        <time>2022-09-12T09:26:33Z</time>
      </trkpt>
      <trkpt lat="47.28837" lon="6.21408">
        <ele>542.2</ele>
        <time>2022-09-12T09:26:31Z</time>
      </trkpt>
      <trkpt lat="47.28826" lon="6.21414">
        <ele>541</ele>
        <time>2022-09-12T09:26:27Z</time>
      </trkpt>
      <trkpt lat="47.2882" lon="6.21416">
        <ele>541.2</ele>
        <time>2022-09-12T09:26:24Z</time>
      </trkpt>
      <trkpt lat="47.28814" lon="6.21418">
        <ele>540</ele>
        <time>2022-09-12T09:26:09Z</time>
      </trkpt>
      <trkpt lat="47.28812" lon="6.21414">
        <ele>538.8</ele>
        <time>2022-09-12T09:26:07Z</time>
      </trkpt>
      <trkpt lat="47.28809" lon="6.21408">
        <ele>537.6</ele>
        <time>2022-09-12T09:26:05Z</time>
      </trkpt>
      <trkpt lat="47.28804" lon="6.21404">
        <ele>535.4</ele>
        <time>2022-09-12T09:26:03Z</time>
      </trkpt>
      <trkpt lat="47.288" lon="6.21398">
        <ele>534</ele>
        <time>2022-09-12T09:26:01Z</time>
      </trkpt>
      <trkpt lat="47.28797" lon="6.21395">
        <ele>533.8</ele>
        <time>2022-09-12T09:26:00Z</time>
      </trkpt>
      <trkpt lat="47.28792" lon="6.21384">
        <ele>532.2</ele>
        <time>2022-09-12T09:25:58Z</time>
      </trkpt>
      <trkpt lat="47.28791" lon="6.21376">
        <ele>530.8</ele>
        <time>2022-09-12T09:25:57Z</time>
      </trkpt>
      <trkpt lat="47.2879" lon="6.21367">
        <ele>529.4</ele>
        <time>2022-09-12T09:25:56Z</time>
      </trkpt>
      <trkpt lat="47.28783" lon="6.21335">
        <ele>527.4</ele>
        <time>2022-09-12T09:25:51Z</time>
      </trkpt>
      <trkpt lat="47.28776" lon="6.21309">
        <ele>528</ele>
        <time>2022-09-12T09:25:45Z</time>
      </trkpt>
      <trkpt lat="47.28767" lon="6.2129">
        <ele>528.8</ele>
        <time>2022-09-12T09:25:40Z</time>
      </trkpt>
      <trkpt lat="47.2876" lon="6.2127">
        <ele>528.2</ele>
        <time>2022-09-12T09:25:35Z</time>
      </trkpt>
      <trkpt lat="47.28752" lon="6.21241">
        <ele>529.2</ele>
        <time>2022-09-12T09:25:28Z</time>
      </trkpt>
      <trkpt lat="47.28751" lon="6.21232">
        <ele>529.4</ele>
        <time>2022-09-12T09:25:26Z</time>
      </trkpt>
      <trkpt lat="47.28748" lon="6.21215">
        <ele>530.2</ele>
        <time>2022-09-12T09:25:23Z</time>
      </trkpt>
      <trkpt lat="47.28746" lon="6.21202">
        <ele>530.6</ele>
        <time>2022-09-12T09:25:21Z</time>
      </trkpt>
      <trkpt lat="47.28746" lon="6.21189">
        <ele>531.2</ele>
        <time>2022-09-12T09:25:19Z</time>
      </trkpt>
      <trkpt lat="47.28746" lon="6.21183">
        <ele>531.6</ele>
        <time>2022-09-12T09:25:18Z</time>
      </trkpt>
      <trkpt lat="47.28746" lon="6.21165">
        <ele>532.4</ele>
        <time>2022-09-12T09:25:15Z</time>
      </trkpt>
      <trkpt lat="47.28745" lon="6.21146">
        <ele>533.4</ele>
        <time>2022-09-12T09:25:11Z</time>
      </trkpt>
      <trkpt lat="47.28743" lon="6.2113">
        <ele>534.6</ele>
        <time>2022-09-12T09:25:07Z</time>
      </trkpt>
      <trkpt lat="47.28741" lon="6.21126">
        <ele>535.2</ele>
        <time>2022-09-12T09:25:06Z</time>
      </trkpt>
      <trkpt lat="47.28739" lon="6.21121">
        <ele>535.8</ele>
        <time>2022-09-12T09:25:05Z</time>
      </trkpt>
      <trkpt lat="47.28735" lon="6.21113">
        <ele>537</ele>
        <time>2022-09-12T09:25:03Z</time>
      </trkpt>
      <trkpt lat="47.28731" lon="6.21099">
        <ele>538</ele>
        <time>2022-09-12T09:25:00Z</time>
      </trkpt>
      <trkpt lat="47.28729" lon="6.21083">
        <ele>538.4</ele>
        <time>2022-09-12T09:24:57Z</time>
      </trkpt>
      <trkpt lat="47.28726" lon="6.21068">
        <ele>539</ele>
        <time>2022-09-12T09:24:54Z</time>
      </trkpt>
      <trkpt lat="47.28724" lon="6.21063">
        <ele>539.4</ele>
        <time>2022-09-12T09:24:53Z</time>
      </trkpt>
      <trkpt lat="47.28718" lon="6.21053">
        <ele>540.2</ele>
        <time>2022-09-12T09:24:51Z</time>
      </trkpt>
      <trkpt lat="47.28715" lon="6.21046">
        <ele>540.8</ele>
        <time>2022-09-12T09:24:50Z</time>
      </trkpt>
      <trkpt lat="47.28711" lon="6.21041">
        <ele>541.4</ele>
        <time>2022-09-12T09:24:49Z</time>
      </trkpt>
      <trkpt lat="47.28707" lon="6.21035">
        <ele>541.8</ele>
        <time>2022-09-12T09:24:48Z</time>
      </trkpt>
      <trkpt lat="47.287" lon="6.21023">
        <ele>543</ele>
        <time>2022-09-12T09:24:46Z</time>
      </trkpt>
      <trkpt lat="47.28697" lon="6.21007">
        <ele>543.4</ele>
        <time>2022-09-12T09:24:44Z</time>
      </trkpt>
      <trkpt lat="47.28696" lon="6.20993">
        <ele>543.6</ele>
        <time>2022-09-12T09:24:42Z</time>
      </trkpt>
      <trkpt lat="47.28696" lon="6.20974">
        <ele>543.8</ele>
        <time>2022-09-12T09:24:39Z</time>
      </trkpt>
      <trkpt lat="47.28696" lon="6.20962">
        <ele>543.4</ele>
        <time>2022-09-12T09:24:37Z</time>
      </trkpt>
      <trkpt lat="47.28695" lon="6.20947">
        <ele>543.2</ele>
        <time>2022-09-12T09:24:35Z</time>
      </trkpt>
      <trkpt lat="47.2869" lon="6.20934">
        <ele>543.4</ele>
        <time>2022-09-12T09:24:33Z</time>
      </trkpt>
      <trkpt lat="47.28674" lon="6.2091">
        <ele>544.2</ele>
        <time>2022-09-12T09:24:28Z</time>
      </trkpt>
      <trkpt lat="47.28669" lon="6.20904">
        <ele>544</ele>
        <time>2022-09-12T09:24:26Z</time>
      </trkpt>
      <trkpt lat="47.28659" lon="6.2089">
        <ele>542.4</ele>
        <time>2022-09-12T09:24:22Z</time>
      </trkpt>
      <trkpt lat="47.28653" lon="6.20882">
        <ele>542.8</ele>
        <time>2022-09-12T09:24:20Z</time>
      </trkpt>
      <trkpt lat="47.28644" lon="6.20868">
        <ele>544.2</ele>
        <time>2022-09-12T09:24:16Z</time>
      </trkpt>
      <trkpt lat="47.2864" lon="6.20859">
        <ele>545.2</ele>
        <time>2022-09-12T09:24:13Z</time>
      </trkpt>
      <trkpt lat="47.28636" lon="6.2085">
        <ele>545.8</ele>
        <time>2022-09-12T09:24:10Z</time>
      </trkpt>
      <trkpt lat="47.28634" lon="6.20843">
        <ele>546.2</ele>
        <time>2022-09-12T09:24:08Z</time>
      </trkpt>
      <trkpt lat="47.2863" lon="6.20833">
        <ele>547.2</ele>
        <time>2022-09-12T09:24:05Z</time>
      </trkpt>
      <trkpt lat="47.28623" lon="6.20821">
        <ele>548.4</ele>
        <time>2022-09-12T09:24:02Z</time>
      </trkpt>
      <trkpt lat="47.28617" lon="6.20813">
        <ele>549.4</ele>
        <time>2022-09-12T09:24:00Z</time>
      </trkpt>
      <trkpt lat="47.28615" lon="6.2081">
        <ele>549.8</ele>
        <time>2022-09-12T09:23:59Z</time>
      </trkpt>
      <trkpt lat="47.2861" lon="6.20803">
        <ele>550.8</ele>
        <time>2022-09-12T09:23:56Z</time>
      </trkpt>
      <trkpt lat="47.28605" lon="6.20796">
        <ele>552</ele>
        <time>2022-09-12T09:23:53Z</time>
      </trkpt>
      <trkpt lat="47.286" lon="6.2079">
        <ele>552.2</ele>
        <time>2022-09-12T09:23:51Z</time>
      </trkpt>
      <trkpt lat="47.28594" lon="6.2078">
        <ele>552.6</ele>
        <time>2022-09-12T09:23:47Z</time>
      </trkpt>
      <trkpt lat="47.28584" lon="6.20755">
        <ele>552.2</ele>
        <time>2022-09-12T09:23:38Z</time>
      </trkpt>
      <trkpt lat="47.28582" lon="6.20749">
        <ele>552.2</ele>
        <time>2022-09-12T09:23:36Z</time>
      </trkpt>
      <trkpt lat="47.28574" lon="6.20736">
        <ele>552.6</ele>
        <time>2022-09-12T09:23:31Z</time>
      </trkpt>
      <trkpt lat="47.2857" lon="6.20731">
        <ele>552.2</ele>
        <time>2022-09-12T09:23:29Z</time>
      </trkpt>
      <trkpt lat="47.28563" lon="6.20721">
        <ele>551</ele>
        <time>2022-09-12T09:23:24Z</time>
      </trkpt>
      <trkpt lat="47.28557" lon="6.20714">
        <ele>550.8</ele>
        <time>2022-09-12T09:23:20Z</time>
      </trkpt>
      <trkpt lat="47.28552" lon="6.20704">
        <ele>550.4</ele>
        <time>2022-09-12T09:23:16Z</time>
      </trkpt>
      <trkpt lat="47.28548" lon="6.20698">
        <ele>549.8</ele>
        <time>2022-09-12T09:23:13Z</time>
      </trkpt>
      <trkpt lat="47.28544" lon="6.2069">
        <ele>548.4</ele>
        <time>2022-09-12T09:23:10Z</time>
      </trkpt>
      <trkpt lat="47.28542" lon="6.20686">
        <ele>547</ele>
        <time>2022-09-12T09:23:08Z</time>
      </trkpt>
      <trkpt lat="47.28541" lon="6.20685">
        <ele>546.4</ele>
        <time>2022-09-12T09:23:07Z</time>
      </trkpt>
      <trkpt lat="47.2854" lon="6.20682">
        <ele>545.8</ele>
        <time>2022-09-12T09:23:06Z</time>
      </trkpt>
      <trkpt lat="47.28537" lon="6.20679">
        <ele>544.8</ele>
        <time>2022-09-12T09:23:04Z</time>
      </trkpt>
      <trkpt lat="47.28531" lon="6.20675">
        <ele>543.8</ele>
        <time>2022-09-12T09:23:01Z</time>
      </trkpt>
      <trkpt lat="47.28529" lon="6.20673">
        <ele>543.4</ele>
        <time>2022-09-12T09:23:00Z</time>
      </trkpt>
      <trkpt lat="47.28525" lon="6.20669">
        <ele>542.2</ele>
        <time>2022-09-12T09:22:58Z</time>
      </trkpt>
      <trkpt lat="47.28521" lon="6.20665">
        <ele>541</ele>
        <time>2022-09-12T09:22:56Z</time>
      </trkpt>
      <trkpt lat="47.2852" lon="6.20664">
        <ele>540.4</ele>
        <time>2022-09-12T09:22:55Z</time>
      </trkpt>
      <trkpt lat="47.28518" lon="6.20663">
        <ele>539.8</ele>
        <time>2022-09-12T09:22:54Z</time>
      </trkpt>
      <trkpt lat="47.28514" lon="6.20658">
        <ele>538.4</ele>
        <time>2022-09-12T09:22:52Z</time>
      </trkpt>
      <trkpt lat="47.28514" lon="6.20657">
        <ele>538.2</ele>
        <time>2022-09-12T09:22:51Z</time>
      </trkpt>
      <trkpt lat="47.28509" lon="6.20648">
        <ele>537.4</ele>
        <time>2022-09-12T09:22:47Z</time>
      </trkpt>
      <trkpt lat="47.28506" lon="6.20642">
        <ele>536.2</ele>
        <time>2022-09-12T09:22:44Z</time>
      </trkpt>
      <trkpt lat="47.28503" lon="6.20635">
        <ele>534.6</ele>
        <time>2022-09-12T09:22:41Z</time>
      </trkpt>
      <trkpt lat="47.285" lon="6.20627">
        <ele>533</ele>
        <time>2022-09-12T09:22:38Z</time>
      </trkpt>
      <trkpt lat="47.28498" lon="6.20625">
        <ele>532.4</ele>
        <time>2022-09-12T09:22:37Z</time>
      </trkpt>
      <trkpt lat="47.28498" lon="6.20623">
        <ele>532</ele>
        <time>2022-09-12T09:22:36Z</time>
      </trkpt>
      <trkpt lat="47.28495" lon="6.20617">
        <ele>530.4</ele>
        <time>2022-09-12T09:22:34Z</time>
      </trkpt>
      <trkpt lat="47.28493" lon="6.20613">
        <ele>528.8</ele>
        <time>2022-09-12T09:22:32Z</time>
      </trkpt>
      <trkpt lat="47.2849" lon="6.20607">
        <ele>527</ele>
        <time>2022-09-12T09:22:30Z</time>
      </trkpt>
      <trkpt lat="47.28489" lon="6.20604">
        <ele>526.2</ele>
        <time>2022-09-12T09:22:29Z</time>
      </trkpt>
      <trkpt lat="47.28488" lon="6.20602">
        <ele>525.4</ele>
        <time>2022-09-12T09:22:28Z</time>
      </trkpt>
      <trkpt lat="47.28486" lon="6.20595">
        <ele>523.6</ele>
        <time>2022-09-12T09:22:26Z</time>
      </trkpt>
      <trkpt lat="47.28483" lon="6.20587">
        <ele>522.4</ele>
        <time>2022-09-12T09:22:23Z</time>
      </trkpt>
      <trkpt lat="47.2848" lon="6.2058">
        <ele>522.2</ele>
        <time>2022-09-12T09:22:20Z</time>
      </trkpt>
      <trkpt lat="47.28479" lon="6.20573">
        <ele>522.8</ele>
        <time>2022-09-12T09:22:17Z</time>
      </trkpt>
      <trkpt lat="47.28473" lon="6.20565">
        <ele>523.2</ele>
        <time>2022-09-12T09:22:13Z</time>
      </trkpt>
      <trkpt lat="47.28468" lon="6.20558">
        <ele>523</ele>
        <time>2022-09-12T09:22:10Z</time>
      </trkpt>
      <trkpt lat="47.28467" lon="6.20555">
        <ele>523</ele>
        <time>2022-09-12T09:22:09Z</time>
      </trkpt>
      <trkpt lat="47.28466" lon="6.20548">
        <ele>523.4</ele>
        <time>2022-09-12T09:22:06Z</time>
      </trkpt>
      <trkpt lat="47.28465" lon="6.20541">
        <ele>524.4</ele>
        <time>2022-09-12T09:22:03Z</time>
      </trkpt>
      <trkpt lat="47.28465" lon="6.20533">
        <ele>525.6</ele>
        <time>2022-09-12T09:22:00Z</time>
      </trkpt>
      <trkpt lat="47.28465" lon="6.20526">
        <ele>527</ele>
        <time>2022-09-12T09:21:57Z</time>
      </trkpt>
      <trkpt lat="47.28465" lon="6.20524">
        <ele>527.6</ele>
        <time>2022-09-12T09:21:56Z</time>
      </trkpt>
      <trkpt lat="47.28462" lon="6.20512">
        <ele>529.2</ele>
        <time>2022-09-12T09:21:51Z</time>
      </trkpt>
      <trkpt lat="47.28459" lon="6.20508">
        <ele>528.6</ele>
        <time>2022-09-12T09:21:49Z</time>
      </trkpt>
      <trkpt lat="47.28454" lon="6.20505">
        <ele>527.2</ele>
        <time>2022-09-12T09:21:47Z</time>
      </trkpt>
      <trkpt lat="47.28448" lon="6.20503">
        <ele>526.2</ele>
        <time>2022-09-12T09:21:45Z</time>
      </trkpt>
      <trkpt lat="47.28444" lon="6.20502">
        <ele>526</ele>
        <time>2022-09-12T09:21:43Z</time>
      </trkpt>
      <trkpt lat="47.28439" lon="6.20496">
        <ele>524.8</ele>
        <time>2022-09-12T09:19:50Z</time>
      </trkpt>
      <trkpt lat="47.28439" lon="6.20494">
        <ele>524.6</ele>
        <time>2022-09-12T09:19:49Z</time>
      </trkpt>
      <trkpt lat="47.28438" lon="6.20492">
        <ele>523.8</ele>
        <time>2022-09-12T09:19:48Z</time>
      </trkpt>
      <trkpt lat="47.28435" lon="6.20487">
        <ele>522.4</ele>
        <time>2022-09-12T09:19:45Z</time>
      </trkpt>
      <trkpt lat="47.28434" lon="6.20485">
        <ele>522</ele>
        <time>2022-09-12T09:19:44Z</time>
      </trkpt>
      <trkpt lat="47.28433" lon="6.2048">
        <ele>521.2</ele>
        <time>2022-09-12T09:19:42Z</time>
      </trkpt>
      <trkpt lat="47.2843" lon="6.20473">
        <ele>519.6</ele>
        <time>2022-09-12T09:19:39Z</time>
      </trkpt>
      <trkpt lat="47.28425" lon="6.20461">
        <ele>520.2</ele>
        <time>2022-09-12T09:19:33Z</time>
      </trkpt>
      <trkpt lat="47.28424" lon="6.2046">
        <ele>520.4</ele>
        <time>2022-09-12T09:19:32Z</time>
      </trkpt>
      <trkpt lat="47.2842" lon="6.20451">
        <ele>520.8</ele>
        <time>2022-09-12T09:19:28Z</time>
      </trkpt>
      <trkpt lat="47.28416" lon="6.20437">
        <ele>521.2</ele>
        <time>2022-09-12T09:19:19Z</time>
      </trkpt>
      <trkpt lat="47.28413" lon="6.20425">
        <ele>521.2</ele>
        <time>2022-09-12T09:19:13Z</time>
      </trkpt>
      <trkpt lat="47.28412" lon="6.20423">
        <ele>521.2</ele>
        <time>2022-09-12T09:19:12Z</time>
      </trkpt>
      <trkpt lat="47.28407" lon="6.20412">
        <ele>520.6</ele>
        <time>2022-09-12T09:19:06Z</time>
      </trkpt>
      <trkpt lat="47.28406" lon="6.2041">
        <ele>520.2</ele>
        <time>2022-09-12T09:19:05Z</time>
      </trkpt>
      <trkpt lat="47.28402" lon="6.20402">
        <ele>518.8</ele>
        <time>2022-09-12T09:19:01Z</time>
      </trkpt>
      <trkpt lat="47.28399" lon="6.20398">
        <ele>518.4</ele>
        <time>2022-09-12T09:18:59Z</time>
      </trkpt>
      <trkpt lat="47.28396" lon="6.2039">
        <ele>517.8</ele>
        <time>2022-09-12T09:18:55Z</time>
      </trkpt>
      <trkpt lat="47.28393" lon="6.20381">
        <ele>516.6</ele>
        <time>2022-09-12T09:18:51Z</time>
      </trkpt>
      <trkpt lat="47.28388" lon="6.2037">
        <ele>515.2</ele>
        <time>2022-09-12T09:18:47Z</time>
      </trkpt>
      <trkpt lat="47.28385" lon="6.20364">
        <ele>514</ele>
        <time>2022-09-12T09:18:44Z</time>
      </trkpt>
      <trkpt lat="47.2838" lon="6.20354">
        <ele>512.8</ele>
        <time>2022-09-12T09:18:40Z</time>
      </trkpt>
      <trkpt lat="47.28376" lon="6.20348">
        <ele>512</ele>
        <time>2022-09-12T09:18:37Z</time>
      </trkpt>
      <trkpt lat="47.28373" lon="6.20345">
        <ele>511.8</ele>
        <time>2022-09-12T09:18:35Z</time>
      </trkpt>
      <trkpt lat="47.28368" lon="6.20339">
        <ele>510.6</ele>
        <time>2022-09-12T09:18:32Z</time>
      </trkpt>
      <trkpt lat="47.28363" lon="6.20335">
        <ele>509</ele>
        <time>2022-09-12T09:18:29Z</time>
      </trkpt>
      <trkpt lat="47.28362" lon="6.20333">
        <ele>508.8</ele>
        <time>2022-09-12T09:18:28Z</time>
      </trkpt>
      <trkpt lat="47.28356" lon="6.20328">
        <ele>507.8</ele>
        <time>2022-09-12T09:18:25Z</time>
      </trkpt>
      <trkpt lat="47.2835" lon="6.2032">
        <ele>506.8</ele>
        <time>2022-09-12T09:18:21Z</time>
      </trkpt>
      <trkpt lat="47.28345" lon="6.20313">
        <ele>505.8</ele>
        <time>2022-09-12T09:18:18Z</time>
      </trkpt>
      <trkpt lat="47.2834" lon="6.20306">
        <ele>505.2</ele>
        <time>2022-09-12T09:18:15Z</time>
      </trkpt>
      <trkpt lat="47.28331" lon="6.2029">
        <ele>504.6</ele>
        <time>2022-09-12T09:18:09Z</time>
      </trkpt>
      <trkpt lat="47.28317" lon="6.20269">
        <ele>504.8</ele>
        <time>2022-09-12T09:18:02Z</time>
      </trkpt>
      <trkpt lat="47.28316" lon="6.20266">
        <ele>504.6</ele>
        <time>2022-09-12T09:18:01Z</time>
      </trkpt>
      <trkpt lat="47.28306" lon="6.20256">
        <ele>503.6</ele>
        <time>2022-09-12T09:17:56Z</time>
      </trkpt>
      <trkpt lat="47.28303" lon="6.20253">
        <ele>503.2</ele>
        <time>2022-09-12T09:17:55Z</time>
      </trkpt>
      <trkpt lat="47.28287" lon="6.20234">
        <ele>501.6</ele>
        <time>2022-09-12T09:17:49Z</time>
      </trkpt>
      <trkpt lat="47.2828" lon="6.20228">
        <ele>502.2</ele>
        <time>2022-09-12T09:17:46Z</time>
      </trkpt>
      <trkpt lat="47.28275" lon="6.20222">
        <ele>503.6</ele>
        <time>2022-09-12T09:17:43Z</time>
      </trkpt>
      <trkpt lat="47.28274" lon="6.20221">
        <ele>504.2</ele>
        <time>2022-09-12T09:17:42Z</time>
      </trkpt>
      <trkpt lat="47.28271" lon="6.20218">
        <ele>505</ele>
        <time>2022-09-12T09:17:40Z</time>
      </trkpt>
      <trkpt lat="47.28259" lon="6.20218">
        <ele>506.2</ele>
        <time>2022-09-12T09:17:29Z</time>
      </trkpt>
      <trkpt lat="47.28257" lon="6.20219">
        <ele>506.6</ele>
        <time>2022-09-12T09:17:28Z</time>
      </trkpt>
      <trkpt lat="47.28256" lon="6.2022">
        <ele>507.2</ele>
        <time>2022-09-12T09:17:27Z</time>
      </trkpt>
      <trkpt lat="47.2825" lon="6.20222">
        <ele>508.6</ele>
        <time>2022-09-12T09:17:24Z</time>
      </trkpt>
      <trkpt lat="47.28243" lon="6.20223">
        <ele>509.6</ele>
        <time>2022-09-12T09:17:21Z</time>
      </trkpt>
      <trkpt lat="47.28241" lon="6.20224">
        <ele>509.6</ele>
        <time>2022-09-12T09:17:20Z</time>
      </trkpt>
      <trkpt lat="47.28212" lon="6.20229">
        <ele>507.4</ele>
        <time>2022-09-12T09:16:16Z</time>
      </trkpt>
      <trkpt lat="47.28203" lon="6.20231">
        <ele>507.8</ele>
        <time>2022-09-12T09:16:12Z</time>
      </trkpt>
      <trkpt lat="47.28199" lon="6.20232">
        <ele>508.2</ele>
        <time>2022-09-12T09:16:11Z</time>
      </trkpt>
      <trkpt lat="47.28195" lon="6.20233">
        <ele>509</ele>
        <time>2022-09-12T09:16:10Z</time>
      </trkpt>
      <trkpt lat="47.28186" lon="6.20233">
        <ele>510.2</ele>
        <time>2022-09-12T09:16:08Z</time>
      </trkpt>
      <trkpt lat="47.28176" lon="6.20235">
        <ele>511.8</ele>
        <time>2022-09-12T09:16:06Z</time>
      </trkpt>
      <trkpt lat="47.2817" lon="6.20237">
        <ele>512.8</ele>
        <time>2022-09-12T09:16:04Z</time>
      </trkpt>
      <trkpt lat="47.28164" lon="6.20237">
        <ele>514.2</ele>
        <time>2022-09-12T09:16:01Z</time>
      </trkpt>
      <trkpt lat="47.28162" lon="6.20237">
        <ele>515</ele>
        <time>2022-09-12T09:15:59Z</time>
      </trkpt>
      <trkpt lat="47.28161" lon="6.20237">
        <ele>515.2</ele>
        <time>2022-09-12T09:15:58Z</time>
      </trkpt>
      <trkpt lat="47.28156" lon="6.20243">
        <ele>516.6</ele>
        <time>2022-09-12T09:15:27Z</time>
      </trkpt>
      <trkpt lat="47.28155" lon="6.2024">
        <ele>516.8</ele>
        <time>2022-09-12T09:15:26Z</time>
      </trkpt>
      <trkpt lat="47.28148" lon="6.20227">
        <ele>518</ele>
        <time>2022-09-12T09:15:21Z</time>
      </trkpt>
      <trkpt lat="47.2813" lon="6.20197">
        <ele>518.8</ele>
        <time>2022-09-12T09:15:13Z</time>
      </trkpt>
      <trkpt lat="47.28119" lon="6.20173">
        <ele>518.4</ele>
        <time>2022-09-12T09:15:06Z</time>
      </trkpt>
      <trkpt lat="47.28107" lon="6.20148">
        <ele>518.2</ele>
        <time>2022-09-12T09:14:58Z</time>
      </trkpt>
      <trkpt lat="47.28096" lon="6.20131">
        <ele>518</ele>
        <time>2022-09-12T09:14:51Z</time>
      </trkpt>
      <trkpt lat="47.28088" lon="6.20115">
        <ele>517</ele>
        <time>2022-09-12T09:14:45Z</time>
      </trkpt>
      <trkpt lat="47.28084" lon="6.20109">
        <ele>516.8</ele>
        <time>2022-09-12T09:14:43Z</time>
      </trkpt>
      <trkpt lat="47.28072" lon="6.20088">
        <ele>515.8</ele>
        <time>2022-09-12T09:14:36Z</time>
      </trkpt>
      <trkpt lat="47.28071" lon="6.20085">
        <ele>515.4</ele>
        <time>2022-09-12T09:14:35Z</time>
      </trkpt>
      <trkpt lat="47.28061" lon="6.20071">
        <ele>513.6</ele>
        <time>2022-09-12T09:14:28Z</time>
      </trkpt>
      <trkpt lat="47.28038" lon="6.20024">
        <ele>506.4</ele>
        <time>2022-09-12T09:13:57Z</time>
      </trkpt>
      <trkpt lat="47.28036" lon="6.20014">
        <ele>511.6</ele>
        <time>2022-09-12T09:13:44Z</time>
      </trkpt>
      <trkpt lat="47.28032" lon="6.20008">
        <ele>513</ele>
        <time>2022-09-12T09:13:42Z</time>
      </trkpt>
      <trkpt lat="47.28029" lon="6.20002">
        <ele>514.4</ele>
        <time>2022-09-12T09:13:40Z</time>
      </trkpt>
      <trkpt lat="47.28025" lon="6.19994">
        <ele>516.2</ele>
        <time>2022-09-12T09:13:38Z</time>
      </trkpt>
      <trkpt lat="47.28023" lon="6.1999">
        <ele>516.8</ele>
        <time>2022-09-12T09:13:37Z</time>
      </trkpt>
      <trkpt lat="47.2802" lon="6.19986">
        <ele>517.6</ele>
        <time>2022-09-12T09:13:36Z</time>
      </trkpt>
      <trkpt lat="47.28019" lon="6.19983">
        <ele>518.2</ele>
        <time>2022-09-12T09:13:35Z</time>
      </trkpt>
      <trkpt lat="47.28017" lon="6.19979">
        <ele>519.4</ele>
        <time>2022-09-12T09:13:33Z</time>
      </trkpt>
      <trkpt lat="47.28014" lon="6.19975">
        <ele>520</ele>
        <time>2022-09-12T09:13:31Z</time>
      </trkpt>
      <trkpt lat="47.28012" lon="6.19973">
        <ele>520.2</ele>
        <time>2022-09-12T09:13:30Z</time>
      </trkpt>
      <trkpt lat="47.28007" lon="6.19969">
        <ele>520.6</ele>
        <time>2022-09-12T09:13:28Z</time>
      </trkpt>
      <trkpt lat="47.28002" lon="6.19959">
        <ele>521.2</ele>
        <time>2022-09-12T09:13:25Z</time>
      </trkpt>
      <trkpt lat="47.28" lon="6.19953">
        <ele>522.2</ele>
        <time>2022-09-12T09:13:23Z</time>
      </trkpt>
      <trkpt lat="47.27989" lon="6.19936">
        <ele>524</ele>
        <time>2022-09-12T09:13:18Z</time>
      </trkpt>
      <trkpt lat="47.27979" lon="6.19915">
        <ele>523</ele>
        <time>2022-09-12T09:13:13Z</time>
      </trkpt>
      <trkpt lat="47.2797" lon="6.19898">
        <ele>523.4</ele>
        <time>2022-09-12T09:13:09Z</time>
      </trkpt>
      <trkpt lat="47.27966" lon="6.19892">
        <ele>524</ele>
        <time>2022-09-12T09:13:07Z</time>
      </trkpt>
      <trkpt lat="47.27958" lon="6.19871">
        <ele>524.6</ele>
        <time>2022-09-12T09:13:01Z</time>
      </trkpt>
      <trkpt lat="47.27945" lon="6.1985">
        <ele>524.6</ele>
        <time>2022-09-12T09:12:55Z</time>
      </trkpt>
      <trkpt lat="47.27941" lon="6.19843">
        <ele>523.8</ele>
        <time>2022-09-12T09:12:53Z</time>
      </trkpt>
      <trkpt lat="47.27935" lon="6.19832">
        <ele>523</ele>
        <time>2022-09-12T09:12:50Z</time>
      </trkpt>
      <trkpt lat="47.27926" lon="6.19817">
        <ele>524</ele>
        <time>2022-09-12T09:12:46Z</time>
      </trkpt>
      <trkpt lat="47.27916" lon="6.19796">
        <ele>523.2</ele>
        <time>2022-09-12T09:12:40Z</time>
      </trkpt>
      <trkpt lat="47.27912" lon="6.1979">
        <ele>523</ele>
        <time>2022-09-12T09:12:38Z</time>
      </trkpt>
      <trkpt lat="47.27907" lon="6.19778">
        <ele>522.6</ele>
        <time>2022-09-12T09:12:34Z</time>
      </trkpt>
      <trkpt lat="47.27895" lon="6.19758">
        <ele>521.8</ele>
        <time>2022-09-12T09:12:28Z</time>
      </trkpt>
      <trkpt lat="47.27893" lon="6.19754">
        <ele>521.4</ele>
        <time>2022-09-12T09:12:27Z</time>
      </trkpt>
      <trkpt lat="47.27889" lon="6.19743">
        <ele>520.6</ele>
        <time>2022-09-12T09:12:24Z</time>
      </trkpt>
      <trkpt lat="47.27887" lon="6.19733">
        <ele>519.4</ele>
        <time>2022-09-12T09:12:21Z</time>
      </trkpt>
      <trkpt lat="47.27885" lon="6.19726">
        <ele>518.8</ele>
        <time>2022-09-12T09:12:19Z</time>
      </trkpt>
      <trkpt lat="47.27878" lon="6.19707">
        <ele>518.8</ele>
        <time>2022-09-12T09:12:13Z</time>
      </trkpt>
      <trkpt lat="47.27873" lon="6.19697">
        <ele>518.2</ele>
        <time>2022-09-12T09:12:10Z</time>
      </trkpt>
      <trkpt lat="47.27871" lon="6.19692">
        <ele>517</ele>
        <time>2022-09-12T09:12:08Z</time>
      </trkpt>
      <trkpt lat="47.27871" lon="6.19689">
        <ele>516.8</ele>
        <time>2022-09-12T09:12:07Z</time>
      </trkpt>
      <trkpt lat="47.27866" lon="6.19669">
        <ele>515.8</ele>
        <time>2022-09-12T09:12:01Z</time>
      </trkpt>
      <trkpt lat="47.27858" lon="6.1965">
        <ele>515</ele>
        <time>2022-09-12T09:11:54Z</time>
      </trkpt>
      <trkpt lat="47.27854" lon="6.19641">
        <ele>514.6</ele>
        <time>2022-09-12T09:11:51Z</time>
      </trkpt>
      <trkpt lat="47.27849" lon="6.19629">
        <ele>513.8</ele>
        <time>2022-09-12T09:11:47Z</time>
      </trkpt>
      <trkpt lat="47.27838" lon="6.19608">
        <ele>514.4</ele>
        <time>2022-09-12T09:11:40Z</time>
      </trkpt>
      <trkpt lat="47.27835" lon="6.19599">
        <ele>513.6</ele>
        <time>2022-09-12T09:11:37Z</time>
      </trkpt>
      <trkpt lat="47.27832" lon="6.19589">
        <ele>512.2</ele>
        <time>2022-09-12T09:11:34Z</time>
      </trkpt>
      <trkpt lat="47.27826" lon="6.19571">
        <ele>511</ele>
        <time>2022-09-12T09:11:29Z</time>
      </trkpt>
      <trkpt lat="47.27822" lon="6.1956">
        <ele>510.2</ele>
        <time>2022-09-12T09:11:26Z</time>
      </trkpt>
      <trkpt lat="47.27821" lon="6.19557">
        <ele>509.8</ele>
        <time>2022-09-12T09:11:25Z</time>
      </trkpt>
      <trkpt lat="47.27816" lon="6.19547">
        <ele>508.8</ele>
        <time>2022-09-12T09:11:22Z</time>
      </trkpt>
      <trkpt lat="47.27812" lon="6.19539">
        <ele>507.8</ele>
        <time>2022-09-12T09:11:19Z</time>
      </trkpt>
      <trkpt lat="47.27808" lon="6.19527">
        <ele>507.6</ele>
        <time>2022-09-12T09:11:15Z</time>
      </trkpt>
      <trkpt lat="47.27805" lon="6.19521">
        <ele>507.2</ele>
        <time>2022-09-12T09:11:13Z</time>
      </trkpt>
      <trkpt lat="47.27803" lon="6.19515">
        <ele>506.4</ele>
        <time>2022-09-12T09:11:11Z</time>
      </trkpt>
      <trkpt lat="47.27795" lon="6.19498">
        <ele>505.2</ele>
        <time>2022-09-12T09:11:06Z</time>
      </trkpt>
      <trkpt lat="47.27785" lon="6.19472">
        <ele>504.6</ele>
        <time>2022-09-12T09:11:00Z</time>
      </trkpt>
      <trkpt lat="47.2778" lon="6.19462">
        <ele>505</ele>
        <time>2022-09-12T09:10:58Z</time>
      </trkpt>
      <trkpt lat="47.27771" lon="6.19443">
        <ele>506.6</ele>
        <time>2022-09-12T09:10:55Z</time>
      </trkpt>
      <trkpt lat="47.27768" lon="6.19437">
        <ele>506.8</ele>
        <time>2022-09-12T09:10:54Z</time>
      </trkpt>
      <trkpt lat="47.27762" lon="6.19422">
        <ele>507.8</ele>
        <time>2022-09-12T09:10:51Z</time>
      </trkpt>
      <trkpt lat="47.27759" lon="6.19415">
        <ele>508.6</ele>
        <time>2022-09-12T09:10:49Z</time>
      </trkpt>
      <trkpt lat="47.27759" lon="6.19411">
        <ele>509</ele>
        <time>2022-09-12T09:10:48Z</time>
      </trkpt>
      <trkpt lat="47.27754" lon="6.19395">
        <ele>510.4</ele>
        <time>2022-09-12T09:10:43Z</time>
      </trkpt>
      <trkpt lat="47.27746" lon="6.19379">
        <ele>510</ele>
        <time>2022-09-12T09:10:38Z</time>
      </trkpt>
      <trkpt lat="47.27745" lon="6.19376">
        <ele>510</ele>
        <time>2022-09-12T09:10:37Z</time>
      </trkpt>
      <trkpt lat="47.27741" lon="6.19364">
        <ele>509.2</ele>
        <time>2022-09-12T09:10:33Z</time>
      </trkpt>
      <trkpt lat="47.2774" lon="6.19361">
        <ele>509.4</ele>
        <time>2022-09-12T09:10:32Z</time>
      </trkpt>
      <trkpt lat="47.27739" lon="6.19356">
        <ele>508.8</ele>
        <time>2022-09-12T09:10:30Z</time>
      </trkpt>
      <trkpt lat="47.27737" lon="6.19349">
        <ele>509.8</ele>
        <time>2022-09-12T09:10:28Z</time>
      </trkpt>
      <trkpt lat="47.27734" lon="6.19343">
        <ele>510</ele>
        <time>2022-09-12T09:10:26Z</time>
      </trkpt>
      <trkpt lat="47.27731" lon="6.19336">
        <ele>511.2</ele>
        <time>2022-09-12T09:10:24Z</time>
      </trkpt>
      <trkpt lat="47.27724" lon="6.19321">
        <ele>512.4</ele>
        <time>2022-09-12T09:10:20Z</time>
      </trkpt>
      <trkpt lat="47.27715" lon="6.19299">
        <ele>513.6</ele>
        <time>2022-09-12T09:10:15Z</time>
      </trkpt>
      <trkpt lat="47.27713" lon="6.19295">
        <ele>514.4</ele>
        <time>2022-09-12T09:10:14Z</time>
      </trkpt>
      <trkpt lat="47.2771" lon="6.19289">
        <ele>515</ele>
        <time>2022-09-12T09:10:13Z</time>
      </trkpt>
      <trkpt lat="47.27706" lon="6.19277">
        <ele>516.6</ele>
        <time>2022-09-12T09:10:11Z</time>
      </trkpt>
      <trkpt lat="47.27703" lon="6.19266">
        <ele>518.4</ele>
        <time>2022-09-12T09:10:09Z</time>
      </trkpt>
      <trkpt lat="47.27701" lon="6.1926">
        <ele>519.2</ele>
        <time>2022-09-12T09:10:08Z</time>
      </trkpt>
      <trkpt lat="47.27699" lon="6.19254">
        <ele>520</ele>
        <time>2022-09-12T09:10:07Z</time>
      </trkpt>
      <trkpt lat="47.27698" lon="6.19248">
        <ele>521</ele>
        <time>2022-09-12T09:10:06Z</time>
      </trkpt>
      <trkpt lat="47.27696" lon="6.19242">
        <ele>522.2</ele>
        <time>2022-09-12T09:10:05Z</time>
      </trkpt>
      <trkpt lat="47.27695" lon="6.19236">
        <ele>523.2</ele>
        <time>2022-09-12T09:10:04Z</time>
      </trkpt>
      <trkpt lat="47.27694" lon="6.19231">
        <ele>524.4</ele>
        <time>2022-09-12T09:10:03Z</time>
      </trkpt>
      <trkpt lat="47.27692" lon="6.19227">
        <ele>525.4</ele>
        <time>2022-09-12T09:10:02Z</time>
      </trkpt>
      <trkpt lat="47.27691" lon="6.19222">
        <ele>527.4</ele>
        <time>2022-09-12T09:10:00Z</time>
      </trkpt>
      <trkpt lat="47.2769" lon="6.19215">
        <ele>529</ele>
        <time>2022-09-12T09:09:58Z</time>
      </trkpt>
      <trkpt lat="47.27686" lon="6.19197">
        <ele>530.4</ele>
        <time>2022-09-12T09:09:54Z</time>
      </trkpt>
      <trkpt lat="47.27685" lon="6.19194">
        <ele>530.6</ele>
        <time>2022-09-12T09:09:53Z</time>
      </trkpt>
      <trkpt lat="47.27683" lon="6.19187">
        <ele>530.6</ele>
        <time>2022-09-12T09:09:51Z</time>
      </trkpt>
      <trkpt lat="47.27681" lon="6.19181">
        <ele>529.8</ele>
        <time>2022-09-12T09:09:49Z</time>
      </trkpt>
      <trkpt lat="47.27682" lon="6.19178">
        <ele>529.6</ele>
        <time>2022-09-12T09:09:48Z</time>
      </trkpt>
      <trkpt lat="47.27681" lon="6.19176">
        <ele>530</ele>
        <time>2022-09-12T09:08:52Z</time>
      </trkpt>
      <trkpt lat="47.2768" lon="6.19174">
        <ele>530.2</ele>
        <time>2022-09-12T09:08:51Z</time>
      </trkpt>
      <trkpt lat="47.27676" lon="6.19162">
        <ele>531</ele>
        <time>2022-09-12T09:08:47Z</time>
      </trkpt>
      <trkpt lat="47.27675" lon="6.19157">
        <ele>531.4</ele>
        <time>2022-09-12T09:08:45Z</time>
      </trkpt>
      <trkpt lat="47.27669" lon="6.19146">
        <ele>531.6</ele>
        <time>2022-09-12T09:08:41Z</time>
      </trkpt>
      <trkpt lat="47.27664" lon="6.19136">
        <ele>532.4</ele>
        <time>2022-09-12T09:08:38Z</time>
      </trkpt>
      <trkpt lat="47.27661" lon="6.19131">
        <ele>533</ele>
        <time>2022-09-12T09:08:36Z</time>
      </trkpt>
      <trkpt lat="47.27658" lon="6.19124">
        <ele>533.4</ele>
        <time>2022-09-12T09:08:34Z</time>
      </trkpt>
      <trkpt lat="47.2765" lon="6.19107">
        <ele>534.6</ele>
        <time>2022-09-12T09:08:30Z</time>
      </trkpt>
      <trkpt lat="47.27649" lon="6.19103">
        <ele>535.2</ele>
        <time>2022-09-12T09:08:29Z</time>
      </trkpt>
      <trkpt lat="47.27642" lon="6.19085">
        <ele>536</ele>
        <time>2022-09-12T09:08:25Z</time>
      </trkpt>
      <trkpt lat="47.2764" lon="6.19079">
        <ele>536</ele>
        <time>2022-09-12T09:08:24Z</time>
      </trkpt>
      <trkpt lat="47.27633" lon="6.19056">
        <ele>537.2</ele>
        <time>2022-09-12T09:08:18Z</time>
      </trkpt>
      <trkpt lat="47.27628" lon="6.19038">
        <ele>537</ele>
        <time>2022-09-12T09:08:13Z</time>
      </trkpt>
      <trkpt lat="47.27628" lon="6.19035">
        <ele>536.4</ele>
        <time>2022-09-12T09:08:12Z</time>
      </trkpt>
      <trkpt lat="47.27626" lon="6.19022">
        <ele>535.4</ele>
        <time>2022-09-12T09:08:09Z</time>
      </trkpt>
      <trkpt lat="47.27625" lon="6.19019">
        <ele>535.4</ele>
        <time>2022-09-12T09:08:08Z</time>
      </trkpt>
      <trkpt lat="47.27623" lon="6.19013">
        <ele>535.8</ele>
        <time>2022-09-12T09:08:06Z</time>
      </trkpt>
      <trkpt lat="47.27618" lon="6.18996">
        <ele>536.8</ele>
        <time>2022-09-12T09:08:02Z</time>
      </trkpt>
      <trkpt lat="47.27616" lon="6.18992">
        <ele>537.2</ele>
        <time>2022-09-12T09:08:01Z</time>
      </trkpt>
      <trkpt lat="47.2761" lon="6.18972">
        <ele>538</ele>
        <time>2022-09-12T09:07:56Z</time>
      </trkpt>
      <trkpt lat="47.27604" lon="6.1895">
        <ele>538.2</ele>
        <time>2022-09-12T09:07:50Z</time>
      </trkpt>
      <trkpt lat="47.27603" lon="6.18947">
        <ele>538</ele>
        <time>2022-09-12T09:07:49Z</time>
      </trkpt>
      <trkpt lat="47.27601" lon="6.18928">
        <ele>537</ele>
        <time>2022-09-12T09:07:44Z</time>
      </trkpt>
      <trkpt lat="47.27601" lon="6.18925">
        <ele>537.2</ele>
        <time>2022-09-12T09:07:43Z</time>
      </trkpt>
      <trkpt lat="47.27592" lon="6.18903">
        <ele>536.4</ele>
        <time>2022-09-12T09:07:37Z</time>
      </trkpt>
      <trkpt lat="47.27588" lon="6.18885">
        <ele>536</ele>
        <time>2022-09-12T09:07:32Z</time>
      </trkpt>
      <trkpt lat="47.27584" lon="6.18876">
        <ele>536.2</ele>
        <time>2022-09-12T09:07:29Z</time>
      </trkpt>
      <trkpt lat="47.27581" lon="6.18867">
        <ele>536</ele>
        <time>2022-09-12T09:07:26Z</time>
      </trkpt>
      <trkpt lat="47.27576" lon="6.18857">
        <ele>535.2</ele>
        <time>2022-09-12T09:07:23Z</time>
      </trkpt>
      <trkpt lat="47.27573" lon="6.18849">
        <ele>534</ele>
        <time>2022-09-12T09:07:21Z</time>
      </trkpt>
      <trkpt lat="47.27572" lon="6.18846">
        <ele>532.6</ele>
        <time>2022-09-12T09:07:20Z</time>
      </trkpt>
      <trkpt lat="47.27571" lon="6.18842">
        <ele>531.4</ele>
        <time>2022-09-12T09:07:19Z</time>
      </trkpt>
      <trkpt lat="47.27569" lon="6.18841">
        <ele>531.2</ele>
        <time>2022-09-12T09:07:18Z</time>
      </trkpt>
      <trkpt lat="47.27567" lon="6.18837">
        <ele>529.8</ele>
        <time>2022-09-12T09:07:17Z</time>
      </trkpt>
      <trkpt lat="47.27566" lon="6.18833">
        <ele>528.4</ele>
        <time>2022-09-12T09:07:16Z</time>
      </trkpt>
      <trkpt lat="47.27565" lon="6.18824">
        <ele>526.4</ele>
        <time>2022-09-12T09:07:14Z</time>
      </trkpt>
      <trkpt lat="47.27554" lon="6.18805">
        <ele>526.6</ele>
        <time>2022-09-12T09:07:08Z</time>
      </trkpt>
      <trkpt lat="47.27546" lon="6.18783">
        <ele>527.8</ele>
        <time>2022-09-12T09:07:02Z</time>
      </trkpt>
      <trkpt lat="47.27541" lon="6.18767">
        <ele>528.4</ele>
        <time>2022-09-12T09:06:58Z</time>
      </trkpt>
      <trkpt lat="47.27535" lon="6.18744">
        <ele>527.4</ele>
        <time>2022-09-12T09:06:51Z</time>
      </trkpt>
      <trkpt lat="47.27534" lon="6.18738">
        <ele>527.8</ele>
        <time>2022-09-12T09:06:49Z</time>
      </trkpt>
      <trkpt lat="47.27528" lon="6.18724">
        <ele>528.8</ele>
        <time>2022-09-12T09:06:44Z</time>
      </trkpt>
      <trkpt lat="47.27521" lon="6.18706">
        <ele>530</ele>
        <time>2022-09-12T09:06:38Z</time>
      </trkpt>
      <trkpt lat="47.2752" lon="6.18702">
        <ele>530.4</ele>
        <time>2022-09-12T09:06:37Z</time>
      </trkpt>
      <trkpt lat="47.27516" lon="6.18693">
        <ele>531.2</ele>
        <time>2022-09-12T09:06:34Z</time>
      </trkpt>
      <trkpt lat="47.2751" lon="6.18675">
        <ele>531.8</ele>
        <time>2022-09-12T09:06:29Z</time>
      </trkpt>
      <trkpt lat="47.27507" lon="6.18668">
        <ele>532.2</ele>
        <time>2022-09-12T09:06:27Z</time>
      </trkpt>
      <trkpt lat="47.27499" lon="6.18655">
        <ele>533.6</ele>
        <time>2022-09-12T09:06:24Z</time>
      </trkpt>
      <trkpt lat="47.2749" lon="6.18641">
        <ele>535</ele>
        <time>2022-09-12T09:06:21Z</time>
      </trkpt>
      <trkpt lat="47.27483" lon="6.18625">
        <ele>536.4</ele>
        <time>2022-09-12T09:06:18Z</time>
      </trkpt>
      <trkpt lat="47.27481" lon="6.18619">
        <ele>537</ele>
        <time>2022-09-12T09:06:17Z</time>
      </trkpt>
      <trkpt lat="47.27477" lon="6.18607">
        <ele>537.8</ele>
        <time>2022-09-12T09:06:14Z</time>
      </trkpt>
      <trkpt lat="47.27471" lon="6.18593">
        <ele>539</ele>
        <time>2022-09-12T09:06:12Z</time>
      </trkpt>
      <trkpt lat="47.27464" lon="6.18578">
        <ele>540.4</ele>
        <time>2022-09-12T09:06:10Z</time>
      </trkpt>
      <trkpt lat="47.27459" lon="6.18564">
        <ele>541.6</ele>
        <time>2022-09-12T09:06:08Z</time>
      </trkpt>
      <trkpt lat="47.27457" lon="6.18558">
        <ele>542</ele>
        <time>2022-09-12T09:06:07Z</time>
      </trkpt>
      <trkpt lat="47.27451" lon="6.18545">
        <ele>543.2</ele>
        <time>2022-09-12T09:06:04Z</time>
      </trkpt>
      <trkpt lat="47.27448" lon="6.18538">
        <ele>544</ele>
        <time>2022-09-12T09:06:02Z</time>
      </trkpt>
      <trkpt lat="47.27445" lon="6.18531">
        <ele>544.4</ele>
        <time>2022-09-12T09:06:00Z</time>
      </trkpt>
      <trkpt lat="47.27441" lon="6.18518">
        <ele>545.4</ele>
        <time>2022-09-12T09:05:57Z</time>
      </trkpt>
      <trkpt lat="47.27439" lon="6.18514">
        <ele>545.8</ele>
        <time>2022-09-12T09:05:56Z</time>
      </trkpt>
      <trkpt lat="47.27435" lon="6.185">
        <ele>546.6</ele>
        <time>2022-09-12T09:05:53Z</time>
      </trkpt>
      <trkpt lat="47.27432" lon="6.18489">
        <ele>547</ele>
        <time>2022-09-12T09:05:50Z</time>
      </trkpt>
      <trkpt lat="47.27424" lon="6.18457">
        <ele>547.6</ele>
        <time>2022-09-12T09:05:43Z</time>
      </trkpt>
      <trkpt lat="47.27422" lon="6.18453">
        <ele>547.8</ele>
        <time>2022-09-12T09:05:42Z</time>
      </trkpt>
      <trkpt lat="47.27419" lon="6.18437">
        <ele>548.4</ele>
        <time>2022-09-12T09:05:38Z</time>
      </trkpt>
      <trkpt lat="47.27416" lon="6.18429">
        <ele>548.8</ele>
        <time>2022-09-12T09:05:36Z</time>
      </trkpt>
      <trkpt lat="47.27413" lon="6.18416">
        <ele>549.2</ele>
        <time>2022-09-12T09:05:34Z</time>
      </trkpt>
      <trkpt lat="47.2741" lon="6.18401">
        <ele>549.8</ele>
        <time>2022-09-12T09:05:32Z</time>
      </trkpt>
      <trkpt lat="47.27406" lon="6.18385">
        <ele>551</ele>
        <time>2022-09-12T09:05:30Z</time>
      </trkpt>
      <trkpt lat="47.27402" lon="6.18364">
        <ele>551</ele>
        <time>2022-09-12T09:05:25Z</time>
      </trkpt>
      <trkpt lat="47.27397" lon="6.18342">
        <ele>550.8</ele>
        <time>2022-09-12T09:05:19Z</time>
      </trkpt>
      <trkpt lat="47.2739" lon="6.18319">
        <ele>552</ele>
        <time>2022-09-12T09:05:13Z</time>
      </trkpt>
      <trkpt lat="47.27388" lon="6.18313">
        <ele>552.4</ele>
        <time>2022-09-12T09:05:12Z</time>
      </trkpt>
      <trkpt lat="47.27381" lon="6.18296">
        <ele>553.4</ele>
        <time>2022-09-12T09:05:09Z</time>
      </trkpt>
      <trkpt lat="47.27379" lon="6.18286">
        <ele>554</ele>
        <time>2022-09-12T09:05:07Z</time>
      </trkpt>
      <trkpt lat="47.27375" lon="6.18274">
        <ele>554.6</ele>
        <time>2022-09-12T09:05:04Z</time>
      </trkpt>
      <trkpt lat="47.27373" lon="6.18265">
        <ele>555.2</ele>
        <time>2022-09-12T09:05:02Z</time>
      </trkpt>
      <trkpt lat="47.2737" lon="6.18255">
        <ele>555.6</ele>
        <time>2022-09-12T09:05:00Z</time>
      </trkpt>
      <trkpt lat="47.27366" lon="6.18242">
        <ele>556.2</ele>
        <time>2022-09-12T09:04:57Z</time>
      </trkpt>
      <trkpt lat="47.27362" lon="6.18227">
        <ele>556.4</ele>
        <time>2022-09-12T09:04:52Z</time>
      </trkpt>
      <trkpt lat="47.27359" lon="6.18212">
        <ele>556.6</ele>
        <time>2022-09-12T09:04:48Z</time>
      </trkpt>
      <trkpt lat="47.27353" lon="6.18189">
        <ele>557</ele>
        <time>2022-09-12T09:04:44Z</time>
      </trkpt>
      <trkpt lat="47.27351" lon="6.18183">
        <ele>557</ele>
        <time>2022-09-12T09:04:43Z</time>
      </trkpt>
      <trkpt lat="47.27344" lon="6.18154">
        <ele>557.8</ele>
        <time>2022-09-12T09:04:37Z</time>
      </trkpt>
      <trkpt lat="47.27338" lon="6.18135">
        <ele>558</ele>
        <time>2022-09-12T09:04:32Z</time>
      </trkpt>
      <trkpt lat="47.27337" lon="6.18132">
        <ele>557.8</ele>
        <time>2022-09-12T09:04:31Z</time>
      </trkpt>
      <trkpt lat="47.27329" lon="6.18113">
        <ele>557.2</ele>
        <time>2022-09-12T09:04:25Z</time>
      </trkpt>
      <trkpt lat="47.27328" lon="6.1811">
        <ele>557</ele>
        <time>2022-09-12T09:04:24Z</time>
      </trkpt>
      <trkpt lat="47.27321" lon="6.18096">
        <ele>555.2</ele>
        <time>2022-09-12T09:04:02Z</time>
      </trkpt>
      <trkpt lat="47.27318" lon="6.18086">
        <ele>556.4</ele>
        <time>2022-09-12T09:03:58Z</time>
      </trkpt>
      <trkpt lat="47.27313" lon="6.18074">
        <ele>557</ele>
        <time>2022-09-12T09:03:54Z</time>
      </trkpt>
      <trkpt lat="47.27306" lon="6.1806">
        <ele>557.6</ele>
        <time>2022-09-12T09:03:49Z</time>
      </trkpt>
      <trkpt lat="47.27305" lon="6.18057">
        <ele>557.8</ele>
        <time>2022-09-12T09:03:48Z</time>
      </trkpt>
      <trkpt lat="47.273" lon="6.18046">
        <ele>558.8</ele>
        <time>2022-09-12T09:03:44Z</time>
      </trkpt>
      <trkpt lat="47.27297" lon="6.1804">
        <ele>559.8</ele>
        <time>2022-09-12T09:03:42Z</time>
      </trkpt>
      <trkpt lat="47.27294" lon="6.18035">
        <ele>560</ele>
        <time>2022-09-12T09:03:40Z</time>
      </trkpt>
      <trkpt lat="47.2729" lon="6.18024">
        <ele>561</ele>
        <time>2022-09-12T09:03:35Z</time>
      </trkpt>
      <trkpt lat="47.27248" lon="6.1795">
        <ele>557</ele>
        <time>2022-09-12T09:02:51Z</time>
      </trkpt>
      <trkpt lat="47.27243" lon="6.17945">
        <ele>557</ele>
        <time>2022-09-12T09:02:48Z</time>
      </trkpt>
      <trkpt lat="47.27237" lon="6.17937">
        <ele>556</ele>
        <time>2022-09-12T09:02:44Z</time>
      </trkpt>
      <trkpt lat="47.27227" lon="6.17925">
        <ele>555</ele>
        <time>2022-09-12T09:02:37Z</time>
      </trkpt>
      <trkpt lat="47.27206" lon="6.17898">
        <ele>551.2</ele>
        <time>2022-09-12T09:02:21Z</time>
      </trkpt>
      <trkpt lat="47.27202" lon="6.17892">
        <ele>550.6</ele>
        <time>2022-09-12T09:02:18Z</time>
      </trkpt>
      <trkpt lat="47.272" lon="6.17888">
        <ele>550.2</ele>
        <time>2022-09-12T09:02:16Z</time>
      </trkpt>
      <trkpt lat="47.27193" lon="6.17876">
        <ele>548.8</ele>
        <time>2022-09-12T09:02:10Z</time>
      </trkpt>
      <trkpt lat="47.27191" lon="6.17874">
        <ele>548.8</ele>
        <time>2022-09-12T09:02:09Z</time>
      </trkpt>
      <trkpt lat="47.27186" lon="6.17866">
        <ele>547.8</ele>
        <time>2022-09-12T09:02:05Z</time>
      </trkpt>
      <trkpt lat="47.27183" lon="6.17862">
        <ele>546.8</ele>
        <time>2022-09-12T09:02:03Z</time>
      </trkpt>
      <trkpt lat="47.2718" lon="6.17858">
        <ele>546</ele>
        <time>2022-09-12T09:02:01Z</time>
      </trkpt>
      <trkpt lat="47.27178" lon="6.17854">
        <ele>544.8</ele>
        <time>2022-09-12T09:01:59Z</time>
      </trkpt>
      <trkpt lat="47.27173" lon="6.1785">
        <ele>544.8</ele>
        <time>2022-09-12T09:01:56Z</time>
      </trkpt>
      <trkpt lat="47.27166" lon="6.17841">
        <ele>545.2</ele>
        <time>2022-09-12T09:01:52Z</time>
      </trkpt>
      <trkpt lat="47.27162" lon="6.17835">
        <ele>544.2</ele>
        <time>2022-09-12T09:01:49Z</time>
      </trkpt>
      <trkpt lat="47.2716" lon="6.17833">
        <ele>543.8</ele>
        <time>2022-09-12T09:01:48Z</time>
      </trkpt>
      <trkpt lat="47.27148" lon="6.17814">
        <ele>542.6</ele>
        <time>2022-09-12T09:01:38Z</time>
      </trkpt>
      <trkpt lat="47.27146" lon="6.17812">
        <ele>542.4</ele>
        <time>2022-09-12T09:01:37Z</time>
      </trkpt>
      <trkpt lat="47.27097" lon="6.17731">
        <ele>529.6</ele>
        <time>2022-09-12T09:00:49Z</time>
      </trkpt>
      <trkpt lat="47.27095" lon="6.17727">
        <ele>529.6</ele>
        <time>2022-09-12T09:00:47Z</time>
      </trkpt>
      <trkpt lat="47.27082" lon="6.1771">
        <ele>528.4</ele>
        <time>2022-09-12T09:00:36Z</time>
      </trkpt>
      <trkpt lat="47.27077" lon="6.17702">
        <ele>527.8</ele>
        <time>2022-09-12T09:00:32Z</time>
      </trkpt>
      <trkpt lat="47.27035" lon="6.17631">
        <ele>521.8</ele>
        <time>2022-09-12T08:59:52Z</time>
      </trkpt>
      <trkpt lat="47.27034" lon="6.17627">
        <ele>521.2</ele>
        <time>2022-09-12T08:59:50Z</time>
      </trkpt>
      <trkpt lat="47.27032" lon="6.1762">
        <ele>520.4</ele>
        <time>2022-09-12T08:59:47Z</time>
      </trkpt>
      <trkpt lat="47.27029" lon="6.17615">
        <ele>520</ele>
        <time>2022-09-12T08:59:44Z</time>
      </trkpt>
      <trkpt lat="47.27026" lon="6.17601">
        <ele>518.8</ele>
        <time>2022-09-12T08:59:38Z</time>
      </trkpt>
      <trkpt lat="47.27025" lon="6.17599">
        <ele>518.6</ele>
        <time>2022-09-12T08:59:37Z</time>
      </trkpt>
      <trkpt lat="47.27023" lon="6.17591">
        <ele>517.8</ele>
        <time>2022-09-12T08:59:33Z</time>
      </trkpt>
      <trkpt lat="47.27021" lon="6.1758">
        <ele>518.6</ele>
        <time>2022-09-12T08:59:18Z</time>
      </trkpt>
      <trkpt lat="47.2702" lon="6.17578">
        <ele>518.4</ele>
        <time>2022-09-12T08:59:17Z</time>
      </trkpt>
      <trkpt lat="47.27014" lon="6.17558">
        <ele>519.2</ele>
        <time>2022-09-12T08:59:06Z</time>
      </trkpt>
      <trkpt lat="47.27013" lon="6.17556">
        <ele>519.4</ele>
        <time>2022-09-12T08:59:05Z</time>
      </trkpt>
      <trkpt lat="47.27007" lon="6.17543">
        <ele>518.6</ele>
        <time>2022-09-12T08:58:59Z</time>
      </trkpt>
      <trkpt lat="47.27006" lon="6.1754">
        <ele>518.4</ele>
        <time>2022-09-12T08:58:58Z</time>
      </trkpt>
      <trkpt lat="47.26998" lon="6.17509">
        <ele>516.4</ele>
        <time>2022-09-12T08:58:41Z</time>
      </trkpt>
      <trkpt lat="47.26997" lon="6.17504">
        <ele>516.2</ele>
        <time>2022-09-12T08:58:39Z</time>
      </trkpt>
      <trkpt lat="47.26996" lon="6.17502">
        <ele>516</ele>
        <time>2022-09-12T08:58:38Z</time>
      </trkpt>
      <trkpt lat="47.26991" lon="6.17485">
        <ele>515.6</ele>
        <time>2022-09-12T08:58:29Z</time>
      </trkpt>
      <trkpt lat="47.26991" lon="6.17479">
        <ele>515.2</ele>
        <time>2022-09-12T08:58:26Z</time>
      </trkpt>
      <trkpt lat="47.26991" lon="6.17474">
        <ele>514.8</ele>
        <time>2022-09-12T08:58:23Z</time>
      </trkpt>
      <trkpt lat="47.2699" lon="6.1747">
        <ele>514.2</ele>
        <time>2022-09-12T08:58:21Z</time>
      </trkpt>
      <trkpt lat="47.26988" lon="6.17461">
        <ele>513.2</ele>
        <time>2022-09-12T08:58:17Z</time>
      </trkpt>
      <trkpt lat="47.26985" lon="6.17452">
        <ele>513.2</ele>
        <time>2022-09-12T08:58:13Z</time>
      </trkpt>
      <trkpt lat="47.26978" lon="6.17427">
        <ele>511.2</ele>
        <time>2022-09-12T08:57:59Z</time>
      </trkpt>
      <trkpt lat="47.26978" lon="6.17425">
        <ele>511</ele>
        <time>2022-09-12T08:57:58Z</time>
      </trkpt>
      <trkpt lat="47.26977" lon="6.17417">
        <ele>509.8</ele>
        <time>2022-09-12T08:57:54Z</time>
      </trkpt>
      <trkpt lat="47.26976" lon="6.17414">
        <ele>509.6</ele>
        <time>2022-09-12T08:57:52Z</time>
      </trkpt>
      <trkpt lat="47.26974" lon="6.17396">
        <ele>508.8</ele>
        <time>2022-09-12T08:57:45Z</time>
      </trkpt>
      <trkpt lat="47.26973" lon="6.17394">
        <ele>508.6</ele>
        <time>2022-09-12T08:57:44Z</time>
      </trkpt>
      <trkpt lat="47.26972" lon="6.17385">
        <ele>507.6</ele>
        <time>2022-09-12T08:57:39Z</time>
      </trkpt>
      <trkpt lat="47.26973" lon="6.17384">
        <ele>507.2</ele>
        <time>2022-09-12T08:57:38Z</time>
      </trkpt>
      <trkpt lat="47.26973" lon="6.1737">
        <ele>506.4</ele>
        <time>2022-09-12T08:57:31Z</time>
      </trkpt>
      <trkpt lat="47.26971" lon="6.17363">
        <ele>505.4</ele>
        <time>2022-09-12T08:57:28Z</time>
      </trkpt>
      <trkpt lat="47.2697" lon="6.17358">
        <ele>504.6</ele>
        <time>2022-09-12T08:57:25Z</time>
      </trkpt>
      <trkpt lat="47.26966" lon="6.17348">
        <ele>504.2</ele>
        <time>2022-09-12T08:57:19Z</time>
      </trkpt>
      <trkpt lat="47.26964" lon="6.17338">
        <ele>503</ele>
        <time>2022-09-12T08:57:15Z</time>
      </trkpt>
      <trkpt lat="47.26962" lon="6.17331">
        <ele>502</ele>
        <time>2022-09-12T08:57:12Z</time>
      </trkpt>
      <trkpt lat="47.26962" lon="6.1733">
        <ele>501.8</ele>
        <time>2022-09-12T08:57:11Z</time>
      </trkpt>
      <trkpt lat="47.26958" lon="6.17312">
        <ele>496.4</ele>
        <time>2022-09-12T08:57:01Z</time>
      </trkpt>
      <trkpt lat="47.26958" lon="6.17308">
        <ele>495.6</ele>
        <time>2022-09-12T08:56:59Z</time>
      </trkpt>
      <trkpt lat="47.26958" lon="6.17305">
        <ele>495.2</ele>
        <time>2022-09-12T08:56:58Z</time>
      </trkpt>
      <trkpt lat="47.26958" lon="6.17293">
        <ele>493.6</ele>
        <time>2022-09-12T08:56:52Z</time>
      </trkpt>
      <trkpt lat="47.26958" lon="6.1729">
        <ele>493.2</ele>
        <time>2022-09-12T08:56:51Z</time>
      </trkpt>
      <trkpt lat="47.26956" lon="6.17266">
        <ele>492.4</ele>
        <time>2022-09-12T08:56:39Z</time>
      </trkpt>
      <trkpt lat="47.26956" lon="6.17264">
        <ele>492.4</ele>
        <time>2022-09-12T08:56:38Z</time>
      </trkpt>
      <trkpt lat="47.26948" lon="6.17191">
        <ele>479.6</ele>
        <time>2022-09-12T08:55:59Z</time>
      </trkpt>
      <trkpt lat="47.26947" lon="6.17188">
        <ele>479.2</ele>
        <time>2022-09-12T08:55:58Z</time>
      </trkpt>
      <trkpt lat="47.26947" lon="6.17179">
        <ele>479</ele>
        <time>2022-09-12T08:55:52Z</time>
      </trkpt>
      <trkpt lat="47.26945" lon="6.17166">
        <ele>478.2</ele>
        <time>2022-09-12T08:55:44Z</time>
      </trkpt>
      <trkpt lat="47.26944" lon="6.17159">
        <ele>477</ele>
        <time>2022-09-12T08:55:40Z</time>
      </trkpt>
      <trkpt lat="47.26933" lon="6.17075">
        <ele>466.8</ele>
        <time>2022-09-12T08:54:55Z</time>
      </trkpt>
      <trkpt lat="47.26932" lon="6.17073">
        <ele>466.4</ele>
        <time>2022-09-12T08:54:54Z</time>
      </trkpt>
      <trkpt lat="47.26932" lon="6.17068">
        <ele>465.2</ele>
        <time>2022-09-12T08:54:52Z</time>
      </trkpt>
      <trkpt lat="47.2693" lon="6.17057">
        <ele>464</ele>
        <time>2022-09-12T08:54:46Z</time>
      </trkpt>
      <trkpt lat="47.2693" lon="6.17056">
        <ele>463.6</ele>
        <time>2022-09-12T08:54:45Z</time>
      </trkpt>
      <trkpt lat="47.2693" lon="6.17052">
        <ele>463</ele>
        <time>2022-09-12T08:54:43Z</time>
      </trkpt>
      <trkpt lat="47.2693" lon="6.17048">
        <ele>461.6</ele>
        <time>2022-09-12T08:54:41Z</time>
      </trkpt>
      <trkpt lat="47.2693" lon="6.17045">
        <ele>460.4</ele>
        <time>2022-09-12T08:54:39Z</time>
      </trkpt>
      <trkpt lat="47.26929" lon="6.17042">
        <ele>460</ele>
        <time>2022-09-12T08:54:38Z</time>
      </trkpt>
      <trkpt lat="47.26927" lon="6.17037">
        <ele>459.2</ele>
        <time>2022-09-12T08:54:36Z</time>
      </trkpt>
      <trkpt lat="47.26913" lon="6.16996">
        <ele>450.2</ele>
        <time>2022-09-12T08:54:17Z</time>
      </trkpt>
      <trkpt lat="47.26913" lon="6.16992">
        <ele>449.8</ele>
        <time>2022-09-12T08:54:15Z</time>
      </trkpt>
      <trkpt lat="47.26911" lon="6.16983">
        <ele>448.8</ele>
        <time>2022-09-12T08:54:10Z</time>
      </trkpt>
      <trkpt lat="47.26911" lon="6.16975">
        <ele>448.8</ele>
        <time>2022-09-12T08:54:07Z</time>
      </trkpt>
      <trkpt lat="47.26908" lon="6.16965">
        <ele>449</ele>
        <time>2022-09-12T08:54:00Z</time>
      </trkpt>
      <trkpt lat="47.26906" lon="6.16954">
        <ele>448.6</ele>
        <time>2022-09-12T08:53:54Z</time>
      </trkpt>
      <trkpt lat="47.26902" lon="6.16941">
        <ele>447.4</ele>
        <time>2022-09-12T08:53:48Z</time>
      </trkpt>
      <trkpt lat="47.26901" lon="6.16938">
        <ele>447</ele>
        <time>2022-09-12T08:53:47Z</time>
      </trkpt>
      <trkpt lat="47.26894" lon="6.16915">
        <ele>445.4</ele>
        <time>2022-09-12T08:53:39Z</time>
      </trkpt>
      <trkpt lat="47.26889" lon="6.16896">
        <ele>445.8</ele>
        <time>2022-09-12T08:53:32Z</time>
      </trkpt>
      <trkpt lat="47.26885" lon="6.16881">
        <ele>446.4</ele>
        <time>2022-09-12T08:53:26Z</time>
      </trkpt>
      <trkpt lat="47.26884" lon="6.16879">
        <ele>446.8</ele>
        <time>2022-09-12T08:53:25Z</time>
      </trkpt>
      <trkpt lat="47.2688" lon="6.16873">
        <ele>447.8</ele>
        <time>2022-09-12T08:53:22Z</time>
      </trkpt>
      <trkpt lat="47.26877" lon="6.16868">
        <ele>449</ele>
        <time>2022-09-12T08:53:20Z</time>
      </trkpt>
      <trkpt lat="47.26876" lon="6.16865">
        <ele>449.6</ele>
        <time>2022-09-12T08:53:19Z</time>
      </trkpt>
      <trkpt lat="47.26874" lon="6.16862">
        <ele>450.4</ele>
        <time>2022-09-12T08:53:18Z</time>
      </trkpt>
      <trkpt lat="47.26871" lon="6.16853">
        <ele>451.8</ele>
        <time>2022-09-12T08:53:16Z</time>
      </trkpt>
      <trkpt lat="47.26869" lon="6.16842">
        <ele>453.4</ele>
        <time>2022-09-12T08:53:14Z</time>
      </trkpt>
      <trkpt lat="47.26867" lon="6.16835">
        <ele>454.8</ele>
        <time>2022-09-12T08:53:12Z</time>
      </trkpt>
      <trkpt lat="47.26864" lon="6.16813">
        <ele>458.2</ele>
        <time>2022-09-12T08:52:46Z</time>
      </trkpt>
      <trkpt lat="47.26858" lon="6.16796">
        <ele>457.6</ele>
        <time>2022-09-12T08:52:40Z</time>
      </trkpt>
      <trkpt lat="47.26855" lon="6.16787">
        <ele>457.6</ele>
        <time>2022-09-12T08:52:36Z</time>
      </trkpt>
      <trkpt lat="47.26854" lon="6.16784">
        <ele>457.4</ele>
        <time>2022-09-12T08:52:35Z</time>
      </trkpt>
      <trkpt lat="47.26848" lon="6.16769">
        <ele>456.6</ele>
        <time>2022-09-12T08:52:29Z</time>
      </trkpt>
      <trkpt lat="47.26843" lon="6.16755">
        <ele>456.4</ele>
        <time>2022-09-12T08:52:23Z</time>
      </trkpt>
      <trkpt lat="47.26839" lon="6.16743">
        <ele>456.4</ele>
        <time>2022-09-12T08:52:19Z</time>
      </trkpt>
      <trkpt lat="47.26837" lon="6.16738">
        <ele>456.2</ele>
        <time>2022-09-12T08:52:17Z</time>
      </trkpt>
      <trkpt lat="47.26827" lon="6.16725">
        <ele>455.4</ele>
        <time>2022-09-12T08:52:10Z</time>
      </trkpt>
      <trkpt lat="47.26819" lon="6.16712">
        <ele>455.4</ele>
        <time>2022-09-12T08:52:04Z</time>
      </trkpt>
      <trkpt lat="47.26818" lon="6.16709">
        <ele>455.4</ele>
        <time>2022-09-12T08:52:03Z</time>
      </trkpt>
      <trkpt lat="47.26814" lon="6.16689">
        <ele>455.2</ele>
        <time>2022-09-12T08:51:56Z</time>
      </trkpt>
      <trkpt lat="47.26811" lon="6.16674">
        <ele>454.4</ele>
        <time>2022-09-12T08:51:51Z</time>
      </trkpt>
      <trkpt lat="47.26809" lon="6.1667">
        <ele>454</ele>
        <time>2022-09-12T08:51:49Z</time>
      </trkpt>
      <trkpt lat="47.26802" lon="6.16652">
        <ele>453.2</ele>
        <time>2022-09-12T08:51:42Z</time>
      </trkpt>
      <trkpt lat="47.26801" lon="6.1665">
        <ele>453</ele>
        <time>2022-09-12T08:51:41Z</time>
      </trkpt>
      <trkpt lat="47.26795" lon="6.16635">
        <ele>452.4</ele>
        <time>2022-09-12T08:51:35Z</time>
      </trkpt>
      <trkpt lat="47.26786" lon="6.16622">
        <ele>452</ele>
        <time>2022-09-12T08:51:29Z</time>
      </trkpt>
      <trkpt lat="47.26784" lon="6.1662">
        <ele>451.8</ele>
        <time>2022-09-12T08:51:28Z</time>
      </trkpt>
      <trkpt lat="47.26776" lon="6.16607">
        <ele>451.8</ele>
        <time>2022-09-12T08:51:22Z</time>
      </trkpt>
      <trkpt lat="47.26768" lon="6.16587">
        <ele>451</ele>
        <time>2022-09-12T08:51:15Z</time>
      </trkpt>
      <trkpt lat="47.26762" lon="6.16576">
        <ele>451</ele>
        <time>2022-09-12T08:51:11Z</time>
      </trkpt>
      <trkpt lat="47.26757" lon="6.16566">
        <ele>450.4</ele>
        <time>2022-09-12T08:51:07Z</time>
      </trkpt>
      <trkpt lat="47.26754" lon="6.16557">
        <ele>449.8</ele>
        <time>2022-09-12T08:51:04Z</time>
      </trkpt>
      <trkpt lat="47.26748" lon="6.16543">
        <ele>449.4</ele>
        <time>2022-09-12T08:50:59Z</time>
      </trkpt>
      <trkpt lat="47.26738" lon="6.16523">
        <ele>449.2</ele>
        <time>2022-09-12T08:50:51Z</time>
      </trkpt>
      <trkpt lat="47.2673" lon="6.16505">
        <ele>448.8</ele>
        <time>2022-09-12T08:50:44Z</time>
      </trkpt>
      <trkpt lat="47.26729" lon="6.16502">
        <ele>448.6</ele>
        <time>2022-09-12T08:50:43Z</time>
      </trkpt>
      <trkpt lat="47.26721" lon="6.16484">
        <ele>447.8</ele>
        <time>2022-09-12T08:50:36Z</time>
      </trkpt>
      <trkpt lat="47.2672" lon="6.16482">
        <ele>447.6</ele>
        <time>2022-09-12T08:50:35Z</time>
      </trkpt>
      <trkpt lat="47.26709" lon="6.16462">
        <ele>447.4</ele>
        <time>2022-09-12T08:50:27Z</time>
      </trkpt>
      <trkpt lat="47.26701" lon="6.16447">
        <ele>446.6</ele>
        <time>2022-09-12T08:50:21Z</time>
      </trkpt>
      <trkpt lat="47.267" lon="6.16442">
        <ele>446.2</ele>
        <time>2022-09-12T08:50:19Z</time>
      </trkpt>
      <trkpt lat="47.26696" lon="6.16434">
        <ele>445.4</ele>
        <time>2022-09-12T08:50:16Z</time>
      </trkpt>
      <trkpt lat="47.26692" lon="6.16424">
        <ele>444.4</ele>
        <time>2022-09-12T08:50:12Z</time>
      </trkpt>
      <trkpt lat="47.26691" lon="6.16422">
        <ele>444.2</ele>
        <time>2022-09-12T08:50:11Z</time>
      </trkpt>
      <trkpt lat="47.26689" lon="6.16417">
        <ele>443.4</ele>
        <time>2022-09-12T08:50:09Z</time>
      </trkpt>
      <trkpt lat="47.26686" lon="6.16406">
        <ele>442.6</ele>
        <time>2022-09-12T08:50:05Z</time>
      </trkpt>
      <trkpt lat="47.26684" lon="6.16401">
        <ele>442.2</ele>
        <time>2022-09-12T08:50:03Z</time>
      </trkpt>
      <trkpt lat="47.26682" lon="6.16395">
        <ele>441</ele>
        <time>2022-09-12T08:50:00Z</time>
      </trkpt>
      <trkpt lat="47.26682" lon="6.16392">
        <ele>440.4</ele>
        <time>2022-09-12T08:49:59Z</time>
      </trkpt>
      <trkpt lat="47.26681" lon="6.1639">
        <ele>439.8</ele>
        <time>2022-09-12T08:49:58Z</time>
      </trkpt>
      <trkpt lat="47.26669" lon="6.16342">
        <ele>436.4</ele>
        <time>2022-09-12T08:48:47Z</time>
      </trkpt>
      <trkpt lat="47.26666" lon="6.16331">
        <ele>437.6</ele>
        <time>2022-09-12T08:48:26Z</time>
      </trkpt>
      <trkpt lat="47.26665" lon="6.16327">
        <ele>437.6</ele>
        <time>2022-09-12T08:48:24Z</time>
      </trkpt>
      <trkpt lat="47.26661" lon="6.16317">
        <ele>437.6</ele>
        <time>2022-09-12T08:48:20Z</time>
      </trkpt>
      <trkpt lat="47.2666" lon="6.16316">
        <ele>437.8</ele>
        <time>2022-09-12T08:48:19Z</time>
      </trkpt>
      <trkpt lat="47.26652" lon="6.16319">
        <ele>438.8</ele>
        <time>2022-09-12T08:48:12Z</time>
      </trkpt>
      <trkpt lat="47.26643" lon="6.16324">
        <ele>438.8</ele>
        <time>2022-09-12T08:48:06Z</time>
      </trkpt>
      <trkpt lat="47.26638" lon="6.16326">
        <ele>438.6</ele>
        <time>2022-09-12T08:48:03Z</time>
      </trkpt>
      <trkpt lat="47.26632" lon="6.16329">
        <ele>438.2</ele>
        <time>2022-09-12T08:47:59Z</time>
      </trkpt>
      <trkpt lat="47.26628" lon="6.16331">
        <ele>437.6</ele>
        <time>2022-09-12T08:47:56Z</time>
      </trkpt>
      <trkpt lat="47.26622" lon="6.16334">
        <ele>436.4</ele>
        <time>2022-09-12T08:47:51Z</time>
      </trkpt>
      <trkpt lat="47.26617" lon="6.16334">
        <ele>435.4</ele>
        <time>2022-09-12T08:47:47Z</time>
      </trkpt>
      <trkpt lat="47.26612" lon="6.16337">
        <ele>434.6</ele>
        <time>2022-09-12T08:47:44Z</time>
      </trkpt>
      <trkpt lat="47.26611" lon="6.16337">
        <ele>434.2</ele>
        <time>2022-09-12T08:47:43Z</time>
      </trkpt>
      <trkpt lat="47.26603" lon="6.16339">
        <ele>433.2</ele>
        <time>2022-09-12T08:47:38Z</time>
      </trkpt>
      <trkpt lat="47.26601" lon="6.16339">
        <ele>433.2</ele>
        <time>2022-09-12T08:47:37Z</time>
      </trkpt>
      <trkpt lat="47.2659" lon="6.16341">
        <ele>432.2</ele>
        <time>2022-09-12T08:47:30Z</time>
      </trkpt>
      <trkpt lat="47.26577" lon="6.16343">
        <ele>432</ele>
        <time>2022-09-12T08:47:22Z</time>
      </trkpt>
      <trkpt lat="47.26568" lon="6.16342">
        <ele>432</ele>
        <time>2022-09-12T08:47:18Z</time>
      </trkpt>
      <trkpt lat="47.26552" lon="6.16342">
        <ele>432.2</ele>
        <time>2022-09-12T08:47:15Z</time>
      </trkpt>
      <trkpt lat="47.2654" lon="6.16339">
        <ele>432.8</ele>
        <time>2022-09-12T08:47:13Z</time>
      </trkpt>
      <trkpt lat="47.26512" lon="6.16337">
        <ele>434.2</ele>
        <time>2022-09-12T08:47:08Z</time>
      </trkpt>
      <trkpt lat="47.26495" lon="6.16335">
        <ele>433.8</ele>
        <time>2022-09-12T08:47:03Z</time>
      </trkpt>
      <trkpt lat="47.26483" lon="6.16335">
        <ele>433.4</ele>
        <time>2022-09-12T08:46:59Z</time>
      </trkpt>
      <trkpt lat="47.26475" lon="6.16337">
        <ele>432.2</ele>
        <time>2022-09-12T08:46:56Z</time>
      </trkpt>
      <trkpt lat="47.2647" lon="6.16337">
        <ele>431.2</ele>
        <time>2022-09-12T08:46:54Z</time>
      </trkpt>
      <trkpt lat="47.26463" lon="6.16337">
        <ele>429.8</ele>
        <time>2022-09-12T08:46:51Z</time>
      </trkpt>
      <trkpt lat="47.2646" lon="6.16339">
        <ele>429</ele>
        <time>2022-09-12T08:46:49Z</time>
      </trkpt>
      <trkpt lat="47.26456" lon="6.1634">
        <ele>428.4</ele>
        <time>2022-09-12T08:46:47Z</time>
      </trkpt>
      <trkpt lat="47.26452" lon="6.16344">
        <ele>427.4</ele>
        <time>2022-09-12T08:46:44Z</time>
      </trkpt>
      <trkpt lat="47.26449" lon="6.16345">
        <ele>426.6</ele>
        <time>2022-09-12T08:46:42Z</time>
      </trkpt>
      <trkpt lat="47.26448" lon="6.16345">
        <ele>426</ele>
        <time>2022-09-12T08:46:41Z</time>
      </trkpt>
      <trkpt lat="47.26444" lon="6.16348">
        <ele>425</ele>
        <time>2022-09-12T08:46:38Z</time>
      </trkpt>
      <trkpt lat="47.26438" lon="6.16349">
        <ele>423.8</ele>
        <time>2022-09-12T08:46:35Z</time>
      </trkpt>
      <trkpt lat="47.26437" lon="6.1635">
        <ele>423.4</ele>
        <time>2022-09-12T08:46:34Z</time>
      </trkpt>
      <trkpt lat="47.26433" lon="6.16351">
        <ele>422.8</ele>
        <time>2022-09-12T08:46:32Z</time>
      </trkpt>
      <trkpt lat="47.26423" lon="6.16356">
        <ele>422</ele>
        <time>2022-09-12T08:46:28Z</time>
      </trkpt>
      <trkpt lat="47.26399" lon="6.16369">
        <ele>421.2</ele>
        <time>2022-09-12T08:46:21Z</time>
      </trkpt>
      <trkpt lat="47.2638" lon="6.1638">
        <ele>421.6</ele>
        <time>2022-09-12T08:46:16Z</time>
      </trkpt>
      <trkpt lat="47.26363" lon="6.16392">
        <ele>421.6</ele>
        <time>2022-09-12T08:46:11Z</time>
      </trkpt>
      <trkpt lat="47.26351" lon="6.16397">
        <ele>421.2</ele>
        <time>2022-09-12T08:46:07Z</time>
      </trkpt>
      <trkpt lat="47.26341" lon="6.16395">
        <ele>421.6</ele>
        <time>2022-09-12T08:46:04Z</time>
      </trkpt>
      <trkpt lat="47.26338" lon="6.16393">
        <ele>421.8</ele>
        <time>2022-09-12T08:46:03Z</time>
      </trkpt>
      <trkpt lat="47.26332" lon="6.16386">
        <ele>422.6</ele>
        <time>2022-09-12T08:46:01Z</time>
      </trkpt>
      <trkpt lat="47.26323" lon="6.16373">
        <ele>424.2</ele>
        <time>2022-09-12T08:45:58Z</time>
      </trkpt>
      <trkpt lat="47.26319" lon="6.16369">
        <ele>424.6</ele>
        <time>2022-09-12T08:45:57Z</time>
      </trkpt>
      <trkpt lat="47.26313" lon="6.16359">
        <ele>425.4</ele>
        <time>2022-09-12T08:45:55Z</time>
      </trkpt>
      <trkpt lat="47.26307" lon="6.1635">
        <ele>425.8</ele>
        <time>2022-09-12T08:45:53Z</time>
      </trkpt>
      <trkpt lat="47.26302" lon="6.16338">
        <ele>426.4</ele>
        <time>2022-09-12T08:45:51Z</time>
      </trkpt>
      <trkpt lat="47.26292" lon="6.16315">
        <ele>427.4</ele>
        <time>2022-09-12T08:45:48Z</time>
      </trkpt>
      <trkpt lat="47.26288" lon="6.16307">
        <ele>427.6</ele>
        <time>2022-09-12T08:45:47Z</time>
      </trkpt>
      <trkpt lat="47.26279" lon="6.16283">
        <ele>428.4</ele>
        <time>2022-09-12T08:45:44Z</time>
      </trkpt>
      <trkpt lat="47.26272" lon="6.16266">
        <ele>428.4</ele>
        <time>2022-09-12T08:45:42Z</time>
      </trkpt>
      <trkpt lat="47.26264" lon="6.16247">
        <ele>428.2</ele>
        <time>2022-09-12T08:45:40Z</time>
      </trkpt>
      <trkpt lat="47.26258" lon="6.16238">
        <ele>428.2</ele>
        <time>2022-09-12T08:45:39Z</time>
      </trkpt>
      <trkpt lat="47.26247" lon="6.16228">
        <ele>428.4</ele>
        <time>2022-09-12T08:45:37Z</time>
      </trkpt>
      <trkpt lat="47.26235" lon="6.16224">
        <ele>428.8</ele>
        <time>2022-09-12T08:45:35Z</time>
      </trkpt>
      <trkpt lat="47.26222" lon="6.16221">
        <ele>429.6</ele>
        <time>2022-09-12T08:45:33Z</time>
      </trkpt>
      <trkpt lat="47.26216" lon="6.1622">
        <ele>429.8</ele>
        <time>2022-09-12T08:45:32Z</time>
      </trkpt>
      <trkpt lat="47.26204" lon="6.16218">
        <ele>430.6</ele>
        <time>2022-09-12T08:45:30Z</time>
      </trkpt>
      <trkpt lat="47.26192" lon="6.16214">
        <ele>431.2</ele>
        <time>2022-09-12T08:45:28Z</time>
      </trkpt>
      <trkpt lat="47.26172" lon="6.16202">
        <ele>432.4</ele>
        <time>2022-09-12T08:45:25Z</time>
      </trkpt>
      <trkpt lat="47.26166" lon="6.16198">
        <ele>433</ele>
        <time>2022-09-12T08:45:24Z</time>
      </trkpt>
      <trkpt lat="47.26139" lon="6.16168">
        <ele>433.8</ele>
        <time>2022-09-12T08:45:19Z</time>
      </trkpt>
      <trkpt lat="47.26134" lon="6.16161">
        <ele>434</ele>
        <time>2022-09-12T08:45:18Z</time>
      </trkpt>
      <trkpt lat="47.2613" lon="6.16153">
        <ele>434.2</ele>
        <time>2022-09-12T08:45:17Z</time>
      </trkpt>
      <trkpt lat="47.26121" lon="6.16137">
        <ele>434.8</ele>
        <time>2022-09-12T08:45:15Z</time>
      </trkpt>
      <trkpt lat="47.2611" lon="6.16109">
        <ele>436</ele>
        <time>2022-09-12T08:45:12Z</time>
      </trkpt>
      <trkpt lat="47.26099" lon="6.16079">
        <ele>437.2</ele>
        <time>2022-09-12T08:45:09Z</time>
      </trkpt>
      <trkpt lat="47.26092" lon="6.16058">
        <ele>438.2</ele>
        <time>2022-09-12T08:45:07Z</time>
      </trkpt>
      <trkpt lat="47.26088" lon="6.16048">
        <ele>438.4</ele>
        <time>2022-09-12T08:45:06Z</time>
      </trkpt>
      <trkpt lat="47.26077" lon="6.16007">
        <ele>439.6</ele>
        <time>2022-09-12T08:45:02Z</time>
      </trkpt>
      <trkpt lat="47.26065" lon="6.15977">
        <ele>441</ele>
        <time>2022-09-12T08:44:59Z</time>
      </trkpt>
      <trkpt lat="47.26055" lon="6.15958">
        <ele>442</ele>
        <time>2022-09-12T08:44:57Z</time>
      </trkpt>
      <trkpt lat="47.26046" lon="6.15938">
        <ele>442.6</ele>
        <time>2022-09-12T08:44:55Z</time>
      </trkpt>
      <trkpt lat="47.26041" lon="6.15927">
        <ele>443.2</ele>
        <time>2022-09-12T08:44:54Z</time>
      </trkpt>
      <trkpt lat="47.26032" lon="6.15903">
        <ele>444.6</ele>
        <time>2022-09-12T08:44:52Z</time>
      </trkpt>
      <trkpt lat="47.26023" lon="6.1588">
        <ele>446</ele>
        <time>2022-09-12T08:44:50Z</time>
      </trkpt>
      <trkpt lat="47.26015" lon="6.15855">
        <ele>447.4</ele>
        <time>2022-09-12T08:44:48Z</time>
      </trkpt>
      <trkpt lat="47.26007" lon="6.15827">
        <ele>449.8</ele>
        <time>2022-09-12T08:44:46Z</time>
      </trkpt>
      <trkpt lat="47.26003" lon="6.158">
        <ele>451.2</ele>
        <time>2022-09-12T08:44:44Z</time>
      </trkpt>
      <trkpt lat="47.25998" lon="6.15777">
        <ele>452.6</ele>
        <time>2022-09-12T08:44:42Z</time>
      </trkpt>
      <trkpt lat="47.25996" lon="6.15755">
        <ele>454</ele>
        <time>2022-09-12T08:44:40Z</time>
      </trkpt>
      <trkpt lat="47.25995" lon="6.15718">
        <ele>455.6</ele>
        <time>2022-09-12T08:44:37Z</time>
      </trkpt>
      <trkpt lat="47.25995" lon="6.15694">
        <ele>457.2</ele>
        <time>2022-09-12T08:44:35Z</time>
      </trkpt>
      <trkpt lat="47.25995" lon="6.1567">
        <ele>458.4</ele>
        <time>2022-09-12T08:44:33Z</time>
      </trkpt>
      <trkpt lat="47.25995" lon="6.15645">
        <ele>460</ele>
        <time>2022-09-12T08:44:31Z</time>
      </trkpt>
      <trkpt lat="47.25996" lon="6.15632">
        <ele>461.4</ele>
        <time>2022-09-12T08:44:30Z</time>
      </trkpt>
      <trkpt lat="47.25996" lon="6.15619">
        <ele>462.2</ele>
        <time>2022-09-12T08:44:29Z</time>
      </trkpt>
      <trkpt lat="47.25998" lon="6.15593">
        <ele>463.6</ele>
        <time>2022-09-12T08:44:27Z</time>
      </trkpt>
      <trkpt lat="47.26002" lon="6.1557">
        <ele>465</ele>
        <time>2022-09-12T08:44:25Z</time>
      </trkpt>
      <trkpt lat="47.26006" lon="6.15548">
        <ele>466.2</ele>
        <time>2022-09-12T08:44:23Z</time>
      </trkpt>
      <trkpt lat="47.26009" lon="6.15527">
        <ele>467.4</ele>
        <time>2022-09-12T08:44:21Z</time>
      </trkpt>
      <trkpt lat="47.26012" lon="6.15508">
        <ele>468.6</ele>
        <time>2022-09-12T08:44:19Z</time>
      </trkpt>
      <trkpt lat="47.26017" lon="6.15482">
        <ele>469.8</ele>
        <time>2022-09-12T08:44:16Z</time>
      </trkpt>
      <trkpt lat="47.26018" lon="6.15473">
        <ele>471.4</ele>
        <time>2022-09-12T08:44:15Z</time>
      </trkpt>
      <trkpt lat="47.2602" lon="6.15464">
        <ele>472</ele>
        <time>2022-09-12T08:44:14Z</time>
      </trkpt>
      <trkpt lat="47.26023" lon="6.15455">
        <ele>472.6</ele>
        <time>2022-09-12T08:44:13Z</time>
      </trkpt>
      <trkpt lat="47.2603" lon="6.15437">
        <ele>473.8</ele>
        <time>2022-09-12T08:44:11Z</time>
      </trkpt>
      <trkpt lat="47.26037" lon="6.15417">
        <ele>475</ele>
        <time>2022-09-12T08:44:09Z</time>
      </trkpt>
      <trkpt lat="47.26043" lon="6.15395">
        <ele>476.2</ele>
        <time>2022-09-12T08:44:07Z</time>
      </trkpt>
      <trkpt lat="47.26046" lon="6.15372">
        <ele>477.4</ele>
        <time>2022-09-12T08:44:05Z</time>
      </trkpt>
      <trkpt lat="47.26049" lon="6.15349">
        <ele>478.6</ele>
        <time>2022-09-12T08:44:03Z</time>
      </trkpt>
      <trkpt lat="47.26052" lon="6.15319">
        <ele>480.2</ele>
        <time>2022-09-12T08:44:00Z</time>
      </trkpt>
      <trkpt lat="47.26055" lon="6.15302">
        <ele>481</ele>
        <time>2022-09-12T08:43:58Z</time>
      </trkpt>
      <trkpt lat="47.26057" lon="6.15283">
        <ele>481.4</ele>
        <time>2022-09-12T08:43:56Z</time>
      </trkpt>
      <trkpt lat="47.26058" lon="6.15272">
        <ele>482.4</ele>
        <time>2022-09-12T08:43:55Z</time>
      </trkpt>
      <trkpt lat="47.26059" lon="6.15252">
        <ele>483.2</ele>
        <time>2022-09-12T08:43:53Z</time>
      </trkpt>
      <trkpt lat="47.26059" lon="6.15242">
        <ele>483.6</ele>
        <time>2022-09-12T08:43:52Z</time>
      </trkpt>
      <trkpt lat="47.26056" lon="6.15187">
        <ele>484.4</ele>
        <time>2022-09-12T08:43:46Z</time>
      </trkpt>
      <trkpt lat="47.26053" lon="6.15154">
        <ele>484.8</ele>
        <time>2022-09-12T08:43:42Z</time>
      </trkpt>
      <trkpt lat="47.26049" lon="6.15129">
        <ele>485.2</ele>
        <time>2022-09-12T08:43:39Z</time>
      </trkpt>
      <trkpt lat="47.26041" lon="6.15089">
        <ele>485.8</ele>
        <time>2022-09-12T08:43:34Z</time>
      </trkpt>
      <trkpt lat="47.26041" lon="6.15081">
        <ele>486</ele>
        <time>2022-09-12T08:43:33Z</time>
      </trkpt>
      <trkpt lat="47.26035" lon="6.15047">
        <ele>487</ele>
        <time>2022-09-12T08:43:29Z</time>
      </trkpt>
      <trkpt lat="47.26032" lon="6.15028">
        <ele>487.4</ele>
        <time>2022-09-12T08:43:27Z</time>
      </trkpt>
      <trkpt lat="47.26029" lon="6.15002">
        <ele>488.2</ele>
        <time>2022-09-12T08:43:24Z</time>
      </trkpt>
      <trkpt lat="47.26027" lon="6.14976">
        <ele>488.8</ele>
        <time>2022-09-12T08:43:21Z</time>
      </trkpt>
      <trkpt lat="47.26025" lon="6.14953">
        <ele>489.2</ele>
        <time>2022-09-12T08:43:18Z</time>
      </trkpt>
      <trkpt lat="47.26022" lon="6.14931">
        <ele>489.4</ele>
        <time>2022-09-12T08:43:15Z</time>
      </trkpt>
      <trkpt lat="47.2602" lon="6.14917">
        <ele>489.6</ele>
        <time>2022-09-12T08:43:13Z</time>
      </trkpt>
      <trkpt lat="47.26016" lon="6.14896">
        <ele>490.2</ele>
        <time>2022-09-12T08:43:10Z</time>
      </trkpt>
      <trkpt lat="47.26013" lon="6.14868">
        <ele>491.4</ele>
        <time>2022-09-12T08:43:06Z</time>
      </trkpt>
      <trkpt lat="47.2601" lon="6.14838">
        <ele>492.4</ele>
        <time>2022-09-12T08:43:02Z</time>
      </trkpt>
      <trkpt lat="47.26008" lon="6.14818">
        <ele>493.4</ele>
        <time>2022-09-12T08:42:59Z</time>
      </trkpt>
      <trkpt lat="47.26006" lon="6.14797">
        <ele>494.8</ele>
        <time>2022-09-12T08:42:56Z</time>
      </trkpt>
      <trkpt lat="47.26005" lon="6.14772">
        <ele>496</ele>
        <time>2022-09-12T08:42:53Z</time>
      </trkpt>
      <trkpt lat="47.26006" lon="6.14764">
        <ele>496.6</ele>
        <time>2022-09-12T08:42:52Z</time>
      </trkpt>
      <trkpt lat="47.26008" lon="6.14757">
        <ele>497</ele>
        <time>2022-09-12T08:42:51Z</time>
      </trkpt>
      <trkpt lat="47.26012" lon="6.14739">
        <ele>498.6</ele>
        <time>2022-09-12T08:42:49Z</time>
      </trkpt>
      <trkpt lat="47.26014" lon="6.14729">
        <ele>499.6</ele>
        <time>2022-09-12T08:42:48Z</time>
      </trkpt>
      <trkpt lat="47.26016" lon="6.14717">
        <ele>500.8</ele>
        <time>2022-09-12T08:42:47Z</time>
      </trkpt>
      <trkpt lat="47.26019" lon="6.14704">
        <ele>502</ele>
        <time>2022-09-12T08:42:46Z</time>
      </trkpt>
      <trkpt lat="47.26023" lon="6.14684">
        <ele>503.4</ele>
        <time>2022-09-12T08:42:44Z</time>
      </trkpt>
      <trkpt lat="47.26028" lon="6.14663">
        <ele>504.8</ele>
        <time>2022-09-12T08:42:42Z</time>
      </trkpt>
      <trkpt lat="47.26034" lon="6.1464">
        <ele>506.2</ele>
        <time>2022-09-12T08:42:40Z</time>
      </trkpt>
      <trkpt lat="47.26043" lon="6.14621">
        <ele>506.6</ele>
        <time>2022-09-12T08:42:38Z</time>
      </trkpt>
      <trkpt lat="47.26048" lon="6.14602">
        <ele>507</ele>
        <time>2022-09-12T08:42:36Z</time>
      </trkpt>
      <trkpt lat="47.26049" lon="6.14593">
        <ele>507.4</ele>
        <time>2022-09-12T08:42:35Z</time>
      </trkpt>
      <trkpt lat="47.26054" lon="6.14563">
        <ele>508.6</ele>
        <time>2022-09-12T08:42:31Z</time>
      </trkpt>
      <trkpt lat="47.26056" lon="6.1455">
        <ele>509.8</ele>
        <time>2022-09-12T08:42:29Z</time>
      </trkpt>
      <trkpt lat="47.26057" lon="6.14541">
        <ele>511</ele>
        <time>2022-09-12T08:42:27Z</time>
      </trkpt>
      <trkpt lat="47.26057" lon="6.14533">
        <ele>512.2</ele>
        <time>2022-09-12T08:42:25Z</time>
      </trkpt>
      <trkpt lat="47.26057" lon="6.14528">
        <ele>512.6</ele>
        <time>2022-09-12T08:42:24Z</time>
      </trkpt>
      <trkpt lat="47.26059" lon="6.14521">
        <ele>513.6</ele>
        <time>2022-09-12T08:42:22Z</time>
      </trkpt>
      <trkpt lat="47.26065" lon="6.14511">
        <ele>514.2</ele>
        <time>2022-09-12T08:42:20Z</time>
      </trkpt>
      <trkpt lat="47.26081" lon="6.14495">
        <ele>513.8</ele>
        <time>2022-09-12T08:42:16Z</time>
      </trkpt>
      <trkpt lat="47.26085" lon="6.14491">
        <ele>513.8</ele>
        <time>2022-09-12T08:42:15Z</time>
      </trkpt>
      <trkpt lat="47.26096" lon="6.14477">
        <ele>513.2</ele>
        <time>2022-09-12T08:42:11Z</time>
      </trkpt>
      <trkpt lat="47.26099" lon="6.14473">
        <ele>513</ele>
        <time>2022-09-12T08:42:10Z</time>
      </trkpt>
      <trkpt lat="47.26098" lon="6.14454">
        <ele>512.6</ele>
        <time>2022-09-12T08:42:06Z</time>
      </trkpt>
      <trkpt lat="47.26093" lon="6.14441">
        <ele>514</ele>
        <time>2022-09-12T08:42:03Z</time>
      </trkpt>
      <trkpt lat="47.26092" lon="6.14435">
        <ele>514.6</ele>
        <time>2022-09-12T08:42:02Z</time>
      </trkpt>
      <trkpt lat="47.2609" lon="6.14428">
        <ele>515.2</ele>
        <time>2022-09-12T08:42:01Z</time>
      </trkpt>
      <trkpt lat="47.26089" lon="6.1442">
        <ele>515.6</ele>
        <time>2022-09-12T08:42:00Z</time>
      </trkpt>
      <trkpt lat="47.26088" lon="6.14405">
        <ele>516.6</ele>
        <time>2022-09-12T08:41:58Z</time>
      </trkpt>
      <trkpt lat="47.26088" lon="6.14389">
        <ele>517.6</ele>
        <time>2022-09-12T08:41:56Z</time>
      </trkpt>
      <trkpt lat="47.26089" lon="6.14382">
        <ele>518</ele>
        <time>2022-09-12T08:41:55Z</time>
      </trkpt>
      <trkpt lat="47.26091" lon="6.14365">
        <ele>519</ele>
        <time>2022-09-12T08:41:53Z</time>
      </trkpt>
      <trkpt lat="47.26093" lon="6.14349">
        <ele>520.2</ele>
        <time>2022-09-12T08:41:51Z</time>
      </trkpt>
      <trkpt lat="47.26094" lon="6.14342">
        <ele>520.8</ele>
        <time>2022-09-12T08:41:50Z</time>
      </trkpt>
      <trkpt lat="47.26095" lon="6.14335">
        <ele>521.2</ele>
        <time>2022-09-12T08:41:49Z</time>
      </trkpt>
      <trkpt lat="47.26095" lon="6.14315">
        <ele>522.8</ele>
        <time>2022-09-12T08:41:46Z</time>
      </trkpt>
      <trkpt lat="47.26094" lon="6.14304">
        <ele>523.8</ele>
        <time>2022-09-12T08:41:44Z</time>
      </trkpt>
      <trkpt lat="47.26094" lon="6.14292">
        <ele>524.2</ele>
        <time>2022-09-12T08:41:42Z</time>
      </trkpt>
      <trkpt lat="47.26092" lon="6.14278">
        <ele>523.6</ele>
        <time>2022-09-12T08:41:39Z</time>
      </trkpt>
      <trkpt lat="47.26087" lon="6.14258">
        <ele>523</ele>
        <time>2022-09-12T08:41:34Z</time>
      </trkpt>
      <trkpt lat="47.26086" lon="6.14255">
        <ele>522.6</ele>
        <time>2022-09-12T08:41:33Z</time>
      </trkpt>
      <trkpt lat="47.26075" lon="6.14233">
        <ele>522</ele>
        <time>2022-09-12T08:41:26Z</time>
      </trkpt>
      <trkpt lat="47.26072" lon="6.14227">
        <ele>521.8</ele>
        <time>2022-09-12T08:41:24Z</time>
      </trkpt>
      <trkpt lat="47.26067" lon="6.14219">
        <ele>521.4</ele>
        <time>2022-09-12T08:41:22Z</time>
      </trkpt>
      <trkpt lat="47.26059" lon="6.14197">
        <ele>520.6</ele>
        <time>2022-09-12T08:41:18Z</time>
      </trkpt>
      <trkpt lat="47.26058" lon="6.14192">
        <ele>520.2</ele>
        <time>2022-09-12T08:41:17Z</time>
      </trkpt>
      <trkpt lat="47.26047" lon="6.1417">
        <ele>519</ele>
        <time>2022-09-12T08:41:10Z</time>
      </trkpt>
      <trkpt lat="47.26041" lon="6.14158">
        <ele>519.6</ele>
        <time>2022-09-12T08:41:06Z</time>
      </trkpt>
      <trkpt lat="47.26038" lon="6.1415">
        <ele>520.2</ele>
        <time>2022-09-12T08:41:04Z</time>
      </trkpt>
      <trkpt lat="47.26033" lon="6.14123">
        <ele>521</ele>
        <time>2022-09-12T08:40:58Z</time>
      </trkpt>
      <trkpt lat="47.26029" lon="6.14099">
        <ele>520.2</ele>
        <time>2022-09-12T08:40:52Z</time>
      </trkpt>
      <trkpt lat="47.26025" lon="6.14088">
        <ele>520.6</ele>
        <time>2022-09-12T08:40:49Z</time>
      </trkpt>
      <trkpt lat="47.2602" lon="6.14074">
        <ele>520</ele>
        <time>2022-09-12T08:40:46Z</time>
      </trkpt>
      <trkpt lat="47.26019" lon="6.1407">
        <ele>519.6</ele>
        <time>2022-09-12T08:40:45Z</time>
      </trkpt>
      <trkpt lat="47.26016" lon="6.14045">
        <ele>518.6</ele>
        <time>2022-09-12T08:40:40Z</time>
      </trkpt>
      <trkpt lat="47.26017" lon="6.14022">
        <ele>520</ele>
        <time>2022-09-12T08:40:35Z</time>
      </trkpt>
      <trkpt lat="47.26015" lon="6.13996">
        <ele>520.6</ele>
        <time>2022-09-12T08:40:29Z</time>
      </trkpt>
      <trkpt lat="47.26008" lon="6.13961">
        <ele>519.8</ele>
        <time>2022-09-12T08:40:21Z</time>
      </trkpt>
      <trkpt lat="47.26004" lon="6.13944">
        <ele>519.4</ele>
        <time>2022-09-12T08:40:16Z</time>
      </trkpt>
      <trkpt lat="47.26003" lon="6.1393">
        <ele>519.8</ele>
        <time>2022-09-12T08:40:12Z</time>
      </trkpt>
      <trkpt lat="47.26002" lon="6.13927">
        <ele>519.8</ele>
        <time>2022-09-12T08:40:11Z</time>
      </trkpt>
      <trkpt lat="47.25993" lon="6.13905">
        <ele>520.8</ele>
        <time>2022-09-12T08:40:04Z</time>
      </trkpt>
      <trkpt lat="47.25992" lon="6.13902">
        <ele>521.2</ele>
        <time>2022-09-12T08:40:03Z</time>
      </trkpt>
      <trkpt lat="47.25985" lon="6.13887">
        <ele>522</ele>
        <time>2022-09-12T08:39:58Z</time>
      </trkpt>
      <trkpt lat="47.25984" lon="6.13882">
        <ele>521.8</ele>
        <time>2022-09-12T08:39:56Z</time>
      </trkpt>
      <trkpt lat="47.25983" lon="6.13866">
        <ele>521</ele>
        <time>2022-09-12T08:39:50Z</time>
      </trkpt>
      <trkpt lat="47.25984" lon="6.13865">
        <ele>520.8</ele>
        <time>2022-09-12T08:39:49Z</time>
      </trkpt>
      <trkpt lat="47.25984" lon="6.13859">
        <ele>520</ele>
        <time>2022-09-12T08:39:46Z</time>
      </trkpt>
      <trkpt lat="47.25983" lon="6.13859">
        <ele>520</ele>
        <time>2022-09-12T08:39:45Z</time>
      </trkpt>
      <trkpt lat="47.25968" lon="6.13854">
        <ele>519.4</ele>
        <time>2022-09-12T08:39:38Z</time>
      </trkpt>
      <trkpt lat="47.25946" lon="6.13835">
        <ele>519.6</ele>
        <time>2022-09-12T08:39:29Z</time>
      </trkpt>
      <trkpt lat="47.25938" lon="6.13821">
        <ele>518</ele>
        <time>2022-09-12T08:39:24Z</time>
      </trkpt>
      <trkpt lat="47.25928" lon="6.1379">
        <ele>518.4</ele>
        <time>2022-09-12T08:39:18Z</time>
      </trkpt>
      <trkpt lat="47.25918" lon="6.13754">
        <ele>518.4</ele>
        <time>2022-09-12T08:39:11Z</time>
      </trkpt>
      <trkpt lat="47.25914" lon="6.13723">
        <ele>518.8</ele>
        <time>2022-09-12T08:39:04Z</time>
      </trkpt>
      <trkpt lat="47.25914" lon="6.13715">
        <ele>518.6</ele>
        <time>2022-09-12T08:39:02Z</time>
      </trkpt>
      <trkpt lat="47.25912" lon="6.13702">
        <ele>517.6</ele>
        <time>2022-09-12T08:38:59Z</time>
      </trkpt>
      <trkpt lat="47.2591" lon="6.13695">
        <ele>517.2</ele>
        <time>2022-09-12T08:38:57Z</time>
      </trkpt>
      <trkpt lat="47.25901" lon="6.13672">
        <ele>516.4</ele>
        <time>2022-09-12T08:38:51Z</time>
      </trkpt>
      <trkpt lat="47.25898" lon="6.13666">
        <ele>515.8</ele>
        <time>2022-09-12T08:38:49Z</time>
      </trkpt>
      <trkpt lat="47.25884" lon="6.13645">
        <ele>515</ele>
        <time>2022-09-12T08:38:43Z</time>
      </trkpt>
      <trkpt lat="47.2588" lon="6.13639">
        <ele>514.2</ele>
        <time>2022-09-12T08:38:41Z</time>
      </trkpt>
      <trkpt lat="47.25878" lon="6.13636">
        <ele>514</ele>
        <time>2022-09-12T08:38:40Z</time>
      </trkpt>
      <trkpt lat="47.25873" lon="6.13624">
        <ele>512.8</ele>
        <time>2022-09-12T08:38:37Z</time>
      </trkpt>
      <trkpt lat="47.25868" lon="6.13613">
        <ele>511.4</ele>
        <time>2022-09-12T08:38:34Z</time>
      </trkpt>
      <trkpt lat="47.25867" lon="6.13605">
        <ele>510</ele>
        <time>2022-09-12T08:38:32Z</time>
      </trkpt>
      <trkpt lat="47.25864" lon="6.13597">
        <ele>508.6</ele>
        <time>2022-09-12T08:38:30Z</time>
      </trkpt>
      <trkpt lat="47.2586" lon="6.13588">
        <ele>507.4</ele>
        <time>2022-09-12T08:38:27Z</time>
      </trkpt>
      <trkpt lat="47.25857" lon="6.13582">
        <ele>506.2</ele>
        <time>2022-09-12T08:38:25Z</time>
      </trkpt>
      <trkpt lat="47.25853" lon="6.13575">
        <ele>505</ele>
        <time>2022-09-12T08:38:23Z</time>
      </trkpt>
      <trkpt lat="47.25851" lon="6.1357">
        <ele>503.6</ele>
        <time>2022-09-12T08:38:21Z</time>
      </trkpt>
      <trkpt lat="47.2585" lon="6.13567">
        <ele>503.2</ele>
        <time>2022-09-12T08:38:20Z</time>
      </trkpt>
      <trkpt lat="47.25847" lon="6.13562">
        <ele>502.2</ele>
        <time>2022-09-12T08:38:18Z</time>
      </trkpt>
      <trkpt lat="47.25842" lon="6.13553">
        <ele>500.8</ele>
        <time>2022-09-12T08:38:15Z</time>
      </trkpt>
      <trkpt lat="47.25837" lon="6.13545">
        <ele>499.6</ele>
        <time>2022-09-12T08:38:12Z</time>
      </trkpt>
      <trkpt lat="47.25834" lon="6.1354">
        <ele>498.4</ele>
        <time>2022-09-12T08:38:10Z</time>
      </trkpt>
      <trkpt lat="47.25831" lon="6.13535">
        <ele>497</ele>
        <time>2022-09-12T08:38:08Z</time>
      </trkpt>
      <trkpt lat="47.25826" lon="6.13526">
        <ele>495.8</ele>
        <time>2022-09-12T08:38:05Z</time>
      </trkpt>
      <trkpt lat="47.25824" lon="6.13523">
        <ele>495.4</ele>
        <time>2022-09-12T08:38:04Z</time>
      </trkpt>
      <trkpt lat="47.25817" lon="6.13498">
        <ele>494</ele>
        <time>2022-09-12T08:37:58Z</time>
      </trkpt>
      <trkpt lat="47.25811" lon="6.1348">
        <ele>494.4</ele>
        <time>2022-09-12T08:37:53Z</time>
      </trkpt>
      <trkpt lat="47.258" lon="6.13457">
        <ele>494.6</ele>
        <time>2022-09-12T08:37:46Z</time>
      </trkpt>
      <trkpt lat="47.2579" lon="6.13429">
        <ele>494.4</ele>
        <time>2022-09-12T08:37:39Z</time>
      </trkpt>
      <trkpt lat="47.25782" lon="6.13397">
        <ele>494.2</ele>
        <time>2022-09-12T08:37:32Z</time>
      </trkpt>
      <trkpt lat="47.25774" lon="6.13365">
        <ele>494.4</ele>
        <time>2022-09-12T08:37:25Z</time>
      </trkpt>
      <trkpt lat="47.25759" lon="6.13337">
        <ele>494.4</ele>
        <time>2022-09-12T08:37:17Z</time>
      </trkpt>
      <trkpt lat="47.25755" lon="6.13331">
        <ele>494.2</ele>
        <time>2022-09-12T08:37:15Z</time>
      </trkpt>
      <trkpt lat="47.25744" lon="6.13316">
        <ele>493.2</ele>
        <time>2022-09-12T08:37:10Z</time>
      </trkpt>
      <trkpt lat="47.25738" lon="6.1331">
        <ele>492.8</ele>
        <time>2022-09-12T08:37:08Z</time>
      </trkpt>
      <trkpt lat="47.25722" lon="6.13287">
        <ele>491.8</ele>
        <time>2022-09-12T08:37:01Z</time>
      </trkpt>
      <trkpt lat="47.25721" lon="6.13283">
        <ele>491.6</ele>
        <time>2022-09-12T08:37:00Z</time>
      </trkpt>
      <trkpt lat="47.25707" lon="6.13261">
        <ele>490.6</ele>
        <time>2022-09-12T08:36:54Z</time>
      </trkpt>
      <trkpt lat="47.25702" lon="6.13253">
        <ele>490.2</ele>
        <time>2022-09-12T08:36:52Z</time>
      </trkpt>
      <trkpt lat="47.25697" lon="6.13241">
        <ele>489.6</ele>
        <time>2022-09-12T08:36:49Z</time>
      </trkpt>
      <trkpt lat="47.25686" lon="6.13222">
        <ele>488.4</ele>
        <time>2022-09-12T08:36:44Z</time>
      </trkpt>
      <trkpt lat="47.25676" lon="6.13209">
        <ele>487.4</ele>
        <time>2022-09-12T08:36:40Z</time>
      </trkpt>
      <trkpt lat="47.25665" lon="6.13202">
        <ele>486.6</ele>
        <time>2022-09-12T08:36:36Z</time>
      </trkpt>
      <trkpt lat="47.25643" lon="6.13186">
        <ele>486.4</ele>
        <time>2022-09-12T08:36:28Z</time>
      </trkpt>
      <trkpt lat="47.25625" lon="6.13169">
        <ele>486</ele>
        <time>2022-09-12T08:36:21Z</time>
      </trkpt>
      <trkpt lat="47.25615" lon="6.13158">
        <ele>485</ele>
        <time>2022-09-12T08:36:16Z</time>
      </trkpt>
      <trkpt lat="47.2561" lon="6.13152">
        <ele>484.6</ele>
        <time>2022-09-12T08:36:14Z</time>
      </trkpt>
      <trkpt lat="47.25595" lon="6.13132">
        <ele>483.6</ele>
        <time>2022-09-12T08:36:07Z</time>
      </trkpt>
      <trkpt lat="47.25588" lon="6.13117">
        <ele>484</ele>
        <time>2022-09-12T08:36:02Z</time>
      </trkpt>
      <trkpt lat="47.25583" lon="6.1311">
        <ele>485</ele>
        <time>2022-09-12T08:36:00Z</time>
      </trkpt>
      <trkpt lat="47.2558" lon="6.13107">
        <ele>485.2</ele>
        <time>2022-09-12T08:35:59Z</time>
      </trkpt>
      <trkpt lat="47.25569" lon="6.13098">
        <ele>486.2</ele>
        <time>2022-09-12T08:35:55Z</time>
      </trkpt>
      <trkpt lat="47.25565" lon="6.13095">
        <ele>486</ele>
        <time>2022-09-12T08:35:53Z</time>
      </trkpt>
      <trkpt lat="47.2555" lon="6.13088">
        <ele>485.2</ele>
        <time>2022-09-12T08:35:48Z</time>
      </trkpt>
      <trkpt lat="47.25544" lon="6.13085">
        <ele>484.2</ele>
        <time>2022-09-12T08:35:46Z</time>
      </trkpt>
      <trkpt lat="47.25541" lon="6.13083">
        <ele>483.8</ele>
        <time>2022-09-12T08:35:45Z</time>
      </trkpt>
      <trkpt lat="47.25533" lon="6.13076">
        <ele>482.6</ele>
        <time>2022-09-12T08:35:42Z</time>
      </trkpt>
      <trkpt lat="47.25521" lon="6.13065">
        <ele>482</ele>
        <time>2022-09-12T08:35:38Z</time>
      </trkpt>
      <trkpt lat="47.25515" lon="6.13058">
        <ele>481.4</ele>
        <time>2022-09-12T08:35:36Z</time>
      </trkpt>
      <trkpt lat="47.25502" lon="6.13036">
        <ele>480.2</ele>
        <time>2022-09-12T08:35:31Z</time>
      </trkpt>
      <trkpt lat="47.25499" lon="6.13032">
        <ele>480.2</ele>
        <time>2022-09-12T08:35:30Z</time>
      </trkpt>
      <trkpt lat="47.25485" lon="6.13015">
        <ele>479.2</ele>
        <time>2022-09-12T08:35:25Z</time>
      </trkpt>
      <trkpt lat="47.2548" lon="6.13008">
        <ele>478.8</ele>
        <time>2022-09-12T08:35:23Z</time>
      </trkpt>
      <trkpt lat="47.25472" lon="6.12999">
        <ele>478.2</ele>
        <time>2022-09-12T08:35:20Z</time>
      </trkpt>
      <trkpt lat="47.25466" lon="6.12992">
        <ele>477.8</ele>
        <time>2022-09-12T08:35:18Z</time>
      </trkpt>
      <trkpt lat="47.25458" lon="6.1298">
        <ele>477</ele>
        <time>2022-09-12T08:35:15Z</time>
      </trkpt>
      <trkpt lat="47.25452" lon="6.1297">
        <ele>476.6</ele>
        <time>2022-09-12T08:35:12Z</time>
      </trkpt>
      <trkpt lat="47.25448" lon="6.12966">
        <ele>476</ele>
        <time>2022-09-12T08:35:10Z</time>
      </trkpt>
      <trkpt lat="47.25441" lon="6.12961">
        <ele>475.2</ele>
        <time>2022-09-12T08:35:05Z</time>
      </trkpt>
      <trkpt lat="47.25439" lon="6.1296">
        <ele>474.8</ele>
        <time>2022-09-12T08:35:04Z</time>
      </trkpt>
      <trkpt lat="47.25425" lon="6.12954">
        <ele>474</ele>
        <time>2022-09-12T08:34:58Z</time>
      </trkpt>
      <trkpt lat="47.2541" lon="6.1295">
        <ele>473.8</ele>
        <time>2022-09-12T08:34:52Z</time>
      </trkpt>
      <trkpt lat="47.25396" lon="6.12952">
        <ele>473.8</ele>
        <time>2022-09-12T08:34:47Z</time>
      </trkpt>
      <trkpt lat="47.2539" lon="6.12953">
        <ele>474.2</ele>
        <time>2022-09-12T08:34:45Z</time>
      </trkpt>
      <trkpt lat="47.25385" lon="6.12954">
        <ele>475</ele>
        <time>2022-09-12T08:34:43Z</time>
      </trkpt>
      <trkpt lat="47.25379" lon="6.12955">
        <ele>475.6</ele>
        <time>2022-09-12T08:34:41Z</time>
      </trkpt>
      <trkpt lat="47.25374" lon="6.1295">
        <ele>476.2</ele>
        <time>2022-09-12T08:34:39Z</time>
      </trkpt>
      <trkpt lat="47.25372" lon="6.12942">
        <ele>476.8</ele>
        <time>2022-09-12T08:34:37Z</time>
      </trkpt>
      <trkpt lat="47.25372" lon="6.12937">
        <ele>477.2</ele>
        <time>2022-09-12T08:34:36Z</time>
      </trkpt>
      <trkpt lat="47.25373" lon="6.12923">
        <ele>478</ele>
        <time>2022-09-12T08:34:34Z</time>
      </trkpt>
      <trkpt lat="47.25373" lon="6.12914">
        <ele>478.6</ele>
        <time>2022-09-12T08:34:33Z</time>
      </trkpt>
      <trkpt lat="47.25373" lon="6.1288">
        <ele>480</ele>
        <time>2022-09-12T08:34:30Z</time>
      </trkpt>
      <trkpt lat="47.25374" lon="6.12855">
        <ele>480.8</ele>
        <time>2022-09-12T08:34:28Z</time>
      </trkpt>
      <trkpt lat="47.25374" lon="6.12842">
        <ele>481.2</ele>
        <time>2022-09-12T08:34:27Z</time>
      </trkpt>
      <trkpt lat="47.25375" lon="6.12805">
        <ele>482.6</ele>
        <time>2022-09-12T08:34:24Z</time>
      </trkpt>
      <trkpt lat="47.25375" lon="6.12765">
        <ele>483.6</ele>
        <time>2022-09-12T08:34:21Z</time>
      </trkpt>
      <trkpt lat="47.25375" lon="6.12739">
        <ele>484.2</ele>
        <time>2022-09-12T08:34:19Z</time>
      </trkpt>
      <trkpt lat="47.25376" lon="6.12715">
        <ele>484.6</ele>
        <time>2022-09-12T08:34:17Z</time>
      </trkpt>
      <trkpt lat="47.25378" lon="6.12704">
        <ele>484.8</ele>
        <time>2022-09-12T08:34:16Z</time>
      </trkpt>
      <trkpt lat="47.25386" lon="6.12673">
        <ele>485.6</ele>
        <time>2022-09-12T08:34:13Z</time>
      </trkpt>
      <trkpt lat="47.25393" lon="6.12652">
        <ele>486.4</ele>
        <time>2022-09-12T08:34:11Z</time>
      </trkpt>
      <trkpt lat="47.25402" lon="6.12633">
        <ele>487</ele>
        <time>2022-09-12T08:34:09Z</time>
      </trkpt>
      <trkpt lat="47.25422" lon="6.12588">
        <ele>488</ele>
        <time>2022-09-12T08:34:04Z</time>
      </trkpt>
      <trkpt lat="47.25431" lon="6.12563">
        <ele>489.2</ele>
        <time>2022-09-12T08:34:01Z</time>
      </trkpt>
      <trkpt lat="47.25433" lon="6.12556">
        <ele>489.6</ele>
        <time>2022-09-12T08:34:00Z</time>
      </trkpt>
      <trkpt lat="47.25434" lon="6.12548">
        <ele>490</ele>
        <time>2022-09-12T08:33:59Z</time>
      </trkpt>
      <trkpt lat="47.25435" lon="6.12541">
        <ele>490.4</ele>
        <time>2022-09-12T08:33:58Z</time>
      </trkpt>
      <trkpt lat="47.25436" lon="6.12527">
        <ele>491</ele>
        <time>2022-09-12T08:33:56Z</time>
      </trkpt>
      <trkpt lat="47.25434" lon="6.12513">
        <ele>491.4</ele>
        <time>2022-09-12T08:33:54Z</time>
      </trkpt>
      <trkpt lat="47.25424" lon="6.12471">
        <ele>492.6</ele>
        <time>2022-09-12T08:33:49Z</time>
      </trkpt>
      <trkpt lat="47.25422" lon="6.12464">
        <ele>492.8</ele>
        <time>2022-09-12T08:33:48Z</time>
      </trkpt>
      <trkpt lat="47.25414" lon="6.12447">
        <ele>493.6</ele>
        <time>2022-09-12T08:33:44Z</time>
      </trkpt>
      <trkpt lat="47.25406" lon="6.12437">
        <ele>494.8</ele>
        <time>2022-09-12T08:33:41Z</time>
      </trkpt>
      <trkpt lat="47.254" lon="6.12428">
        <ele>495.4</ele>
        <time>2022-09-12T08:33:39Z</time>
      </trkpt>
      <trkpt lat="47.25395" lon="6.12416">
        <ele>495.8</ele>
        <time>2022-09-12T08:33:37Z</time>
      </trkpt>
      <trkpt lat="47.25392" lon="6.12408">
        <ele>496</ele>
        <time>2022-09-12T08:33:36Z</time>
      </trkpt>
      <trkpt lat="47.25389" lon="6.12392">
        <ele>496.6</ele>
        <time>2022-09-12T08:33:34Z</time>
      </trkpt>
      <trkpt lat="47.25388" lon="6.12384">
        <ele>496.8</ele>
        <time>2022-09-12T08:33:33Z</time>
      </trkpt>
      <trkpt lat="47.25388" lon="6.12377">
        <ele>497.2</ele>
        <time>2022-09-12T08:33:32Z</time>
      </trkpt>
      <trkpt lat="47.25384" lon="6.12365">
        <ele>498.2</ele>
        <time>2022-09-12T08:33:30Z</time>
      </trkpt>
      <trkpt lat="47.25382" lon="6.1236">
        <ele>498.8</ele>
        <time>2022-09-12T08:33:29Z</time>
      </trkpt>
      <trkpt lat="47.25379" lon="6.12354">
        <ele>499.2</ele>
        <time>2022-09-12T08:33:28Z</time>
      </trkpt>
      <trkpt lat="47.25376" lon="6.12348">
        <ele>499.6</ele>
        <time>2022-09-12T08:33:27Z</time>
      </trkpt>
      <trkpt lat="47.25373" lon="6.12344">
        <ele>500.2</ele>
        <time>2022-09-12T08:33:26Z</time>
      </trkpt>
      <trkpt lat="47.25366" lon="6.12334">
        <ele>500.8</ele>
        <time>2022-09-12T08:33:24Z</time>
      </trkpt>
      <trkpt lat="47.25358" lon="6.12322">
        <ele>501.6</ele>
        <time>2022-09-12T08:33:22Z</time>
      </trkpt>
      <trkpt lat="47.25351" lon="6.12313">
        <ele>502</ele>
        <time>2022-09-12T08:33:20Z</time>
      </trkpt>
      <trkpt lat="47.25349" lon="6.1231">
        <ele>502.2</ele>
        <time>2022-09-12T08:33:19Z</time>
      </trkpt>
      <trkpt lat="47.25333" lon="6.1229">
        <ele>503</ele>
        <time>2022-09-12T08:33:13Z</time>
      </trkpt>
      <trkpt lat="47.25323" lon="6.12272">
        <ele>503.2</ele>
        <time>2022-09-12T08:33:09Z</time>
      </trkpt>
      <trkpt lat="47.25321" lon="6.12268">
        <ele>503.2</ele>
        <time>2022-09-12T08:33:08Z</time>
      </trkpt>
      <trkpt lat="47.25316" lon="6.12247">
        <ele>504.2</ele>
        <time>2022-09-12T08:33:04Z</time>
      </trkpt>
      <trkpt lat="47.25308" lon="6.12237">
        <ele>505.4</ele>
        <time>2022-09-12T08:33:01Z</time>
      </trkpt>
      <trkpt lat="47.25304" lon="6.1223">
        <ele>506.4</ele>
        <time>2022-09-12T08:32:59Z</time>
      </trkpt>
      <trkpt lat="47.25301" lon="6.12226">
        <ele>506.8</ele>
        <time>2022-09-12T08:32:58Z</time>
      </trkpt>
      <trkpt lat="47.25294" lon="6.12222">
        <ele>508</ele>
        <time>2022-09-12T08:32:56Z</time>
      </trkpt>
      <trkpt lat="47.2529" lon="6.12223">
        <ele>508.6</ele>
        <time>2022-09-12T08:32:55Z</time>
      </trkpt>
      <trkpt lat="47.25286" lon="6.12223">
        <ele>509</ele>
        <time>2022-09-12T08:32:54Z</time>
      </trkpt>
      <trkpt lat="47.25279" lon="6.12222">
        <ele>510.4</ele>
        <time>2022-09-12T08:32:52Z</time>
      </trkpt>
      <trkpt lat="47.25272" lon="6.12219">
        <ele>512.2</ele>
        <time>2022-09-12T08:32:50Z</time>
      </trkpt>
      <trkpt lat="47.25266" lon="6.12212">
        <ele>514</ele>
        <time>2022-09-12T08:32:48Z</time>
      </trkpt>
      <trkpt lat="47.25264" lon="6.12206">
        <ele>514.8</ele>
        <time>2022-09-12T08:32:47Z</time>
      </trkpt>
      <trkpt lat="47.25263" lon="6.12199">
        <ele>515.6</ele>
        <time>2022-09-12T08:32:46Z</time>
      </trkpt>
      <trkpt lat="47.25262" lon="6.12191">
        <ele>516.4</ele>
        <time>2022-09-12T08:32:45Z</time>
      </trkpt>
      <trkpt lat="47.25261" lon="6.12184">
        <ele>516.8</ele>
        <time>2022-09-12T08:32:44Z</time>
      </trkpt>
      <trkpt lat="47.25259" lon="6.1217">
        <ele>517.8</ele>
        <time>2022-09-12T08:32:42Z</time>
      </trkpt>
      <trkpt lat="47.25258" lon="6.12164">
        <ele>518.4</ele>
        <time>2022-09-12T08:32:41Z</time>
      </trkpt>
      <trkpt lat="47.25257" lon="6.12157">
        <ele>519</ele>
        <time>2022-09-12T08:32:40Z</time>
      </trkpt>
      <trkpt lat="47.25253" lon="6.12142">
        <ele>519.8</ele>
        <time>2022-09-12T08:32:38Z</time>
      </trkpt>
      <trkpt lat="47.25251" lon="6.12135">
        <ele>520.2</ele>
        <time>2022-09-12T08:32:37Z</time>
      </trkpt>
      <trkpt lat="47.25245" lon="6.12123">
        <ele>521.4</ele>
        <time>2022-09-12T08:32:35Z</time>
      </trkpt>
      <trkpt lat="47.25243" lon="6.12117">
        <ele>522</ele>
        <time>2022-09-12T08:32:34Z</time>
      </trkpt>
      <trkpt lat="47.25239" lon="6.12112">
        <ele>522.6</ele>
        <time>2022-09-12T08:32:33Z</time>
      </trkpt>
      <trkpt lat="47.25233" lon="6.121">
        <ele>523.6</ele>
        <time>2022-09-12T08:32:31Z</time>
      </trkpt>
      <trkpt lat="47.25231" lon="6.12094">
        <ele>524</ele>
        <time>2022-09-12T08:32:30Z</time>
      </trkpt>
      <trkpt lat="47.25226" lon="6.12078">
        <ele>525</ele>
        <time>2022-09-12T08:32:28Z</time>
      </trkpt>
      <trkpt lat="47.25221" lon="6.12056">
        <ele>526.4</ele>
        <time>2022-09-12T08:32:25Z</time>
      </trkpt>
      <trkpt lat="47.25219" lon="6.1205">
        <ele>526.8</ele>
        <time>2022-09-12T08:32:24Z</time>
      </trkpt>
      <trkpt lat="47.25216" lon="6.12037">
        <ele>527.4</ele>
        <time>2022-09-12T08:32:22Z</time>
      </trkpt>
      <trkpt lat="47.25212" lon="6.12014">
        <ele>528.4</ele>
        <time>2022-09-12T08:32:19Z</time>
      </trkpt>
      <trkpt lat="47.25211" lon="6.12006">
        <ele>528.8</ele>
        <time>2022-09-12T08:32:18Z</time>
      </trkpt>
      <trkpt lat="47.2521" lon="6.11991">
        <ele>529.4</ele>
        <time>2022-09-12T08:32:16Z</time>
      </trkpt>
      <trkpt lat="47.25209" lon="6.11983">
        <ele>529.6</ele>
        <time>2022-09-12T08:32:15Z</time>
      </trkpt>
      <trkpt lat="47.25209" lon="6.11967">
        <ele>530</ele>
        <time>2022-09-12T08:32:13Z</time>
      </trkpt>
      <trkpt lat="47.25209" lon="6.1196">
        <ele>530.6</ele>
        <time>2022-09-12T08:32:12Z</time>
      </trkpt>
      <trkpt lat="47.25211" lon="6.11942">
        <ele>532.4</ele>
        <time>2022-09-12T08:32:09Z</time>
      </trkpt>
      <trkpt lat="47.25212" lon="6.11936">
        <ele>532.6</ele>
        <time>2022-09-12T08:32:08Z</time>
      </trkpt>
      <trkpt lat="47.25215" lon="6.11926">
        <ele>533.4</ele>
        <time>2022-09-12T08:32:06Z</time>
      </trkpt>
      <trkpt lat="47.25217" lon="6.11917">
        <ele>534.6</ele>
        <time>2022-09-12T08:32:03Z</time>
      </trkpt>
      <trkpt lat="47.25221" lon="6.1191">
        <ele>535.8</ele>
        <time>2022-09-12T08:32:01Z</time>
      </trkpt>
      <trkpt lat="47.25225" lon="6.11902">
        <ele>537</ele>
        <time>2022-09-12T08:31:59Z</time>
      </trkpt>
      <trkpt lat="47.25229" lon="6.11895">
        <ele>538</ele>
        <time>2022-09-12T08:31:57Z</time>
      </trkpt>
      <trkpt lat="47.2523" lon="6.11891">
        <ele>538.4</ele>
        <time>2022-09-12T08:31:56Z</time>
      </trkpt>
      <trkpt lat="47.25235" lon="6.11883">
        <ele>539.6</ele>
        <time>2022-09-12T08:31:54Z</time>
      </trkpt>
      <trkpt lat="47.2524" lon="6.11875">
        <ele>541</ele>
        <time>2022-09-12T08:31:52Z</time>
      </trkpt>
      <trkpt lat="47.25242" lon="6.11872">
        <ele>541.4</ele>
        <time>2022-09-12T08:31:51Z</time>
      </trkpt>
      <trkpt lat="47.25244" lon="6.11869">
        <ele>542</ele>
        <time>2022-09-12T08:31:50Z</time>
      </trkpt>
      <trkpt lat="47.25248" lon="6.11861">
        <ele>543.4</ele>
        <time>2022-09-12T08:31:48Z</time>
      </trkpt>
      <trkpt lat="47.25253" lon="6.11852">
        <ele>544.6</ele>
        <time>2022-09-12T08:31:46Z</time>
      </trkpt>
      <trkpt lat="47.25256" lon="6.11849">
        <ele>545.2</ele>
        <time>2022-09-12T08:31:45Z</time>
      </trkpt>
      <trkpt lat="47.25258" lon="6.11845">
        <ele>545.8</ele>
        <time>2022-09-12T08:31:44Z</time>
      </trkpt>
      <trkpt lat="47.25262" lon="6.11839">
        <ele>547.2</ele>
        <time>2022-09-12T08:31:42Z</time>
      </trkpt>
      <trkpt lat="47.25267" lon="6.11831">
        <ele>548.4</ele>
        <time>2022-09-12T08:31:40Z</time>
      </trkpt>
      <trkpt lat="47.2527" lon="6.11826">
        <ele>549.4</ele>
        <time>2022-09-12T08:31:39Z</time>
      </trkpt>
      <trkpt lat="47.25272" lon="6.11822">
        <ele>550.2</ele>
        <time>2022-09-12T08:31:38Z</time>
      </trkpt>
      <trkpt lat="47.25277" lon="6.11815">
        <ele>552</ele>
        <time>2022-09-12T08:31:36Z</time>
      </trkpt>
      <trkpt lat="47.25282" lon="6.11806">
        <ele>553</ele>
        <time>2022-09-12T08:31:33Z</time>
      </trkpt>
      <trkpt lat="47.25291" lon="6.11793">
        <ele>553.2</ele>
        <time>2022-09-12T08:31:28Z</time>
      </trkpt>
      <trkpt lat="47.25302" lon="6.11777">
        <ele>553.4</ele>
        <time>2022-09-12T08:31:24Z</time>
      </trkpt>
      <trkpt lat="47.25305" lon="6.11772">
        <ele>553.6</ele>
        <time>2022-09-12T08:31:23Z</time>
      </trkpt>
      <trkpt lat="47.25312" lon="6.11765">
        <ele>554.4</ele>
        <time>2022-09-12T08:31:21Z</time>
      </trkpt>
      <trkpt lat="47.25322" lon="6.1176">
        <ele>555.6</ele>
        <time>2022-09-12T08:31:19Z</time>
      </trkpt>
      <trkpt lat="47.25328" lon="6.11757">
        <ele>556.6</ele>
        <time>2022-09-12T08:31:18Z</time>
      </trkpt>
      <trkpt lat="47.25334" lon="6.11753">
        <ele>556.8</ele>
        <time>2022-09-12T08:31:17Z</time>
      </trkpt>
      <trkpt lat="47.25346" lon="6.11744">
        <ele>557.4</ele>
        <time>2022-09-12T08:31:15Z</time>
      </trkpt>
      <trkpt lat="47.25352" lon="6.11739">
        <ele>558</ele>
        <time>2022-09-12T08:31:14Z</time>
      </trkpt>
      <trkpt lat="47.25356" lon="6.11737">
        <ele>557.6</ele>
        <time>2022-09-12T08:31:13Z</time>
      </trkpt>
      <trkpt lat="47.25366" lon="6.11731">
        <ele>557</ele>
        <time>2022-09-12T08:31:10Z</time>
      </trkpt>
      <trkpt lat="47.25376" lon="6.11724">
        <ele>556.2</ele>
        <time>2022-09-12T08:31:07Z</time>
      </trkpt>
      <trkpt lat="47.25382" lon="6.1172">
        <ele>555.8</ele>
        <time>2022-09-12T08:31:05Z</time>
      </trkpt>
      <trkpt lat="47.25392" lon="6.11713">
        <ele>554.8</ele>
        <time>2022-09-12T08:31:01Z</time>
      </trkpt>
      <trkpt lat="47.25394" lon="6.11712">
        <ele>554.6</ele>
        <time>2022-09-12T08:31:00Z</time>
      </trkpt>
      <trkpt lat="47.25403" lon="6.11708">
        <ele>553.6</ele>
        <time>2022-09-12T08:30:55Z</time>
      </trkpt>
      <trkpt lat="47.25404" lon="6.11707">
        <ele>553.4</ele>
        <time>2022-09-12T08:30:54Z</time>
      </trkpt>
      <trkpt lat="47.25406" lon="6.11706">
        <ele>553</ele>
        <time>2022-09-12T08:30:53Z</time>
      </trkpt>
      <trkpt lat="47.25409" lon="6.11704">
        <ele>552</ele>
        <time>2022-09-12T08:30:51Z</time>
      </trkpt>
      <trkpt lat="47.25411" lon="6.11702">
        <ele>551.4</ele>
        <time>2022-09-12T08:30:50Z</time>
      </trkpt>
      <trkpt lat="47.25419" lon="6.11698">
        <ele>549.8</ele>
        <time>2022-09-12T08:30:46Z</time>
      </trkpt>
      <trkpt lat="47.25416" lon="6.11691">
        <ele>550.2</ele>
        <time>2022-09-12T08:29:53Z</time>
      </trkpt>
      <trkpt lat="47.25409" lon="6.11684">
        <ele>550.4</ele>
        <time>2022-09-12T08:29:50Z</time>
      </trkpt>
      <trkpt lat="47.25402" lon="6.11673">
        <ele>551</ele>
        <time>2022-09-12T08:29:47Z</time>
      </trkpt>
      <trkpt lat="47.25392" lon="6.11656">
        <ele>551.6</ele>
        <time>2022-09-12T08:29:42Z</time>
      </trkpt>
      <trkpt lat="47.25372" lon="6.11634">
        <ele>552.4</ele>
        <time>2022-09-12T08:29:36Z</time>
      </trkpt>
      <trkpt lat="47.25368" lon="6.11629">
        <ele>552.6</ele>
        <time>2022-09-12T08:29:35Z</time>
      </trkpt>
      <trkpt lat="47.25346" lon="6.11601">
        <ele>553.6</ele>
        <time>2022-09-12T08:29:29Z</time>
      </trkpt>
      <trkpt lat="47.25342" lon="6.11596">
        <ele>553.8</ele>
        <time>2022-09-12T08:29:28Z</time>
      </trkpt>
      <trkpt lat="47.25327" lon="6.11575">
        <ele>554.8</ele>
        <time>2022-09-12T08:29:24Z</time>
      </trkpt>
      <trkpt lat="47.25313" lon="6.11559">
        <ele>555.6</ele>
        <time>2022-09-12T08:29:21Z</time>
      </trkpt>
      <trkpt lat="47.25309" lon="6.11554">
        <ele>555.8</ele>
        <time>2022-09-12T08:29:20Z</time>
      </trkpt>
      <trkpt lat="47.2529" lon="6.1153">
        <ele>557</ele>
        <time>2022-09-12T08:29:16Z</time>
      </trkpt>
      <trkpt lat="47.25282" lon="6.11517">
        <ele>557.8</ele>
        <time>2022-09-12T08:29:14Z</time>
      </trkpt>
      <trkpt lat="47.25277" lon="6.11511">
        <ele>558.2</ele>
        <time>2022-09-12T08:29:13Z</time>
      </trkpt>
      <trkpt lat="47.25262" lon="6.11491">
        <ele>559.2</ele>
        <time>2022-09-12T08:29:09Z</time>
      </trkpt>
      <trkpt lat="47.25249" lon="6.11473">
        <ele>559.8</ele>
        <time>2022-09-12T08:29:04Z</time>
      </trkpt>
      <trkpt lat="47.25235" lon="6.11449">
        <ele>560.2</ele>
        <time>2022-09-12T08:28:57Z</time>
      </trkpt>
      <trkpt lat="47.25227" lon="6.11437">
        <ele>560.2</ele>
        <time>2022-09-12T08:28:53Z</time>
      </trkpt>
      <trkpt lat="47.25222" lon="6.11429">
        <ele>559.8</ele>
        <time>2022-09-12T08:28:50Z</time>
      </trkpt>
      <trkpt lat="47.25221" lon="6.11427">
        <ele>559.6</ele>
        <time>2022-09-12T08:28:49Z</time>
      </trkpt>
      <trkpt lat="47.25214" lon="6.11417">
        <ele>559</ele>
        <time>2022-09-12T08:28:14Z</time>
      </trkpt>
      <trkpt lat="47.252" lon="6.11397">
        <ele>559.4</ele>
        <time>2022-09-12T08:28:08Z</time>
      </trkpt>
      <trkpt lat="47.25184" lon="6.1137">
        <ele>559.6</ele>
        <time>2022-09-12T08:28:01Z</time>
      </trkpt>
      <trkpt lat="47.25172" lon="6.1135">
        <ele>559.4</ele>
        <time>2022-09-12T08:27:55Z</time>
      </trkpt>
      <trkpt lat="47.2517" lon="6.11347">
        <ele>559.2</ele>
        <time>2022-09-12T08:27:54Z</time>
      </trkpt>
      <trkpt lat="47.25152" lon="6.11327">
        <ele>558.4</ele>
        <time>2022-09-12T08:27:46Z</time>
      </trkpt>
      <trkpt lat="47.25145" lon="6.11322">
        <ele>557.2</ele>
        <time>2022-09-12T08:27:43Z</time>
      </trkpt>
      <trkpt lat="47.2514" lon="6.11321">
        <ele>556.2</ele>
        <time>2022-09-12T08:27:41Z</time>
      </trkpt>
      <trkpt lat="47.25134" lon="6.11323">
        <ele>555</ele>
        <time>2022-09-12T08:27:39Z</time>
      </trkpt>
      <trkpt lat="47.25129" lon="6.11325">
        <ele>553.6</ele>
        <time>2022-09-12T08:27:37Z</time>
      </trkpt>
      <trkpt lat="47.25125" lon="6.11327">
        <ele>552.6</ele>
        <time>2022-09-12T08:27:35Z</time>
      </trkpt>
      <trkpt lat="47.2512" lon="6.11329">
        <ele>551.4</ele>
        <time>2022-09-12T08:27:33Z</time>
      </trkpt>
      <trkpt lat="47.25114" lon="6.11332">
        <ele>549.8</ele>
        <time>2022-09-12T08:27:31Z</time>
      </trkpt>
      <trkpt lat="47.25105" lon="6.11337">
        <ele>548.8</ele>
        <time>2022-09-12T08:27:26Z</time>
      </trkpt>
      <trkpt lat="47.25104" lon="6.11338">
        <ele>548.4</ele>
        <time>2022-09-12T08:27:25Z</time>
      </trkpt>
      <trkpt lat="47.25095" lon="6.11335">
        <ele>547</ele>
        <time>2022-09-12T08:27:21Z</time>
      </trkpt>
      <trkpt lat="47.25089" lon="6.11333">
        <ele>546</ele>
        <time>2022-09-12T08:27:19Z</time>
      </trkpt>
      <trkpt lat="47.25082" lon="6.11332">
        <ele>545.8</ele>
        <time>2022-09-12T08:27:16Z</time>
      </trkpt>
      <trkpt lat="47.25075" lon="6.1133">
        <ele>544.8</ele>
        <time>2022-09-12T08:27:13Z</time>
      </trkpt>
      <trkpt lat="47.25074" lon="6.11329">
        <ele>544.6</ele>
        <time>2022-09-12T08:27:12Z</time>
      </trkpt>
      <trkpt lat="47.25067" lon="6.11326">
        <ele>543.4</ele>
        <time>2022-09-12T08:27:09Z</time>
      </trkpt>
      <trkpt lat="47.25063" lon="6.11323">
        <ele>542</ele>
        <time>2022-09-12T08:27:07Z</time>
      </trkpt>
      <trkpt lat="47.2506" lon="6.11321">
        <ele>541.2</ele>
        <time>2022-09-12T08:27:06Z</time>
      </trkpt>
      <trkpt lat="47.25058" lon="6.11319">
        <ele>540.6</ele>
        <time>2022-09-12T08:27:05Z</time>
      </trkpt>
      <trkpt lat="47.25046" lon="6.11305">
        <ele>539</ele>
        <time>2022-09-12T08:27:00Z</time>
      </trkpt>
      <trkpt lat="47.25036" lon="6.11283">
        <ele>539</ele>
        <time>2022-09-12T08:26:55Z</time>
      </trkpt>
      <trkpt lat="47.25033" lon="6.11277">
        <ele>539</ele>
        <time>2022-09-12T08:26:54Z</time>
      </trkpt>
      <trkpt lat="47.25027" lon="6.11255">
        <ele>539.4</ele>
        <time>2022-09-12T08:26:51Z</time>
      </trkpt>
      <trkpt lat="47.25023" lon="6.1122">
        <ele>537.8</ele>
        <time>2022-09-12T08:26:47Z</time>
      </trkpt>
      <trkpt lat="47.25018" lon="6.11197">
        <ele>538.4</ele>
        <time>2022-09-12T08:26:44Z</time>
      </trkpt>
      <trkpt lat="47.25015" lon="6.11181">
        <ele>539.6</ele>
        <time>2022-09-12T08:26:42Z</time>
      </trkpt>
      <trkpt lat="47.2501" lon="6.11158">
        <ele>541.4</ele>
        <time>2022-09-12T08:26:39Z</time>
      </trkpt>
      <trkpt lat="47.25007" lon="6.11134">
        <ele>542.4</ele>
        <time>2022-09-12T08:26:36Z</time>
      </trkpt>
      <trkpt lat="47.25007" lon="6.11112">
        <ele>543.6</ele>
        <time>2022-09-12T08:26:33Z</time>
      </trkpt>
      <trkpt lat="47.25008" lon="6.11106">
        <ele>544</ele>
        <time>2022-09-12T08:26:32Z</time>
      </trkpt>
      <trkpt lat="47.25008" lon="6.111">
        <ele>544.8</ele>
        <time>2022-09-12T08:26:31Z</time>
      </trkpt>
      <trkpt lat="47.25007" lon="6.11086">
        <ele>546.2</ele>
        <time>2022-09-12T08:26:29Z</time>
      </trkpt>
      <trkpt lat="47.25007" lon="6.11065">
        <ele>547</ele>
        <time>2022-09-12T08:26:26Z</time>
      </trkpt>
      <trkpt lat="47.25006" lon="6.11032">
        <ele>547.8</ele>
        <time>2022-09-12T08:26:20Z</time>
      </trkpt>
      <trkpt lat="47.25009" lon="6.11006">
        <ele>547.4</ele>
        <time>2022-09-12T08:26:14Z</time>
      </trkpt>
      <trkpt lat="47.2501" lon="6.11002">
        <ele>547.2</ele>
        <time>2022-09-12T08:26:13Z</time>
      </trkpt>
      <trkpt lat="47.2501" lon="6.10975">
        <ele>548.4</ele>
        <time>2022-09-12T08:26:07Z</time>
      </trkpt>
      <trkpt lat="47.2501" lon="6.10954">
        <ele>549.6</ele>
        <time>2022-09-12T08:26:03Z</time>
      </trkpt>
      <trkpt lat="47.25011" lon="6.1094">
        <ele>550.2</ele>
        <time>2022-09-12T08:26:00Z</time>
      </trkpt>
      <trkpt lat="47.25012" lon="6.10915">
        <ele>550</ele>
        <time>2022-09-12T08:25:54Z</time>
      </trkpt>
      <trkpt lat="47.25011" lon="6.10882">
        <ele>550.6</ele>
        <time>2022-09-12T08:25:47Z</time>
      </trkpt>
      <trkpt lat="47.25011" lon="6.10877">
        <ele>550.6</ele>
        <time>2022-09-12T08:25:46Z</time>
      </trkpt>
      <trkpt lat="47.2501" lon="6.10845">
        <ele>551.8</ele>
        <time>2022-09-12T08:25:40Z</time>
      </trkpt>
      <trkpt lat="47.2501" lon="6.10804">
        <ele>552.8</ele>
        <time>2022-09-12T08:25:34Z</time>
      </trkpt>
      <trkpt lat="47.25011" lon="6.10798">
        <ele>553.2</ele>
        <time>2022-09-12T08:25:33Z</time>
      </trkpt>
      <trkpt lat="47.25011" lon="6.10787">
        <ele>554</ele>
        <time>2022-09-12T08:25:31Z</time>
      </trkpt>
      <trkpt lat="47.25011" lon="6.10769">
        <ele>555.2</ele>
        <time>2022-09-12T08:25:28Z</time>
      </trkpt>
      <trkpt lat="47.25013" lon="6.10752">
        <ele>554.8</ele>
        <time>2022-09-12T08:25:24Z</time>
      </trkpt>
      <trkpt lat="47.25015" lon="6.10746">
        <ele>554.6</ele>
        <time>2022-09-12T08:25:22Z</time>
      </trkpt>
      <trkpt lat="47.25016" lon="6.10733">
        <ele>555</ele>
        <time>2022-09-12T08:25:18Z</time>
      </trkpt>
      <trkpt lat="47.25015" lon="6.10721">
        <ele>556</ele>
        <time>2022-09-12T08:25:16Z</time>
      </trkpt>
      <trkpt lat="47.25016" lon="6.10709">
        <ele>556.4</ele>
        <time>2022-09-12T08:25:14Z</time>
      </trkpt>
      <trkpt lat="47.25016" lon="6.10696">
        <ele>557.6</ele>
        <time>2022-09-12T08:25:12Z</time>
      </trkpt>
      <trkpt lat="47.25017" lon="6.10685">
        <ele>558.4</ele>
        <time>2022-09-12T08:25:10Z</time>
      </trkpt>
      <trkpt lat="47.25017" lon="6.10675">
        <ele>559</ele>
        <time>2022-09-12T08:25:08Z</time>
      </trkpt>
      <trkpt lat="47.25016" lon="6.10663">
        <ele>559.4</ele>
        <time>2022-09-12T08:25:06Z</time>
      </trkpt>
      <trkpt lat="47.25023" lon="6.10642">
        <ele>560.4</ele>
        <time>2022-09-12T08:25:02Z</time>
      </trkpt>
      <trkpt lat="47.25025" lon="6.10638">
        <ele>560.8</ele>
        <time>2022-09-12T08:25:01Z</time>
      </trkpt>
      <trkpt lat="47.25026" lon="6.10634">
        <ele>561.2</ele>
        <time>2022-09-12T08:25:00Z</time>
      </trkpt>
      <trkpt lat="47.25027" lon="6.10629">
        <ele>561.6</ele>
        <time>2022-09-12T08:24:59Z</time>
      </trkpt>
      <trkpt lat="47.25028" lon="6.10622">
        <ele>562.4</ele>
        <time>2022-09-12T08:24:57Z</time>
      </trkpt>
      <trkpt lat="47.25029" lon="6.10619">
        <ele>562.4</ele>
        <time>2022-09-12T08:24:56Z</time>
      </trkpt>
      <trkpt lat="47.25035" lon="6.10611">
        <ele>562.8</ele>
        <time>2022-09-12T08:24:53Z</time>
      </trkpt>
      <trkpt lat="47.25041" lon="6.10601">
        <ele>563.4</ele>
        <time>2022-09-12T08:24:51Z</time>
      </trkpt>
      <trkpt lat="47.25052" lon="6.10576">
        <ele>564.2</ele>
        <time>2022-09-12T08:24:46Z</time>
      </trkpt>
      <trkpt lat="47.25055" lon="6.10559">
        <ele>563.6</ele>
        <time>2022-09-12T08:24:41Z</time>
      </trkpt>
      <trkpt lat="47.25056" lon="6.10531">
        <ele>564</ele>
        <time>2022-09-12T08:24:35Z</time>
      </trkpt>
      <trkpt lat="47.25061" lon="6.10513">
        <ele>564</ele>
        <time>2022-09-12T08:24:30Z</time>
      </trkpt>
      <trkpt lat="47.25063" lon="6.10479">
        <ele>564.4</ele>
        <time>2022-09-12T08:24:23Z</time>
      </trkpt>
      <trkpt lat="47.25064" lon="6.10475">
        <ele>564.2</ele>
        <time>2022-09-12T08:24:22Z</time>
      </trkpt>
      <trkpt lat="47.25065" lon="6.1047">
        <ele>564</ele>
        <time>2022-09-12T08:24:21Z</time>
      </trkpt>
      <trkpt lat="47.25066" lon="6.10462">
        <ele>563.2</ele>
        <time>2022-09-12T08:24:19Z</time>
      </trkpt>
      <trkpt lat="47.25066" lon="6.10459">
        <ele>563</ele>
        <time>2022-09-12T08:24:18Z</time>
      </trkpt>
      <trkpt lat="47.25067" lon="6.10442">
        <ele>563</ele>
        <time>2022-09-12T08:24:13Z</time>
      </trkpt>
      <trkpt lat="47.25069" lon="6.10414">
        <ele>562</ele>
        <time>2022-09-12T08:24:07Z</time>
      </trkpt>
      <trkpt lat="47.2507" lon="6.10393">
        <ele>562.8</ele>
        <time>2022-09-12T08:24:01Z</time>
      </trkpt>
      <trkpt lat="47.25073" lon="6.1037">
        <ele>562.6</ele>
        <time>2022-09-12T08:23:55Z</time>
      </trkpt>
      <trkpt lat="47.25076" lon="6.10358">
        <ele>562.8</ele>
        <time>2022-09-12T08:23:52Z</time>
      </trkpt>
      <trkpt lat="47.25076" lon="6.10344">
        <ele>563.6</ele>
        <time>2022-09-12T08:23:48Z</time>
      </trkpt>
      <trkpt lat="47.25075" lon="6.10328">
        <ele>563.8</ele>
        <time>2022-09-12T08:23:44Z</time>
      </trkpt>
      <trkpt lat="47.25075" lon="6.10316">
        <ele>563.6</ele>
        <time>2022-09-12T08:23:41Z</time>
      </trkpt>
      <trkpt lat="47.25082" lon="6.10293">
        <ele>563.2</ele>
        <time>2022-09-12T08:23:34Z</time>
      </trkpt>
      <trkpt lat="47.25084" lon="6.10279">
        <ele>562.8</ele>
        <time>2022-09-12T08:23:30Z</time>
      </trkpt>
      <trkpt lat="47.25086" lon="6.10272">
        <ele>561.6</ele>
        <time>2022-09-12T08:23:28Z</time>
      </trkpt>
      <trkpt lat="47.25088" lon="6.10264">
        <ele>560.6</ele>
        <time>2022-09-12T08:23:26Z</time>
      </trkpt>
      <trkpt lat="47.25091" lon="6.10247">
        <ele>559</ele>
        <time>2022-09-12T08:23:22Z</time>
      </trkpt>
      <trkpt lat="47.25095" lon="6.10227">
        <ele>559</ele>
        <time>2022-09-12T08:23:17Z</time>
      </trkpt>
      <trkpt lat="47.25095" lon="6.10219">
        <ele>559</ele>
        <time>2022-09-12T08:23:15Z</time>
      </trkpt>
      <trkpt lat="47.25095" lon="6.10198">
        <ele>558.6</ele>
        <time>2022-09-12T08:23:10Z</time>
      </trkpt>
      <trkpt lat="47.25097" lon="6.1017">
        <ele>558.6</ele>
        <time>2022-09-12T08:23:02Z</time>
      </trkpt>
      <trkpt lat="47.25101" lon="6.1015">
        <ele>558</ele>
        <time>2022-09-12T08:22:56Z</time>
      </trkpt>
      <trkpt lat="47.25102" lon="6.10142">
        <ele>556.8</ele>
        <time>2022-09-12T08:22:53Z</time>
      </trkpt>
      <trkpt lat="47.25103" lon="6.10138">
        <ele>556.6</ele>
        <time>2022-09-12T08:22:52Z</time>
      </trkpt>
      <trkpt lat="47.25106" lon="6.1013">
        <ele>556.2</ele>
        <time>2022-09-12T08:22:49Z</time>
      </trkpt>
      <trkpt lat="47.25107" lon="6.10128">
        <ele>556.2</ele>
        <time>2022-09-12T08:22:48Z</time>
      </trkpt>
      <trkpt lat="47.25112" lon="6.10121">
        <ele>555.8</ele>
        <time>2022-09-12T08:22:44Z</time>
      </trkpt>
      <trkpt lat="47.25114" lon="6.1012">
        <ele>555.6</ele>
        <time>2022-09-12T08:22:43Z</time>
      </trkpt>
      <trkpt lat="47.25117" lon="6.10115">
        <ele>555.4</ele>
        <time>2022-09-12T08:22:39Z</time>
      </trkpt>
      <trkpt lat="47.25105" lon="6.10095">
        <ele>555.4</ele>
        <time>2022-09-12T08:22:33Z</time>
      </trkpt>
      <trkpt lat="47.25086" lon="6.1006">
        <ele>555</ele>
        <time>2022-09-12T08:22:26Z</time>
      </trkpt>
      <trkpt lat="47.25062" lon="6.10006">
        <ele>555.6</ele>
        <time>2022-09-12T08:22:17Z</time>
      </trkpt>
      <trkpt lat="47.25044" lon="6.09961">
        <ele>556.4</ele>
        <time>2022-09-12T08:22:09Z</time>
      </trkpt>
      <trkpt lat="47.25035" lon="6.09937">
        <ele>555.8</ele>
        <time>2022-09-12T08:22:05Z</time>
      </trkpt>
      <trkpt lat="47.25029" lon="6.09926">
        <ele>555.4</ele>
        <time>2022-09-12T08:22:03Z</time>
      </trkpt>
      <trkpt lat="47.25017" lon="6.09911">
        <ele>555</ele>
        <time>2022-09-12T08:22:00Z</time>
      </trkpt>
      <trkpt lat="47.25003" lon="6.09902">
        <ele>554.8</ele>
        <time>2022-09-12T08:21:57Z</time>
      </trkpt>
      <trkpt lat="47.24988" lon="6.09896">
        <ele>554.6</ele>
        <time>2022-09-12T08:21:54Z</time>
      </trkpt>
      <trkpt lat="47.2497" lon="6.09888">
        <ele>555.8</ele>
        <time>2022-09-12T08:21:49Z</time>
      </trkpt>
      <trkpt lat="47.24953" lon="6.09875">
        <ele>556.6</ele>
        <time>2022-09-12T08:21:43Z</time>
      </trkpt>
      <trkpt lat="47.24943" lon="6.09859">
        <ele>557</ele>
        <time>2022-09-12T08:21:36Z</time>
      </trkpt>
      <trkpt lat="47.24937" lon="6.09845">
        <ele>556.8</ele>
        <time>2022-09-12T08:21:30Z</time>
      </trkpt>
      <trkpt lat="47.24933" lon="6.09839">
        <ele>557</ele>
        <time>2022-09-12T08:21:27Z</time>
      </trkpt>
      <trkpt lat="47.24931" lon="6.09833">
        <ele>557.4</ele>
        <time>2022-09-12T08:21:25Z</time>
      </trkpt>
      <trkpt lat="47.2493" lon="6.09821">
        <ele>557.8</ele>
        <time>2022-09-12T08:21:22Z</time>
      </trkpt>
      <trkpt lat="47.24941" lon="6.09811">
        <ele>558</ele>
        <time>2022-09-12T08:21:18Z</time>
      </trkpt>
      <trkpt lat="47.24943" lon="6.09808">
        <ele>558.2</ele>
        <time>2022-09-12T08:21:17Z</time>
      </trkpt>
      <trkpt lat="47.24947" lon="6.09796">
        <ele>558.6</ele>
        <time>2022-09-12T08:21:13Z</time>
      </trkpt>
      <trkpt lat="47.24949" lon="6.09779">
        <ele>559.4</ele>
        <time>2022-09-12T08:21:06Z</time>
      </trkpt>
      <trkpt lat="47.24947" lon="6.09764">
        <ele>559.6</ele>
        <time>2022-09-12T08:21:00Z</time>
      </trkpt>
      <trkpt lat="47.24946" lon="6.09762">
        <ele>559.8</ele>
        <time>2022-09-12T08:20:59Z</time>
      </trkpt>
      <trkpt lat="47.24944" lon="6.09747">
        <ele>560.2</ele>
        <time>2022-09-12T08:20:55Z</time>
      </trkpt>
      <trkpt lat="47.24944" lon="6.09741">
        <ele>560.2</ele>
        <time>2022-09-12T08:20:54Z</time>
      </trkpt>
      <trkpt lat="47.24929" lon="6.097">
        <ele>559.6</ele>
        <time>2022-09-12T08:20:48Z</time>
      </trkpt>
      <trkpt lat="47.24911" lon="6.09656">
        <ele>559.4</ele>
        <time>2022-09-12T08:20:42Z</time>
      </trkpt>
      <trkpt lat="47.24884" lon="6.09577">
        <ele>559.6</ele>
        <time>2022-09-12T08:20:33Z</time>
      </trkpt>
      <trkpt lat="47.24876" lon="6.09551">
        <ele>559.2</ele>
        <time>2022-09-12T08:20:30Z</time>
      </trkpt>
      <trkpt lat="47.24871" lon="6.09533">
        <ele>559.4</ele>
        <time>2022-09-12T08:20:28Z</time>
      </trkpt>
      <trkpt lat="47.24868" lon="6.09514">
        <ele>559.6</ele>
        <time>2022-09-12T08:20:26Z</time>
      </trkpt>
      <trkpt lat="47.24868" lon="6.09505">
        <ele>559.6</ele>
        <time>2022-09-12T08:20:25Z</time>
      </trkpt>
      <trkpt lat="47.24869" lon="6.09495">
        <ele>559.4</ele>
        <time>2022-09-12T08:20:24Z</time>
      </trkpt>
      <trkpt lat="47.2487" lon="6.09468">
        <ele>558.8</ele>
        <time>2022-09-12T08:20:21Z</time>
      </trkpt>
      <trkpt lat="47.24871" lon="6.09451">
        <ele>559</ele>
        <time>2022-09-12T08:20:19Z</time>
      </trkpt>
      <trkpt lat="47.24872" lon="6.09436">
        <ele>559</ele>
        <time>2022-09-12T08:20:17Z</time>
      </trkpt>
      <trkpt lat="47.24872" lon="6.0942">
        <ele>558.8</ele>
        <time>2022-09-12T08:20:15Z</time>
      </trkpt>
      <trkpt lat="47.2487" lon="6.09405">
        <ele>559.2</ele>
        <time>2022-09-12T08:20:13Z</time>
      </trkpt>
      <trkpt lat="47.24863" lon="6.09391">
        <ele>560</ele>
        <time>2022-09-12T08:20:11Z</time>
      </trkpt>
      <trkpt lat="47.24856" lon="6.09378">
        <ele>560.2</ele>
        <time>2022-09-12T08:20:09Z</time>
      </trkpt>
      <trkpt lat="47.24842" lon="6.09355">
        <ele>561.4</ele>
        <time>2022-09-12T08:20:05Z</time>
      </trkpt>
      <trkpt lat="47.24832" lon="6.0934">
        <ele>562.6</ele>
        <time>2022-09-12T08:20:02Z</time>
      </trkpt>
      <trkpt lat="47.24827" lon="6.0933">
        <ele>563.8</ele>
        <time>2022-09-12T08:20:00Z</time>
      </trkpt>
      <trkpt lat="47.24825" lon="6.09325">
        <ele>564.2</ele>
        <time>2022-09-12T08:19:59Z</time>
      </trkpt>
      <trkpt lat="47.24821" lon="6.09314">
        <ele>565.2</ele>
        <time>2022-09-12T08:19:57Z</time>
      </trkpt>
      <trkpt lat="47.24822" lon="6.09303">
        <ele>566.4</ele>
        <time>2022-09-12T08:19:55Z</time>
      </trkpt>
      <trkpt lat="47.24822" lon="6.09299">
        <ele>566.8</ele>
        <time>2022-09-12T08:19:54Z</time>
      </trkpt>
      <trkpt lat="47.24823" lon="6.09294">
        <ele>567.4</ele>
        <time>2022-09-12T08:19:53Z</time>
      </trkpt>
      <trkpt lat="47.24822" lon="6.09286">
        <ele>568.8</ele>
        <time>2022-09-12T08:19:51Z</time>
      </trkpt>
      <trkpt lat="47.2482" lon="6.09285">
        <ele>569.2</ele>
        <time>2022-09-12T08:19:50Z</time>
      </trkpt>
      <trkpt lat="47.24814" lon="6.09285">
        <ele>569.8</ele>
        <time>2022-09-12T08:19:48Z</time>
      </trkpt>
      <trkpt lat="47.24804" lon="6.09289">
        <ele>570.4</ele>
        <time>2022-09-12T08:19:46Z</time>
      </trkpt>
      <trkpt lat="47.24793" lon="6.09294">
        <ele>571</ele>
        <time>2022-09-12T08:19:44Z</time>
      </trkpt>
      <trkpt lat="47.24786" lon="6.09297">
        <ele>571.4</ele>
        <time>2022-09-12T08:19:43Z</time>
      </trkpt>
      <trkpt lat="47.24773" lon="6.09301">
        <ele>572.4</ele>
        <time>2022-09-12T08:19:41Z</time>
      </trkpt>
      <trkpt lat="47.24761" lon="6.09303">
        <ele>573.4</ele>
        <time>2022-09-12T08:19:39Z</time>
      </trkpt>
      <trkpt lat="47.2475" lon="6.09304">
        <ele>574.6</ele>
        <time>2022-09-12T08:19:37Z</time>
      </trkpt>
      <trkpt lat="47.24735" lon="6.09304">
        <ele>576</ele>
        <time>2022-09-12T08:19:34Z</time>
      </trkpt>
      <trkpt lat="47.24726" lon="6.09303">
        <ele>576.6</ele>
        <time>2022-09-12T08:19:32Z</time>
      </trkpt>
      <trkpt lat="47.24721" lon="6.09302">
        <ele>577</ele>
        <time>2022-09-12T08:19:31Z</time>
      </trkpt>
      <trkpt lat="47.24712" lon="6.09295">
        <ele>577.6</ele>
        <time>2022-09-12T08:19:29Z</time>
      </trkpt>
      <trkpt lat="47.247" lon="6.09282">
        <ele>578.2</ele>
        <time>2022-09-12T08:19:26Z</time>
      </trkpt>
      <trkpt lat="47.24686" lon="6.09265">
        <ele>579.2</ele>
        <time>2022-09-12T08:19:22Z</time>
      </trkpt>
      <trkpt lat="47.2468" lon="6.09258">
        <ele>579.8</ele>
        <time>2022-09-12T08:19:20Z</time>
      </trkpt>
      <trkpt lat="47.24673" lon="6.0925">
        <ele>580.4</ele>
        <time>2022-09-12T08:19:18Z</time>
      </trkpt>
      <trkpt lat="47.24665" lon="6.0924">
        <ele>581</ele>
        <time>2022-09-12T08:19:16Z</time>
      </trkpt>
      <trkpt lat="47.24656" lon="6.09226">
        <ele>581.4</ele>
        <time>2022-09-12T08:19:14Z</time>
      </trkpt>
      <trkpt lat="47.24637" lon="6.092">
        <ele>582.4</ele>
        <time>2022-09-12T08:19:10Z</time>
      </trkpt>
      <trkpt lat="47.24633" lon="6.09192">
        <ele>582.8</ele>
        <time>2022-09-12T08:19:09Z</time>
      </trkpt>
      <trkpt lat="47.24611" lon="6.09155">
        <ele>583.8</ele>
        <time>2022-09-12T08:19:04Z</time>
      </trkpt>
      <trkpt lat="47.24586" lon="6.09102">
        <ele>584.8</ele>
        <time>2022-09-12T08:18:56Z</time>
      </trkpt>
      <trkpt lat="47.24583" lon="6.09095">
        <ele>585</ele>
        <time>2022-09-12T08:18:55Z</time>
      </trkpt>
      <trkpt lat="47.24565" lon="6.09048">
        <ele>586.2</ele>
        <time>2022-09-12T08:18:49Z</time>
      </trkpt>
      <trkpt lat="47.24562" lon="6.0904">
        <ele>586.4</ele>
        <time>2022-09-12T08:18:48Z</time>
      </trkpt>
      <trkpt lat="47.24556" lon="6.09024">
        <ele>587.2</ele>
        <time>2022-09-12T08:18:46Z</time>
      </trkpt>
      <trkpt lat="47.24551" lon="6.09009">
        <ele>588.4</ele>
        <time>2022-09-12T08:18:44Z</time>
      </trkpt>
      <trkpt lat="47.24546" lon="6.08994">
        <ele>589.6</ele>
        <time>2022-09-12T08:18:42Z</time>
      </trkpt>
      <trkpt lat="47.24541" lon="6.0898">
        <ele>590.8</ele>
        <time>2022-09-12T08:18:40Z</time>
      </trkpt>
      <trkpt lat="47.24533" lon="6.08959">
        <ele>592.2</ele>
        <time>2022-09-12T08:18:37Z</time>
      </trkpt>
      <trkpt lat="47.24526" lon="6.08939">
        <ele>593.4</ele>
        <time>2022-09-12T08:18:34Z</time>
      </trkpt>
      <trkpt lat="47.24524" lon="6.08933">
        <ele>594</ele>
        <time>2022-09-12T08:18:33Z</time>
      </trkpt>
      <trkpt lat="47.2452" lon="6.08921">
        <ele>594.8</ele>
        <time>2022-09-12T08:18:31Z</time>
      </trkpt>
      <trkpt lat="47.24509" lon="6.08891">
        <ele>595.6</ele>
        <time>2022-09-12T08:18:26Z</time>
      </trkpt>
      <trkpt lat="47.24507" lon="6.08886">
        <ele>595.8</ele>
        <time>2022-09-12T08:18:25Z</time>
      </trkpt>
      <trkpt lat="47.24496" lon="6.08856">
        <ele>597.4</ele>
        <time>2022-09-12T08:18:19Z</time>
      </trkpt>
      <trkpt lat="47.2448" lon="6.08837">
        <ele>597</ele>
        <time>2022-09-12T08:18:12Z</time>
      </trkpt>
      <trkpt lat="47.24467" lon="6.08822">
        <ele>597.2</ele>
        <time>2022-09-12T08:18:07Z</time>
      </trkpt>
      <trkpt lat="47.24463" lon="6.08816">
        <ele>597.6</ele>
        <time>2022-09-12T08:18:05Z</time>
      </trkpt>
      <trkpt lat="47.24455" lon="6.08798">
        <ele>598.4</ele>
        <time>2022-09-12T08:18:00Z</time>
      </trkpt>
      <trkpt lat="47.24456" lon="6.08781">
        <ele>599.2</ele>
        <time>2022-09-12T08:17:56Z</time>
      </trkpt>
      <trkpt lat="47.2446" lon="6.08753">
        <ele>598.6</ele>
        <time>2022-09-12T08:17:50Z</time>
      </trkpt>
      <trkpt lat="47.24462" lon="6.08743">
        <ele>598.4</ele>
        <time>2022-09-12T08:17:48Z</time>
      </trkpt>
      <trkpt lat="47.2447" lon="6.08718">
        <ele>597.2</ele>
        <time>2022-09-12T08:17:42Z</time>
      </trkpt>
      <trkpt lat="47.24471" lon="6.08714">
        <ele>596.6</ele>
        <time>2022-09-12T08:17:41Z</time>
      </trkpt>
      <trkpt lat="47.24478" lon="6.08693">
        <ele>596</ele>
        <time>2022-09-12T08:17:36Z</time>
      </trkpt>
      <trkpt lat="47.2448" lon="6.08689">
        <ele>595.8</ele>
        <time>2022-09-12T08:17:35Z</time>
      </trkpt>
      <trkpt lat="47.24491" lon="6.08668">
        <ele>595</ele>
        <time>2022-09-12T08:17:29Z</time>
      </trkpt>
      <trkpt lat="47.24499" lon="6.08648">
        <ele>593.6</ele>
        <time>2022-09-12T08:17:23Z</time>
      </trkpt>
      <trkpt lat="47.24506" lon="6.08629">
        <ele>593.2</ele>
        <time>2022-09-12T08:17:17Z</time>
      </trkpt>
      <trkpt lat="47.24513" lon="6.0861">
        <ele>593.6</ele>
        <time>2022-09-12T08:17:10Z</time>
      </trkpt>
      <trkpt lat="47.24519" lon="6.08592">
        <ele>593.4</ele>
        <time>2022-09-12T08:17:04Z</time>
      </trkpt>
      <trkpt lat="47.24519" lon="6.08589">
        <ele>593.6</ele>
        <time>2022-09-12T08:17:03Z</time>
      </trkpt>
      <trkpt lat="47.24515" lon="6.08573">
        <ele>594.6</ele>
        <time>2022-09-12T08:16:58Z</time>
      </trkpt>
      <trkpt lat="47.24506" lon="6.08556">
        <ele>595.2</ele>
        <time>2022-09-12T08:16:52Z</time>
      </trkpt>
      <trkpt lat="47.24495" lon="6.08544">
        <ele>594.8</ele>
        <time>2022-09-12T08:16:46Z</time>
      </trkpt>
      <trkpt lat="47.24491" lon="6.08537">
        <ele>594.2</ele>
        <time>2022-09-12T08:16:43Z</time>
      </trkpt>
      <trkpt lat="47.24476" lon="6.08512">
        <ele>592.8</ele>
        <time>2022-09-12T08:16:31Z</time>
      </trkpt>
      <trkpt lat="47.2446" lon="6.08493">
        <ele>590.2</ele>
        <time>2022-09-12T08:16:20Z</time>
      </trkpt>
      <trkpt lat="47.24453" lon="6.08488">
        <ele>589</ele>
        <time>2022-09-12T08:16:16Z</time>
      </trkpt>
      <trkpt lat="47.24451" lon="6.08487">
        <ele>588.6</ele>
        <time>2022-09-12T08:16:15Z</time>
      </trkpt>
      <trkpt lat="47.24447" lon="6.08481">
        <ele>588</ele>
        <time>2022-09-12T08:16:11Z</time>
      </trkpt>
      <trkpt lat="47.2444" lon="6.08473">
        <ele>587</ele>
        <time>2022-09-12T08:16:07Z</time>
      </trkpt>
      <trkpt lat="47.24439" lon="6.08471">
        <ele>586.8</ele>
        <time>2022-09-12T08:16:06Z</time>
      </trkpt>
      <trkpt lat="47.24434" lon="6.08463">
        <ele>585.6</ele>
        <time>2022-09-12T08:16:03Z</time>
      </trkpt>
      <trkpt lat="47.2443" lon="6.08459">
        <ele>585</ele>
        <time>2022-09-12T08:16:00Z</time>
      </trkpt>
      <trkpt lat="47.24422" lon="6.0845">
        <ele>584.4</ele>
        <time>2022-09-12T08:15:55Z</time>
      </trkpt>
      <trkpt lat="47.24413" lon="6.08441">
        <ele>583.2</ele>
        <time>2022-09-12T08:15:51Z</time>
      </trkpt>
      <trkpt lat="47.24313" lon="6.0836">
        <ele>573.6</ele>
        <time>2022-09-12T08:14:51Z</time>
      </trkpt>
      <trkpt lat="47.2431" lon="6.08357">
        <ele>573.4</ele>
        <time>2022-09-12T08:14:49Z</time>
      </trkpt>
      <trkpt lat="47.24268" lon="6.0832">
        <ele>569.2</ele>
        <time>2022-09-12T08:14:24Z</time>
      </trkpt>
      <trkpt lat="47.24244" lon="6.08298">
        <ele>568.8</ele>
        <time>2022-09-12T08:14:09Z</time>
      </trkpt>
      <trkpt lat="47.2424" lon="6.08295">
        <ele>568.2</ele>
        <time>2022-09-12T08:14:06Z</time>
      </trkpt>
      <trkpt lat="47.24239" lon="6.08295">
        <ele>567.8</ele>
        <time>2022-09-12T08:14:05Z</time>
      </trkpt>
      <trkpt lat="47.2423" lon="6.08287">
        <ele>566.8</ele>
        <time>2022-09-12T08:14:00Z</time>
      </trkpt>
      <trkpt lat="47.24228" lon="6.08285">
        <ele>566.6</ele>
        <time>2022-09-12T08:13:59Z</time>
      </trkpt>
      <trkpt lat="47.24215" lon="6.08274">
        <ele>565.8</ele>
        <time>2022-09-12T08:13:52Z</time>
      </trkpt>
      <trkpt lat="47.24209" lon="6.08269">
        <ele>564.4</ele>
        <time>2022-09-12T08:13:48Z</time>
      </trkpt>
      <trkpt lat="47.24204" lon="6.08263">
        <ele>563</ele>
        <time>2022-09-12T08:13:45Z</time>
      </trkpt>
      <trkpt lat="47.242" lon="6.08258">
        <ele>562.6</ele>
        <time>2022-09-12T08:13:43Z</time>
      </trkpt>
      <trkpt lat="47.24192" lon="6.08249">
        <ele>562</ele>
        <time>2022-09-12T08:13:38Z</time>
      </trkpt>
      <trkpt lat="47.24188" lon="6.08243">
        <ele>561.2</ele>
        <time>2022-09-12T08:13:34Z</time>
      </trkpt>
      <trkpt lat="47.24181" lon="6.08235">
        <ele>561</ele>
        <time>2022-09-12T08:13:30Z</time>
      </trkpt>
      <trkpt lat="47.24176" lon="6.08231">
        <ele>560.4</ele>
        <time>2022-09-12T08:13:27Z</time>
      </trkpt>
      <trkpt lat="47.24172" lon="6.08226">
        <ele>559.8</ele>
        <time>2022-09-12T08:13:24Z</time>
      </trkpt>
      <trkpt lat="47.24164" lon="6.08216">
        <ele>558.8</ele>
        <time>2022-09-12T08:13:19Z</time>
      </trkpt>
      <trkpt lat="47.24159" lon="6.08209">
        <ele>557.6</ele>
        <time>2022-09-12T08:13:15Z</time>
      </trkpt>
      <trkpt lat="47.24154" lon="6.08204">
        <ele>556.6</ele>
        <time>2022-09-12T08:13:11Z</time>
      </trkpt>
      <trkpt lat="47.24148" lon="6.08199">
        <ele>555.6</ele>
        <time>2022-09-12T08:13:08Z</time>
      </trkpt>
      <trkpt lat="47.24139" lon="6.0819">
        <ele>554.4</ele>
        <time>2022-09-12T08:13:04Z</time>
      </trkpt>
      <trkpt lat="47.24137" lon="6.08189">
        <ele>554.4</ele>
        <time>2022-09-12T08:13:03Z</time>
      </trkpt>
      <trkpt lat="47.24131" lon="6.08183">
        <ele>554.2</ele>
        <time>2022-09-12T08:12:58Z</time>
      </trkpt>
      <trkpt lat="47.24128" lon="6.08179">
        <ele>554.2</ele>
        <time>2022-09-12T08:12:56Z</time>
      </trkpt>
      <trkpt lat="47.24115" lon="6.08169">
        <ele>553.2</ele>
        <time>2022-09-12T08:12:48Z</time>
      </trkpt>
      <trkpt lat="47.24113" lon="6.08166">
        <ele>553.2</ele>
        <time>2022-09-12T08:12:46Z</time>
      </trkpt>
      <trkpt lat="47.24108" lon="6.0816">
        <ele>552</ele>
        <time>2022-09-12T08:12:43Z</time>
      </trkpt>
      <trkpt lat="47.24105" lon="6.08156">
        <ele>551.2</ele>
        <time>2022-09-12T08:12:41Z</time>
      </trkpt>
      <trkpt lat="47.24101" lon="6.08152">
        <ele>550.8</ele>
        <time>2022-09-12T08:12:39Z</time>
      </trkpt>
      <trkpt lat="47.24094" lon="6.08143">
        <ele>550.2</ele>
        <time>2022-09-12T08:12:34Z</time>
      </trkpt>
      <trkpt lat="47.24089" lon="6.08137">
        <ele>549.6</ele>
        <time>2022-09-12T08:12:30Z</time>
      </trkpt>
      <trkpt lat="47.24086" lon="6.08134">
        <ele>549.2</ele>
        <time>2022-09-12T08:12:28Z</time>
      </trkpt>
      <trkpt lat="47.24076" lon="6.08123">
        <ele>548</ele>
        <time>2022-09-12T08:12:21Z</time>
      </trkpt>
      <trkpt lat="47.24067" lon="6.08113">
        <ele>548.4</ele>
        <time>2022-09-12T08:12:15Z</time>
      </trkpt>
      <trkpt lat="47.24064" lon="6.08109">
        <ele>548.6</ele>
        <time>2022-09-12T08:12:13Z</time>
      </trkpt>
      <trkpt lat="47.24056" lon="6.08099">
        <ele>549.2</ele>
        <time>2022-09-12T08:12:08Z</time>
      </trkpt>
      <trkpt lat="47.24052" lon="6.08093">
        <ele>549.6</ele>
        <time>2022-09-12T08:12:05Z</time>
      </trkpt>
      <trkpt lat="47.24048" lon="6.08087">
        <ele>550.2</ele>
        <time>2022-09-12T08:12:02Z</time>
      </trkpt>
      <trkpt lat="47.24047" lon="6.08085">
        <ele>550.4</ele>
        <time>2022-09-12T08:12:01Z</time>
      </trkpt>
      <trkpt lat="47.24041" lon="6.08077">
        <ele>550.6</ele>
        <time>2022-09-12T08:11:58Z</time>
      </trkpt>
      <trkpt lat="47.24037" lon="6.08071">
        <ele>550.8</ele>
        <time>2022-09-12T08:11:55Z</time>
      </trkpt>
      <trkpt lat="47.24036" lon="6.08069">
        <ele>551</ele>
        <time>2022-09-12T08:11:54Z</time>
      </trkpt>
      <trkpt lat="47.24026" lon="6.08056">
        <ele>552</ele>
        <time>2022-09-12T08:11:47Z</time>
      </trkpt>
      <trkpt lat="47.24024" lon="6.08055">
        <ele>551.8</ele>
        <time>2022-09-12T08:11:46Z</time>
      </trkpt>
      <trkpt lat="47.24013" lon="6.08045">
        <ele>550.8</ele>
        <time>2022-09-12T08:11:40Z</time>
      </trkpt>
      <trkpt lat="47.24006" lon="6.08036">
        <ele>549.8</ele>
        <time>2022-09-12T08:11:36Z</time>
      </trkpt>
      <trkpt lat="47.24001" lon="6.08031">
        <ele>548.8</ele>
        <time>2022-09-12T08:11:33Z</time>
      </trkpt>
      <trkpt lat="47.23991" lon="6.0802">
        <ele>547.6</ele>
        <time>2022-09-12T08:11:26Z</time>
      </trkpt>
      <trkpt lat="47.2399" lon="6.08019">
        <ele>547.6</ele>
        <time>2022-09-12T08:11:25Z</time>
      </trkpt>
      <trkpt lat="47.23981" lon="6.0801">
        <ele>546.6</ele>
        <time>2022-09-12T08:11:20Z</time>
      </trkpt>
      <trkpt lat="47.23977" lon="6.08006">
        <ele>546.2</ele>
        <time>2022-09-12T08:11:18Z</time>
      </trkpt>
      <trkpt lat="47.23966" lon="6.07995">
        <ele>545.6</ele>
        <time>2022-09-12T08:11:13Z</time>
      </trkpt>
      <trkpt lat="47.23963" lon="6.07991">
        <ele>545</ele>
        <time>2022-09-12T08:11:11Z</time>
      </trkpt>
      <trkpt lat="47.23958" lon="6.07986">
        <ele>544.4</ele>
        <time>2022-09-12T08:11:09Z</time>
      </trkpt>
      <trkpt lat="47.23951" lon="6.07979">
        <ele>543.4</ele>
        <time>2022-09-12T08:11:06Z</time>
      </trkpt>
      <trkpt lat="47.23947" lon="6.07974">
        <ele>542.2</ele>
        <time>2022-09-12T08:11:04Z</time>
      </trkpt>
      <trkpt lat="47.23929" lon="6.07956">
        <ele>541.2</ele>
        <time>2022-09-12T08:10:58Z</time>
      </trkpt>
      <trkpt lat="47.2392" lon="6.07949">
        <ele>540.8</ele>
        <time>2022-09-12T08:10:54Z</time>
      </trkpt>
      <trkpt lat="47.23916" lon="6.07944">
        <ele>540.4</ele>
        <time>2022-09-12T08:10:52Z</time>
      </trkpt>
      <trkpt lat="47.23911" lon="6.07938">
        <ele>539.8</ele>
        <time>2022-09-12T08:10:49Z</time>
      </trkpt>
      <trkpt lat="47.23903" lon="6.0793">
        <ele>539</ele>
        <time>2022-09-12T08:10:44Z</time>
      </trkpt>
      <trkpt lat="47.23901" lon="6.07929">
        <ele>538.8</ele>
        <time>2022-09-12T08:10:43Z</time>
      </trkpt>
      <trkpt lat="47.23889" lon="6.07918">
        <ele>537.6</ele>
        <time>2022-09-12T08:10:37Z</time>
      </trkpt>
      <trkpt lat="47.23881" lon="6.07912">
        <ele>536.6</ele>
        <time>2022-09-12T08:10:33Z</time>
      </trkpt>
      <trkpt lat="47.23873" lon="6.07905">
        <ele>535.4</ele>
        <time>2022-09-12T08:10:29Z</time>
      </trkpt>
      <trkpt lat="47.23871" lon="6.07904">
        <ele>535.2</ele>
        <time>2022-09-12T08:10:28Z</time>
      </trkpt>
      <trkpt lat="47.23863" lon="6.07894">
        <ele>534.4</ele>
        <time>2022-09-12T08:10:23Z</time>
      </trkpt>
      <trkpt lat="47.23861" lon="6.07892">
        <ele>534</ele>
        <time>2022-09-12T08:10:22Z</time>
      </trkpt>
      <trkpt lat="47.23856" lon="6.07889">
        <ele>533.2</ele>
        <time>2022-09-12T08:10:20Z</time>
      </trkpt>
      <trkpt lat="47.23848" lon="6.07882">
        <ele>532.2</ele>
        <time>2022-09-12T08:10:16Z</time>
      </trkpt>
      <trkpt lat="47.23846" lon="6.07881">
        <ele>532</ele>
        <time>2022-09-12T08:10:15Z</time>
      </trkpt>
      <trkpt lat="47.23839" lon="6.07878">
        <ele>531.2</ele>
        <time>2022-09-12T08:10:11Z</time>
      </trkpt>
      <trkpt lat="47.23835" lon="6.07877">
        <ele>530.2</ele>
        <time>2022-09-12T08:10:09Z</time>
      </trkpt>
      <trkpt lat="47.23833" lon="6.07876">
        <ele>529.8</ele>
        <time>2022-09-12T08:10:08Z</time>
      </trkpt>
      <trkpt lat="47.23824" lon="6.07875">
        <ele>528.6</ele>
        <time>2022-09-12T08:10:04Z</time>
      </trkpt>
      <trkpt lat="47.23815" lon="6.07876">
        <ele>527.4</ele>
        <time>2022-09-12T08:10:00Z</time>
      </trkpt>
      <trkpt lat="47.23801" lon="6.07875">
        <ele>526.4</ele>
        <time>2022-09-12T08:09:54Z</time>
      </trkpt>
      <trkpt lat="47.23797" lon="6.07875">
        <ele>526.2</ele>
        <time>2022-09-12T08:09:52Z</time>
      </trkpt>
      <trkpt lat="47.23786" lon="6.07876">
        <ele>525.2</ele>
        <time>2022-09-12T08:09:47Z</time>
      </trkpt>
      <trkpt lat="47.2377" lon="6.07878">
        <ele>524</ele>
        <time>2022-09-12T08:09:41Z</time>
      </trkpt>
      <trkpt lat="47.23765" lon="6.0788">
        <ele>523.8</ele>
        <time>2022-09-12T08:09:39Z</time>
      </trkpt>
      <trkpt lat="47.23748" lon="6.07885">
        <ele>523</ele>
        <time>2022-09-12T08:09:32Z</time>
      </trkpt>
      <trkpt lat="47.23738" lon="6.07887">
        <ele>522.4</ele>
        <time>2022-09-12T08:09:28Z</time>
      </trkpt>
      <trkpt lat="47.23729" lon="6.07891">
        <ele>522</ele>
        <time>2022-09-12T08:09:24Z</time>
      </trkpt>
      <trkpt lat="47.23722" lon="6.07892">
        <ele>521.4</ele>
        <time>2022-09-12T08:09:21Z</time>
      </trkpt>
      <trkpt lat="47.23717" lon="6.07893">
        <ele>520.8</ele>
        <time>2022-09-12T08:09:19Z</time>
      </trkpt>
      <trkpt lat="47.23702" lon="6.07896">
        <ele>519.8</ele>
        <time>2022-09-12T08:09:13Z</time>
      </trkpt>
      <trkpt lat="47.23689" lon="6.07897">
        <ele>518.6</ele>
        <time>2022-09-12T08:09:07Z</time>
      </trkpt>
      <trkpt lat="47.23687" lon="6.07896">
        <ele>518.4</ele>
        <time>2022-09-12T08:09:06Z</time>
      </trkpt>
      <trkpt lat="47.2368" lon="6.0788">
        <ele>517.6</ele>
        <time>2022-09-12T08:09:00Z</time>
      </trkpt>
      <trkpt lat="47.23679" lon="6.07873">
        <ele>517.2</ele>
        <time>2022-09-12T08:08:58Z</time>
      </trkpt>
      <trkpt lat="47.23681" lon="6.07859">
        <ele>517</ele>
        <time>2022-09-12T08:08:54Z</time>
      </trkpt>
      <trkpt lat="47.23689" lon="6.07846">
        <ele>516.2</ele>
        <time>2022-09-12T08:08:49Z</time>
      </trkpt>
      <trkpt lat="47.23701" lon="6.07832">
        <ele>515</ele>
        <time>2022-09-12T08:08:43Z</time>
      </trkpt>
      <trkpt lat="47.2371" lon="6.07824">
        <ele>514</ele>
        <time>2022-09-12T08:08:39Z</time>
      </trkpt>
      <trkpt lat="47.23717" lon="6.07815">
        <ele>513</ele>
        <time>2022-09-12T08:08:35Z</time>
      </trkpt>
      <trkpt lat="47.23728" lon="6.07796">
        <ele>512</ele>
        <time>2022-09-12T08:08:28Z</time>
      </trkpt>
      <trkpt lat="47.23732" lon="6.07791">
        <ele>511.4</ele>
        <time>2022-09-12T08:08:26Z</time>
      </trkpt>
      <trkpt lat="47.23736" lon="6.07787">
        <ele>510.8</ele>
        <time>2022-09-12T08:08:24Z</time>
      </trkpt>
      <trkpt lat="47.23746" lon="6.07777">
        <ele>509.6</ele>
        <time>2022-09-12T08:08:19Z</time>
      </trkpt>
      <trkpt lat="47.23755" lon="6.0777">
        <ele>508.4</ele>
        <time>2022-09-12T08:08:15Z</time>
      </trkpt>
      <trkpt lat="47.23765" lon="6.07759">
        <ele>507.2</ele>
        <time>2022-09-12T08:08:10Z</time>
      </trkpt>
      <trkpt lat="47.2377" lon="6.07752">
        <ele>506.4</ele>
        <time>2022-09-12T08:08:07Z</time>
      </trkpt>
      <trkpt lat="47.23772" lon="6.0775">
        <ele>506.2</ele>
        <time>2022-09-12T08:08:06Z</time>
      </trkpt>
      <trkpt lat="47.23777" lon="6.07735">
        <ele>505.2</ele>
        <time>2022-09-12T08:08:01Z</time>
      </trkpt>
      <trkpt lat="47.23778" lon="6.07721">
        <ele>503.8</ele>
        <time>2022-09-12T08:07:57Z</time>
      </trkpt>
      <trkpt lat="47.2378" lon="6.07707">
        <ele>502.8</ele>
        <time>2022-09-12T08:07:53Z</time>
      </trkpt>
      <trkpt lat="47.23781" lon="6.07703">
        <ele>502.4</ele>
        <time>2022-09-12T08:07:52Z</time>
      </trkpt>
      <trkpt lat="47.2378" lon="6.07685">
        <ele>501.6</ele>
        <time>2022-09-12T08:07:47Z</time>
      </trkpt>
      <trkpt lat="47.23772" lon="6.07672">
        <ele>500.2</ele>
        <time>2022-09-12T08:07:42Z</time>
      </trkpt>
      <trkpt lat="47.23769" lon="6.0767">
        <ele>500</ele>
        <time>2022-09-12T08:07:41Z</time>
      </trkpt>
      <trkpt lat="47.23753" lon="6.07664">
        <ele>499</ele>
        <time>2022-09-12T08:07:35Z</time>
      </trkpt>
      <trkpt lat="47.23745" lon="6.07662">
        <ele>498.6</ele>
        <time>2022-09-12T08:07:32Z</time>
      </trkpt>
      <trkpt lat="47.23727" lon="6.07657">
        <ele>498</ele>
        <time>2022-09-12T08:07:25Z</time>
      </trkpt>
      <trkpt lat="47.23709" lon="6.07654">
        <ele>496.8</ele>
        <time>2022-09-12T08:07:18Z</time>
      </trkpt>
      <trkpt lat="47.23701" lon="6.07652">
        <ele>496.8</ele>
        <time>2022-09-12T08:07:15Z</time>
      </trkpt>
      <trkpt lat="47.2369" lon="6.07654">
        <ele>495.6</ele>
        <time>2022-09-12T08:07:11Z</time>
      </trkpt>
      <trkpt lat="47.23671" lon="6.0767">
        <ele>494.6</ele>
        <time>2022-09-12T08:07:03Z</time>
      </trkpt>
      <trkpt lat="47.2367" lon="6.07673">
        <ele>494.4</ele>
        <time>2022-09-12T08:07:02Z</time>
      </trkpt>
      <trkpt lat="47.23655" lon="6.07699">
        <ele>493.4</ele>
        <time>2022-09-12T08:06:54Z</time>
      </trkpt>
      <trkpt lat="47.23647" lon="6.07717">
        <ele>492.2</ele>
        <time>2022-09-12T08:06:49Z</time>
      </trkpt>
      <trkpt lat="47.23636" lon="6.07733">
        <ele>492</ele>
        <time>2022-09-12T08:06:44Z</time>
      </trkpt>
      <trkpt lat="47.23622" lon="6.07754">
        <ele>490.8</ele>
        <time>2022-09-12T08:06:37Z</time>
      </trkpt>
      <trkpt lat="47.2361" lon="6.07764">
        <ele>491</ele>
        <time>2022-09-12T08:06:32Z</time>
      </trkpt>
      <trkpt lat="47.23607" lon="6.07766">
        <ele>491.2</ele>
        <time>2022-09-12T08:06:31Z</time>
      </trkpt>
      <trkpt lat="47.23601" lon="6.0778">
        <ele>491.8</ele>
        <time>2022-09-12T08:06:28Z</time>
      </trkpt>
      <trkpt lat="47.23597" lon="6.07794">
        <ele>492.4</ele>
        <time>2022-09-12T08:06:25Z</time>
      </trkpt>
      <trkpt lat="47.23594" lon="6.07799">
        <ele>492.6</ele>
        <time>2022-09-12T08:06:24Z</time>
      </trkpt>
      <trkpt lat="47.23591" lon="6.07803">
        <ele>493</ele>
        <time>2022-09-12T08:06:23Z</time>
      </trkpt>
      <trkpt lat="47.23588" lon="6.07808">
        <ele>493.4</ele>
        <time>2022-09-12T08:06:22Z</time>
      </trkpt>
      <trkpt lat="47.23577" lon="6.0782">
        <ele>494.6</ele>
        <time>2022-09-12T08:06:19Z</time>
      </trkpt>
      <trkpt lat="47.23571" lon="6.07827">
        <ele>495.4</ele>
        <time>2022-09-12T08:06:17Z</time>
      </trkpt>
      <trkpt lat="47.2355" lon="6.07853">
        <ele>496.4</ele>
        <time>2022-09-12T08:06:10Z</time>
      </trkpt>
      <trkpt lat="47.2354" lon="6.07862">
        <ele>496.2</ele>
        <time>2022-09-12T08:06:06Z</time>
      </trkpt>
      <trkpt lat="47.23537" lon="6.07862">
        <ele>495.8</ele>
        <time>2022-09-12T08:06:04Z</time>
      </trkpt>
      <trkpt lat="47.23534" lon="6.07856">
        <ele>494.6</ele>
        <time>2022-09-12T08:06:00Z</time>
      </trkpt>
      <trkpt lat="47.23532" lon="6.07849">
        <ele>493.6</ele>
        <time>2022-09-12T08:05:57Z</time>
      </trkpt>
      <trkpt lat="47.23531" lon="6.07842">
        <ele>492.4</ele>
        <time>2022-09-12T08:05:54Z</time>
      </trkpt>
      <trkpt lat="47.23529" lon="6.07833">
        <ele>491.2</ele>
        <time>2022-09-12T08:05:50Z</time>
      </trkpt>
      <trkpt lat="47.23527" lon="6.07823">
        <ele>490</ele>
        <time>2022-09-12T08:05:46Z</time>
      </trkpt>
      <trkpt lat="47.23527" lon="6.07814">
        <ele>489.4</ele>
        <time>2022-09-12T08:05:42Z</time>
      </trkpt>
      <trkpt lat="47.23526" lon="6.07807">
        <ele>489</ele>
        <time>2022-09-12T08:05:39Z</time>
      </trkpt>
      <trkpt lat="47.23525" lon="6.07798">
        <ele>488.4</ele>
        <time>2022-09-12T08:05:36Z</time>
      </trkpt>
      <trkpt lat="47.23525" lon="6.07793">
        <ele>488</ele>
        <time>2022-09-12T08:05:34Z</time>
      </trkpt>
      <trkpt lat="47.23523" lon="6.07781">
        <ele>487.4</ele>
        <time>2022-09-12T08:05:29Z</time>
      </trkpt>
      <trkpt lat="47.23515" lon="6.07777">
        <ele>487</ele>
        <time>2022-09-12T08:05:24Z</time>
      </trkpt>
      <trkpt lat="47.23513" lon="6.07774">
        <ele>486.8</ele>
        <time>2022-09-12T08:05:22Z</time>
      </trkpt>
      <trkpt lat="47.2351" lon="6.07771">
        <ele>486.8</ele>
        <time>2022-09-12T08:05:20Z</time>
      </trkpt>
      <trkpt lat="47.235" lon="6.07766">
        <ele>486.8</ele>
        <time>2022-09-12T08:05:16Z</time>
      </trkpt>
      <trkpt lat="47.23497" lon="6.07763">
        <ele>486.8</ele>
        <time>2022-09-12T08:05:15Z</time>
      </trkpt>
      <trkpt lat="47.23476" lon="6.07746">
        <ele>487.8</ele>
        <time>2022-09-12T08:05:10Z</time>
      </trkpt>
      <trkpt lat="47.23467" lon="6.07738">
        <ele>488.2</ele>
        <time>2022-09-12T08:05:08Z</time>
      </trkpt>
      <trkpt lat="47.23458" lon="6.07728">
        <ele>489</ele>
        <time>2022-09-12T08:05:06Z</time>
      </trkpt>
      <trkpt lat="47.23446" lon="6.07718">
        <ele>489.8</ele>
        <time>2022-09-12T08:05:03Z</time>
      </trkpt>
      <trkpt lat="47.23429" lon="6.07708">
        <ele>490.2</ele>
        <time>2022-09-12T08:04:57Z</time>
      </trkpt>
      <trkpt lat="47.23407" lon="6.07694">
        <ele>490.4</ele>
        <time>2022-09-12T08:04:48Z</time>
      </trkpt>
      <trkpt lat="47.23397" lon="6.0769">
        <ele>490.2</ele>
        <time>2022-09-12T08:04:44Z</time>
      </trkpt>
      <trkpt lat="47.23391" lon="6.07688">
        <ele>490</ele>
        <time>2022-09-12T08:04:41Z</time>
      </trkpt>
      <trkpt lat="47.23384" lon="6.0768">
        <ele>489.2</ele>
        <time>2022-09-12T08:04:37Z</time>
      </trkpt>
      <trkpt lat="47.23382" lon="6.07674">
        <ele>488.6</ele>
        <time>2022-09-12T08:04:35Z</time>
      </trkpt>
      <trkpt lat="47.23378" lon="6.07661">
        <ele>488</ele>
        <time>2022-09-12T08:04:30Z</time>
      </trkpt>
      <trkpt lat="47.23378" lon="6.07658">
        <ele>487.8</ele>
        <time>2022-09-12T08:04:29Z</time>
      </trkpt>
      <trkpt lat="47.23377" lon="6.07641">
        <ele>486.8</ele>
        <time>2022-09-12T08:04:23Z</time>
      </trkpt>
      <trkpt lat="47.23376" lon="6.07631">
        <ele>486.2</ele>
        <time>2022-09-12T08:04:20Z</time>
      </trkpt>
      <trkpt lat="47.23379" lon="6.07606">
        <ele>485.6</ele>
        <time>2022-09-12T08:04:12Z</time>
      </trkpt>
      <trkpt lat="47.2338" lon="6.07602">
        <ele>485.4</ele>
        <time>2022-09-12T08:04:11Z</time>
      </trkpt>
      <trkpt lat="47.23385" lon="6.07571">
        <ele>485</ele>
        <time>2022-09-12T08:04:02Z</time>
      </trkpt>
      <trkpt lat="47.23391" lon="6.0754">
        <ele>484.6</ele>
        <time>2022-09-12T08:03:53Z</time>
      </trkpt>
      <trkpt lat="47.23392" lon="6.07536">
        <ele>484.4</ele>
        <time>2022-09-12T08:03:52Z</time>
      </trkpt>
      <trkpt lat="47.23393" lon="6.07517">
        <ele>483.6</ele>
        <time>2022-09-12T08:03:46Z</time>
      </trkpt>
      <trkpt lat="47.23393" lon="6.07508">
        <ele>483.4</ele>
        <time>2022-09-12T08:03:43Z</time>
      </trkpt>
      <trkpt lat="47.23391" lon="6.07496">
        <ele>482.4</ele>
        <time>2022-09-12T08:03:39Z</time>
      </trkpt>
      <trkpt lat="47.23392" lon="6.07494">
        <ele>482.2</ele>
        <time>2022-09-12T08:03:38Z</time>
      </trkpt>
      <trkpt lat="47.2339" lon="6.07475">
        <ele>481.2</ele>
        <time>2022-09-12T08:03:32Z</time>
      </trkpt>
      <trkpt lat="47.2339" lon="6.07472">
        <ele>481</ele>
        <time>2022-09-12T08:03:31Z</time>
      </trkpt>
      <trkpt lat="47.23392" lon="6.07464">
        <ele>480</ele>
        <time>2022-09-12T08:03:28Z</time>
      </trkpt>
      <trkpt lat="47.23393" lon="6.07453">
        <ele>479</ele>
        <time>2022-09-12T08:03:24Z</time>
      </trkpt>
      <trkpt lat="47.23393" lon="6.0745">
        <ele>478.8</ele>
        <time>2022-09-12T08:03:23Z</time>
      </trkpt>
      <trkpt lat="47.23393" lon="6.07436">
        <ele>477.6</ele>
        <time>2022-09-12T08:03:18Z</time>
      </trkpt>
      <trkpt lat="47.23393" lon="6.0743">
        <ele>477.4</ele>
        <time>2022-09-12T08:03:16Z</time>
      </trkpt>
      <trkpt lat="47.23394" lon="6.0741">
        <ele>476.6</ele>
        <time>2022-09-12T08:03:09Z</time>
      </trkpt>
      <trkpt lat="47.23394" lon="6.07407">
        <ele>476.4</ele>
        <time>2022-09-12T08:03:08Z</time>
      </trkpt>
      <trkpt lat="47.23394" lon="6.07391">
        <ele>475.4</ele>
        <time>2022-09-12T08:03:02Z</time>
      </trkpt>
      <trkpt lat="47.23395" lon="6.07382">
        <ele>474.8</ele>
        <time>2022-09-12T08:02:59Z</time>
      </trkpt>
      <trkpt lat="47.23395" lon="6.07377">
        <ele>474.2</ele>
        <time>2022-09-12T08:02:57Z</time>
      </trkpt>
      <trkpt lat="47.23396" lon="6.07367">
        <ele>473</ele>
        <time>2022-09-12T08:02:53Z</time>
      </trkpt>
      <trkpt lat="47.23396" lon="6.07356">
        <ele>472</ele>
        <time>2022-09-12T08:02:49Z</time>
      </trkpt>
      <trkpt lat="47.23397" lon="6.07349">
        <ele>471</ele>
        <time>2022-09-12T08:02:46Z</time>
      </trkpt>
      <trkpt lat="47.23398" lon="6.07338">
        <ele>469.8</ele>
        <time>2022-09-12T08:02:42Z</time>
      </trkpt>
      <trkpt lat="47.23399" lon="6.07335">
        <ele>469.8</ele>
        <time>2022-09-12T08:02:41Z</time>
      </trkpt>
      <trkpt lat="47.23403" lon="6.07322">
        <ele>468.8</ele>
        <time>2022-09-12T08:02:36Z</time>
      </trkpt>
      <trkpt lat="47.23406" lon="6.07318">
        <ele>468.2</ele>
        <time>2022-09-12T08:02:34Z</time>
      </trkpt>
      <trkpt lat="47.23409" lon="6.07315">
        <ele>467.6</ele>
        <time>2022-09-12T08:02:32Z</time>
      </trkpt>
      <trkpt lat="47.23416" lon="6.0731">
        <ele>466.4</ele>
        <time>2022-09-12T08:02:28Z</time>
      </trkpt>
      <trkpt lat="47.23417" lon="6.07309">
        <ele>466</ele>
        <time>2022-09-12T08:02:27Z</time>
      </trkpt>
      <trkpt lat="47.23421" lon="6.07306">
        <ele>465.2</ele>
        <time>2022-09-12T08:02:25Z</time>
      </trkpt>
      <trkpt lat="47.23428" lon="6.07303">
        <ele>463.8</ele>
        <time>2022-09-12T08:02:21Z</time>
      </trkpt>
      <trkpt lat="47.23432" lon="6.073">
        <ele>463.4</ele>
        <time>2022-09-12T08:02:19Z</time>
      </trkpt>
      <trkpt lat="47.23442" lon="6.07289">
        <ele>462.8</ele>
        <time>2022-09-12T08:02:13Z</time>
      </trkpt>
      <trkpt lat="47.23443" lon="6.0727">
        <ele>461.4</ele>
        <time>2022-09-12T08:02:06Z</time>
      </trkpt>
      <trkpt lat="47.23442" lon="6.07265">
        <ele>461.4</ele>
        <time>2022-09-12T08:02:04Z</time>
      </trkpt>
      <trkpt lat="47.2344" lon="6.07255">
        <ele>460.4</ele>
        <time>2022-09-12T08:02:00Z</time>
      </trkpt>
      <trkpt lat="47.23438" lon="6.07249">
        <ele>460</ele>
        <time>2022-09-12T08:01:57Z</time>
      </trkpt>
      <trkpt lat="47.23437" lon="6.07241">
        <ele>459.2</ele>
        <time>2022-09-12T08:01:54Z</time>
      </trkpt>
      <trkpt lat="47.23436" lon="6.07231">
        <ele>458</ele>
        <time>2022-09-12T08:01:50Z</time>
      </trkpt>
      <trkpt lat="47.23434" lon="6.07217">
        <ele>457</ele>
        <time>2022-09-12T08:01:45Z</time>
      </trkpt>
      <trkpt lat="47.23434" lon="6.07208">
        <ele>455.8</ele>
        <time>2022-09-12T08:01:42Z</time>
      </trkpt>
      <trkpt lat="47.23434" lon="6.07206">
        <ele>455.4</ele>
        <time>2022-09-12T08:01:41Z</time>
      </trkpt>
      <trkpt lat="47.23433" lon="6.07197">
        <ele>454.4</ele>
        <time>2022-09-12T08:01:38Z</time>
      </trkpt>
      <trkpt lat="47.2343" lon="6.0718">
        <ele>453.4</ele>
        <time>2022-09-12T08:01:32Z</time>
      </trkpt>
      <trkpt lat="47.23429" lon="6.07177">
        <ele>453.2</ele>
        <time>2022-09-12T08:01:31Z</time>
      </trkpt>
      <trkpt lat="47.23424" lon="6.07157">
        <ele>452.6</ele>
        <time>2022-09-12T08:01:23Z</time>
      </trkpt>
      <trkpt lat="47.23413" lon="6.07138">
        <ele>451.4</ele>
        <time>2022-09-12T08:01:14Z</time>
      </trkpt>
      <trkpt lat="47.23405" lon="6.07121">
        <ele>451.8</ele>
        <time>2022-09-12T08:01:06Z</time>
      </trkpt>
      <trkpt lat="47.23395" lon="6.07095">
        <ele>452</ele>
        <time>2022-09-12T08:00:56Z</time>
      </trkpt>
      <trkpt lat="47.23391" lon="6.07075">
        <ele>452</ele>
        <time>2022-09-12T08:00:48Z</time>
      </trkpt>
      <trkpt lat="47.23383" lon="6.07057">
        <ele>452.2</ele>
        <time>2022-09-12T08:00:40Z</time>
      </trkpt>
      <trkpt lat="47.23383" lon="6.07054">
        <ele>452.2</ele>
        <time>2022-09-12T08:00:39Z</time>
      </trkpt>
      <trkpt lat="47.23382" lon="6.07041">
        <ele>451</ele>
        <time>2022-09-12T08:00:34Z</time>
      </trkpt>
      <trkpt lat="47.23388" lon="6.07032">
        <ele>450.8</ele>
        <time>2022-09-12T08:00:29Z</time>
      </trkpt>
      <trkpt lat="47.23393" lon="6.07032">
        <ele>450.6</ele>
        <time>2022-09-12T08:00:27Z</time>
      </trkpt>
      <trkpt lat="47.23399" lon="6.07032">
        <ele>449.8</ele>
        <time>2022-09-12T08:00:24Z</time>
      </trkpt>
      <trkpt lat="47.23408" lon="6.07035">
        <ele>449</ele>
        <time>2022-09-12T08:00:19Z</time>
      </trkpt>
      <trkpt lat="47.23414" lon="6.07038">
        <ele>448.6</ele>
        <time>2022-09-12T08:00:16Z</time>
      </trkpt>
      <trkpt lat="47.23425" lon="6.07042">
        <ele>447.6</ele>
        <time>2022-09-12T08:00:11Z</time>
      </trkpt>
      <trkpt lat="47.23429" lon="6.07044">
        <ele>447.4</ele>
        <time>2022-09-12T08:00:09Z</time>
      </trkpt>
      <trkpt lat="47.23435" lon="6.07046">
        <ele>446.2</ele>
        <time>2022-09-12T08:00:06Z</time>
      </trkpt>
      <trkpt lat="47.23441" lon="6.07047">
        <ele>445.2</ele>
        <time>2022-09-12T08:00:03Z</time>
      </trkpt>
      <trkpt lat="47.23443" lon="6.07047">
        <ele>444.8</ele>
        <time>2022-09-12T08:00:02Z</time>
      </trkpt>
      <trkpt lat="47.23452" lon="6.07049">
        <ele>444</ele>
        <time>2022-09-12T07:59:58Z</time>
      </trkpt>
      <trkpt lat="47.23457" lon="6.07051">
        <ele>442.8</ele>
        <time>2022-09-12T07:59:55Z</time>
      </trkpt>
      <trkpt lat="47.23461" lon="6.07051">
        <ele>441.6</ele>
        <time>2022-09-12T07:59:53Z</time>
      </trkpt>
      <trkpt lat="47.23464" lon="6.07051">
        <ele>440</ele>
        <time>2022-09-12T07:59:51Z</time>
      </trkpt>
      <trkpt lat="47.23468" lon="6.07051">
        <ele>438.8</ele>
        <time>2022-09-12T07:59:49Z</time>
      </trkpt>
      <trkpt lat="47.23474" lon="6.0705">
        <ele>437.6</ele>
        <time>2022-09-12T07:59:46Z</time>
      </trkpt>
      <trkpt lat="47.23478" lon="6.0705">
        <ele>436.8</ele>
        <time>2022-09-12T07:59:44Z</time>
      </trkpt>
      <trkpt lat="47.23479" lon="6.0705">
        <ele>436.4</ele>
        <time>2022-09-12T07:59:43Z</time>
      </trkpt>
      <trkpt lat="47.23485" lon="6.0705">
        <ele>434.8</ele>
        <time>2022-09-12T07:59:40Z</time>
      </trkpt>
      <trkpt lat="47.23489" lon="6.0705">
        <ele>433.8</ele>
        <time>2022-09-12T07:59:38Z</time>
      </trkpt>
      <trkpt lat="47.23491" lon="6.0705">
        <ele>433.4</ele>
        <time>2022-09-12T07:59:37Z</time>
      </trkpt>
      <trkpt lat="47.23494" lon="6.0705">
        <ele>432.6</ele>
        <time>2022-09-12T07:59:35Z</time>
      </trkpt>
      <trkpt lat="47.23497" lon="6.0705">
        <ele>431.2</ele>
        <time>2022-09-12T07:59:33Z</time>
      </trkpt>
      <trkpt lat="47.23501" lon="6.0705">
        <ele>430.2</ele>
        <time>2022-09-12T07:59:31Z</time>
      </trkpt>
      <trkpt lat="47.23507" lon="6.07052">
        <ele>428.8</ele>
        <time>2022-09-12T07:59:28Z</time>
      </trkpt>
      <trkpt lat="47.23514" lon="6.07055">
        <ele>427.6</ele>
        <time>2022-09-12T07:59:25Z</time>
      </trkpt>
      <trkpt lat="47.23517" lon="6.07057">
        <ele>426.2</ele>
        <time>2022-09-12T07:59:23Z</time>
      </trkpt>
      <trkpt lat="47.23521" lon="6.07058">
        <ele>424.8</ele>
        <time>2022-09-12T07:59:21Z</time>
      </trkpt>
      <trkpt lat="47.23523" lon="6.07059">
        <ele>424</ele>
        <time>2022-09-12T07:59:20Z</time>
      </trkpt>
      <trkpt lat="47.23524" lon="6.07059">
        <ele>423.4</ele>
        <time>2022-09-12T07:59:19Z</time>
      </trkpt>
      <trkpt lat="47.23528" lon="6.07059">
        <ele>422</ele>
        <time>2022-09-12T07:59:17Z</time>
      </trkpt>
      <trkpt lat="47.2353" lon="6.07059">
        <ele>420.4</ele>
        <time>2022-09-12T07:59:15Z</time>
      </trkpt>
      <trkpt lat="47.23533" lon="6.0706">
        <ele>418.6</ele>
        <time>2022-09-12T07:59:13Z</time>
      </trkpt>
      <trkpt lat="47.23537" lon="6.07059">
        <ele>416.6</ele>
        <time>2022-09-12T07:59:11Z</time>
      </trkpt>
      <trkpt lat="47.23538" lon="6.07059">
        <ele>415.4</ele>
        <time>2022-09-12T07:59:10Z</time>
      </trkpt>
      <trkpt lat="47.23541" lon="6.07056">
        <ele>413.8</ele>
        <time>2022-09-12T07:59:08Z</time>
      </trkpt>
      <trkpt lat="47.23543" lon="6.07055">
        <ele>413</ele>
        <time>2022-09-12T07:59:07Z</time>
      </trkpt>
      <trkpt lat="47.23544" lon="6.07053">
        <ele>412.4</ele>
        <time>2022-09-12T07:59:06Z</time>
      </trkpt>
      <trkpt lat="47.23545" lon="6.0704">
        <ele>412.2</ele>
        <time>2022-09-12T07:59:00Z</time>
      </trkpt>
      <trkpt lat="47.23541" lon="6.07031">
        <ele>412.4</ele>
        <time>2022-09-12T07:58:56Z</time>
      </trkpt>
      <trkpt lat="47.23539" lon="6.07026">
        <ele>411.2</ele>
        <time>2022-09-12T07:58:54Z</time>
      </trkpt>
      <trkpt lat="47.23532" lon="6.07015">
        <ele>410</ele>
        <time>2022-09-12T07:58:49Z</time>
      </trkpt>
      <trkpt lat="47.23527" lon="6.07007">
        <ele>408.8</ele>
        <time>2022-09-12T07:58:46Z</time>
      </trkpt>
      <trkpt lat="47.23521" lon="6.06991">
        <ele>408</ele>
        <time>2022-09-12T07:58:39Z</time>
      </trkpt>
      <trkpt lat="47.23516" lon="6.06981">
        <ele>408</ele>
        <time>2022-09-12T07:58:33Z</time>
      </trkpt>
      <trkpt lat="47.23514" lon="6.06976">
        <ele>407.8</ele>
        <time>2022-09-12T07:58:31Z</time>
      </trkpt>
      <trkpt lat="47.23512" lon="6.0697">
        <ele>406.8</ele>
        <time>2022-09-12T07:58:29Z</time>
      </trkpt>
      <trkpt lat="47.23509" lon="6.06964">
        <ele>405.6</ele>
        <time>2022-09-12T07:58:25Z</time>
      </trkpt>
      <trkpt lat="47.23507" lon="6.06959">
        <ele>405.6</ele>
        <time>2022-09-12T07:58:23Z</time>
      </trkpt>
      <trkpt lat="47.23504" lon="6.06948">
        <ele>404.4</ele>
        <time>2022-09-12T07:58:18Z</time>
      </trkpt>
      <trkpt lat="47.23502" lon="6.06941">
        <ele>402.8</ele>
        <time>2022-09-12T07:58:15Z</time>
      </trkpt>
      <trkpt lat="47.23496" lon="6.06928">
        <ele>402</ele>
        <time>2022-09-12T07:58:09Z</time>
      </trkpt>
      <trkpt lat="47.23493" lon="6.06924">
        <ele>401.6</ele>
        <time>2022-09-12T07:58:07Z</time>
      </trkpt>
      <trkpt lat="47.23488" lon="6.06914">
        <ele>400.8</ele>
        <time>2022-09-12T07:58:02Z</time>
      </trkpt>
      <trkpt lat="47.23479" lon="6.06897">
        <ele>400.8</ele>
        <time>2022-09-12T07:57:54Z</time>
      </trkpt>
      <trkpt lat="47.23473" lon="6.06877">
        <ele>400</ele>
        <time>2022-09-12T07:57:45Z</time>
      </trkpt>
      <trkpt lat="47.23468" lon="6.06867">
        <ele>400.6</ele>
        <time>2022-09-12T07:57:40Z</time>
      </trkpt>
      <trkpt lat="47.23465" lon="6.06862">
        <ele>401.4</ele>
        <time>2022-09-12T07:57:37Z</time>
      </trkpt>
      <trkpt lat="47.23458" lon="6.06848">
        <ele>401.6</ele>
        <time>2022-09-12T07:57:30Z</time>
      </trkpt>
      <trkpt lat="47.23455" lon="6.06844">
        <ele>401</ele>
        <time>2022-09-12T07:57:28Z</time>
      </trkpt>
      <trkpt lat="47.23452" lon="6.06839">
        <ele>400.4</ele>
        <time>2022-09-12T07:57:26Z</time>
      </trkpt>
      <trkpt lat="47.23447" lon="6.0683">
        <ele>399.2</ele>
        <time>2022-09-12T07:57:22Z</time>
      </trkpt>
      <trkpt lat="47.23444" lon="6.06826">
        <ele>398.2</ele>
        <time>2022-09-12T07:57:20Z</time>
      </trkpt>
      <trkpt lat="47.23443" lon="6.06823">
        <ele>398</ele>
        <time>2022-09-12T07:57:19Z</time>
      </trkpt>
      <trkpt lat="47.23438" lon="6.06816">
        <ele>396.8</ele>
        <time>2022-09-12T07:57:15Z</time>
      </trkpt>
      <trkpt lat="47.23435" lon="6.0681">
        <ele>395.4</ele>
        <time>2022-09-12T07:57:12Z</time>
      </trkpt>
      <trkpt lat="47.23431" lon="6.06805">
        <ele>394</ele>
        <time>2022-09-12T07:57:10Z</time>
      </trkpt>
      <trkpt lat="47.23428" lon="6.068">
        <ele>392</ele>
        <time>2022-09-12T07:57:08Z</time>
      </trkpt>
      <trkpt lat="47.23424" lon="6.06794">
        <ele>390.2</ele>
        <time>2022-09-12T07:57:06Z</time>
      </trkpt>
      <trkpt lat="47.2342" lon="6.06787">
        <ele>389.4</ele>
        <time>2022-09-12T07:57:03Z</time>
      </trkpt>
      <trkpt lat="47.23417" lon="6.06782">
        <ele>389.4</ele>
        <time>2022-09-12T07:57:00Z</time>
      </trkpt>
      <trkpt lat="47.23412" lon="6.06772">
        <ele>389.6</ele>
        <time>2022-09-12T07:56:53Z</time>
      </trkpt>
      <trkpt lat="47.23405" lon="6.06763">
        <ele>388.6</ele>
        <time>2022-09-12T07:56:48Z</time>
      </trkpt>
      <trkpt lat="47.23398" lon="6.06749">
        <ele>389.4</ele>
        <time>2022-09-12T07:56:39Z</time>
      </trkpt>
      <trkpt lat="47.2339" lon="6.06732">
        <ele>389</ele>
        <time>2022-09-12T07:56:32Z</time>
      </trkpt>
      <trkpt lat="47.23389" lon="6.0673">
        <ele>389</ele>
        <time>2022-09-12T07:56:31Z</time>
      </trkpt>
      <trkpt lat="47.23381" lon="6.06713">
        <ele>388.8</ele>
        <time>2022-09-12T07:56:22Z</time>
      </trkpt>
      <trkpt lat="47.23373" lon="6.06696">
        <ele>388.2</ele>
        <time>2022-09-12T07:56:13Z</time>
      </trkpt>
      <trkpt lat="47.23365" lon="6.06679">
        <ele>388.8</ele>
        <time>2022-09-12T07:56:05Z</time>
      </trkpt>
      <trkpt lat="47.2336" lon="6.06666">
        <ele>388</ele>
        <time>2022-09-12T07:56:01Z</time>
      </trkpt>
      <trkpt lat="47.23359" lon="6.06656">
        <ele>386.6</ele>
        <time>2022-09-12T07:55:57Z</time>
      </trkpt>
      <trkpt lat="47.23359" lon="6.06654">
        <ele>386</ele>
        <time>2022-09-12T07:55:56Z</time>
      </trkpt>
      <trkpt lat="47.23359" lon="6.06649">
        <ele>385.2</ele>
        <time>2022-09-12T07:55:54Z</time>
      </trkpt>
      <trkpt lat="47.23359" lon="6.06644">
        <ele>384</ele>
        <time>2022-09-12T07:55:52Z</time>
      </trkpt>
      <trkpt lat="47.23359" lon="6.06642">
        <ele>383.6</ele>
        <time>2022-09-12T07:55:51Z</time>
      </trkpt>
      <trkpt lat="47.23358" lon="6.06638">
        <ele>383</ele>
        <time>2022-09-12T07:55:49Z</time>
      </trkpt>
      <trkpt lat="47.23357" lon="6.06635">
        <ele>381.8</ele>
        <time>2022-09-12T07:55:47Z</time>
      </trkpt>
      <trkpt lat="47.23354" lon="6.0663">
        <ele>380.4</ele>
        <time>2022-09-12T07:55:44Z</time>
      </trkpt>
      <trkpt lat="47.23351" lon="6.06625">
        <ele>379.6</ele>
        <time>2022-09-12T07:55:41Z</time>
      </trkpt>
      <trkpt lat="47.2335" lon="6.06624">
        <ele>379.2</ele>
        <time>2022-09-12T07:55:40Z</time>
      </trkpt>
      <trkpt lat="47.23347" lon="6.06619">
        <ele>378.2</ele>
        <time>2022-09-12T07:55:37Z</time>
      </trkpt>
      <trkpt lat="47.23345" lon="6.06615">
        <ele>377</ele>
        <time>2022-09-12T07:55:35Z</time>
      </trkpt>
      <trkpt lat="47.23343" lon="6.06611">
        <ele>376</ele>
        <time>2022-09-12T07:55:33Z</time>
      </trkpt>
      <trkpt lat="47.23342" lon="6.06609">
        <ele>375.6</ele>
        <time>2022-09-12T07:55:32Z</time>
      </trkpt>
      <trkpt lat="47.23342" lon="6.06603">
        <ele>374.4</ele>
        <time>2022-09-12T07:55:29Z</time>
      </trkpt>
      <trkpt lat="47.23342" lon="6.066">
        <ele>374</ele>
        <time>2022-09-12T07:55:28Z</time>
      </trkpt>
      <trkpt lat="47.23343" lon="6.06598">
        <ele>373.2</ele>
        <time>2022-09-12T07:55:27Z</time>
      </trkpt>
      <trkpt lat="47.23346" lon="6.06595">
        <ele>371.6</ele>
        <time>2022-09-12T07:55:25Z</time>
      </trkpt>
      <trkpt lat="47.23349" lon="6.06594">
        <ele>370.6</ele>
        <time>2022-09-12T07:55:23Z</time>
      </trkpt>
      <trkpt lat="47.23351" lon="6.06593">
        <ele>369.8</ele>
        <time>2022-09-12T07:55:22Z</time>
      </trkpt>
      <trkpt lat="47.23355" lon="6.06594">
        <ele>369</ele>
        <time>2022-09-12T07:55:20Z</time>
      </trkpt>
      <trkpt lat="47.23359" lon="6.06596">
        <ele>367.8</ele>
        <time>2022-09-12T07:55:18Z</time>
      </trkpt>
      <trkpt lat="47.23361" lon="6.06597">
        <ele>366.8</ele>
        <time>2022-09-12T07:55:17Z</time>
      </trkpt>
      <trkpt lat="47.23366" lon="6.066">
        <ele>365.2</ele>
        <time>2022-09-12T07:55:14Z</time>
      </trkpt>
      <trkpt lat="47.23368" lon="6.06601">
        <ele>364.4</ele>
        <time>2022-09-12T07:55:13Z</time>
      </trkpt>
      <trkpt lat="47.2337" lon="6.06603">
        <ele>363.8</ele>
        <time>2022-09-12T07:55:12Z</time>
      </trkpt>
      <trkpt lat="47.23377" lon="6.06611">
        <ele>362.2</ele>
        <time>2022-09-12T07:55:09Z</time>
      </trkpt>
      <trkpt lat="47.23381" lon="6.06616">
        <ele>361</ele>
        <time>2022-09-12T07:55:06Z</time>
      </trkpt>
      <trkpt lat="47.23391" lon="6.06624">
        <ele>360.6</ele>
        <time>2022-09-12T07:54:59Z</time>
      </trkpt>
      <trkpt lat="47.23394" lon="6.06626">
        <ele>360.6</ele>
        <time>2022-09-12T07:54:57Z</time>
      </trkpt>
      <trkpt lat="47.23403" lon="6.06633">
        <ele>360.8</ele>
        <time>2022-09-12T07:54:49Z</time>
      </trkpt>
      <trkpt lat="47.23411" lon="6.06638">
        <ele>361.2</ele>
        <time>2022-09-12T07:54:44Z</time>
      </trkpt>
      <trkpt lat="47.23413" lon="6.06642">
        <ele>360.6</ele>
        <time>2022-09-12T07:54:42Z</time>
      </trkpt>
      <trkpt lat="47.23415" lon="6.06644">
        <ele>360.2</ele>
        <time>2022-09-12T07:54:41Z</time>
      </trkpt>
      <trkpt lat="47.23421" lon="6.06648">
        <ele>359</ele>
        <time>2022-09-12T07:54:37Z</time>
      </trkpt>
      <trkpt lat="47.23426" lon="6.06653">
        <ele>358.4</ele>
        <time>2022-09-12T07:54:33Z</time>
      </trkpt>
      <trkpt lat="47.23429" lon="6.06658">
        <ele>357.8</ele>
        <time>2022-09-12T07:54:31Z</time>
      </trkpt>
      <trkpt lat="47.23439" lon="6.06667">
        <ele>357.2</ele>
        <time>2022-09-12T07:54:25Z</time>
      </trkpt>
      <trkpt lat="47.23444" lon="6.06674">
        <ele>356.8</ele>
        <time>2022-09-12T07:54:22Z</time>
      </trkpt>
      <trkpt lat="47.2346" lon="6.06695">
        <ele>355</ele>
        <time>2022-09-12T07:54:09Z</time>
      </trkpt>
      <trkpt lat="47.23461" lon="6.06697">
        <ele>355</ele>
        <time>2022-09-12T07:54:08Z</time>
      </trkpt>
      <trkpt lat="47.23471" lon="6.06706">
        <ele>353.8</ele>
        <time>2022-09-12T07:54:01Z</time>
      </trkpt>
      <trkpt lat="47.23472" lon="6.06708">
        <ele>353.4</ele>
        <time>2022-09-12T07:54:00Z</time>
      </trkpt>
      <trkpt lat="47.23477" lon="6.0671">
        <ele>352.4</ele>
        <time>2022-09-12T07:53:57Z</time>
      </trkpt>
      <trkpt lat="47.23482" lon="6.06714">
        <ele>351.6</ele>
        <time>2022-09-12T07:53:54Z</time>
      </trkpt>
      <trkpt lat="47.23485" lon="6.06717">
        <ele>351.2</ele>
        <time>2022-09-12T07:53:52Z</time>
      </trkpt>
      <trkpt lat="47.2349" lon="6.0672">
        <ele>349.8</ele>
        <time>2022-09-12T07:53:48Z</time>
      </trkpt>
      <trkpt lat="47.23495" lon="6.06724">
        <ele>349</ele>
        <time>2022-09-12T07:53:45Z</time>
      </trkpt>
      <trkpt lat="47.23496" lon="6.06725">
        <ele>349.2</ele>
        <time>2022-09-12T07:53:44Z</time>
      </trkpt>
      <trkpt lat="47.235" lon="6.06728">
        <ele>348.6</ele>
        <time>2022-09-12T07:53:41Z</time>
      </trkpt>
      <trkpt lat="47.23508" lon="6.06733">
        <ele>347</ele>
        <time>2022-09-12T07:53:36Z</time>
      </trkpt>
      <trkpt lat="47.23516" lon="6.0674">
        <ele>347.2</ele>
        <time>2022-09-12T07:53:31Z</time>
      </trkpt>
      <trkpt lat="47.23521" lon="6.06744">
        <ele>346.2</ele>
        <time>2022-09-12T07:53:28Z</time>
      </trkpt>
      <trkpt lat="47.23527" lon="6.06749">
        <ele>344.8</ele>
        <time>2022-09-12T07:53:24Z</time>
      </trkpt>
      <trkpt lat="47.23529" lon="6.06752">
        <ele>344.2</ele>
        <time>2022-09-12T07:53:22Z</time>
      </trkpt>
      <trkpt lat="47.23535" lon="6.06754">
        <ele>343.6</ele>
        <time>2022-09-12T07:53:18Z</time>
      </trkpt>
      <trkpt lat="47.23539" lon="6.06756">
        <ele>342.6</ele>
        <time>2022-09-12T07:53:15Z</time>
      </trkpt>
      <trkpt lat="47.2354" lon="6.06757">
        <ele>342.2</ele>
        <time>2022-09-12T07:53:14Z</time>
      </trkpt>
      <trkpt lat="47.23552" lon="6.06764">
        <ele>341.6</ele>
        <time>2022-09-12T07:53:06Z</time>
      </trkpt>
      <trkpt lat="47.23564" lon="6.06771">
        <ele>341.4</ele>
        <time>2022-09-12T07:52:59Z</time>
      </trkpt>
      <trkpt lat="47.23574" lon="6.06776">
        <ele>341.4</ele>
        <time>2022-09-12T07:52:52Z</time>
      </trkpt>
      <trkpt lat="47.23585" lon="6.06785">
        <ele>341.8</ele>
        <time>2022-09-12T07:52:45Z</time>
      </trkpt>
      <trkpt lat="47.23588" lon="6.06786">
        <ele>341.2</ele>
        <time>2022-09-12T07:52:43Z</time>
      </trkpt>
      <trkpt lat="47.23601" lon="6.06796">
        <ele>340.2</ele>
        <time>2022-09-12T07:52:35Z</time>
      </trkpt>
      <trkpt lat="47.23602" lon="6.06796">
        <ele>340.2</ele>
        <time>2022-09-12T07:52:34Z</time>
      </trkpt>
      <trkpt lat="47.23609" lon="6.06801">
        <ele>339.6</ele>
        <time>2022-09-12T07:52:30Z</time>
      </trkpt>
      <trkpt lat="47.23611" lon="6.06804">
        <ele>339.4</ele>
        <time>2022-09-12T07:52:28Z</time>
      </trkpt>
      <trkpt lat="47.23616" lon="6.06807">
        <ele>339.6</ele>
        <time>2022-09-12T07:52:24Z</time>
      </trkpt>
      <trkpt lat="47.23618" lon="6.06809">
        <ele>339.6</ele>
        <time>2022-09-12T07:52:22Z</time>
      </trkpt>
      <trkpt lat="47.23627" lon="6.06821">
        <ele>339.2</ele>
        <time>2022-09-12T07:52:14Z</time>
      </trkpt>
      <trkpt lat="47.23632" lon="6.06826">
        <ele>339</ele>
        <time>2022-09-12T07:52:10Z</time>
      </trkpt>
      <trkpt lat="47.23637" lon="6.06832">
        <ele>337.8</ele>
        <time>2022-09-12T07:52:06Z</time>
      </trkpt>
      <trkpt lat="47.23645" lon="6.0684">
        <ele>336.8</ele>
        <time>2022-09-12T07:52:00Z</time>
      </trkpt>
      <trkpt lat="47.2365" lon="6.06845">
        <ele>336</ele>
        <time>2022-09-12T07:51:57Z</time>
      </trkpt>
      <trkpt lat="47.23651" lon="6.06847">
        <ele>335.6</ele>
        <time>2022-09-12T07:51:56Z</time>
      </trkpt>
      <trkpt lat="47.23654" lon="6.06849">
        <ele>335.2</ele>
        <time>2022-09-12T07:51:54Z</time>
      </trkpt>
      <trkpt lat="47.23661" lon="6.06853">
        <ele>333.8</ele>
        <time>2022-09-12T07:51:48Z</time>
      </trkpt>
      <trkpt lat="47.23664" lon="6.06854">
        <ele>333.2</ele>
        <time>2022-09-12T07:51:46Z</time>
      </trkpt>
      <trkpt lat="47.23668" lon="6.06857">
        <ele>332.4</ele>
        <time>2022-09-12T07:51:43Z</time>
      </trkpt>
      <trkpt lat="47.2367" lon="6.06857">
        <ele>332</ele>
        <time>2022-09-12T07:51:42Z</time>
      </trkpt>
      <trkpt lat="47.23673" lon="6.06858">
        <ele>331.2</ele>
        <time>2022-09-12T07:51:40Z</time>
      </trkpt>
      <trkpt lat="47.23674" lon="6.06859">
        <ele>330.6</ele>
        <time>2022-09-12T07:51:39Z</time>
      </trkpt>
      <trkpt lat="47.23678" lon="6.06858">
        <ele>329.2</ele>
        <time>2022-09-12T07:51:36Z</time>
      </trkpt>
      <trkpt lat="47.23682" lon="6.06855">
        <ele>327.8</ele>
        <time>2022-09-12T07:51:33Z</time>
      </trkpt>
      <trkpt lat="47.23683" lon="6.06854">
        <ele>327.4</ele>
        <time>2022-09-12T07:51:32Z</time>
      </trkpt>
      <trkpt lat="47.23684" lon="6.06853">
        <ele>326.8</ele>
        <time>2022-09-12T07:51:31Z</time>
      </trkpt>
      <trkpt lat="47.23685" lon="6.0685">
        <ele>325.6</ele>
        <time>2022-09-12T07:51:29Z</time>
      </trkpt>
      <trkpt lat="47.23686" lon="6.06844">
        <ele>324.6</ele>
        <time>2022-09-12T07:51:26Z</time>
      </trkpt>
      <trkpt lat="47.23685" lon="6.06839">
        <ele>323.4</ele>
        <time>2022-09-12T07:51:23Z</time>
      </trkpt>
      <trkpt lat="47.23682" lon="6.06831">
        <ele>322</ele>
        <time>2022-09-12T07:51:19Z</time>
      </trkpt>
      <trkpt lat="47.2368" lon="6.06824">
        <ele>320.4</ele>
        <time>2022-09-12T07:51:16Z</time>
      </trkpt>
      <trkpt lat="47.23679" lon="6.06819">
        <ele>319.2</ele>
        <time>2022-09-12T07:51:14Z</time>
      </trkpt>
      <trkpt lat="47.23676" lon="6.06813">
        <ele>317.8</ele>
        <time>2022-09-12T07:51:11Z</time>
      </trkpt>
      <trkpt lat="47.23674" lon="6.06808">
        <ele>316.6</ele>
        <time>2022-09-12T07:51:09Z</time>
      </trkpt>
      <trkpt lat="47.23674" lon="6.06806">
        <ele>316</ele>
        <time>2022-09-12T07:51:08Z</time>
      </trkpt>
      <trkpt lat="47.23673" lon="6.06803">
        <ele>315.2</ele>
        <time>2022-09-12T07:51:07Z</time>
      </trkpt>
      <trkpt lat="47.23671" lon="6.06797">
        <ele>314</ele>
        <time>2022-09-12T07:51:04Z</time>
      </trkpt>
      <trkpt lat="47.23669" lon="6.06793">
        <ele>313</ele>
        <time>2022-09-12T07:51:02Z</time>
      </trkpt>
      <trkpt lat="47.23666" lon="6.06788">
        <ele>312</ele>
        <time>2022-09-12T07:51:00Z</time>
      </trkpt>
      <trkpt lat="47.23665" lon="6.06785">
        <ele>311.8</ele>
        <time>2022-09-12T07:50:59Z</time>
      </trkpt>
      <trkpt lat="47.23661" lon="6.06775">
        <ele>310.6</ele>
        <time>2022-09-12T07:50:56Z</time>
      </trkpt>
      <trkpt lat="47.23659" lon="6.06768">
        <ele>310.6</ele>
        <time>2022-09-12T07:50:53Z</time>
      </trkpt>
      <trkpt lat="47.23659" lon="6.06766">
        <ele>310.6</ele>
        <time>2022-09-12T07:50:52Z</time>
      </trkpt>
      <trkpt lat="47.23658" lon="6.06755">
        <ele>311</ele>
        <time>2022-09-12T07:50:46Z</time>
      </trkpt>
      <trkpt lat="47.23659" lon="6.06736">
        <ele>311.8</ele>
        <time>2022-09-12T07:50:37Z</time>
      </trkpt>
      <trkpt lat="47.23659" lon="6.06733">
        <ele>311.4</ele>
        <time>2022-09-12T07:50:36Z</time>
      </trkpt>
      <trkpt lat="47.23659" lon="6.06727">
        <ele>310.6</ele>
        <time>2022-09-12T07:50:34Z</time>
      </trkpt>
      <trkpt lat="47.2366" lon="6.06724">
        <ele>310.4</ele>
        <time>2022-09-12T07:50:33Z</time>
      </trkpt>
      <trkpt lat="47.23659" lon="6.06708">
        <ele>309.4</ele>
        <time>2022-09-12T07:50:25Z</time>
      </trkpt>
      <trkpt lat="47.23659" lon="6.06706">
        <ele>309.4</ele>
        <time>2022-09-12T07:50:24Z</time>
      </trkpt>
      <trkpt lat="47.23658" lon="6.06694">
        <ele>308.8</ele>
        <time>2022-09-12T07:50:18Z</time>
      </trkpt>
      <trkpt lat="47.23658" lon="6.06688">
        <ele>308.4</ele>
        <time>2022-09-12T07:50:15Z</time>
      </trkpt>
      <trkpt lat="47.23659" lon="6.06677">
        <ele>307.8</ele>
        <time>2022-09-12T07:50:10Z</time>
      </trkpt>
      <trkpt lat="47.23657" lon="6.06668">
        <ele>307.4</ele>
        <time>2022-09-12T07:50:06Z</time>
      </trkpt>
      <trkpt lat="47.23656" lon="6.06662">
        <ele>306.2</ele>
        <time>2022-09-12T07:50:03Z</time>
      </trkpt>
      <trkpt lat="47.23653" lon="6.06647">
        <ele>305.4</ele>
        <time>2022-09-12T07:49:56Z</time>
      </trkpt>
      <trkpt lat="47.23652" lon="6.06641">
        <ele>305.2</ele>
        <time>2022-09-12T07:49:53Z</time>
      </trkpt>
      <trkpt lat="47.2365" lon="6.06633">
        <ele>304</ele>
        <time>2022-09-12T07:49:50Z</time>
      </trkpt>
      <trkpt lat="47.2365" lon="6.06631">
        <ele>303.6</ele>
        <time>2022-09-12T07:49:49Z</time>
      </trkpt>
      <trkpt lat="47.23644" lon="6.06615">
        <ele>302.8</ele>
        <time>2022-09-12T07:49:41Z</time>
      </trkpt>
      <trkpt lat="47.23643" lon="6.06611">
        <ele>302.4</ele>
        <time>2022-09-12T07:49:39Z</time>
      </trkpt>
      <trkpt lat="47.23639" lon="6.06601">
        <ele>301.6</ele>
        <time>2022-09-12T07:49:34Z</time>
      </trkpt>
      <trkpt lat="47.23636" lon="6.06593">
        <ele>300.6</ele>
        <time>2022-09-12T07:49:30Z</time>
      </trkpt>
      <trkpt lat="47.23635" lon="6.0659">
        <ele>300.2</ele>
        <time>2022-09-12T07:49:29Z</time>
      </trkpt>
      <trkpt lat="47.23629" lon="6.06571">
        <ele>299.4</ele>
        <time>2022-09-12T07:49:20Z</time>
      </trkpt>
      <trkpt lat="47.23624" lon="6.06561">
        <ele>298.2</ele>
        <time>2022-09-12T07:49:15Z</time>
      </trkpt>
      <trkpt lat="47.23622" lon="6.06555">
        <ele>297.8</ele>
        <time>2022-09-12T07:49:12Z</time>
      </trkpt>
      <trkpt lat="47.2362" lon="6.06549">
        <ele>297.2</ele>
        <time>2022-09-12T07:49:09Z</time>
      </trkpt>
      <trkpt lat="47.23616" lon="6.06537">
        <ele>296</ele>
        <time>2022-09-12T07:49:04Z</time>
      </trkpt>
      <trkpt lat="47.2361" lon="6.06528">
        <ele>294.8</ele>
        <time>2022-09-12T07:49:00Z</time>
      </trkpt>
      <trkpt lat="47.23603" lon="6.06521">
        <ele>294</ele>
        <time>2022-09-12T07:48:56Z</time>
      </trkpt>
      <trkpt lat="47.23592" lon="6.06503">
        <ele>293.6</ele>
        <time>2022-09-12T07:48:49Z</time>
      </trkpt>
      <trkpt lat="47.2359" lon="6.06497">
        <ele>293.2</ele>
        <time>2022-09-12T07:48:47Z</time>
      </trkpt>
      <trkpt lat="47.23583" lon="6.06469">
        <ele>292.6</ele>
        <time>2022-09-12T07:48:38Z</time>
      </trkpt>
      <trkpt lat="47.23579" lon="6.06455">
        <ele>291.4</ele>
        <time>2022-09-12T07:48:33Z</time>
      </trkpt>
      <trkpt lat="47.23576" lon="6.06441">
        <ele>290.4</ele>
        <time>2022-09-12T07:48:28Z</time>
      </trkpt>
      <trkpt lat="47.23574" lon="6.06433">
        <ele>289.2</ele>
        <time>2022-09-12T07:48:25Z</time>
      </trkpt>
      <trkpt lat="47.23573" lon="6.06427">
        <ele>288.2</ele>
        <time>2022-09-12T07:48:22Z</time>
      </trkpt>
      <trkpt lat="47.23571" lon="6.06422">
        <ele>287.6</ele>
        <time>2022-09-12T07:48:20Z</time>
      </trkpt>
      <trkpt lat="47.23569" lon="6.06416">
        <ele>287</ele>
        <time>2022-09-12T07:48:17Z</time>
      </trkpt>
      <trkpt lat="47.23566" lon="6.06409">
        <ele>285.8</ele>
        <time>2022-09-12T07:48:14Z</time>
      </trkpt>
      <trkpt lat="47.23566" lon="6.06407">
        <ele>285.4</ele>
        <time>2022-09-12T07:48:13Z</time>
      </trkpt>
      <trkpt lat="47.23563" lon="6.06398">
        <ele>284.6</ele>
        <time>2022-09-12T07:48:09Z</time>
      </trkpt>
      <trkpt lat="47.23561" lon="6.06389">
        <ele>284</ele>
        <time>2022-09-12T07:48:05Z</time>
      </trkpt>
      <trkpt lat="47.2356" lon="6.06385">
        <ele>283.4</ele>
        <time>2022-09-12T07:48:03Z</time>
      </trkpt>
      <trkpt lat="47.23556" lon="6.06368">
        <ele>282.2</ele>
        <time>2022-09-12T07:47:56Z</time>
      </trkpt>
      <trkpt lat="47.23552" lon="6.06354">
        <ele>281</ele>
        <time>2022-09-12T07:47:50Z</time>
      </trkpt>
      <trkpt lat="47.23551" lon="6.06352">
        <ele>280.8</ele>
        <time>2022-09-12T07:47:49Z</time>
      </trkpt>
      <trkpt lat="47.23549" lon="6.06339">
        <ele>279.8</ele>
        <time>2022-09-12T07:47:44Z</time>
      </trkpt>
      <trkpt lat="47.23547" lon="6.06329">
        <ele>278.6</ele>
        <time>2022-09-12T07:47:40Z</time>
      </trkpt>
      <trkpt lat="47.23543" lon="6.06317">
        <ele>277.2</ele>
        <time>2022-09-12T07:47:35Z</time>
      </trkpt>
      <trkpt lat="47.23541" lon="6.0631">
        <ele>276.4</ele>
        <time>2022-09-12T07:47:32Z</time>
      </trkpt>
      <trkpt lat="47.23541" lon="6.06308">
        <ele>276</ele>
        <time>2022-09-12T07:47:31Z</time>
      </trkpt>
      <trkpt lat="47.23533" lon="6.06291">
        <ele>274.8</ele>
        <time>2022-09-12T07:47:23Z</time>
      </trkpt>
      <trkpt lat="47.23529" lon="6.06284">
        <ele>275</ele>
        <time>2022-09-12T07:47:20Z</time>
      </trkpt>
      <trkpt lat="47.23518" lon="6.06273">
        <ele>274</ele>
        <time>2022-09-12T07:47:13Z</time>
      </trkpt>
      <trkpt lat="47.23517" lon="6.06271">
        <ele>273.8</ele>
        <time>2022-09-12T07:47:12Z</time>
      </trkpt>
      <trkpt lat="47.23506" lon="6.0626">
        <ele>272.8</ele>
        <time>2022-09-12T07:47:06Z</time>
      </trkpt>
      <trkpt lat="47.23505" lon="6.06258">
        <ele>272.4</ele>
        <time>2022-09-12T07:47:05Z</time>
      </trkpt>
      <trkpt lat="47.23492" lon="6.06244">
        <ele>271.6</ele>
        <time>2022-09-12T07:46:57Z</time>
      </trkpt>
      <trkpt lat="47.2349" lon="6.06243">
        <ele>271.2</ele>
        <time>2022-09-12T07:46:56Z</time>
      </trkpt>
      <trkpt lat="47.23487" lon="6.0624">
        <ele>270.4</ele>
        <time>2022-09-12T07:46:54Z</time>
      </trkpt>
      <trkpt lat="47.23481" lon="6.06236">
        <ele>269.2</ele>
        <time>2022-09-12T07:46:51Z</time>
      </trkpt>
      <trkpt lat="47.23476" lon="6.06233">
        <ele>267.8</ele>
        <time>2022-09-12T07:46:48Z</time>
      </trkpt>
      <trkpt lat="47.23472" lon="6.06229">
        <ele>266.4</ele>
        <time>2022-09-12T07:46:45Z</time>
      </trkpt>
      <trkpt lat="47.23464" lon="6.0622">
        <ele>265.2</ele>
        <time>2022-09-12T07:46:40Z</time>
      </trkpt>
      <trkpt lat="47.23459" lon="6.06215">
        <ele>264.2</ele>
        <time>2022-09-12T07:46:37Z</time>
      </trkpt>
      <trkpt lat="47.23456" lon="6.06213">
        <ele>263</ele>
        <time>2022-09-12T07:46:35Z</time>
      </trkpt>
      <trkpt lat="47.23451" lon="6.0621">
        <ele>261.6</ele>
        <time>2022-09-12T07:46:33Z</time>
      </trkpt>
      <trkpt lat="47.23449" lon="6.06209">
        <ele>261.2</ele>
        <time>2022-09-12T07:46:32Z</time>
      </trkpt>
      <trkpt lat="47.23444" lon="6.06203">
        <ele>260.4</ele>
        <time>2022-09-12T07:46:29Z</time>
      </trkpt>
      <trkpt lat="47.23438" lon="6.06198">
        <ele>259.2</ele>
        <time>2022-09-12T07:46:25Z</time>
      </trkpt>
      <trkpt lat="47.23433" lon="6.06193">
        <ele>258.2</ele>
        <time>2022-09-12T07:46:22Z</time>
      </trkpt>
      <trkpt lat="47.23428" lon="6.06188">
        <ele>257</ele>
        <time>2022-09-12T07:46:18Z</time>
      </trkpt>
      <trkpt lat="47.2342" lon="6.06181">
        <ele>256.2</ele>
        <time>2022-09-12T07:46:13Z</time>
      </trkpt>
      <trkpt lat="47.23418" lon="6.06179">
        <ele>256</ele>
        <time>2022-09-12T07:46:12Z</time>
      </trkpt>
      <trkpt lat="47.23409" lon="6.06174">
        <ele>254.8</ele>
        <time>2022-09-12T07:46:07Z</time>
      </trkpt>
      <trkpt lat="47.23404" lon="6.06172">
        <ele>254.4</ele>
        <time>2022-09-12T07:46:04Z</time>
      </trkpt>
      <trkpt lat="47.23389" lon="6.06167">
        <ele>254</ele>
        <time>2022-09-12T07:45:56Z</time>
      </trkpt>
      <trkpt lat="47.23387" lon="6.06166">
        <ele>253.8</ele>
        <time>2022-09-12T07:45:55Z</time>
      </trkpt>
      <trkpt lat="47.23378" lon="6.06161">
        <ele>252.6</ele>
        <time>2022-09-12T07:45:50Z</time>
      </trkpt>
      <trkpt lat="47.23376" lon="6.0616">
        <ele>252.4</ele>
        <time>2022-09-12T07:45:49Z</time>
      </trkpt>
      <trkpt lat="47.23359" lon="6.06149">
        <ele>251.6</ele>
        <time>2022-09-12T07:45:41Z</time>
      </trkpt>
      <trkpt lat="47.23345" lon="6.06139">
        <ele>251.6</ele>
        <time>2022-09-12T07:45:35Z</time>
      </trkpt>
      <trkpt lat="47.23324" lon="6.06122">
        <ele>251.6</ele>
        <time>2022-09-12T07:45:29Z</time>
      </trkpt>
      <trkpt lat="47.23305" lon="6.06113">
        <ele>251.4</ele>
        <time>2022-09-12T07:45:25Z</time>
      </trkpt>
      <trkpt lat="47.23287" lon="6.06102">
        <ele>250.4</ele>
        <time>2022-09-12T07:45:21Z</time>
      </trkpt>
      <trkpt lat="47.23283" lon="6.06099">
        <ele>250.2</ele>
        <time>2022-09-12T07:45:20Z</time>
      </trkpt>
      <trkpt lat="47.23256" lon="6.06083">
        <ele>249.2</ele>
        <time>2022-09-12T07:45:13Z</time>
      </trkpt>
      <trkpt lat="47.23242" lon="6.06076">
        <ele>248.6</ele>
        <time>2022-09-12T07:45:09Z</time>
      </trkpt>
      <trkpt lat="47.23235" lon="6.06072">
        <ele>248.4</ele>
        <time>2022-09-12T07:45:07Z</time>
      </trkpt>
      <trkpt lat="47.23223" lon="6.06057">
        <ele>248.2</ele>
        <time>2022-09-12T07:45:03Z</time>
      </trkpt>
      <trkpt lat="47.2322" lon="6.06053">
        <ele>248.2</ele>
        <time>2022-09-12T07:45:02Z</time>
      </trkpt>
      <trkpt lat="47.23206" lon="6.06016">
        <ele>247</ele>
        <time>2022-09-12T07:44:55Z</time>
      </trkpt>
      <trkpt lat="47.23198" lon="6.06002">
        <ele>247</ele>
        <time>2022-09-12T07:44:52Z</time>
      </trkpt>
      <trkpt lat="47.23185" lon="6.05987">
        <ele>247.2</ele>
        <time>2022-09-12T07:44:48Z</time>
      </trkpt>
      <trkpt lat="47.23169" lon="6.05965">
        <ele>247.6</ele>
        <time>2022-09-12T07:44:43Z</time>
      </trkpt>
      <trkpt lat="47.23165" lon="6.05961">
        <ele>247.6</ele>
        <time>2022-09-12T07:44:42Z</time>
      </trkpt>
      <trkpt lat="47.23141" lon="6.05932">
        <ele>247.8</ele>
        <time>2022-09-12T07:44:35Z</time>
      </trkpt>
      <trkpt lat="47.23113" lon="6.05898">
        <ele>248</ele>
        <time>2022-09-12T07:44:27Z</time>
      </trkpt>
      <trkpt lat="47.23106" lon="6.05891">
        <ele>248.2</ele>
        <time>2022-09-12T07:44:25Z</time>
      </trkpt>
      <trkpt lat="47.23096" lon="6.05882">
        <ele>248.4</ele>
        <time>2022-09-12T07:44:22Z</time>
      </trkpt>
      <trkpt lat="47.23091" lon="6.05873">
        <ele>248.4</ele>
        <time>2022-09-12T07:44:20Z</time>
      </trkpt>
      <trkpt lat="47.2309" lon="6.05869">
        <ele>248.4</ele>
        <time>2022-09-12T07:44:19Z</time>
      </trkpt>
      <trkpt lat="47.23094" lon="6.05852">
        <ele>247.6</ele>
        <time>2022-09-12T07:44:15Z</time>
      </trkpt>
      <trkpt lat="47.2308" lon="6.0583">
        <ele>248</ele>
        <time>2022-09-12T07:44:09Z</time>
      </trkpt>
      <trkpt lat="47.23075" lon="6.05825">
        <ele>248.2</ele>
        <time>2022-09-12T07:44:07Z</time>
      </trkpt>
      <trkpt lat="47.23075" lon="6.05822">
        <ele>248.4</ele>
        <time>2022-09-12T07:44:06Z</time>
      </trkpt>
      <trkpt lat="47.23064" lon="6.05812">
        <ele>249.2</ele>
        <time>2022-09-12T07:44:02Z</time>
      </trkpt>
      <trkpt lat="47.23059" lon="6.05807">
        <ele>249.6</ele>
        <time>2022-09-12T07:44:00Z</time>
      </trkpt>
      <trkpt lat="47.23059" lon="6.05802">
        <ele>249.8</ele>
        <time>2022-09-12T07:43:59Z</time>
      </trkpt>
      <trkpt lat="47.23062" lon="6.05795">
        <ele>250.2</ele>
        <time>2022-09-12T07:43:57Z</time>
      </trkpt>
      <trkpt lat="47.23063" lon="6.05792">
        <ele>250.4</ele>
        <time>2022-09-12T07:43:56Z</time>
      </trkpt>
      <trkpt lat="47.23076" lon="6.058">
        <ele>251.4</ele>
        <time>2022-09-12T07:43:52Z</time>
      </trkpt>
      <trkpt lat="47.23097" lon="6.05818">
        <ele>253</ele>
        <time>2022-09-12T07:43:47Z</time>
      </trkpt>
      <trkpt lat="47.23104" lon="6.05826">
        <ele>253.4</ele>
        <time>2022-09-12T07:43:44Z</time>
      </trkpt>
      <trkpt lat="47.23117" lon="6.05801">
        <ele>252.8</ele>
        <time>2022-09-12T07:43:38Z</time>
      </trkpt>
      <trkpt lat="47.23127" lon="6.05781">
        <ele>252.4</ele>
        <time>2022-09-12T07:43:34Z</time>
      </trkpt>
      <trkpt lat="47.2314" lon="6.05752">
        <ele>251.6</ele>
        <time>2022-09-12T07:43:28Z</time>
      </trkpt>
      <trkpt lat="47.23153" lon="6.05727">
        <ele>251.6</ele>
        <time>2022-09-12T07:43:22Z</time>
      </trkpt>
      <trkpt lat="47.23155" lon="6.05724">
        <ele>251.4</ele>
        <time>2022-09-12T07:43:21Z</time>
      </trkpt>
      <trkpt lat="47.23156" lon="6.05721">
        <ele>251.2</ele>
        <time>2022-09-12T07:43:20Z</time>
      </trkpt>
      <trkpt lat="47.23155" lon="6.05718">
        <ele>251</ele>
        <time>2022-09-12T07:43:19Z</time>
      </trkpt>
      <trkpt lat="47.23137" lon="6.05706">
        <ele>250.4</ele>
        <time>2022-09-12T07:43:13Z</time>
      </trkpt>
      <trkpt lat="47.23131" lon="6.05701">
        <ele>249.8</ele>
        <time>2022-09-12T07:43:11Z</time>
      </trkpt>
      <trkpt lat="47.23119" lon="6.05693">
        <ele>249.2</ele>
        <time>2022-09-12T07:43:07Z</time>
      </trkpt>
      <trkpt lat="47.23109" lon="6.05686">
        <ele>249.2</ele>
        <time>2022-09-12T07:43:04Z</time>
      </trkpt>
      <trkpt lat="47.23106" lon="6.05684">
        <ele>249.2</ele>
        <time>2022-09-12T07:43:03Z</time>
      </trkpt>
      <trkpt lat="47.23093" lon="6.05671">
        <ele>249</ele>
        <time>2022-09-12T07:42:59Z</time>
      </trkpt>
      <trkpt lat="47.23089" lon="6.0566">
        <ele>248.8</ele>
        <time>2022-09-12T07:42:57Z</time>
      </trkpt>
      <trkpt lat="47.23088" lon="6.05624">
        <ele>248.8</ele>
        <time>2022-09-12T07:42:51Z</time>
      </trkpt>
      <trkpt lat="47.23089" lon="6.05608">
        <ele>248.2</ele>
        <time>2022-09-12T07:42:48Z</time>
      </trkpt>
      <trkpt lat="47.2309" lon="6.05595">
        <ele>247.8</ele>
        <time>2022-09-12T07:42:45Z</time>
      </trkpt>
      <trkpt lat="47.23091" lon="6.05585">
        <ele>247.4</ele>
        <time>2022-09-12T07:42:43Z</time>
      </trkpt>
      <trkpt lat="47.23091" lon="6.05566">
        <ele>247.2</ele>
        <time>2022-09-12T07:42:40Z</time>
      </trkpt>
      <trkpt lat="47.23086" lon="6.05545">
        <ele>247.2</ele>
        <time>2022-09-12T07:42:37Z</time>
      </trkpt>
      <trkpt lat="47.2308" lon="6.05534">
        <ele>247.4</ele>
        <time>2022-09-12T07:42:35Z</time>
      </trkpt>
      <trkpt lat="47.23042" lon="6.05487">
        <ele>248</ele>
        <time>2022-09-12T07:42:25Z</time>
      </trkpt>
      <trkpt lat="47.23011" lon="6.05441">
        <ele>247.8</ele>
        <time>2022-09-12T07:42:16Z</time>
      </trkpt>
      <trkpt lat="47.22985" lon="6.0539">
        <ele>247.4</ele>
        <time>2022-09-12T07:42:07Z</time>
      </trkpt>
      <trkpt lat="47.22954" lon="6.05323">
        <ele>248</ele>
        <time>2022-09-12T07:41:56Z</time>
      </trkpt>
      <trkpt lat="47.22948" lon="6.05311">
        <ele>248.2</ele>
        <time>2022-09-12T07:41:54Z</time>
      </trkpt>
      <trkpt lat="47.22929" lon="6.05268">
        <ele>249.2</ele>
        <time>2022-09-12T07:41:47Z</time>
      </trkpt>
      <trkpt lat="47.2291" lon="6.05223">
        <ele>249.8</ele>
        <time>2022-09-12T07:41:40Z</time>
      </trkpt>
      <trkpt lat="47.22887" lon="6.05164">
        <ele>250</ele>
        <time>2022-09-12T07:41:31Z</time>
      </trkpt>
      <trkpt lat="47.22866" lon="6.05111">
        <ele>249.4</ele>
        <time>2022-09-12T07:41:23Z</time>
      </trkpt>
      <trkpt lat="47.22858" lon="6.05092">
        <ele>249.2</ele>
        <time>2022-09-12T07:41:20Z</time>
      </trkpt>
      <trkpt lat="47.22845" lon="6.05059">
        <ele>248.4</ele>
        <time>2022-09-12T07:41:15Z</time>
      </trkpt>
      <trkpt lat="47.22826" lon="6.05013">
        <ele>248.6</ele>
        <time>2022-09-12T07:41:08Z</time>
      </trkpt>
      <trkpt lat="47.22802" lon="6.04958">
        <ele>248.4</ele>
        <time>2022-09-12T07:40:59Z</time>
      </trkpt>
      <trkpt lat="47.22794" lon="6.0494">
        <ele>248.2</ele>
        <time>2022-09-12T07:40:56Z</time>
      </trkpt>
      <trkpt lat="47.22792" lon="6.04934">
        <ele>248</ele>
        <time>2022-09-12T07:40:55Z</time>
      </trkpt>
      <trkpt lat="47.22787" lon="6.04914">
        <ele>247.6</ele>
        <time>2022-09-12T07:40:52Z</time>
      </trkpt>
      <trkpt lat="47.22776" lon="6.04854">
        <ele>247.2</ele>
        <time>2022-09-12T07:40:43Z</time>
      </trkpt>
      <trkpt lat="47.22773" lon="6.04834">
        <ele>247</ele>
        <time>2022-09-12T07:40:40Z</time>
      </trkpt>
      <trkpt lat="47.22767" lon="6.04795">
        <ele>246.4</ele>
        <time>2022-09-12T07:40:34Z</time>
      </trkpt>
      <trkpt lat="47.22758" lon="6.04741">
        <ele>246</ele>
        <time>2022-09-12T07:40:26Z</time>
      </trkpt>
      <trkpt lat="47.22753" lon="6.04687">
        <ele>246.2</ele>
        <time>2022-09-12T07:40:18Z</time>
      </trkpt>
      <trkpt lat="47.22755" lon="6.04617">
        <ele>246.2</ele>
        <time>2022-09-12T07:40:08Z</time>
      </trkpt>
      <trkpt lat="47.22756" lon="6.04604">
        <ele>246</ele>
        <time>2022-09-12T07:40:06Z</time>
      </trkpt>
      <trkpt lat="47.22757" lon="6.04574">
        <ele>245.2</ele>
        <time>2022-09-12T07:40:01Z</time>
      </trkpt>
      <trkpt lat="47.22759" lon="6.04543">
        <ele>245</ele>
        <time>2022-09-12T07:39:54Z</time>
      </trkpt>
      <trkpt lat="47.22765" lon="6.04514">
        <ele>244.6</ele>
        <time>2022-09-12T07:39:46Z</time>
      </trkpt>
      <trkpt lat="47.22779" lon="6.04478">
        <ele>244</ele>
        <time>2022-09-12T07:39:38Z</time>
      </trkpt>
      <trkpt lat="47.22806" lon="6.04428">
        <ele>244.4</ele>
        <time>2022-09-12T07:39:28Z</time>
      </trkpt>
      <trkpt lat="47.2282" lon="6.04403">
        <ele>245</ele>
        <time>2022-09-12T07:39:23Z</time>
      </trkpt>
      <trkpt lat="47.22826" lon="6.0439">
        <ele>245.2</ele>
        <time>2022-09-12T07:39:20Z</time>
      </trkpt>
      <trkpt lat="47.22845" lon="6.04356">
        <ele>245.6</ele>
        <time>2022-09-12T07:39:11Z</time>
      </trkpt>
      <trkpt lat="47.22866" lon="6.04308">
        <ele>246</ele>
        <time>2022-09-12T07:39:00Z</time>
      </trkpt>
      <trkpt lat="47.22867" lon="6.04303">
        <ele>246</ele>
        <time>2022-09-12T07:38:59Z</time>
      </trkpt>
      <trkpt lat="47.22878" lon="6.04277">
        <ele>247</ele>
        <time>2022-09-12T07:38:53Z</time>
      </trkpt>
      <trkpt lat="47.2288" lon="6.04272">
        <ele>247.4</ele>
        <time>2022-09-12T07:38:52Z</time>
      </trkpt>
      <trkpt lat="47.22886" lon="6.0426">
        <ele>248.2</ele>
        <time>2022-09-12T07:38:49Z</time>
      </trkpt>
      <trkpt lat="47.22892" lon="6.04249">
        <ele>249.2</ele>
        <time>2022-09-12T07:38:46Z</time>
      </trkpt>
      <trkpt lat="47.22896" lon="6.04241">
        <ele>250</ele>
        <time>2022-09-12T07:38:44Z</time>
      </trkpt>
      <trkpt lat="47.22898" lon="6.04237">
        <ele>250.4</ele>
        <time>2022-09-12T07:38:43Z</time>
      </trkpt>
      <trkpt lat="47.22905" lon="6.04225">
        <ele>252</ele>
        <time>2022-09-12T07:38:40Z</time>
      </trkpt>
      <trkpt lat="47.22909" lon="6.04218">
        <ele>253.2</ele>
        <time>2022-09-12T07:38:38Z</time>
      </trkpt>
      <trkpt lat="47.22914" lon="6.0421">
        <ele>254.6</ele>
        <time>2022-09-12T07:38:36Z</time>
      </trkpt>
      <trkpt lat="47.22917" lon="6.04207">
        <ele>255.4</ele>
        <time>2022-09-12T07:38:35Z</time>
      </trkpt>
      <trkpt lat="47.2292" lon="6.04207">
        <ele>256.2</ele>
        <time>2022-09-12T07:38:34Z</time>
      </trkpt>
      <trkpt lat="47.22921" lon="6.04213">
        <ele>257.6</ele>
        <time>2022-09-12T07:38:32Z</time>
      </trkpt>
      <trkpt lat="47.22915" lon="6.04224">
        <ele>258.8</ele>
        <time>2022-09-12T07:38:30Z</time>
      </trkpt>
      <trkpt lat="47.2291" lon="6.04231">
        <ele>259.6</ele>
        <time>2022-09-12T07:38:29Z</time>
      </trkpt>
      <trkpt lat="47.22906" lon="6.0424">
        <ele>260.4</ele>
        <time>2022-09-12T07:38:28Z</time>
      </trkpt>
      <trkpt lat="47.22898" lon="6.0426">
        <ele>262.2</ele>
        <time>2022-09-12T07:38:26Z</time>
      </trkpt>
      <trkpt lat="47.22894" lon="6.04272">
        <ele>263.2</ele>
        <time>2022-09-12T07:38:25Z</time>
      </trkpt>
      <trkpt lat="47.22892" lon="6.04285">
        <ele>264.2</ele>
        <time>2022-09-12T07:38:24Z</time>
      </trkpt>
      <trkpt lat="47.2289" lon="6.04298">
        <ele>265.4</ele>
        <time>2022-09-12T07:38:23Z</time>
      </trkpt>
      <trkpt lat="47.22888" lon="6.04311">
        <ele>266.8</ele>
        <time>2022-09-12T07:38:22Z</time>
      </trkpt>
      <trkpt lat="47.22887" lon="6.04326">
        <ele>268</ele>
        <time>2022-09-12T07:38:21Z</time>
      </trkpt>
      <trkpt lat="47.22887" lon="6.04339">
        <ele>269.2</ele>
        <time>2022-09-12T07:38:20Z</time>
      </trkpt>
      <trkpt lat="47.22888" lon="6.04354">
        <ele>270.2</ele>
        <time>2022-09-12T07:38:19Z</time>
      </trkpt>
      <trkpt lat="47.22889" lon="6.04368">
        <ele>271.4</ele>
        <time>2022-09-12T07:38:18Z</time>
      </trkpt>
      <trkpt lat="47.22889" lon="6.04382">
        <ele>272.4</ele>
        <time>2022-09-12T07:38:17Z</time>
      </trkpt>
      <trkpt lat="47.22892" lon="6.04411">
        <ele>274.4</ele>
        <time>2022-09-12T07:38:15Z</time>
        <extensions>
          <visugpx:TrkExtension xmlns:visugpx="https://www.visugpx.com/editgpx/">
            <visugpx:node>1</visugpx:node>
            </visugpx:TrkExtension>
        </extensions>
      </trkpt>
    </trkseg>
  </trk>
</gpx>